﻿<?xml version="1.0" encoding="utf-8"?><gpx creator="Garmin Desktop App" version="1.1" xsi:schemaLocation="http://www.topografix.com/GPX/1/1 http://www.topografix.com/GPX/1/1/gpx.xsd http://www.garmin.com/xmlschemas/WaypointExtension/v1 http://www8.garmin.com/xmlschemas/WaypointExtensionv1.xsd http://www.garmin.com/xmlschemas/TrackPointExtension/v1 http://www.garmin.com/xmlschemas/TrackPointExtensionv1.xsd http://www.garmin.com/xmlschemas/GpxExtensions/v3 http://www8.garmin.com/xmlschemas/GpxExtensionsv3.xsd http://www.garmin.com/xmlschemas/ActivityExtension/v1 http://www8.garmin.com/xmlschemas/ActivityExtensionv1.xsd http://www.garmin.com/xmlschemas/AdventuresExtensions/v1 http://www8.garmin.com/xmlschemas/AdventuresExtensionv1.xsd http://www.garmin.com/xmlschemas/PressureExtension/v1 http://www.garmin.com/xmlschemas/PressureExtensionv1.xsd http://www.garmin.com/xmlschemas/TripExtensions/v1 http://www.garmin.com/xmlschemas/TripExtensionsv1.xsd http://www.garmin.com/xmlschemas/TripMetaDataExtensions/v1 http://www.garmin.com/xmlschemas/TripMetaDataExtensionsv1.xsd http://www.garmin.com/xmlschemas/ViaPointTransportationModeExtensions/v1 http://www.garmin.com/xmlschemas/ViaPointTransportationModeExtensionsv1.xsd http://www.garmin.com/xmlschemas/CreationTimeExtension/v1 http://www.garmin.com/xmlschemas/CreationTimeExtensionsv1.xsd http://www.garmin.com/xmlschemas/AccelerationExtension/v1 http://www.garmin.com/xmlschemas/AccelerationExtensionv1.xsd http://www.garmin.com/xmlschemas/PowerExtension/v1 http://www.garmin.com/xmlschemas/PowerExtensionv1.xsd http://www.garmin.com/xmlschemas/VideoExtension/v1 http://www.garmin.com/xmlschemas/VideoExtensionv1.xsd" xmlns="http://www.topografix.com/GPX/1/1" xmlns:xsi="http://www.w3.org/2001/XMLSchema-instance" xmlns:wptx1="http://www.garmin.com/xmlschemas/WaypointExtension/v1" xmlns:gpxtrx="http://www.garmin.com/xmlschemas/GpxExtensions/v3" xmlns:gpxtpx="http://www.garmin.com/xmlschemas/TrackPointExtension/v1" xmlns:gpxx="http://www.garmin.com/xmlschemas/GpxExtensions/v3" xmlns:trp="http://www.garmin.com/xmlschemas/TripExtensions/v1" xmlns:adv="http://www.garmin.com/xmlschemas/AdventuresExtensions/v1" xmlns:prs="http://www.garmin.com/xmlschemas/PressureExtension/v1" xmlns:tmd="http://www.garmin.com/xmlschemas/TripMetaDataExtensions/v1" xmlns:vptm="http://www.garmin.com/xmlschemas/ViaPointTransportationModeExtensions/v1" xmlns:ctx="http://www.garmin.com/xmlschemas/CreationTimeExtension/v1" xmlns:gpxacc="http://www.garmin.com/xmlschemas/AccelerationExtension/v1" xmlns:gpxpx="http://www.garmin.com/xmlschemas/PowerExtension/v1" xmlns:vidx1="http://www.garmin.com/xmlschemas/VideoExtension/v1">

  <metadata>
    <link href="http://www.garmin.com">
      <text>Garmin International</text>
    </link>
    <time>2023-08-23T18:40:04Z</time>
    <bounds maxlat="59.008501013740897" maxlon="-2.94920900836587" minlat="57.977416031062603" minlon="-4.572178982198238" />
  </metadata>

  <trk>
    <name>Track 230822</name>
    <extensions>
      <gpxx:TrackExtension>
        <gpxx:DisplayColor>DarkGray</gpxx:DisplayColor>
      </gpxx:TrackExtension>
    </extensions>
    <trkseg>
      <trkpt lat="58.984231967478991" lon="-2.949330965057015">
        <ele>30.899999999999999</ele>
        <time>2023-08-22T08:04:42Z</time>
      </trkpt>
      <trkpt lat="58.984163990244269" lon="-2.949259970337153">
        <ele>52.530000000000001</ele>
        <time>2023-08-22T08:05:10Z</time>
      </trkpt>
      <trkpt lat="58.984189974144101" lon="-2.949244966730475">
        <ele>40.990000000000002</ele>
        <time>2023-08-22T08:05:50Z</time>
      </trkpt>
      <trkpt lat="58.984227022156119" lon="-2.94920900836587">
        <ele>40.030000000000001</ele>
        <time>2023-08-22T08:06:30Z</time>
      </trkpt>
      <trkpt lat="58.984227022156119" lon="-2.94920900836587">
        <ele>40.030000000000001</ele>
        <time>2023-08-22T08:06:53Z</time>
      </trkpt>
      <trkpt lat="58.984244037419558" lon="-2.949211020022631">
        <ele>38.109999999999999</ele>
        <time>2023-08-22T08:07:22Z</time>
      </trkpt>
      <trkpt lat="58.984305979683995" lon="-2.94942400418222">
        <ele>33.780000000000001</ele>
        <time>2023-08-22T08:07:33Z</time>
      </trkpt>
      <trkpt lat="58.984390972182155" lon="-2.949733966961503">
        <ele>32.82</ele>
        <time>2023-08-22T08:07:37Z</time>
      </trkpt>
      <trkpt lat="58.984439000487328" lon="-2.950397981330752">
        <ele>32.340000000000003</ele>
        <time>2023-08-22T08:07:40Z</time>
      </trkpt>
      <trkpt lat="58.9844870287925" lon="-2.950422037392855">
        <ele>32.340000000000003</ele>
        <time>2023-08-22T08:07:41Z</time>
      </trkpt>
      <trkpt lat="58.98453002795577" lon="-2.950443997979164">
        <ele>32.340000000000003</ele>
        <time>2023-08-22T08:07:42Z</time>
      </trkpt>
      <trkpt lat="58.984567997977138" lon="-2.950463024899364">
        <ele>32.340000000000003</ele>
        <time>2023-08-22T08:07:43Z</time>
      </trkpt>
      <trkpt lat="58.984604040160775" lon="-2.950480962172151">
        <ele>32.340000000000003</ele>
        <time>2023-08-22T08:07:44Z</time>
      </trkpt>
      <trkpt lat="58.98478701710701" lon="-2.950288010761142">
        <ele>31.379999999999999</ele>
        <time>2023-08-22T08:07:53Z</time>
      </trkpt>
      <trkpt lat="58.984775030985475" lon="-2.950412984937429">
        <ele>30.420000000000002</ele>
        <time>2023-08-22T08:07:58Z</time>
      </trkpt>
      <trkpt lat="58.984760027378798" lon="-2.950558997690678">
        <ele>29.940000000000001</ele>
        <time>2023-08-22T08:07:59Z</time>
      </trkpt>
      <trkpt lat="58.984746029600501" lon="-2.950654970481992">
        <ele>29.460000000000001</ele>
        <time>2023-08-22T08:08:00Z</time>
      </trkpt>
      <trkpt lat="58.984502032399178" lon="-2.952382983639836">
        <ele>21.289999999999999</ele>
        <time>2023-08-22T08:08:11Z</time>
      </trkpt>
      <trkpt lat="58.984457021579146" lon="-2.952543999999762">
        <ele>20.32</ele>
        <time>2023-08-22T08:08:12Z</time>
      </trkpt>
      <trkpt lat="58.984273038804531" lon="-2.953294012695551">
        <ele>16</ele>
        <time>2023-08-22T08:08:18Z</time>
      </trkpt>
      <trkpt lat="58.984256023541093" lon="-2.953408006578684">
        <ele>15.039999999999999</ele>
        <time>2023-08-22T08:08:19Z</time>
      </trkpt>
      <trkpt lat="58.984238002449274" lon="-2.95352996326983">
        <ele>14.08</ele>
        <time>2023-08-22T08:08:20Z</time>
      </trkpt>
      <trkpt lat="58.984219981357455" lon="-2.953664995729923">
        <ele>13.119999999999999</ele>
        <time>2023-08-22T08:08:21Z</time>
      </trkpt>
      <trkpt lat="58.984201038256288" lon="-2.953811008483172">
        <ele>12.15</ele>
        <time>2023-08-22T08:08:22Z</time>
      </trkpt>
      <trkpt lat="58.984182011336088" lon="-2.953960038721561">
        <ele>11.19</ele>
        <time>2023-08-22T08:08:23Z</time>
      </trkpt>
      <trkpt lat="58.983997022733092" lon="-2.95537599362433">
        <ele>2.54</ele>
        <time>2023-08-22T08:08:33Z</time>
      </trkpt>
      <trkpt lat="58.983984030783176" lon="-2.955467021092773">
        <ele>2.06</ele>
        <time>2023-08-22T08:08:34Z</time>
      </trkpt>
      <trkpt lat="58.983971038833261" lon="-2.955530975013971">
        <ele>1.1</ele>
        <time>2023-08-22T08:08:35Z</time>
      </trkpt>
      <trkpt lat="58.984014037996531" lon="-2.955480013042688">
        <ele>0.62</ele>
        <time>2023-08-22T08:08:36Z</time>
      </trkpt>
      <trkpt lat="58.98405603133142" lon="-2.95552502386272">
        <ele>0.14</ele>
        <time>2023-08-22T08:08:37Z</time>
      </trkpt>
      <trkpt lat="58.984110010787845" lon="-2.955584032461047">
        <ele>-0.34</ele>
        <time>2023-08-22T08:08:38Z</time>
      </trkpt>
      <trkpt lat="58.98416499607265" lon="-2.955643963068724">
        <ele>-0.82</ele>
        <time>2023-08-22T08:08:39Z</time>
      </trkpt>
      <trkpt lat="58.984343027696013" lon="-2.955836998298764">
        <ele>-1.79</ele>
        <time>2023-08-22T08:08:42Z</time>
      </trkpt>
      <trkpt lat="58.985199993476272" lon="-2.956692036241293">
        <ele>-6.11</ele>
        <time>2023-08-22T08:08:55Z</time>
      </trkpt>
      <trkpt lat="58.985232012346387" lon="-2.95675196684897">
        <ele>-6.11</ele>
        <time>2023-08-22T08:08:56Z</time>
      </trkpt>
      <trkpt lat="58.985309964045882" lon="-2.956956988200545">
        <ele>-6.59</ele>
        <time>2023-08-22T08:08:57Z</time>
      </trkpt>
      <trkpt lat="58.985276017338037" lon="-2.957091014832258">
        <ele>-7.07</ele>
        <time>2023-08-22T08:08:58Z</time>
      </trkpt>
      <trkpt lat="58.985245004296303" lon="-2.957173995673657">
        <ele>-7.07</ele>
        <time>2023-08-22T08:08:59Z</time>
      </trkpt>
      <trkpt lat="58.985209967941046" lon="-2.95726602897048">
        <ele>-7.55</ele>
        <time>2023-08-22T08:09:00Z</time>
      </trkpt>
      <trkpt lat="58.985178032889962" lon="-2.957351021468639">
        <ele>-7.55</ele>
        <time>2023-08-22T08:09:01Z</time>
      </trkpt>
      <trkpt lat="58.985146014019847" lon="-2.957434002310038">
        <ele>-7.55</ele>
        <time>2023-08-22T08:09:02Z</time>
      </trkpt>
      <trkpt lat="58.985116006806493" lon="-2.957513965666294">
        <ele>-7.55</ele>
        <time>2023-08-22T08:09:03Z</time>
      </trkpt>
      <trkpt lat="58.985060015693307" lon="-2.957660984247923">
        <ele>-8.029999999999999</ele>
        <time>2023-08-22T08:09:05Z</time>
      </trkpt>
      <trkpt lat="58.984919032081962" lon="-2.958225002512336">
        <ele>-8.029999999999999</ele>
        <time>2023-08-22T08:09:11Z</time>
      </trkpt>
      <trkpt lat="58.984904028475285" lon="-2.958286022767425">
        <ele>-8.51</ele>
        <time>2023-08-22T08:09:12Z</time>
      </trkpt>
      <trkpt lat="58.984891958534718" lon="-2.958332039415836">
        <ele>-9</ele>
        <time>2023-08-22T08:09:13Z</time>
      </trkpt>
      <trkpt lat="58.984885001555085" lon="-2.958359029144049">
        <ele>-9.48</ele>
        <time>2023-08-22T08:09:14Z</time>
      </trkpt>
      <trkpt lat="58.984821969643235" lon="-2.958611994981766">
        <ele>-11.880000000000001</ele>
        <time>2023-08-22T08:09:23Z</time>
      </trkpt>
      <trkpt lat="58.984648967161775" lon="-2.960195001214743">
        <ele>-16.210000000000001</ele>
        <time>2023-08-22T08:09:37Z</time>
      </trkpt>
      <trkpt lat="58.984635975211859" lon="-2.96031997539103">
        <ele>-16.210000000000001</ele>
        <time>2023-08-22T08:09:38Z</time>
      </trkpt>
      <trkpt lat="58.984622983261943" lon="-2.960442015901208">
        <ele>-16.690000000000001</ele>
        <time>2023-08-22T08:09:39Z</time>
      </trkpt>
      <trkpt lat="58.984610997140408" lon="-2.960561038926244">
        <ele>-16.690000000000001</ele>
        <time>2023-08-22T08:09:40Z</time>
      </trkpt>
      <trkpt lat="58.984523992985487" lon="-2.960659023374319">
        <ele>-17.170000000000002</ele>
        <time>2023-08-22T08:09:41Z</time>
      </trkpt>
      <trkpt lat="58.984523992985487" lon="-2.960750972852111">
        <ele>-17.170000000000002</ele>
        <time>2023-08-22T08:09:42Z</time>
      </trkpt>
      <trkpt lat="58.984589958563447" lon="-2.960922969505191">
        <ele>-16.690000000000001</ele>
        <time>2023-08-22T08:09:43Z</time>
      </trkpt>
      <trkpt lat="58.984592976048589" lon="-2.961068982258439">
        <ele>-16.210000000000001</ele>
        <time>2023-08-22T08:09:44Z</time>
      </trkpt>
      <trkpt lat="58.984662964940071" lon="-2.962654000148177">
        <ele>-14.76</ele>
        <time>2023-08-22T08:09:55Z</time>
      </trkpt>
      <trkpt lat="58.984675034880638" lon="-2.962804036214948">
        <ele>-14.76</ele>
        <time>2023-08-22T08:09:56Z</time>
      </trkpt>
      <trkpt lat="58.984719961881638" lon="-2.963408958166838">
        <ele>-13.800000000000001</ele>
        <time>2023-08-22T08:10:00Z</time>
      </trkpt>
      <trkpt lat="58.984828004613519" lon="-2.965364959090948">
        <ele>-9.48</ele>
        <time>2023-08-22T08:10:11Z</time>
      </trkpt>
      <trkpt lat="58.985267970710993" lon="-2.96792202629149">
        <ele>-9</ele>
        <time>2023-08-22T08:10:23Z</time>
      </trkpt>
      <trkpt lat="58.985872976481915" lon="-2.970001995563507">
        <ele>-8.029999999999999</ele>
        <time>2023-08-22T08:10:35Z</time>
      </trkpt>
      <trkpt lat="58.98611999116838" lon="-2.970645977184176">
        <ele>-7.07</ele>
        <time>2023-08-22T08:10:43Z</time>
      </trkpt>
      <trkpt lat="58.986319983378053" lon="-2.971259029582143">
        <ele>-6.11</ele>
        <time>2023-08-22T08:10:48Z</time>
      </trkpt>
      <trkpt lat="58.986318977549672" lon="-2.971437983214855">
        <ele>-6.11</ele>
        <time>2023-08-22T08:10:49Z</time>
      </trkpt>
      <trkpt lat="58.986283019185066" lon="-2.972295032814145">
        <ele>-4.67</ele>
        <time>2023-08-22T08:10:53Z</time>
      </trkpt>
      <trkpt lat="58.986298022791743" lon="-2.972463006153703">
        <ele>-4.19</ele>
        <time>2023-08-22T08:10:54Z</time>
      </trkpt>
      <trkpt lat="58.986633969470859" lon="-2.975244037806988">
        <ele>3.98</ele>
        <time>2023-08-22T08:11:05Z</time>
      </trkpt>
      <trkpt lat="58.987207962200046" lon="-2.97836403362453">
        <ele>13.6</ele>
        <time>2023-08-22T08:11:17Z</time>
      </trkpt>
      <trkpt lat="58.988250000402331" lon="-2.982504023239017">
        <ele>27.050000000000001</ele>
        <time>2023-08-22T08:11:33Z</time>
      </trkpt>
      <trkpt lat="58.989090034738183" lon="-2.985170977190137">
        <ele>30.420000000000002</ele>
        <time>2023-08-22T08:11:43Z</time>
      </trkpt>
      <trkpt lat="58.990573966875672" lon="-2.988737979903817">
        <ele>38.590000000000003</ele>
        <time>2023-08-22T08:11:57Z</time>
      </trkpt>
      <trkpt lat="58.991915993392467" lon="-2.991875996813178">
        <ele>46.759999999999998</ele>
        <time>2023-08-22T08:12:10Z</time>
      </trkpt>
      <trkpt lat="58.992424020543694" lon="-2.99291200004518">
        <ele>47.240000000000002</ele>
        <time>2023-08-22T08:12:14Z</time>
      </trkpt>
      <trkpt lat="58.992581013590097" lon="-2.993128001689911">
        <ele>47.240000000000002</ele>
        <time>2023-08-22T08:12:15Z</time>
      </trkpt>
      <trkpt lat="58.992739012464881" lon="-2.993325982242823">
        <ele>47.240000000000002</ele>
        <time>2023-08-22T08:12:16Z</time>
      </trkpt>
      <trkpt lat="58.993626991286874" lon="-2.994031989946961">
        <ele>45.32</ele>
        <time>2023-08-22T08:12:21Z</time>
      </trkpt>
      <trkpt lat="58.993819020688534" lon="-2.99409301020205">
        <ele>44.840000000000003</ele>
        <time>2023-08-22T08:12:22Z</time>
      </trkpt>
      <trkpt lat="58.994012977927923" lon="-2.994139026850462">
        <ele>44.359999999999999</ele>
        <time>2023-08-22T08:12:23Z</time>
      </trkpt>
      <trkpt lat="58.994208024814725" lon="-2.994139026850462">
        <ele>43.880000000000003</ele>
        <time>2023-08-22T08:12:24Z</time>
      </trkpt>
      <trkpt lat="58.994400976225734" lon="-2.994128968566656">
        <ele>43.399999999999999</ele>
        <time>2023-08-22T08:12:25Z</time>
      </trkpt>
      <trkpt lat="58.994597028940916" lon="-2.994087981060147">
        <ele>42.439999999999998</ele>
        <time>2023-08-22T08:12:26Z</time>
      </trkpt>
      <trkpt lat="58.994788974523544" lon="-2.994034001603723">
        <ele>41.950000000000003</ele>
        <time>2023-08-22T08:12:27Z</time>
      </trkpt>
      <trkpt lat="58.994973041117191" lon="-2.993916990235448">
        <ele>41.469999999999999</ele>
        <time>2023-08-22T08:12:28Z</time>
      </trkpt>
      <trkpt lat="58.995156018063426" lon="-2.993800984695554">
        <ele>40.990000000000002</ele>
        <time>2023-08-22T08:12:29Z</time>
      </trkpt>
      <trkpt lat="58.995327008888125" lon="-2.993653966113925">
        <ele>40.509999999999998</ele>
        <time>2023-08-22T08:12:30Z</time>
      </trkpt>
      <trkpt lat="58.995500011369586" lon="-2.993476018309593">
        <ele>40.030000000000001</ele>
        <time>2023-08-22T08:12:31Z</time>
      </trkpt>
      <trkpt lat="58.995672008022666" lon="-2.99329899251461">
        <ele>39.07</ele>
        <time>2023-08-22T08:12:32Z</time>
      </trkpt>
      <trkpt lat="58.997095003724098" lon="-2.991920001804829">
        <ele>28.98</ele>
        <time>2023-08-22T08:12:41Z</time>
      </trkpt>
      <trkpt lat="58.998161014169455" lon="-2.991509037092328">
        <ele>22.73</ele>
        <time>2023-08-22T08:12:48Z</time>
      </trkpt>
      <trkpt lat="58.999209003522992" lon="-2.99205201677978">
        <ele>18.399999999999999</ele>
        <time>2023-08-22T08:12:54Z</time>
      </trkpt>
      <trkpt lat="59.000133024528623" lon="-2.993476018309593">
        <ele>15.039999999999999</ele>
        <time>2023-08-22T08:13:00Z</time>
      </trkpt>
      <trkpt lat="59.001078000292182" lon="-2.996084969490767">
        <ele>14.56</ele>
        <time>2023-08-22T08:13:09Z</time>
      </trkpt>
      <trkpt lat="59.001887021586299" lon="-2.998731974512339">
        <ele>16.48</ele>
        <time>2023-08-22T08:13:20Z</time>
      </trkpt>
      <trkpt lat="59.002486998215318" lon="-3.00088201649487">
        <ele>16.960000000000001</ele>
        <time>2023-08-22T08:13:27Z</time>
      </trkpt>
      <trkpt lat="59.003053028136492" lon="-3.004263024777174">
        <ele>18.879999999999999</ele>
        <time>2023-08-22T08:13:35Z</time>
      </trkpt>
      <trkpt lat="59.0029869787395" lon="-3.007347984239459">
        <ele>19.84</ele>
        <time>2023-08-22T08:13:42Z</time>
      </trkpt>
      <trkpt lat="59.002522034570575" lon="-3.012813990935683">
        <ele>17.920000000000002</ele>
        <time>2023-08-22T08:13:55Z</time>
      </trkpt>
      <trkpt lat="59.002191033214331" lon="-3.016700008884072">
        <ele>16.48</ele>
        <time>2023-08-22T08:14:06Z</time>
      </trkpt>
      <trkpt lat="59.001659033820033" lon="-3.022525012493134">
        <ele>15.52</ele>
        <time>2023-08-22T08:14:23Z</time>
      </trkpt>
      <trkpt lat="59.001107001677155" lon="-3.024908993393183">
        <ele>16.48</ele>
        <time>2023-08-22T08:14:31Z</time>
      </trkpt>
      <trkpt lat="58.999514020979404" lon="-3.028883021324873">
        <ele>18.879999999999999</ele>
        <time>2023-08-22T08:14:45Z</time>
      </trkpt>
      <trkpt lat="58.997663967311382" lon="-3.033595997840166">
        <ele>16</ele>
        <time>2023-08-22T08:15:00Z</time>
      </trkpt>
      <trkpt lat="58.996857963502407" lon="-3.036411982029676">
        <ele>14.56</ele>
        <time>2023-08-22T08:15:09Z</time>
      </trkpt>
      <trkpt lat="58.995565976947546" lon="-3.041426036506891">
        <ele>11.19</ele>
        <time>2023-08-22T08:15:24Z</time>
      </trkpt>
      <trkpt lat="58.99441497400403" lon="-3.046383010223508">
        <ele>5.91</ele>
        <time>2023-08-22T08:15:39Z</time>
      </trkpt>
      <trkpt lat="58.993635959923267" lon="-3.051333026960492">
        <ele>-0.34</ele>
        <time>2023-08-22T08:15:53Z</time>
      </trkpt>
      <trkpt lat="58.993435967713594" lon="-3.054041974246502">
        <ele>-2.27</ele>
        <time>2023-08-22T08:16:01Z</time>
      </trkpt>
      <trkpt lat="58.993471004068851" lon="-3.054384961724281">
        <ele>-1.79</ele>
        <time>2023-08-22T08:16:02Z</time>
      </trkpt>
      <trkpt lat="58.993893032893538" lon="-3.057634038850665">
        <ele>-2.27</ele>
        <time>2023-08-22T08:16:11Z</time>
      </trkpt>
      <trkpt lat="58.994751004502177" lon="-3.063346976414323">
        <ele>-1.3</ele>
        <time>2023-08-22T08:16:27Z</time>
      </trkpt>
      <trkpt lat="58.995759012177587" lon="-3.069993993267417">
        <ele>-3.23</ele>
        <time>2023-08-22T08:16:46Z</time>
      </trkpt>
      <trkpt lat="58.996621007099748" lon="-3.075183983892202">
        <ele>-1.3</ele>
        <time>2023-08-22T08:17:01Z</time>
      </trkpt>
      <trkpt lat="58.997037000954151" lon="-3.078363994136453">
        <ele>-0.82</ele>
        <time>2023-08-22T08:17:10Z</time>
      </trkpt>
      <trkpt lat="58.997467998415232" lon="-3.080730037763715">
        <ele>-0.82</ele>
        <time>2023-08-22T08:17:17Z</time>
      </trkpt>
      <trkpt lat="58.997696992009878" lon="-3.081723963841796">
        <ele>-0.82</ele>
        <time>2023-08-22T08:17:20Z</time>
      </trkpt>
      <trkpt lat="58.997726999223232" lon="-3.082082038745284">
        <ele>-1.3</ele>
        <time>2023-08-22T08:17:21Z</time>
      </trkpt>
      <trkpt lat="58.997757006436586" lon="-3.082444975152612">
        <ele>-1.3</ele>
        <time>2023-08-22T08:17:22Z</time>
      </trkpt>
      <trkpt lat="58.997850967571139" lon="-3.085720036178827">
        <ele>-2.27</ele>
        <time>2023-08-22T08:17:31Z</time>
      </trkpt>
      <trkpt lat="58.998313983902335" lon="-3.087691962718964">
        <ele>-2.75</ele>
        <time>2023-08-22T08:17:37Z</time>
      </trkpt>
      <trkpt lat="58.999388040974736" lon="-3.089874023571611">
        <ele>-1.3</ele>
        <time>2023-08-22T08:17:45Z</time>
      </trkpt>
      <trkpt lat="59.000283982604742" lon="-3.091695997864008">
        <ele>2.06</ele>
        <time>2023-08-22T08:17:52Z</time>
      </trkpt>
      <trkpt lat="59.000369980931282" lon="-3.09200000949204">
        <ele>2.54</ele>
        <time>2023-08-22T08:17:53Z</time>
      </trkpt>
      <trkpt lat="59.000447010621428" lon="-3.09232397004962">
        <ele>2.54</ele>
        <time>2023-08-22T08:17:54Z</time>
      </trkpt>
      <trkpt lat="59.000524040311575" lon="-3.092648014426231">
        <ele>3.02</ele>
        <time>2023-08-22T08:17:55Z</time>
      </trkpt>
      <trkpt lat="59.000597968697548" lon="-3.092972980812192">
        <ele>2.54</ele>
        <time>2023-08-22T08:17:56Z</time>
      </trkpt>
      <trkpt lat="59.001433979719877" lon="-3.098503025248647">
        <ele>-0.82</ele>
        <time>2023-08-22T08:18:12Z</time>
      </trkpt>
      <trkpt lat="59.00225599296391" lon="-3.103169985115528">
        <ele>-1.3</ele>
        <time>2023-08-22T08:18:26Z</time>
      </trkpt>
      <trkpt lat="59.002777012065053" lon="-3.105287002399564">
        <ele>-1.3</ele>
        <time>2023-08-22T08:18:34Z</time>
      </trkpt>
      <trkpt lat="59.003400038927794" lon="-3.107637036591768">
        <ele>0.62</ele>
        <time>2023-08-22T08:18:47Z</time>
      </trkpt>
      <trkpt lat="59.004017030820251" lon="-3.110424019396305">
        <ele>-1.3</ele>
        <time>2023-08-22T08:19:01Z</time>
      </trkpt>
      <trkpt lat="59.004370998591185" lon="-3.111755987629294">
        <ele>-3.23</ele>
        <time>2023-08-22T08:19:08Z</time>
      </trkpt>
      <trkpt lat="59.004437969997525" lon="-3.111920021474361">
        <ele>-3.23</ele>
        <time>2023-08-22T08:19:09Z</time>
      </trkpt>
      <trkpt lat="59.004521034657955" lon="-3.11206704005599">
        <ele>-3.23</ele>
        <time>2023-08-22T08:19:10Z</time>
      </trkpt>
      <trkpt lat="59.005598025396466" lon="-3.11359103769064">
        <ele>-1.3</ele>
        <time>2023-08-22T08:19:22Z</time>
      </trkpt>
      <trkpt lat="59.006861010566354" lon="-3.115595988929272">
        <ele>-0.82</ele>
        <time>2023-08-22T08:19:37Z</time>
      </trkpt>
      <trkpt lat="59.006912978366017" lon="-3.115683998912573">
        <ele>-0.82</ele>
        <time>2023-08-22T08:19:38Z</time>
      </trkpt>
      <trkpt lat="59.006958995014429" lon="-3.115760022774339">
        <ele>-0.82</ele>
        <time>2023-08-22T08:19:39Z</time>
      </trkpt>
      <trkpt lat="59.006996965035796" lon="-3.115823976695538">
        <ele>-0.34</ele>
        <time>2023-08-22T08:19:40Z</time>
      </trkpt>
      <trkpt lat="59.007062008604407" lon="-3.115933025255799">
        <ele>-0.34</ele>
        <time>2023-08-22T08:19:48Z</time>
      </trkpt>
      <trkpt lat="59.007301982492208" lon="-3.116348013281822">
        <ele>1.1</ele>
        <time>2023-08-22T08:20:10Z</time>
      </trkpt>
      <trkpt lat="59.007698027417064" lon="-3.117262981832027">
        <ele>1.1</ele>
        <time>2023-08-22T08:20:16Z</time>
      </trkpt>
      <trkpt lat="59.00775502435863" lon="-3.117480995133519">
        <ele>1.58</ele>
        <time>2023-08-22T08:20:17Z</time>
      </trkpt>
      <trkpt lat="59.00779701769352" lon="-3.117669001221657">
        <ele>1.58</ele>
        <time>2023-08-22T08:20:18Z</time>
      </trkpt>
      <trkpt lat="59.00807797908783" lon="-3.119511008262634">
        <ele>5.91</ele>
        <time>2023-08-22T08:20:29Z</time>
      </trkpt>
      <trkpt lat="59.008091976866126" lon="-3.119668001309037">
        <ele>6.39</ele>
        <time>2023-08-22T08:20:30Z</time>
      </trkpt>
      <trkpt lat="59.008132964372635" lon="-3.120219027623534">
        <ele>8.310000000000001</ele>
        <time>2023-08-22T08:20:34Z</time>
      </trkpt>
      <trkpt lat="59.00814101099968" lon="-3.120332015678287">
        <ele>8.789999999999999</ele>
        <time>2023-08-22T08:20:35Z</time>
      </trkpt>
      <trkpt lat="59.008237989619374" lon="-3.121602041646838">
        <ele>10.23</ele>
        <time>2023-08-22T08:20:43Z</time>
      </trkpt>
      <trkpt lat="59.008260034024715" lon="-3.121892977505922">
        <ele>10.23</ele>
        <time>2023-08-22T08:20:45Z</time>
      </trkpt>
      <trkpt lat="59.008272020146251" lon="-3.122039996087551">
        <ele>10.23</ele>
        <time>2023-08-22T08:20:46Z</time>
      </trkpt>
      <trkpt lat="59.008283000439405" lon="-3.122193971648812">
        <ele>10.23</ele>
        <time>2023-08-22T08:20:47Z</time>
      </trkpt>
      <trkpt lat="59.008353995159268" lon="-3.123000981286168">
        <ele>10.23</ele>
        <time>2023-08-22T08:20:52Z</time>
      </trkpt>
      <trkpt lat="59.008501013740897" lon="-3.124824967235327">
        <ele>14.08</ele>
        <time>2023-08-22T08:21:03Z</time>
      </trkpt>
      <trkpt lat="59.008407974615693" lon="-3.126638978719711">
        <ele>17.440000000000001</ele>
        <time>2023-08-22T08:21:13Z</time>
      </trkpt>
      <trkpt lat="59.008129024878144" lon="-3.128760019317269">
        <ele>19.359999999999999</ele>
        <time>2023-08-22T08:21:23Z</time>
      </trkpt>
      <trkpt lat="59.007773967459798" lon="-3.131428984925151">
        <ele>20.32</ele>
        <time>2023-08-22T08:21:32Z</time>
      </trkpt>
      <trkpt lat="59.007331989705563" lon="-3.134730029851198">
        <ele>22.73</ele>
        <time>2023-08-22T08:21:43Z</time>
      </trkpt>
      <trkpt lat="59.00685103610158" lon="-3.138319998979569">
        <ele>26.57</ele>
        <time>2023-08-22T08:21:56Z</time>
      </trkpt>
      <trkpt lat="59.006615001708269" lon="-3.140142979100347">
        <ele>26.57</ele>
        <time>2023-08-22T08:22:01Z</time>
      </trkpt>
      <trkpt lat="59.006284000352025" lon="-3.142988970503211">
        <ele>27.530000000000001</ele>
        <time>2023-08-22T08:22:07Z</time>
      </trkpt>
      <trkpt lat="59.005902037024498" lon="-3.146279035136104">
        <ele>27.530000000000001</ele>
        <time>2023-08-22T08:22:14Z</time>
      </trkpt>
      <trkpt lat="59.005609005689621" lon="-3.148794025182724">
        <ele>28.5</ele>
        <time>2023-08-22T08:22:20Z</time>
      </trkpt>
      <trkpt lat="59.005059991031885" lon="-3.153520999476314">
        <ele>30.899999999999999</ele>
        <time>2023-08-22T08:22:34Z</time>
      </trkpt>
      <trkpt lat="59.004679033532739" lon="-3.156775021925569">
        <ele>30.420000000000002</ele>
        <time>2023-08-22T08:22:43Z</time>
      </trkpt>
      <trkpt lat="59.004335040226579" lon="-3.159706005826592">
        <ele>29.940000000000001</ele>
        <time>2023-08-22T08:22:48Z</time>
      </trkpt>
      <trkpt lat="59.003900019451976" lon="-3.16341700963676">
        <ele>30.420000000000002</ele>
        <time>2023-08-22T08:22:56Z</time>
      </trkpt>
      <trkpt lat="59.003514032810926" lon="-3.166709002107382">
        <ele>28.98</ele>
        <time>2023-08-22T08:23:05Z</time>
      </trkpt>
      <trkpt lat="59.002825962379575" lon="-3.170779002830386">
        <ele>25.609999999999999</ele>
        <time>2023-08-22T08:23:16Z</time>
      </trkpt>
      <trkpt lat="59.00201702490449" lon="-3.173057958483696">
        <ele>24.649999999999999</ele>
        <time>2023-08-22T08:23:23Z</time>
      </trkpt>
      <trkpt lat="59.000706011429429" lon="-3.175420984625816">
        <ele>22.73</ele>
        <time>2023-08-22T08:23:32Z</time>
      </trkpt>
      <trkpt lat="58.998058000579476" lon="-3.179826010018587">
        <ele>16</ele>
        <time>2023-08-22T08:23:49Z</time>
      </trkpt>
      <trkpt lat="58.996127983555198" lon="-3.183161001652479">
        <ele>12.630000000000001</ele>
        <time>2023-08-22T08:24:02Z</time>
      </trkpt>
      <trkpt lat="58.995000030845404" lon="-3.185843965038657">
        <ele>8.789999999999999</ele>
        <time>2023-08-22T08:24:11Z</time>
      </trkpt>
      <trkpt lat="58.993551973253489" lon="-3.18956796079874">
        <ele>3.02</ele>
        <time>2023-08-22T08:24:23Z</time>
      </trkpt>
      <trkpt lat="58.991886992007494" lon="-3.193858992308378">
        <ele>0.62</ele>
        <time>2023-08-22T08:24:37Z</time>
      </trkpt>
      <trkpt lat="58.990154033526778" lon="-3.198537016287446">
        <ele>5.91</ele>
        <time>2023-08-22T08:24:52Z</time>
      </trkpt>
      <trkpt lat="58.988861041143537" lon="-3.202644987031817">
        <ele>6.87</ele>
        <time>2023-08-22T08:25:05Z</time>
      </trkpt>
      <trkpt lat="58.98766502737999" lon="-3.206985974684358">
        <ele>3.02</ele>
        <time>2023-08-22T08:25:19Z</time>
      </trkpt>
      <trkpt lat="58.986968994140625" lon="-3.210205966606736">
        <ele>1.58</ele>
        <time>2023-08-22T08:25:32Z</time>
      </trkpt>
      <trkpt lat="58.986633969470859" lon="-3.212945004925132">
        <ele>-0.34</ele>
        <time>2023-08-22T08:25:41Z</time>
      </trkpt>
      <trkpt lat="58.986340016126633" lon="-3.217884041368961">
        <ele>3.5</ele>
        <time>2023-08-22T08:25:56Z</time>
      </trkpt>
      <trkpt lat="58.986112028360367" lon="-3.221479961648583">
        <ele>6.87</ele>
        <time>2023-08-22T08:26:05Z</time>
      </trkpt>
      <trkpt lat="58.985746996477246" lon="-3.227455001324415">
        <ele>7.83</ele>
        <time>2023-08-22T08:26:21Z</time>
      </trkpt>
      <trkpt lat="58.985387999564409" lon="-3.233304983004928">
        <ele>4.46</ele>
        <time>2023-08-22T08:26:36Z</time>
      </trkpt>
      <trkpt lat="58.985041994601488" lon="-3.238920019939542">
        <ele>4.94</ele>
        <time>2023-08-22T08:26:51Z</time>
      </trkpt>
      <trkpt lat="58.984537990763783" lon="-3.243483966216445">
        <ele>6.87</ele>
        <time>2023-08-22T08:27:03Z</time>
      </trkpt>
      <trkpt lat="58.983297972008586" lon="-3.248400958254933">
        <ele>2.54</ele>
        <time>2023-08-22T08:27:17Z</time>
      </trkpt>
      <trkpt lat="58.982264986261725" lon="-3.252873038873076">
        <ele>2.54</ele>
        <time>2023-08-22T08:27:30Z</time>
      </trkpt>
      <trkpt lat="58.98222902789712" lon="-3.253238992765546">
        <ele>2.54</ele>
        <time>2023-08-22T08:27:31Z</time>
      </trkpt>
      <trkpt lat="58.98220899514854" lon="-3.253600001335144">
        <ele>2.54</ele>
        <time>2023-08-22T08:27:32Z</time>
      </trkpt>
      <trkpt lat="58.982217041775584" lon="-3.253982970491052">
        <ele>2.54</ele>
        <time>2023-08-22T08:27:33Z</time>
      </trkpt>
      <trkpt lat="58.982226010411978" lon="-3.254381027072668">
        <ele>2.54</ele>
        <time>2023-08-22T08:27:34Z</time>
      </trkpt>
      <trkpt lat="58.982263980433345" lon="-3.25477397069335">
        <ele>2.54</ele>
        <time>2023-08-22T08:27:35Z</time>
      </trkpt>
      <trkpt lat="58.982858005911112" lon="-3.258550018072128">
        <ele>3.5</ele>
        <time>2023-08-22T08:27:45Z</time>
      </trkpt>
      <trkpt lat="58.983868025243282" lon="-3.261900013312697">
        <ele>6.39</ele>
        <time>2023-08-22T08:27:55Z</time>
      </trkpt>
      <trkpt lat="58.985185995697975" lon="-3.264902997761965">
        <ele>9.27</ele>
        <time>2023-08-22T08:28:05Z</time>
      </trkpt>
      <trkpt lat="58.987189019098878" lon="-3.268522974103689">
        <ele>13.119999999999999</ele>
        <time>2023-08-22T08:28:19Z</time>
      </trkpt>
      <trkpt lat="58.987310975790024" lon="-3.268817011266947">
        <ele>13.119999999999999</ele>
        <time>2023-08-22T08:28:20Z</time>
      </trkpt>
      <trkpt lat="58.987398985773325" lon="-3.269132003188133">
        <ele>13.6</ele>
        <time>2023-08-22T08:28:21Z</time>
      </trkpt>
      <trkpt lat="58.987471992149949" lon="-3.269485970959067">
        <ele>13.6</ele>
        <time>2023-08-22T08:28:22Z</time>
      </trkpt>
      <trkpt lat="58.987546004354954" lon="-3.269840022549033">
        <ele>14.08</ele>
        <time>2023-08-22T08:28:23Z</time>
      </trkpt>
      <trkpt lat="58.987600989639759" lon="-3.270190972834826">
        <ele>14.56</ele>
        <time>2023-08-22T08:28:24Z</time>
      </trkpt>
      <trkpt lat="58.987627979367971" lon="-3.270572014153004">
        <ele>14.56</ele>
        <time>2023-08-22T08:28:25Z</time>
      </trkpt>
      <trkpt lat="58.987654969096184" lon="-3.270958000794053">
        <ele>15.039999999999999</ele>
        <time>2023-08-22T08:28:26Z</time>
      </trkpt>
      <trkpt lat="58.987676007673144" lon="-3.271342981606722">
        <ele>15.039999999999999</ele>
        <time>2023-08-22T08:28:27Z</time>
      </trkpt>
      <trkpt lat="58.987443996593356" lon="-3.274803031235933">
        <ele>17.920000000000002</ele>
        <time>2023-08-22T08:28:36Z</time>
      </trkpt>
      <trkpt lat="58.987275017425418" lon="-3.275845991447568">
        <ele>19.359999999999999</ele>
        <time>2023-08-22T08:28:39Z</time>
      </trkpt>
      <trkpt lat="58.987180972471833" lon="-3.276145979762077">
        <ele>19.84</ele>
        <time>2023-08-22T08:28:40Z</time>
      </trkpt>
      <trkpt lat="58.987088017165661" lon="-3.276439011096954">
        <ele>19.84</ele>
        <time>2023-08-22T08:28:41Z</time>
      </trkpt>
      <trkpt lat="58.986962959170341" lon="-3.276677979156375">
        <ele>20.32</ele>
        <time>2023-08-22T08:28:42Z</time>
      </trkpt>
      <trkpt lat="58.986817030236125" lon="-3.276890041306615">
        <ele>20.809999999999999</ele>
        <time>2023-08-22T08:28:43Z</time>
      </trkpt>
      <trkpt lat="58.986669005826116" lon="-3.277105959132314">
        <ele>21.289999999999999</ele>
        <time>2023-08-22T08:28:44Z</time>
      </trkpt>
      <trkpt lat="58.98650798946619" lon="-3.277292037382722">
        <ele>21.77</ele>
        <time>2023-08-22T08:28:45Z</time>
      </trkpt>
      <trkpt lat="58.986329035833478" lon="-3.2774399779737">
        <ele>22.25</ele>
        <time>2023-08-22T08:28:46Z</time>
      </trkpt>
      <trkpt lat="58.98614102974534" lon="-3.277570987120271">
        <ele>22.73</ele>
        <time>2023-08-22T08:28:47Z</time>
      </trkpt>
      <trkpt lat="58.985943971201777" lon="-3.277672994881868">
        <ele>23.210000000000001</ele>
        <time>2023-08-22T08:28:48Z</time>
      </trkpt>
      <trkpt lat="58.983946982771158" lon="-3.278875965625048">
        <ele>26.57</ele>
        <time>2023-08-22T08:28:58Z</time>
      </trkpt>
      <trkpt lat="58.982119979336858" lon="-3.281063977628946">
        <ele>28.02</ele>
        <time>2023-08-22T08:29:09Z</time>
      </trkpt>
      <trkpt lat="58.980400012806058" lon="-3.284114990383387">
        <ele>30.420000000000002</ele>
        <time>2023-08-22T08:29:21Z</time>
      </trkpt>
      <trkpt lat="58.979015992954373" lon="-3.286699969321489">
        <ele>35.229999999999997</ele>
        <time>2023-08-22T08:29:31Z</time>
      </trkpt>
      <trkpt lat="58.977885022759438" lon="-3.287353003397584">
        <ele>35.710000000000001</ele>
        <time>2023-08-22T08:29:37Z</time>
      </trkpt>
      <trkpt lat="58.975361986085773" lon="-3.288437034934759">
        <ele>28.02</ele>
        <time>2023-08-22T08:29:50Z</time>
      </trkpt>
      <trkpt lat="58.973628021776676" lon="-3.289243038743734">
        <ele>27.530000000000001</ele>
        <time>2023-08-22T08:30:02Z</time>
      </trkpt>
      <trkpt lat="58.972898963838816" lon="-3.290251968428493">
        <ele>26.57</ele>
        <time>2023-08-22T08:30:09Z</time>
      </trkpt>
      <trkpt lat="58.971813004463911" lon="-3.292236970737577">
        <ele>20.809999999999999</ele>
        <time>2023-08-22T08:30:20Z</time>
      </trkpt>
      <trkpt lat="58.970921002328396" lon="-3.293055966496468">
        <ele>16.48</ele>
        <time>2023-08-22T08:30:29Z</time>
      </trkpt>
      <trkpt lat="58.969480991363525" lon="-3.293763985857368">
        <ele>13.119999999999999</ele>
        <time>2023-08-22T08:30:44Z</time>
      </trkpt>
      <trkpt lat="58.969020992517471" lon="-3.293722998350859">
        <ele>10.23</ele>
        <time>2023-08-22T08:30:50Z</time>
      </trkpt>
      <trkpt lat="58.968881014734507" lon="-3.293710006400943">
        <ele>9.27</ele>
        <time>2023-08-22T08:30:53Z</time>
      </trkpt>
      <trkpt lat="58.968773977831006" lon="-3.293667007237673">
        <ele>8.789999999999999</ele>
        <time>2023-08-22T08:30:54Z</time>
      </trkpt>
      <trkpt lat="58.968773977831006" lon="-3.293667007237673">
        <ele>8.310000000000001</ele>
        <time>2023-08-22T08:30:55Z</time>
      </trkpt>
      <trkpt lat="58.968815971165895" lon="-3.293796004727483">
        <ele>8.310000000000001</ele>
        <time>2023-08-22T08:30:56Z</time>
      </trkpt>
      <trkpt lat="58.968815971165895" lon="-3.293844033032656">
        <ele>7.35</ele>
        <time>2023-08-22T08:30:57Z</time>
      </trkpt>
      <trkpt lat="58.968815971165895" lon="-3.293951991945505">
        <ele>6.87</ele>
        <time>2023-08-22T08:30:58Z</time>
      </trkpt>
      <trkpt lat="58.968815971165895" lon="-3.294066991657019">
        <ele>6.39</ele>
        <time>2023-08-22T08:30:59Z</time>
      </trkpt>
      <trkpt lat="58.968807002529502" lon="-3.294233037158847">
        <ele>5.91</ele>
        <time>2023-08-22T08:31:00Z</time>
      </trkpt>
      <trkpt lat="58.968775989487767" lon="-3.294323980808258">
        <ele>5.91</ele>
        <time>2023-08-22T08:31:01Z</time>
      </trkpt>
      <trkpt lat="58.968706000596285" lon="-3.29439103603363">
        <ele>5.42</ele>
        <time>2023-08-22T08:31:02Z</time>
      </trkpt>
      <trkpt lat="58.968654032796621" lon="-3.29443696886301">
        <ele>4.94</ele>
        <time>2023-08-22T08:31:03Z</time>
      </trkpt>
      <trkpt lat="58.968595024198294" lon="-3.294484997168183">
        <ele>4.94</ele>
        <time>2023-08-22T08:31:04Z</time>
      </trkpt>
      <trkpt lat="58.968532998114824" lon="-3.294510981068015">
        <ele>4.46</ele>
        <time>2023-08-22T08:31:05Z</time>
      </trkpt>
      <trkpt lat="58.968414980918169" lon="-3.294560015201569">
        <ele>3.98</ele>
        <time>2023-08-22T08:31:07Z</time>
      </trkpt>
      <trkpt lat="58.967720959335566" lon="-3.294946001842618">
        <ele>1.58</ele>
        <time>2023-08-22T08:31:18Z</time>
      </trkpt>
      <trkpt lat="58.966766009107232" lon="-3.295494010671973">
        <ele>2.54</ele>
        <time>2023-08-22T08:31:33Z</time>
      </trkpt>
      <trkpt lat="58.966702977195382" lon="-3.295529969036579">
        <ele>3.02</ele>
        <time>2023-08-22T08:31:34Z</time>
      </trkpt>
      <trkpt lat="58.966642040759325" lon="-3.295565005391836">
        <ele>3.02</ele>
        <time>2023-08-22T08:31:35Z</time>
      </trkpt>
      <trkpt lat="58.965997975319624" lon="-3.295925008133054">
        <ele>4.46</ele>
        <time>2023-08-22T08:31:46Z</time>
      </trkpt>
      <trkpt lat="58.965617017820477" lon="-3.296132041141391">
        <ele>3.5</ele>
        <time>2023-08-22T08:31:53Z</time>
      </trkpt>
      <trkpt lat="58.96545298397541" lon="-3.296253997832537">
        <ele>2.54</ele>
        <time>2023-08-22T08:31:57Z</time>
      </trkpt>
      <trkpt lat="58.965088035911322" lon="-3.29660402610898">
        <ele>1.58</ele>
        <time>2023-08-22T08:32:08Z</time>
      </trkpt>
      <trkpt lat="58.965011006221175" lon="-3.296678038313985">
        <ele>1.1</ele>
        <time>2023-08-22T08:32:11Z</time>
      </trkpt>
      <trkpt lat="58.964700037613511" lon="-3.296976014971733">
        <ele>-1.3</ele>
        <time>2023-08-22T08:32:20Z</time>
      </trkpt>
      <trkpt lat="58.964666007086635" lon="-3.297008033841848">
        <ele>-1.3</ele>
        <time>2023-08-22T08:32:21Z</time>
      </trkpt>
      <trkpt lat="58.964632982388139" lon="-3.297040974721313">
        <ele>-1.79</ele>
        <time>2023-08-22T08:32:22Z</time>
      </trkpt>
      <trkpt lat="58.964608004316688" lon="-3.297065030783415">
        <ele>-2.27</ele>
        <time>2023-08-22T08:32:23Z</time>
      </trkpt>
      <trkpt lat="58.964577997103333" lon="-3.297093026340008">
        <ele>-2.27</ele>
        <time>2023-08-22T08:32:24Z</time>
      </trkpt>
      <trkpt lat="58.964541032910347" lon="-3.297127978876233">
        <ele>-2.75</ele>
        <time>2023-08-22T08:32:25Z</time>
      </trkpt>
      <trkpt lat="58.96450599655509" lon="-3.29716301523149">
        <ele>-2.75</ele>
        <time>2023-08-22T08:32:26Z</time>
      </trkpt>
      <trkpt lat="58.964502979069948" lon="-3.297164021059871">
        <ele>-3.23</ele>
        <time>2023-08-22T08:32:27Z</time>
      </trkpt>
      <trkpt lat="58.964446987956762" lon="-3.297193022444844">
        <ele>-2.75</ele>
        <time>2023-08-22T08:32:38Z</time>
      </trkpt>
      <trkpt lat="58.964446987956762" lon="-3.297193022444844">
        <ele>-0.34</ele>
        <time>2023-08-22T08:32:54Z</time>
      </trkpt>
      <trkpt lat="58.964350009337068" lon="-3.297240966930986">
        <ele>0.14</ele>
        <time>2023-08-22T08:33:13Z</time>
      </trkpt>
      <trkpt lat="58.964328970760107" lon="-3.297252031043172">
        <ele>0.14</ele>
        <time>2023-08-22T08:33:14Z</time>
      </trkpt>
      <trkpt lat="58.964299969375134" lon="-3.297266028821468">
        <ele>0.62</ele>
        <time>2023-08-22T08:33:15Z</time>
      </trkpt>
      <trkpt lat="58.964208019897342" lon="-3.297311961650848">
        <ele>1.1</ele>
        <time>2023-08-22T08:33:25Z</time>
      </trkpt>
      <trkpt lat="58.964208019897342" lon="-3.297311961650848">
        <ele>1.1</ele>
        <time>2023-08-22T08:33:45Z</time>
      </trkpt>
      <trkpt lat="58.963842988014221" lon="-3.297532992437482">
        <ele>1.1</ele>
        <time>2023-08-22T08:34:27Z</time>
      </trkpt>
      <trkpt lat="58.963588010519743" lon="-3.297714041545987">
        <ele>-1.79</ele>
        <time>2023-08-22T08:34:37Z</time>
      </trkpt>
      <trkpt lat="58.96343101747334" lon="-3.297835998237133">
        <ele>-4.67</ele>
        <time>2023-08-22T08:34:50Z</time>
      </trkpt>
      <trkpt lat="58.963032960891724" lon="-3.298407979309559">
        <ele>-7.55</ele>
        <time>2023-08-22T08:35:03Z</time>
      </trkpt>
      <trkpt lat="58.962831040844321" lon="-3.298760019242764">
        <ele>-9.48</ele>
        <time>2023-08-22T08:35:12Z</time>
      </trkpt>
      <trkpt lat="58.962546978145838" lon="-3.299020025879145">
        <ele>-12.359999999999999</ele>
        <time>2023-08-22T08:35:23Z</time>
      </trkpt>
      <trkpt lat="58.96229300647974" lon="-3.299213983118534">
        <ele>-12.359999999999999</ele>
        <time>2023-08-22T08:35:33Z</time>
      </trkpt>
      <trkpt lat="58.961797971278429" lon="-3.299396960064769">
        <ele>-12.84</ele>
        <time>2023-08-22T08:35:49Z</time>
      </trkpt>
      <trkpt lat="58.961668973788619" lon="-3.299463009461761">
        <ele>-13.32</ele>
        <time>2023-08-22T08:36:01Z</time>
      </trkpt>
      <trkpt lat="58.961450960487127" lon="-3.299612039700151">
        <ele>-11.880000000000001</ele>
        <time>2023-08-22T08:36:14Z</time>
      </trkpt>
      <trkpt lat="58.960986016318202" lon="-3.299917979165912">
        <ele>-9</ele>
        <time>2023-08-22T08:36:29Z</time>
      </trkpt>
      <trkpt lat="58.960481006652117" lon="-3.300015963613987">
        <ele>-10.44</ele>
        <time>2023-08-22T08:36:44Z</time>
      </trkpt>
      <trkpt lat="58.960107006132603" lon="-3.300269013270736">
        <ele>-7.07</ele>
        <time>2023-08-22T08:36:57Z</time>
      </trkpt>
      <trkpt lat="58.959751026704907" lon="-3.300695987418294">
        <ele>-5.15</ele>
        <time>2023-08-22T08:37:09Z</time>
      </trkpt>
      <trkpt lat="58.959590010344982" lon="-3.300854992121458">
        <ele>-5.15</ele>
        <time>2023-08-22T08:37:14Z</time>
      </trkpt>
      <trkpt lat="58.959503006190062" lon="-3.300847029313445">
        <ele>-5.15</ele>
        <time>2023-08-22T08:37:15Z</time>
      </trkpt>
      <trkpt lat="58.959483979269862" lon="-3.300805035978556">
        <ele>-5.15</ele>
        <time>2023-08-22T08:37:16Z</time>
      </trkpt>
      <trkpt lat="58.959169993177056" lon="-3.30079497769475">
        <ele>-5.63</ele>
        <time>2023-08-22T08:37:27Z</time>
      </trkpt>
      <trkpt lat="58.958975030109286" lon="-3.300776034593582">
        <ele>-5.15</ele>
        <time>2023-08-22T08:37:33Z</time>
      </trkpt>
      <trkpt lat="58.958975030109286" lon="-3.300776034593582">
        <ele>-4.67</ele>
        <time>2023-08-22T08:37:34Z</time>
      </trkpt>
      <trkpt lat="58.958901017904282" lon="-3.300721971318126">
        <ele>-5.63</ele>
        <time>2023-08-22T08:37:49Z</time>
      </trkpt>
      <trkpt lat="58.958917027339339" lon="-3.300734041258693">
        <ele>-6.11</ele>
        <time>2023-08-22T08:37:50Z</time>
      </trkpt>
      <trkpt lat="58.959052981808782" lon="-3.300834037363529">
        <ele>-6.11</ele>
        <time>2023-08-22T08:37:51Z</time>
      </trkpt>
      <trkpt lat="58.959046024829149" lon="-3.300829008221626">
        <ele>-6.11</ele>
        <time>2023-08-22T08:37:54Z</time>
      </trkpt>
      <trkpt lat="58.959052981808782" lon="-3.300834037363529">
        <ele>-6.11</ele>
        <time>2023-08-22T08:37:55Z</time>
      </trkpt>
      <trkpt lat="58.959092041477561" lon="-3.300820961594582">
        <ele>-6.11</ele>
        <time>2023-08-22T08:37:56Z</time>
      </trkpt>
      <trkpt lat="58.959124982357025" lon="-3.300809981301427">
        <ele>-6.11</ele>
        <time>2023-08-22T08:37:57Z</time>
      </trkpt>
      <trkpt lat="58.959322962909937" lon="-3.300744015723467">
        <ele>-6.59</ele>
        <time>2023-08-22T08:38:03Z</time>
      </trkpt>
      <trkpt lat="58.959350036457181" lon="-3.300734963268042">
        <ele>-6.59</ele>
        <time>2023-08-22T08:38:04Z</time>
      </trkpt>
      <trkpt lat="58.959446009248495" lon="-3.300719037652016">
        <ele>-7.07</ele>
        <time>2023-08-22T08:38:05Z</time>
      </trkpt>
      <trkpt lat="58.959524966776371" lon="-3.300897991284728">
        <ele>-8.029999999999999</ele>
        <time>2023-08-22T08:38:08Z</time>
      </trkpt>
      <trkpt lat="58.959524966776371" lon="-3.300897991284728">
        <ele>-8.029999999999999</ele>
        <time>2023-08-22T08:38:09Z</time>
      </trkpt>
      <trkpt lat="58.959550028666854" lon="-3.30088198184967">
        <ele>-8.51</ele>
        <time>2023-08-22T08:38:10Z</time>
      </trkpt>
      <trkpt lat="58.959583975374699" lon="-3.30085901543498">
        <ele>-8.51</ele>
        <time>2023-08-22T08:38:11Z</time>
      </trkpt>
      <trkpt lat="58.959653964266181" lon="-3.300811992958188">
        <ele>-8.51</ele>
        <time>2023-08-22T08:38:12Z</time>
      </trkpt>
      <trkpt lat="58.959667040035129" lon="-3.300796989351511">
        <ele>-7.55</ele>
        <time>2023-08-22T08:38:13Z</time>
      </trkpt>
      <trkpt lat="58.960088985040784" lon="-3.300290973857045">
        <ele>-3.71</ele>
        <time>2023-08-22T08:38:23Z</time>
      </trkpt>
      <trkpt lat="58.960132990032434" lon="-3.300238000229001">
        <ele>-3.23</ele>
        <time>2023-08-22T08:38:24Z</time>
      </trkpt>
      <trkpt lat="58.960248995572329" lon="-3.300138004124165">
        <ele>-1.3</ele>
        <time>2023-08-22T08:38:27Z</time>
      </trkpt>
      <trkpt lat="58.960289983078837" lon="-3.300116965547204">
        <ele>-1.3</ele>
        <time>2023-08-22T08:38:28Z</time>
      </trkpt>
      <trkpt lat="58.960373969748616" lon="-3.300072960555553">
        <ele>-0.82</ele>
        <time>2023-08-22T08:38:30Z</time>
      </trkpt>
      <trkpt lat="58.960415963083506" lon="-3.300050999969244">
        <ele>-0.82</ele>
        <time>2023-08-22T08:38:31Z</time>
      </trkpt>
      <trkpt lat="58.960444964468479" lon="-3.300034990534186">
        <ele>-0.82</ele>
        <time>2023-08-22T08:38:32Z</time>
      </trkpt>
      <trkpt lat="58.960472960025072" lon="-3.30002099275589">
        <ele>-0.34</ele>
        <time>2023-08-22T08:38:33Z</time>
      </trkpt>
      <trkpt lat="58.960501961410046" lon="-3.300005989149213">
        <ele>-0.34</ele>
        <time>2023-08-22T08:38:34Z</time>
      </trkpt>
      <trkpt lat="58.960563987493515" lon="-3.299972964450717">
        <ele>-0.82</ele>
        <time>2023-08-22T08:38:42Z</time>
      </trkpt>
      <trkpt lat="58.961015017703176" lon="-3.299916973337531">
        <ele>-1.79</ele>
        <time>2023-08-22T08:38:53Z</time>
      </trkpt>
      <trkpt lat="58.961059022694826" lon="-3.29991496168077">
        <ele>-1.79</ele>
        <time>2023-08-22T08:38:54Z</time>
      </trkpt>
      <trkpt lat="58.96117402240634" lon="-3.299888977780938">
        <ele>-1.3</ele>
        <time>2023-08-22T08:38:56Z</time>
      </trkpt>
      <trkpt lat="58.961211992427707" lon="-3.299841033294797">
        <ele>-1.3</ele>
        <time>2023-08-22T08:38:57Z</time>
      </trkpt>
      <trkpt lat="58.961253985762596" lon="-3.299788981676102">
        <ele>-1.3</ele>
        <time>2023-08-22T08:38:58Z</time>
      </trkpt>
      <trkpt lat="58.961293967440724" lon="-3.299739025533199">
        <ele>-0.82</ele>
        <time>2023-08-22T08:38:59Z</time>
      </trkpt>
      <trkpt lat="58.961327997967601" lon="-3.299696026369929">
        <ele>-0.82</ele>
        <time>2023-08-22T08:39:00Z</time>
      </trkpt>
      <trkpt lat="58.961352976039052" lon="-3.299679011106491">
        <ele>-1.3</ele>
        <time>2023-08-22T08:39:01Z</time>
      </trkpt>
      <trkpt lat="58.961392035707831" lon="-3.299653027206659">
        <ele>-1.3</ele>
        <time>2023-08-22T08:39:02Z</time>
      </trkpt>
      <trkpt lat="58.961428999900818" lon="-3.299626959487796">
        <ele>-1.79</ele>
        <time>2023-08-22T08:39:03Z</time>
      </trkpt>
      <trkpt lat="58.961468981578946" lon="-3.299599969759584">
        <ele>-2.27</ele>
        <time>2023-08-22T08:39:04Z</time>
      </trkpt>
      <trkpt lat="58.961509969085455" lon="-3.299571974202991">
        <ele>-2.27</ele>
        <time>2023-08-22T08:39:05Z</time>
      </trkpt>
      <trkpt lat="58.96181900985539" lon="-3.299390003085136">
        <ele>-2.75</ele>
        <time>2023-08-22T08:39:15Z</time>
      </trkpt>
      <trkpt lat="58.961857985705137" lon="-3.299377011135221">
        <ele>-2.75</ele>
        <time>2023-08-22T08:39:16Z</time>
      </trkpt>
      <trkpt lat="58.962003998458385" lon="-3.299327977001667">
        <ele>-3.23</ele>
        <time>2023-08-22T08:39:20Z</time>
      </trkpt>
      <trkpt lat="58.962031994014978" lon="-3.299319008365274">
        <ele>-3.71</ele>
        <time>2023-08-22T08:39:21Z</time>
      </trkpt>
      <trkpt lat="58.962059989571571" lon="-3.299309033900499">
        <ele>-3.71</ele>
        <time>2023-08-22T08:39:22Z</time>
      </trkpt>
      <trkpt lat="58.962092008441687" lon="-3.299298975616694">
        <ele>-4.19</ele>
        <time>2023-08-22T08:39:23Z</time>
      </trkpt>
      <trkpt lat="58.962132995948195" lon="-3.299284977838397">
        <ele>-4.19</ele>
        <time>2023-08-22T08:39:24Z</time>
      </trkpt>
      <trkpt lat="58.962179012596607" lon="-3.29926997423172">
        <ele>-3.71</ele>
        <time>2023-08-22T08:39:25Z</time>
      </trkpt>
      <trkpt lat="58.962350003421307" lon="-3.299170983955264">
        <ele>-3.71</ele>
        <time>2023-08-22T08:39:29Z</time>
      </trkpt>
      <trkpt lat="58.962387973442674" lon="-3.299141982570291">
        <ele>-3.71</ele>
        <time>2023-08-22T08:39:30Z</time>
      </trkpt>
      <trkpt lat="58.962424015626311" lon="-3.299113987013698">
        <ele>-3.23</ele>
        <time>2023-08-22T08:39:31Z</time>
      </trkpt>
      <trkpt lat="58.96274303086102" lon="-3.298872001469135">
        <ele>-3.71</ele>
        <time>2023-08-22T08:39:40Z</time>
      </trkpt>
      <trkpt lat="58.962812013924122" lon="-3.298794971778989">
        <ele>-3.23</ele>
        <time>2023-08-22T08:39:41Z</time>
      </trkpt>
      <trkpt lat="58.962854007259011" lon="-3.298721965402365">
        <ele>-3.23</ele>
        <time>2023-08-22T08:39:42Z</time>
      </trkpt>
      <trkpt lat="58.962890971451998" lon="-3.298657005652785">
        <ele>-3.23</ele>
        <time>2023-08-22T08:39:43Z</time>
      </trkpt>
      <trkpt lat="58.962923996150494" lon="-3.298599002882838">
        <ele>-3.23</ele>
        <time>2023-08-22T08:39:44Z</time>
      </trkpt>
      <trkpt lat="58.962952997535467" lon="-3.298548040911555">
        <ele>-3.23</ele>
        <time>2023-08-22T08:39:45Z</time>
      </trkpt>
      <trkpt lat="58.962978981435299" lon="-3.298502024263144">
        <ele>-3.23</ele>
        <time>2023-08-22T08:39:46Z</time>
      </trkpt>
      <trkpt lat="58.963006976991892" lon="-3.29845299012959">
        <ele>-3.71</ele>
        <time>2023-08-22T08:39:47Z</time>
      </trkpt>
      <trkpt lat="58.963038995862007" lon="-3.298396999016404">
        <ele>-3.71</ele>
        <time>2023-08-22T08:39:48Z</time>
      </trkpt>
      <trkpt lat="58.963073026388884" lon="-3.298337990418077">
        <ele>-3.71</ele>
        <time>2023-08-22T08:39:49Z</time>
      </trkpt>
      <trkpt lat="58.963142009451985" lon="-3.298217039555311">
        <ele>-4.19</ele>
        <time>2023-08-22T08:39:51Z</time>
      </trkpt>
      <trkpt lat="58.963171010836959" lon="-3.298165993764997">
        <ele>-4.19</ele>
        <time>2023-08-22T08:39:52Z</time>
      </trkpt>
      <trkpt lat="58.963200012221932" lon="-3.298115031793714">
        <ele>-4.19</ele>
        <time>2023-08-22T08:39:53Z</time>
      </trkpt>
      <trkpt lat="58.963223984465003" lon="-3.298073960468173">
        <ele>-3.71</ele>
        <time>2023-08-22T08:39:54Z</time>
      </trkpt>
      <trkpt lat="58.963245023041964" lon="-3.298036996275187">
        <ele>-3.23</ele>
        <time>2023-08-22T08:39:55Z</time>
      </trkpt>
      <trkpt lat="58.963270001113415" lon="-3.297992991283536">
        <ele>-1.79</ele>
        <time>2023-08-22T08:39:56Z</time>
      </trkpt>
      <trkpt lat="58.963301014155149" lon="-3.297931971028447">
        <ele>-0.82</ele>
        <time>2023-08-22T08:39:57Z</time>
      </trkpt>
      <trkpt lat="58.963295985013247" lon="-3.297877991572022">
        <ele>-0.34</ele>
        <time>2023-08-22T08:39:58Z</time>
      </trkpt>
      <trkpt lat="58.963290033861995" lon="-3.297825017943978">
        <ele>-0.34</ele>
        <time>2023-08-22T08:39:59Z</time>
      </trkpt>
      <trkpt lat="58.963283998891711" lon="-3.297769026830792">
        <ele>0.14</ele>
        <time>2023-08-22T08:40:00Z</time>
      </trkpt>
      <trkpt lat="58.963271006941795" lon="-3.297646986320615">
        <ele>0.62</ele>
        <time>2023-08-22T08:40:02Z</time>
      </trkpt>
      <trkpt lat="58.963279975578189" lon="-3.297508014366031">
        <ele>1.1</ele>
        <time>2023-08-22T08:40:03Z</time>
      </trkpt>
      <trkpt lat="58.963310988619924" lon="-3.297477001324296">
        <ele>1.58</ele>
        <time>2023-08-22T08:40:04Z</time>
      </trkpt>
      <trkpt lat="58.963334960862994" lon="-3.297454034909606">
        <ele>2.06</ele>
        <time>2023-08-22T08:40:05Z</time>
      </trkpt>
      <trkpt lat="58.963352981954813" lon="-3.297435007989407">
        <ele>2.54</ele>
        <time>2023-08-22T08:40:06Z</time>
      </trkpt>
      <trkpt lat="58.963483991101384" lon="-3.297303998842835">
        <ele>3.02</ele>
        <time>2023-08-22T08:40:11Z</time>
      </trkpt>
      <trkpt lat="58.963531013578176" lon="-3.297257982194424">
        <ele>3.5</ele>
        <time>2023-08-22T08:40:12Z</time>
      </trkpt>
      <trkpt lat="58.964067958295345" lon="-3.296758001670241">
        <ele>4.94</ele>
        <time>2023-08-22T08:40:22Z</time>
      </trkpt>
      <trkpt lat="58.964125039055943" lon="-3.296725982800126">
        <ele>4.94</ele>
        <time>2023-08-22T08:40:23Z</time>
      </trkpt>
      <trkpt lat="58.964183963835239" lon="-3.296693963930011">
        <ele>5.42</ele>
        <time>2023-08-22T08:40:24Z</time>
      </trkpt>
      <trkpt lat="58.964240038767457" lon="-3.296663034707308">
        <ele>5.42</ele>
        <time>2023-08-22T08:40:25Z</time>
      </trkpt>
      <trkpt lat="58.964293012395501" lon="-3.296633027493954">
        <ele>5.91</ele>
        <time>2023-08-22T08:40:26Z</time>
      </trkpt>
      <trkpt lat="58.964345986023545" lon="-3.29660402610898">
        <ele>6.39</ele>
        <time>2023-08-22T08:40:27Z</time>
      </trkpt>
      <trkpt lat="58.964723004028201" lon="-3.29621996730566">
        <ele>7.83</ele>
        <time>2023-08-22T08:40:34Z</time>
      </trkpt>
      <trkpt lat="58.964758962392807" lon="-3.296179985627532">
        <ele>7.83</ele>
        <time>2023-08-22T08:40:35Z</time>
      </trkpt>
      <trkpt lat="58.964788969606161" lon="-3.296149978414178">
        <ele>7.83</ele>
        <time>2023-08-22T08:40:36Z</time>
      </trkpt>
      <trkpt lat="58.964735995978117" lon="-3.296051993966103">
        <ele>7.83</ele>
        <time>2023-08-22T08:40:37Z</time>
      </trkpt>
      <trkpt lat="58.964719986543059" lon="-3.295970018953085">
        <ele>7.83</ele>
        <time>2023-08-22T08:40:38Z</time>
      </trkpt>
      <trkpt lat="58.964702971279621" lon="-3.295887960121036">
        <ele>8.310000000000001</ele>
        <time>2023-08-22T08:40:39Z</time>
      </trkpt>
      <trkpt lat="58.964686961844563" lon="-3.29580900259316">
        <ele>8.310000000000001</ele>
        <time>2023-08-22T08:40:40Z</time>
      </trkpt>
      <trkpt lat="58.964674975723028" lon="-3.295747982338071">
        <ele>8.310000000000001</ele>
        <time>2023-08-22T08:40:41Z</time>
      </trkpt>
      <trkpt lat="58.964651003479958" lon="-3.29568000510335">
        <ele>8.310000000000001</ele>
        <time>2023-08-22T08:40:42Z</time>
      </trkpt>
      <trkpt lat="58.964579002931714" lon="-3.295472972095013">
        <ele>9.75</ele>
        <time>2023-08-22T08:40:50Z</time>
      </trkpt>
      <trkpt lat="58.964536003768444" lon="-3.295350009575486">
        <ele>8.789999999999999</ele>
        <time>2023-08-22T08:41:02Z</time>
      </trkpt>
      <trkpt lat="58.964349003508687" lon="-3.29527398571372">
        <ele>6.87</ele>
        <time>2023-08-22T08:41:09Z</time>
      </trkpt>
      <trkpt lat="58.96433399990201" lon="-3.295269962400198">
        <ele>6.87</ele>
        <time>2023-08-22T08:41:10Z</time>
      </trkpt>
      <trkpt lat="58.964320002123713" lon="-3.295266022905707">
        <ele>6.87</ele>
        <time>2023-08-22T08:41:11Z</time>
      </trkpt>
      <trkpt lat="58.96433399990201" lon="-3.295269962400198">
        <ele>6.39</ele>
        <time>2023-08-22T08:41:15Z</time>
      </trkpt>
      <trkpt lat="58.964359983801842" lon="-3.295277003198862">
        <ele>5.91</ele>
        <time>2023-08-22T08:41:16Z</time>
      </trkpt>
      <trkpt lat="58.964398959651589" lon="-3.295285971835256">
        <ele>5.91</ele>
        <time>2023-08-22T08:41:17Z</time>
      </trkpt>
      <trkpt lat="58.964446987956762" lon="-3.295298963785172">
        <ele>5.91</ele>
        <time>2023-08-22T08:41:18Z</time>
      </trkpt>
      <trkpt lat="58.964500967413187" lon="-3.295312961563468">
        <ele>5.91</ele>
        <time>2023-08-22T08:41:19Z</time>
      </trkpt>
      <trkpt lat="58.964558970183134" lon="-3.295415975153446">
        <ele>5.42</ele>
        <time>2023-08-22T08:41:20Z</time>
      </trkpt>
      <trkpt lat="58.964595012366772" lon="-3.295518988743424">
        <ele>5.42</ele>
        <time>2023-08-22T08:41:21Z</time>
      </trkpt>
      <trkpt lat="58.964631976559758" lon="-3.295626025646925">
        <ele>4.94</ele>
        <time>2023-08-22T08:41:22Z</time>
      </trkpt>
      <trkpt lat="58.964674975723028" lon="-3.295747982338071">
        <ele>4.94</ele>
        <time>2023-08-22T08:41:23Z</time>
      </trkpt>
      <trkpt lat="58.96472099237144" lon="-3.295977981761098">
        <ele>3.98</ele>
        <time>2023-08-22T08:41:25Z</time>
      </trkpt>
      <trkpt lat="58.964735995978117" lon="-3.296055011451244">
        <ele>3.98</ele>
        <time>2023-08-22T08:41:26Z</time>
      </trkpt>
      <trkpt lat="58.964690985158086" lon="-3.296256009489298">
        <ele>3.5</ele>
        <time>2023-08-22T08:41:27Z</time>
      </trkpt>
      <trkpt lat="58.964663995429873" lon="-3.296287022531033">
        <ele>3.5</ele>
        <time>2023-08-22T08:41:28Z</time>
      </trkpt>
      <trkpt lat="58.964628959074616" lon="-3.2963249925524">
        <ele>3.02</ele>
        <time>2023-08-22T08:41:29Z</time>
      </trkpt>
      <trkpt lat="58.964585037901998" lon="-3.296375032514334">
        <ele>3.02</ele>
        <time>2023-08-22T08:41:30Z</time>
      </trkpt>
      <trkpt lat="58.964488981291652" lon="-3.296483997255564">
        <ele>2.54</ele>
        <time>2023-08-22T08:41:32Z</time>
      </trkpt>
      <trkpt lat="58.964417986571789" lon="-3.29656396061182">
        <ele>2.06</ele>
        <time>2023-08-22T08:41:33Z</time>
      </trkpt>
      <trkpt lat="58.964380016550422" lon="-3.296438986435533">
        <ele>1.58</ele>
        <time>2023-08-22T08:41:34Z</time>
      </trkpt>
      <trkpt lat="58.964361995458603" lon="-3.296376960352063">
        <ele>1.58</ele>
        <time>2023-08-22T08:41:35Z</time>
      </trkpt>
      <trkpt lat="58.964342968538404" lon="-3.296316023916006">
        <ele>1.58</ele>
        <time>2023-08-22T08:41:36Z</time>
      </trkpt>
      <trkpt lat="58.964326037093997" lon="-3.29625902697444">
        <ele>1.58</ele>
        <time>2023-08-22T08:41:37Z</time>
      </trkpt>
      <trkpt lat="58.964198967441916" lon="-3.295848984271288">
        <ele>1.58</ele>
        <time>2023-08-22T08:41:44Z</time>
      </trkpt>
      <trkpt lat="58.964159991592169" lon="-3.295727027580142">
        <ele>1.58</ele>
        <time>2023-08-22T08:41:45Z</time>
      </trkpt>
      <trkpt lat="58.964159991592169" lon="-3.295727027580142">
        <ele>1.58</ele>
        <time>2023-08-22T08:41:46Z</time>
      </trkpt>
      <trkpt lat="58.964216988533735" lon="-3.295906987041235">
        <ele>1.58</ele>
        <time>2023-08-22T08:41:47Z</time>
      </trkpt>
      <trkpt lat="58.964229980483651" lon="-3.295947974547744">
        <ele>1.1</ele>
        <time>2023-08-22T08:41:48Z</time>
      </trkpt>
      <trkpt lat="58.964241966605186" lon="-3.295985022559762">
        <ele>0.62</ele>
        <time>2023-08-22T08:41:49Z</time>
      </trkpt>
      <trkpt lat="58.964253030717373" lon="-3.296020980924368">
        <ele>0.14</ele>
        <time>2023-08-22T08:42:01Z</time>
      </trkpt>
      <trkpt lat="58.964269040152431" lon="-3.296071020886302">
        <ele>-0.82</ele>
        <time>2023-08-22T08:42:12Z</time>
      </trkpt>
      <trkpt lat="58.964269040152431" lon="-3.296071020886302">
        <ele>-1.79</ele>
        <time>2023-08-22T08:42:29Z</time>
      </trkpt>
      <trkpt lat="58.964346991851926" lon="-3.296329015865922">
        <ele>-1.79</ele>
        <time>2023-08-22T08:43:01Z</time>
      </trkpt>
      <trkpt lat="58.964357972145081" lon="-3.296366985887289">
        <ele>-1.79</ele>
        <time>2023-08-22T08:43:02Z</time>
      </trkpt>
      <trkpt lat="58.964472971856594" lon="-3.296502018347383">
        <ele>-1.79</ele>
        <time>2023-08-22T08:43:03Z</time>
      </trkpt>
      <trkpt lat="58.964497027918696" lon="-3.29647502861917">
        <ele>-1.79</ele>
        <time>2023-08-22T08:43:04Z</time>
      </trkpt>
      <trkpt lat="58.964358977973461" lon="-3.29636799171567">
        <ele>-1.3</ele>
        <time>2023-08-22T08:43:05Z</time>
      </trkpt>
      <trkpt lat="58.964339029043913" lon="-3.296300014480948">
        <ele>-0.82</ele>
        <time>2023-08-22T08:43:06Z</time>
      </trkpt>
      <trkpt lat="58.964304998517036" lon="-3.296188032254577">
        <ele>-0.34</ele>
        <time>2023-08-22T08:43:07Z</time>
      </trkpt>
      <trkpt lat="58.964264011010528" lon="-3.296055011451244">
        <ele>0.14</ele>
        <time>2023-08-22T08:43:08Z</time>
      </trkpt>
      <trkpt lat="58.964222017675638" lon="-3.295921990647912">
        <ele>0.62</ele>
        <time>2023-08-22T08:43:09Z</time>
      </trkpt>
      <trkpt lat="58.964159991592169" lon="-3.295727027580142">
        <ele>2.06</ele>
        <time>2023-08-22T08:43:15Z</time>
      </trkpt>
      <trkpt lat="58.964159991592169" lon="-3.295727027580142">
        <ele>2.06</ele>
        <time>2023-08-22T08:43:29Z</time>
      </trkpt>
      <trkpt lat="58.612648034468293" lon="-3.54009797796607">
        <ele>-4.19</ele>
        <time>2023-08-22T11:44:35Z</time>
      </trkpt>
      <trkpt lat="58.612695978954434" lon="-3.540095966309309">
        <ele>-4.67</ele>
        <time>2023-08-22T11:44:36Z</time>
      </trkpt>
      <trkpt lat="58.612737972289324" lon="-3.54009403847158">
        <ele>-5.63</ele>
        <time>2023-08-22T11:44:37Z</time>
      </trkpt>
      <trkpt lat="58.612779965624213" lon="-3.540092026814818">
        <ele>-6.11</ele>
        <time>2023-08-22T11:44:38Z</time>
      </trkpt>
      <trkpt lat="58.612833023071289" lon="-3.540089009329677">
        <ele>-5.15</ele>
        <time>2023-08-22T11:44:39Z</time>
      </trkpt>
      <trkpt lat="58.612861018627882" lon="-3.540088003501296">
        <ele>-5.63</ele>
        <time>2023-08-22T11:44:40Z</time>
      </trkpt>
      <trkpt lat="58.612861018627882" lon="-3.540088003501296">
        <ele>0.62</ele>
        <time>2023-08-22T11:44:51Z</time>
      </trkpt>
      <trkpt lat="58.612861018627882" lon="-3.540088003501296">
        <ele>17.440000000000001</ele>
        <time>2023-08-22T11:45:20Z</time>
      </trkpt>
      <trkpt lat="58.612861018627882" lon="-3.540088003501296">
        <ele>13.6</ele>
        <time>2023-08-22T11:46:06Z</time>
      </trkpt>
      <trkpt lat="58.612861018627882" lon="-3.540088003501296">
        <ele>13.119999999999999</ele>
        <time>2023-08-22T11:46:38Z</time>
      </trkpt>
      <trkpt lat="58.612861018627882" lon="-3.540088003501296">
        <ele>12.630000000000001</ele>
        <time>2023-08-22T11:47:11Z</time>
      </trkpt>
      <trkpt lat="58.613041983917356" lon="-3.540065037086606">
        <ele>12.15</ele>
        <time>2023-08-22T11:47:28Z</time>
      </trkpt>
      <trkpt lat="58.61360901966691" lon="-3.539991024881601">
        <ele>9.75</ele>
        <time>2023-08-22T11:47:39Z</time>
      </trkpt>
      <trkpt lat="58.613657969981432" lon="-3.539983984082937">
        <ele>8.789999999999999</ele>
        <time>2023-08-22T11:47:40Z</time>
      </trkpt>
      <trkpt lat="58.613692000508308" lon="-3.539979038760066">
        <ele>8.310000000000001</ele>
        <time>2023-08-22T11:47:41Z</time>
      </trkpt>
      <trkpt lat="58.613743968307972" lon="-3.540026983246207">
        <ele>7.83</ele>
        <time>2023-08-22T11:47:42Z</time>
      </trkpt>
      <trkpt lat="58.61384698189795" lon="-3.540123039856553">
        <ele>6.87</ele>
        <time>2023-08-22T11:47:44Z</time>
      </trkpt>
      <trkpt lat="58.613989977166057" lon="-3.540283972397447">
        <ele>4.94</ele>
        <time>2023-08-22T11:47:47Z</time>
      </trkpt>
      <trkpt lat="58.614028031006455" lon="-3.540379023179412">
        <ele>4.94</ele>
        <time>2023-08-22T11:47:48Z</time>
      </trkpt>
      <trkpt lat="58.614054014906287" lon="-3.540473990142345">
        <ele>4.46</ele>
        <time>2023-08-22T11:47:49Z</time>
      </trkpt>
      <trkpt lat="58.614033982157707" lon="-3.54061002843082">
        <ele>3.98</ele>
        <time>2023-08-22T11:47:50Z</time>
      </trkpt>
      <trkpt lat="58.614014033228159" lon="-3.540752017870545">
        <ele>3.5</ele>
        <time>2023-08-22T11:47:51Z</time>
      </trkpt>
      <trkpt lat="58.613972961902618" lon="-3.540874980390072">
        <ele>3.5</ele>
        <time>2023-08-22T11:47:52Z</time>
      </trkpt>
      <trkpt lat="58.613928034901619" lon="-3.541009007021785">
        <ele>3.02</ele>
        <time>2023-08-22T11:47:53Z</time>
      </trkpt>
      <trkpt lat="58.613701974973083" lon="-3.541705962270498">
        <ele>1.1</ele>
        <time>2023-08-22T11:47:58Z</time>
      </trkpt>
      <trkpt lat="58.6133539583534" lon="-3.543320987373591">
        <ele>-2.27</ele>
        <time>2023-08-22T11:48:10Z</time>
      </trkpt>
      <trkpt lat="58.613344989717007" lon="-3.54336298070848">
        <ele>-2.27</ele>
        <time>2023-08-22T11:48:18Z</time>
      </trkpt>
      <trkpt lat="58.613344989717007" lon="-3.54336298070848">
        <ele>-2.27</ele>
        <time>2023-08-22T11:48:50Z</time>
      </trkpt>
      <trkpt lat="58.613379020243883" lon="-3.543327022343874">
        <ele>5.91</ele>
        <time>2023-08-22T11:49:25Z</time>
      </trkpt>
      <trkpt lat="58.613377008587122" lon="-3.543355017900467">
        <ele>4.94</ele>
        <time>2023-08-22T11:49:27Z</time>
      </trkpt>
      <trkpt lat="58.613316994160414" lon="-3.54349197819829">
        <ele>4.94</ele>
        <time>2023-08-22T11:49:30Z</time>
      </trkpt>
      <trkpt lat="58.612955985590816" lon="-3.544998038560152">
        <ele>1.1</ele>
        <time>2023-08-22T11:49:41Z</time>
      </trkpt>
      <trkpt lat="58.612841991707683" lon="-3.545454014092684">
        <ele>0.14</ele>
        <time>2023-08-22T11:49:45Z</time>
      </trkpt>
      <trkpt lat="58.612811984494328" lon="-3.545601032674313">
        <ele>-0.34</ele>
        <time>2023-08-22T11:49:46Z</time>
      </trkpt>
      <trkpt lat="58.612767979502678" lon="-3.545603966340423">
        <ele>-0.34</ele>
        <time>2023-08-22T11:49:47Z</time>
      </trkpt>
      <trkpt lat="58.61270796507597" lon="-3.545608995482326">
        <ele>-0.34</ele>
        <time>2023-08-22T11:49:48Z</time>
      </trkpt>
      <trkpt lat="58.612646022811532" lon="-3.545613018795848">
        <ele>0.14</ele>
        <time>2023-08-22T11:49:49Z</time>
      </trkpt>
      <trkpt lat="58.612585002556443" lon="-3.545617964118719">
        <ele>0.62</ele>
        <time>2023-08-22T11:49:50Z</time>
      </trkpt>
      <trkpt lat="58.612511996179819" lon="-3.545622993260622">
        <ele>0.14</ele>
        <time>2023-08-22T11:49:51Z</time>
      </trkpt>
      <trkpt lat="58.61247000284493" lon="-3.545685019344091">
        <ele>0.14</ele>
        <time>2023-08-22T11:49:52Z</time>
      </trkpt>
      <trkpt lat="58.612419040873647" lon="-3.545775962993503">
        <ele>0.14</ele>
        <time>2023-08-22T11:49:53Z</time>
      </trkpt>
      <trkpt lat="58.612390961498022" lon="-3.545879982411861">
        <ele>0.14</ele>
        <time>2023-08-22T11:49:54Z</time>
      </trkpt>
      <trkpt lat="58.612361960113049" lon="-3.545988025143743">
        <ele>0.14</ele>
        <time>2023-08-22T11:49:55Z</time>
      </trkpt>
      <trkpt lat="58.612301023676991" lon="-3.54635096155107">
        <ele>-0.82</ele>
        <time>2023-08-22T11:49:58Z</time>
      </trkpt>
      <trkpt lat="58.612280990928411" lon="-3.546469984576106">
        <ele>-0.82</ele>
        <time>2023-08-22T11:49:59Z</time>
      </trkpt>
      <trkpt lat="58.612260958179832" lon="-3.546590013429523">
        <ele>-0.82</ele>
        <time>2023-08-22T11:50:00Z</time>
      </trkpt>
      <trkpt lat="58.612271016463637" lon="-3.546732002869248">
        <ele>-1.3</ele>
        <time>2023-08-22T11:50:01Z</time>
      </trkpt>
      <trkpt lat="58.612289959564805" lon="-3.546851025894284">
        <ele>-1.79</ele>
        <time>2023-08-22T11:50:02Z</time>
      </trkpt>
      <trkpt lat="58.612308986485004" lon="-3.546969965100288">
        <ele>-1.79</ele>
        <time>2023-08-22T11:50:03Z</time>
      </trkpt>
      <trkpt lat="58.612328013405204" lon="-3.547089993953705">
        <ele>-2.27</ele>
        <time>2023-08-22T11:50:04Z</time>
      </trkpt>
      <trkpt lat="58.612357014790177" lon="-3.54733700864017">
        <ele>-2.75</ele>
        <time>2023-08-22T11:50:06Z</time>
      </trkpt>
      <trkpt lat="58.612344022840261" lon="-3.547455025836825">
        <ele>-2.75</ele>
        <time>2023-08-22T11:50:07Z</time>
      </trkpt>
      <trkpt lat="58.61232197843492" lon="-3.547577988356352">
        <ele>-2.75</ele>
        <time>2023-08-22T11:50:08Z</time>
      </trkpt>
      <trkpt lat="58.611916964873672" lon="-3.549576988443732">
        <ele>-1.3</ele>
        <time>2023-08-22T11:50:22Z</time>
      </trkpt>
      <trkpt lat="58.61143902875483" lon="-3.551845969632268">
        <ele>-2.75</ele>
        <time>2023-08-22T11:50:36Z</time>
      </trkpt>
      <trkpt lat="58.611313970759511" lon="-3.552142018452287">
        <ele>-3.23</ele>
        <time>2023-08-22T11:50:38Z</time>
      </trkpt>
      <trkpt lat="58.611237024888396" lon="-3.552291970700026">
        <ele>-3.23</ele>
        <time>2023-08-22T11:50:39Z</time>
      </trkpt>
      <trkpt lat="58.611143985763192" lon="-3.552409987896681">
        <ele>-2.75</ele>
        <time>2023-08-22T11:50:40Z</time>
      </trkpt>
      <trkpt lat="58.611050024628639" lon="-3.552530016750097">
        <ele>-2.75</ele>
        <time>2023-08-22T11:50:41Z</time>
      </trkpt>
      <trkpt lat="58.610939970239997" lon="-3.552591959014535">
        <ele>-2.75</ele>
        <time>2023-08-22T11:50:42Z</time>
      </trkpt>
      <trkpt lat="58.610824970528483" lon="-3.552639987319708">
        <ele>-2.75</ele>
        <time>2023-08-22T11:50:43Z</time>
      </trkpt>
      <trkpt lat="58.610708964988589" lon="-3.552689021453261">
        <ele>-2.27</ele>
        <time>2023-08-22T11:50:44Z</time>
      </trkpt>
      <trkpt lat="58.610586002469063" lon="-3.552724979817867">
        <ele>-2.27</ele>
        <time>2023-08-22T11:50:45Z</time>
      </trkpt>
      <trkpt lat="58.610462034121156" lon="-3.552724979817867">
        <ele>-2.27</ele>
        <time>2023-08-22T11:50:46Z</time>
      </trkpt>
      <trkpt lat="58.609217992052436" lon="-3.552516018971801">
        <ele>6.39</ele>
        <time>2023-08-22T11:50:57Z</time>
      </trkpt>
      <trkpt lat="58.607984008267522" lon="-3.552028024569154">
        <ele>15.52</ele>
        <time>2023-08-22T11:51:08Z</time>
      </trkpt>
      <trkpt lat="58.606119034811854" lon="-3.55109796859324">
        <ele>23.210000000000001</ele>
        <time>2023-08-22T11:51:21Z</time>
      </trkpt>
      <trkpt lat="58.604937018826604" lon="-3.550768978893757">
        <ele>28.5</ele>
        <time>2023-08-22T11:51:31Z</time>
      </trkpt>
      <trkpt lat="58.603937979787588" lon="-3.550002034753561">
        <ele>31.859999999999999</ele>
        <time>2023-08-22T11:51:39Z</time>
      </trkpt>
      <trkpt lat="58.603030974045396" lon="-3.548534028232098">
        <ele>30.899999999999999</ele>
        <time>2023-08-22T11:51:48Z</time>
      </trkpt>
      <trkpt lat="58.602290013805032" lon="-3.546335035935044">
        <ele>27.050000000000001</ele>
        <time>2023-08-22T11:51:58Z</time>
      </trkpt>
      <trkpt lat="58.601361969485879" lon="-3.542438037693501">
        <ele>21.289999999999999</ele>
        <time>2023-08-22T11:52:14Z</time>
      </trkpt>
      <trkpt lat="58.600657973438501" lon="-3.540601981803775">
        <ele>16.48</ele>
        <time>2023-08-22T11:52:23Z</time>
      </trkpt>
      <trkpt lat="58.599245036020875" lon="-3.53835797868669">
        <ele>18.399999999999999</ele>
        <time>2023-08-22T11:52:37Z</time>
      </trkpt>
      <trkpt lat="58.598650004714727" lon="-3.537405040115118">
        <ele>22.25</ele>
        <time>2023-08-22T11:52:45Z</time>
      </trkpt>
      <trkpt lat="58.598561994731426" lon="-3.537333961576223">
        <ele>24.170000000000002</ele>
        <time>2023-08-22T11:52:51Z</time>
      </trkpt>
      <trkpt lat="58.598475996404886" lon="-3.537264978513122">
        <ele>25.609999999999999</ele>
        <time>2023-08-22T11:52:54Z</time>
      </trkpt>
      <trkpt lat="58.598424028605223" lon="-3.537083007395268">
        <ele>26.09</ele>
        <time>2023-08-22T11:52:55Z</time>
      </trkpt>
      <trkpt lat="58.598413970321417" lon="-3.536950992420316">
        <ele>26.57</ele>
        <time>2023-08-22T11:52:56Z</time>
      </trkpt>
      <trkpt lat="58.598401984199882" lon="-3.536793999373913">
        <ele>27.050000000000001</ele>
        <time>2023-08-22T11:52:57Z</time>
      </trkpt>
      <trkpt lat="58.598388992249966" lon="-3.536626026034355">
        <ele>27.050000000000001</ele>
        <time>2023-08-22T11:52:58Z</time>
      </trkpt>
      <trkpt lat="58.598215989768505" lon="-3.534357966855168">
        <ele>28.5</ele>
        <time>2023-08-22T11:53:09Z</time>
      </trkpt>
      <trkpt lat="58.598078023642302" lon="-3.532990962266922">
        <ele>28.5</ele>
        <time>2023-08-22T11:53:18Z</time>
      </trkpt>
      <trkpt lat="58.597964029759169" lon="-3.531766030937433">
        <ele>28.98</ele>
        <time>2023-08-22T11:53:25Z</time>
      </trkpt>
      <trkpt lat="58.597729001194239" lon="-3.529936010017991">
        <ele>27.530000000000001</ele>
        <time>2023-08-22T11:53:32Z</time>
      </trkpt>
      <trkpt lat="58.597284005954862" lon="-3.528148988261819">
        <ele>24.649999999999999</ele>
        <time>2023-08-22T11:53:41Z</time>
      </trkpt>
      <trkpt lat="58.59640097245574" lon="-3.525408022105694">
        <ele>20.32</ele>
        <time>2023-08-22T11:53:56Z</time>
      </trkpt>
      <trkpt lat="58.595775011926889" lon="-3.523607002571225">
        <ele>16.48</ele>
        <time>2023-08-22T11:54:06Z</time>
      </trkpt>
      <trkpt lat="58.595479968935251" lon="-3.522545015439391">
        <ele>16</ele>
        <time>2023-08-22T11:54:14Z</time>
      </trkpt>
      <trkpt lat="58.5953030269593" lon="-3.521933974698186">
        <ele>15.039999999999999</ele>
        <time>2023-08-22T11:54:23Z</time>
      </trkpt>
      <trkpt lat="58.595155002549291" lon="-3.521516975015402">
        <ele>14.56</ele>
        <time>2023-08-22T11:54:32Z</time>
      </trkpt>
      <trkpt lat="58.595155002549291" lon="-3.521516975015402">
        <ele>14.08</ele>
        <time>2023-08-22T11:54:45Z</time>
      </trkpt>
      <trkpt lat="58.595019970089197" lon="-3.521142974495888">
        <ele>13.119999999999999</ele>
        <time>2023-08-22T11:55:01Z</time>
      </trkpt>
      <trkpt lat="58.594845961779356" lon="-3.520645005628467">
        <ele>12.15</ele>
        <time>2023-08-22T11:55:10Z</time>
      </trkpt>
      <trkpt lat="58.594815032556653" lon="-3.520555989816785">
        <ele>11.19</ele>
        <time>2023-08-22T11:55:19Z</time>
      </trkpt>
      <trkpt lat="58.594749988988042" lon="-3.520479965955019">
        <ele>10.23</ele>
        <time>2023-08-22T11:55:41Z</time>
      </trkpt>
      <trkpt lat="58.594714030623436" lon="-3.520444007590413">
        <ele>9.75</ele>
        <time>2023-08-22T11:55:42Z</time>
      </trkpt>
      <trkpt lat="58.594701960682869" lon="-3.520432021468878">
        <ele>9.75</ele>
        <time>2023-08-22T11:55:43Z</time>
      </trkpt>
      <trkpt lat="58.594656027853489" lon="-3.520445013418794">
        <ele>9.75</ele>
        <time>2023-08-22T11:55:44Z</time>
      </trkpt>
      <trkpt lat="58.59461504034698" lon="-3.520455993711948">
        <ele>9.27</ele>
        <time>2023-08-22T11:55:45Z</time>
      </trkpt>
      <trkpt lat="58.59455200843513" lon="-3.520474014803767">
        <ele>8.789999999999999</ele>
        <time>2023-08-22T11:55:46Z</time>
      </trkpt>
      <trkpt lat="58.594567012041807" lon="-3.520469991490245">
        <ele>8.789999999999999</ele>
        <time>2023-08-22T11:55:47Z</time>
      </trkpt>
      <trkpt lat="58.59455200843513" lon="-3.520474014803767">
        <ele>8.310000000000001</ele>
        <time>2023-08-22T11:55:48Z</time>
      </trkpt>
      <trkpt lat="58.59455200843513" lon="-3.520474014803767">
        <ele>7.83</ele>
        <time>2023-08-22T11:56:00Z</time>
      </trkpt>
      <trkpt lat="58.594450000673532" lon="-3.520639976486564">
        <ele>3.98</ele>
        <time>2023-08-22T11:56:24Z</time>
      </trkpt>
      <trkpt lat="58.594279009848833" lon="-3.520916998386383">
        <ele>1.1</ele>
        <time>2023-08-22T11:56:37Z</time>
      </trkpt>
      <trkpt lat="58.594150012359023" lon="-3.521113973110914">
        <ele>-0.34</ele>
        <time>2023-08-22T11:56:50Z</time>
      </trkpt>
      <trkpt lat="58.594114976003766" lon="-3.521164013072848">
        <ele>-1.3</ele>
        <time>2023-08-22T11:57:01Z</time>
      </trkpt>
      <trkpt lat="58.594065019860864" lon="-3.521234001964331">
        <ele>-2.75</ele>
        <time>2023-08-22T11:57:25Z</time>
      </trkpt>
      <trkpt lat="58.59390702098608" lon="-3.521456960588694">
        <ele>-4.19</ele>
        <time>2023-08-22T11:57:37Z</time>
      </trkpt>
      <trkpt lat="58.593664029613137" lon="-3.521799026057124">
        <ele>-5.63</ele>
        <time>2023-08-22T11:57:44Z</time>
      </trkpt>
      <trkpt lat="58.59358599409461" lon="-3.52189801633358">
        <ele>-5.63</ele>
        <time>2023-08-22T11:57:47Z</time>
      </trkpt>
      <trkpt lat="58.593465965241194" lon="-3.521916959434748">
        <ele>-6.11</ele>
        <time>2023-08-22T11:57:48Z</time>
      </trkpt>
      <trkpt lat="58.593438975512981" lon="-3.521856022998691">
        <ele>-6.11</ele>
        <time>2023-08-22T11:57:49Z</time>
      </trkpt>
      <trkpt lat="58.593409974128008" lon="-3.521787039935589">
        <ele>-5.63</ele>
        <time>2023-08-22T11:57:50Z</time>
      </trkpt>
      <trkpt lat="58.593375021591783" lon="-3.52170498110354">
        <ele>-5.15</ele>
        <time>2023-08-22T11:57:51Z</time>
      </trkpt>
      <trkpt lat="58.593333028256893" lon="-3.521606996655464">
        <ele>-5.15</ele>
        <time>2023-08-22T11:57:52Z</time>
      </trkpt>
      <trkpt lat="58.592803040519357" lon="-3.5203099809587">
        <ele>-5.15</ele>
        <time>2023-08-22T11:58:03Z</time>
      </trkpt>
      <trkpt lat="58.592116981744766" lon="-3.518603006377816">
        <ele>-1.79</ele>
        <time>2023-08-22T11:58:15Z</time>
      </trkpt>
      <trkpt lat="58.591783968731761" lon="-3.517791973426938">
        <ele>-3.23</ele>
        <time>2023-08-22T11:58:24Z</time>
      </trkpt>
      <trkpt lat="58.591654971241951" lon="-3.517556022852659">
        <ele>-3.23</ele>
        <time>2023-08-22T11:58:27Z</time>
      </trkpt>
      <trkpt lat="58.591623036190867" lon="-3.517467007040978">
        <ele>-3.23</ele>
        <time>2023-08-22T11:58:28Z</time>
      </trkpt>
      <trkpt lat="58.591601997613907" lon="-3.517174981534481">
        <ele>-3.23</ele>
        <time>2023-08-22T11:58:29Z</time>
      </trkpt>
      <trkpt lat="58.591625969856977" lon="-3.517062999308109">
        <ele>-3.23</ele>
        <time>2023-08-22T11:58:30Z</time>
      </trkpt>
      <trkpt lat="58.591654971241951" lon="-3.516934001818299">
        <ele>-3.23</ele>
        <time>2023-08-22T11:58:31Z</time>
      </trkpt>
      <trkpt lat="58.591897962614894" lon="-3.51543003693223">
        <ele>-1.79</ele>
        <time>2023-08-22T11:58:39Z</time>
      </trkpt>
      <trkpt lat="58.592457035556436" lon="-3.513693977147341">
        <ele>2.54</ele>
        <time>2023-08-22T11:58:48Z</time>
      </trkpt>
      <trkpt lat="58.593705017119646" lon="-3.511408986523747">
        <ele>7.83</ele>
        <time>2023-08-22T11:59:01Z</time>
      </trkpt>
      <trkpt lat="58.594705983996391" lon="-3.509712992236018">
        <ele>10.23</ele>
        <time>2023-08-22T11:59:11Z</time>
      </trkpt>
      <trkpt lat="58.595486003905535" lon="-3.508138032630086">
        <ele>9.75</ele>
        <time>2023-08-22T11:59:20Z</time>
      </trkpt>
      <trkpt lat="58.595548029989004" lon="-3.507923036813736">
        <ele>9.75</ele>
        <time>2023-08-22T11:59:21Z</time>
      </trkpt>
      <trkpt lat="58.595603015273809" lon="-3.507728995755315">
        <ele>9.75</ele>
        <time>2023-08-22T11:59:22Z</time>
      </trkpt>
      <trkpt lat="58.595609972253442" lon="-3.50750301964581">
        <ele>10.23</ele>
        <time>2023-08-22T11:59:23Z</time>
      </trkpt>
      <trkpt lat="58.595618018880486" lon="-3.507251981645823">
        <ele>10.23</ele>
        <time>2023-08-22T11:59:24Z</time>
      </trkpt>
      <trkpt lat="58.595619024708867" lon="-3.507017958909273">
        <ele>10.710000000000001</ele>
        <time>2023-08-22T11:59:25Z</time>
      </trkpt>
      <trkpt lat="58.595573008060455" lon="-3.506797011941671">
        <ele>11.19</ele>
        <time>2023-08-22T11:59:26Z</time>
      </trkpt>
      <trkpt lat="58.595525985583663" lon="-3.506576986983419">
        <ele>11.67</ele>
        <time>2023-08-22T11:59:27Z</time>
      </trkpt>
      <trkpt lat="58.595474017783999" lon="-3.506333995610476">
        <ele>12.15</ele>
        <time>2023-08-22T11:59:28Z</time>
      </trkpt>
      <trkpt lat="58.595409980043769" lon="-3.506179014220834">
        <ele>13.119999999999999</ele>
        <time>2023-08-22T11:59:29Z</time>
      </trkpt>
      <trkpt lat="58.595335967838764" lon="-3.50599997676909">
        <ele>13.6</ele>
        <time>2023-08-22T11:59:30Z</time>
      </trkpt>
      <trkpt lat="58.594424016773701" lon="-3.503569979220629">
        <ele>20.809999999999999</ele>
        <time>2023-08-22T11:59:43Z</time>
      </trkpt>
      <trkpt lat="58.594097960740328" lon="-3.501176023855805">
        <ele>26.57</ele>
        <time>2023-08-22T11:59:53Z</time>
      </trkpt>
      <trkpt lat="58.593818005174398" lon="-3.498533964157105">
        <ele>30.420000000000002</ele>
        <time>2023-08-22T12:00:01Z</time>
      </trkpt>
      <trkpt lat="58.593619018793106" lon="-3.49744901061058">
        <ele>31.379999999999999</ele>
        <time>2023-08-22T12:00:04Z</time>
      </trkpt>
      <trkpt lat="58.593530002981424" lon="-3.497113985940814">
        <ele>31.859999999999999</ele>
        <time>2023-08-22T12:00:05Z</time>
      </trkpt>
      <trkpt lat="58.593409974128008" lon="-3.496809974312782">
        <ele>31.859999999999999</ele>
        <time>2023-08-22T12:00:06Z</time>
      </trkpt>
      <trkpt lat="58.592543033882976" lon="-3.494463041424751">
        <ele>34.259999999999998</ele>
        <time>2023-08-22T12:00:14Z</time>
      </trkpt>
      <trkpt lat="58.592469021677971" lon="-3.49415902979672">
        <ele>34.259999999999998</ele>
        <time>2023-08-22T12:00:15Z</time>
      </trkpt>
      <trkpt lat="58.592414036393166" lon="-3.493829034268856">
        <ele>34.259999999999998</ele>
        <time>2023-08-22T12:00:16Z</time>
      </trkpt>
      <trkpt lat="58.592385035008192" lon="-3.493496021255851">
        <ele>34.259999999999998</ele>
        <time>2023-08-22T12:00:17Z</time>
      </trkpt>
      <trkpt lat="58.592385035008192" lon="-3.493142975494266">
        <ele>34.259999999999998</ele>
        <time>2023-08-22T12:00:18Z</time>
      </trkpt>
      <trkpt lat="58.592385035008192" lon="-3.492776015773416">
        <ele>34.259999999999998</ele>
        <time>2023-08-22T12:00:19Z</time>
      </trkpt>
      <trkpt lat="58.592526018619537" lon="-3.488657986745238">
        <ele>36.189999999999998</ele>
        <time>2023-08-22T12:00:29Z</time>
      </trkpt>
      <trkpt lat="58.592728022485971" lon="-3.482945971190929">
        <ele>39.549999999999997</ele>
        <time>2023-08-22T12:00:43Z</time>
      </trkpt>
      <trkpt lat="58.592964978888631" lon="-3.476268025115132">
        <ele>44.840000000000003</ele>
        <time>2023-08-22T12:01:00Z</time>
      </trkpt>
      <trkpt lat="58.59317796304822" lon="-3.470275970175862">
        <ele>43.880000000000003</ele>
        <time>2023-08-22T12:01:15Z</time>
      </trkpt>
      <trkpt lat="58.593361023813486" lon="-3.465112969279289">
        <ele>30.899999999999999</ele>
        <time>2023-08-22T12:01:28Z</time>
      </trkpt>
      <trkpt lat="58.593508964404464" lon="-3.461029976606369">
        <ele>24.170000000000002</ele>
        <time>2023-08-22T12:01:39Z</time>
      </trkpt>
      <trkpt lat="58.593731001019478" lon="-3.455112017691135">
        <ele>23.690000000000001</ele>
        <time>2023-08-22T12:01:54Z</time>
      </trkpt>
      <trkpt lat="58.593941973522305" lon="-3.449005968868733">
        <ele>21.289999999999999</ele>
        <time>2023-08-22T12:02:10Z</time>
      </trkpt>
      <trkpt lat="58.59416401013732" lon="-3.442494990304112">
        <ele>27.050000000000001</ele>
        <time>2023-08-22T12:02:27Z</time>
      </trkpt>
      <trkpt lat="58.594378000125289" lon="-3.436821028590202">
        <ele>38.109999999999999</ele>
        <time>2023-08-22T12:02:42Z</time>
      </trkpt>
      <trkpt lat="58.594554020091891" lon="-3.431908981874585">
        <ele>44.359999999999999</ele>
        <time>2023-08-22T12:02:55Z</time>
      </trkpt>
      <trkpt lat="58.594740014523268" lon="-3.426435012370348">
        <ele>44.840000000000003</ele>
        <time>2023-08-22T12:03:09Z</time>
      </trkpt>
      <trkpt lat="58.594930032268167" lon="-3.421143013983965">
        <ele>44.840000000000003</ele>
        <time>2023-08-22T12:03:23Z</time>
      </trkpt>
      <trkpt lat="58.59504796564579" lon="-3.417863007634878">
        <ele>46.280000000000001</ele>
        <time>2023-08-22T12:03:32Z</time>
      </trkpt>
      <trkpt lat="58.595257010310888" lon="-3.412138000130653">
        <ele>45.32</ele>
        <time>2023-08-22T12:03:47Z</time>
      </trkpt>
      <trkpt lat="58.595396988093853" lon="-3.407658962532878">
        <ele>40.030000000000001</ele>
        <time>2023-08-22T12:03:59Z</time>
      </trkpt>
      <trkpt lat="58.595426995307207" lon="-3.404693026095629">
        <ele>34.259999999999998</ele>
        <time>2023-08-22T12:04:08Z</time>
      </trkpt>
      <trkpt lat="58.595449039712548" lon="-3.402665024623275">
        <ele>33.780000000000001</ele>
        <time>2023-08-22T12:04:17Z</time>
      </trkpt>
      <trkpt lat="58.595479968935251" lon="-3.400999959558249">
        <ele>34.740000000000002</ele>
        <time>2023-08-22T12:04:26Z</time>
      </trkpt>
      <trkpt lat="58.595452979207039" lon="-3.399672014638782">
        <ele>35.710000000000001</ele>
        <time>2023-08-22T12:04:35Z</time>
      </trkpt>
      <trkpt lat="58.595439987257123" lon="-3.399530025199056">
        <ele>36.189999999999998</ele>
        <time>2023-08-22T12:04:36Z</time>
      </trkpt>
      <trkpt lat="58.595420038327575" lon="-3.399383006617427">
        <ele>35.710000000000001</ele>
        <time>2023-08-22T12:04:37Z</time>
      </trkpt>
      <trkpt lat="58.595385001972318" lon="-3.399236993864179">
        <ele>35.710000000000001</ele>
        <time>2023-08-22T12:04:38Z</time>
      </trkpt>
      <trkpt lat="58.59534895978868" lon="-3.399085029959679">
        <ele>35.229999999999997</ele>
        <time>2023-08-22T12:04:39Z</time>
      </trkpt>
      <trkpt lat="58.594892984256148" lon="-3.397556003183126">
        <ele>32.340000000000003</ele>
        <time>2023-08-22T12:04:50Z</time>
      </trkpt>
      <trkpt lat="58.594774967059493" lon="-3.397166999056935">
        <ele>31.859999999999999</ele>
        <time>2023-08-22T12:04:53Z</time>
      </trkpt>
      <trkpt lat="58.594247996807098" lon="-3.395420964807272">
        <ele>31.859999999999999</ele>
        <time>2023-08-22T12:05:06Z</time>
      </trkpt>
      <trkpt lat="58.594085974618793" lon="-3.394876979291439">
        <ele>31.379999999999999</ele>
        <time>2023-08-22T12:05:10Z</time>
      </trkpt>
      <trkpt lat="58.593579037114978" lon="-3.393205041065812">
        <ele>27.530000000000001</ele>
        <time>2023-08-22T12:05:22Z</time>
      </trkpt>
      <trkpt lat="58.593107974156737" lon="-3.391695041209459">
        <ele>28.98</ele>
        <time>2023-08-22T12:05:33Z</time>
      </trkpt>
      <trkpt lat="58.59263900667429" lon="-3.390126032754779">
        <ele>30.420000000000002</ele>
        <time>2023-08-22T12:05:44Z</time>
      </trkpt>
      <trkpt lat="58.592122010886669" lon="-3.388391984626651">
        <ele>30.420000000000002</ele>
        <time>2023-08-22T12:05:57Z</time>
      </trkpt>
      <trkpt lat="58.59208102338016" lon="-3.388257035985589">
        <ele>30.420000000000002</ele>
        <time>2023-08-22T12:05:58Z</time>
      </trkpt>
      <trkpt lat="58.591505018994212" lon="-3.386416034772992">
        <ele>33.299999999999997</ele>
        <time>2023-08-22T12:06:11Z</time>
      </trkpt>
      <trkpt lat="58.591025993227959" lon="-3.384821964427829">
        <ele>32.340000000000003</ele>
        <time>2023-08-22T12:06:24Z</time>
      </trkpt>
      <trkpt lat="58.590762969106436" lon="-3.383866008371115">
        <ele>33.299999999999997</ele>
        <time>2023-08-22T12:06:32Z</time>
      </trkpt>
      <trkpt lat="58.590754000470042" lon="-3.383745979517698">
        <ele>32.82</ele>
        <time>2023-08-22T12:06:33Z</time>
      </trkpt>
      <trkpt lat="58.590791970491409" lon="-3.383622011169791">
        <ele>31.859999999999999</ele>
        <time>2023-08-22T12:06:34Z</time>
      </trkpt>
      <trkpt lat="58.590833963826299" lon="-3.383483961224556">
        <ele>31.379999999999999</ele>
        <time>2023-08-22T12:06:35Z</time>
      </trkpt>
      <trkpt lat="58.590890960767865" lon="-3.383398968726397">
        <ele>30.899999999999999</ele>
        <time>2023-08-22T12:06:36Z</time>
      </trkpt>
      <trkpt lat="58.59096497297287" lon="-3.38329897262156">
        <ele>29.940000000000001</ele>
        <time>2023-08-22T12:06:37Z</time>
      </trkpt>
      <trkpt lat="58.591769970953465" lon="-3.382247965782881">
        <ele>24.170000000000002</ele>
        <time>2023-08-22T12:06:47Z</time>
      </trkpt>
      <trkpt lat="58.592466004192829" lon="-3.38117097504437">
        <ele>18.879999999999999</ele>
        <time>2023-08-22T12:06:56Z</time>
      </trkpt>
      <trkpt lat="58.592534987255931" lon="-3.38099998421967">
        <ele>17.920000000000002</ele>
        <time>2023-08-22T12:06:57Z</time>
      </trkpt>
      <trkpt lat="58.592572035267949" lon="-3.380759004503489">
        <ele>17.440000000000001</ele>
        <time>2023-08-22T12:06:58Z</time>
      </trkpt>
      <trkpt lat="58.592603970319033" lon="-3.3805460203439">
        <ele>16.960000000000001</ele>
        <time>2023-08-22T12:06:59Z</time>
      </trkpt>
      <trkpt lat="58.592636995017529" lon="-3.38033496402204">
        <ele>16.48</ele>
        <time>2023-08-22T12:07:00Z</time>
      </trkpt>
      <trkpt lat="58.592664990574121" lon="-3.380103958770633">
        <ele>16</ele>
        <time>2023-08-22T12:07:01Z</time>
      </trkpt>
      <trkpt lat="58.592670019716024" lon="-3.379859961569309">
        <ele>15.52</ele>
        <time>2023-08-22T12:07:02Z</time>
      </trkpt>
      <trkpt lat="58.592675970867276" lon="-3.379611019045115">
        <ele>15.039999999999999</ele>
        <time>2023-08-22T12:07:03Z</time>
      </trkpt>
      <trkpt lat="58.59268200583756" lon="-3.379351012408733">
        <ele>14.56</ele>
        <time>2023-08-22T12:07:04Z</time>
      </trkpt>
      <trkpt lat="58.592700026929379" lon="-3.379106009379029">
        <ele>14.08</ele>
        <time>2023-08-22T12:07:05Z</time>
      </trkpt>
      <trkpt lat="58.592733973637223" lon="-3.378860000520945">
        <ele>14.08</ele>
        <time>2023-08-22T12:07:06Z</time>
      </trkpt>
      <trkpt lat="58.592784013599157" lon="-3.378657996654511">
        <ele>13.6</ele>
        <time>2023-08-22T12:07:07Z</time>
      </trkpt>
      <trkpt lat="58.592868000268936" lon="-3.378447024151683">
        <ele>13.119999999999999</ele>
        <time>2023-08-22T12:07:08Z</time>
      </trkpt>
      <trkpt lat="58.592953998595476" lon="-3.378230016678572">
        <ele>12.15</ele>
        <time>2023-08-22T12:07:09Z</time>
      </trkpt>
      <trkpt lat="58.593044020235538" lon="-3.378003034740686">
        <ele>11.67</ele>
        <time>2023-08-22T12:07:10Z</time>
      </trkpt>
      <trkpt lat="58.59352296218276" lon="-3.376842979341745">
        <ele>8.789999999999999</ele>
        <time>2023-08-22T12:07:15Z</time>
      </trkpt>
      <trkpt lat="58.593622036278248" lon="-3.376609040424228">
        <ele>7.83</ele>
        <time>2023-08-22T12:07:16Z</time>
      </trkpt>
      <trkpt lat="58.593781962990761" lon="-3.376167984679341">
        <ele>6.87</ele>
        <time>2023-08-22T12:07:18Z</time>
      </trkpt>
      <trkpt lat="58.593793027102947" lon="-3.375924993306398">
        <ele>6.87</ele>
        <time>2023-08-22T12:07:19Z</time>
      </trkpt>
      <trkpt lat="58.593792021274567" lon="-3.375672027468681">
        <ele>6.39</ele>
        <time>2023-08-22T12:07:20Z</time>
      </trkpt>
      <trkpt lat="58.593758996576071" lon="-3.375410009175539">
        <ele>6.39</ele>
        <time>2023-08-22T12:07:21Z</time>
      </trkpt>
      <trkpt lat="58.593683978542686" lon="-3.375171963125467">
        <ele>6.87</ele>
        <time>2023-08-22T12:07:22Z</time>
      </trkpt>
      <trkpt lat="58.593599991872907" lon="-3.374914973974228">
        <ele>6.87</ele>
        <time>2023-08-22T12:07:23Z</time>
      </trkpt>
      <trkpt lat="58.593511981889606" lon="-3.374644992873073">
        <ele>6.87</ele>
        <time>2023-08-22T12:07:24Z</time>
      </trkpt>
      <trkpt lat="58.593102023005486" lon="-3.373122001066804">
        <ele>7.35</ele>
        <time>2023-08-22T12:07:29Z</time>
      </trkpt>
      <trkpt lat="58.5930460318923" lon="-3.372778007760644">
        <ele>7.35</ele>
        <time>2023-08-22T12:07:30Z</time>
      </trkpt>
      <trkpt lat="58.593033039942384" lon="-3.372414987534285">
        <ele>7.35</ele>
        <time>2023-08-22T12:07:31Z</time>
      </trkpt>
      <trkpt lat="58.593042008578777" lon="-3.372049033641815">
        <ele>7.35</ele>
        <time>2023-08-22T12:07:32Z</time>
      </trkpt>
      <trkpt lat="58.593065980821848" lon="-3.371679978445172">
        <ele>7.35</ele>
        <time>2023-08-22T12:07:33Z</time>
      </trkpt>
      <trkpt lat="58.593121971935034" lon="-3.371315030381084">
        <ele>7.35</ele>
        <time>2023-08-22T12:07:34Z</time>
      </trkpt>
      <trkpt lat="58.593187015503645" lon="-3.370953015983105">
        <ele>7.35</ele>
        <time>2023-08-22T12:07:35Z</time>
      </trkpt>
      <trkpt lat="58.594203991815448" lon="-3.365338984876871">
        <ele>8.789999999999999</ele>
        <time>2023-08-22T12:07:50Z</time>
      </trkpt>
      <trkpt lat="58.594600958749652" lon="-3.362702038139105">
        <ele>9.75</ele>
        <time>2023-08-22T12:07:57Z</time>
      </trkpt>
      <trkpt lat="58.59571298584342" lon="-3.359153978526592">
        <ele>9.75</ele>
        <time>2023-08-22T12:08:08Z</time>
      </trkpt>
      <trkpt lat="58.597384002059698" lon="-3.35502203553915">
        <ele>7.83</ele>
        <time>2023-08-22T12:08:22Z</time>
      </trkpt>
      <trkpt lat="58.599060969427228" lon="-3.351982003077865">
        <ele>7.35</ele>
        <time>2023-08-22T12:08:34Z</time>
      </trkpt>
      <trkpt lat="58.60039402730763" lon="-3.350490024313331">
        <ele>5.91</ele>
        <time>2023-08-22T12:08:42Z</time>
      </trkpt>
      <trkpt lat="58.603235995396972" lon="-3.34806296043098">
        <ele>4.46</ele>
        <time>2023-08-22T12:08:58Z</time>
      </trkpt>
      <trkpt lat="58.60585399903357" lon="-3.345732958987355">
        <ele>5.91</ele>
        <time>2023-08-22T12:09:13Z</time>
      </trkpt>
      <trkpt lat="58.608154999092221" lon="-3.343949960544705">
        <ele>8.310000000000001</ele>
        <time>2023-08-22T12:09:26Z</time>
      </trkpt>
      <trkpt lat="58.609602972865105" lon="-3.34352700971067">
        <ele>9.27</ele>
        <time>2023-08-22T12:09:34Z</time>
      </trkpt>
      <trkpt lat="58.611410027369857" lon="-3.343030968680978">
        <ele>8.789999999999999</ele>
        <time>2023-08-22T12:09:43Z</time>
      </trkpt>
      <trkpt lat="58.611613037064672" lon="-3.343047983944416">
        <ele>9.27</ele>
        <time>2023-08-22T12:09:44Z</time>
      </trkpt>
      <trkpt lat="58.61382300965488" lon="-3.343720966950059">
        <ele>8.789999999999999</ele>
        <time>2023-08-22T12:09:55Z</time>
      </trkpt>
      <trkpt lat="58.615410961210728" lon="-3.344464022666216">
        <ele>7.35</ele>
        <time>2023-08-22T12:10:04Z</time>
      </trkpt>
      <trkpt lat="58.615566026419401" lon="-3.344659991562367">
        <ele>7.83</ele>
        <time>2023-08-22T12:10:05Z</time>
      </trkpt>
      <trkpt lat="58.615712039172649" lon="-3.344896025955677">
        <ele>7.83</ele>
        <time>2023-08-22T12:10:06Z</time>
      </trkpt>
      <trkpt lat="58.616164997220039" lon="-3.34556900896132">
        <ele>6.87</ele>
        <time>2023-08-22T12:10:09Z</time>
      </trkpt>
      <trkpt lat="58.616326013579965" lon="-3.345756009221077">
        <ele>5.91</ele>
        <time>2023-08-22T12:10:10Z</time>
      </trkpt>
      <trkpt lat="58.616506978869438" lon="-3.345885006710887">
        <ele>5.42</ele>
        <time>2023-08-22T12:10:11Z</time>
      </trkpt>
      <trkpt lat="58.617868032306433" lon="-3.346728980541229">
        <ele>3.98</ele>
        <time>2023-08-22T12:10:19Z</time>
      </trkpt>
      <trkpt lat="58.618027959018946" lon="-3.346743984147906">
        <ele>3.5</ele>
        <time>2023-08-22T12:10:20Z</time>
      </trkpt>
      <trkpt lat="58.618176989257336" lon="-3.346721017733216">
        <ele>3.98</ele>
        <time>2023-08-22T12:10:21Z</time>
      </trkpt>
      <trkpt lat="58.618325013667345" lon="-3.346610963344574">
        <ele>3.98</ele>
        <time>2023-08-22T12:10:22Z</time>
      </trkpt>
      <trkpt lat="58.618473038077354" lon="-3.346501998603344">
        <ele>3.98</ele>
        <time>2023-08-22T12:10:23Z</time>
      </trkpt>
      <trkpt lat="58.6186140216887" lon="-3.346396973356605">
        <ele>3.98</ele>
        <time>2023-08-22T12:10:24Z</time>
      </trkpt>
      <trkpt lat="58.619596967473626" lon="-3.345517041161656">
        <ele>6.87</ele>
        <time>2023-08-22T12:10:33Z</time>
      </trkpt>
      <trkpt lat="58.621179973706603" lon="-3.344048028811812">
        <ele>9.75</ele>
        <time>2023-08-22T12:10:48Z</time>
      </trkpt>
      <trkpt lat="58.622270040214062" lon="-3.343037003651261">
        <ele>14.08</ele>
        <time>2023-08-22T12:11:00Z</time>
      </trkpt>
      <trkpt lat="58.622322008013725" lon="-3.342987969517708">
        <ele>14.56</ele>
        <time>2023-08-22T12:11:01Z</time>
      </trkpt>
      <trkpt lat="58.62241898663342" lon="-3.342994004487991">
        <ele>14.56</ele>
        <time>2023-08-22T12:11:02Z</time>
      </trkpt>
      <trkpt lat="58.622439019382" lon="-3.343101963400841">
        <ele>15.039999999999999</ele>
        <time>2023-08-22T12:11:03Z</time>
      </trkpt>
      <trkpt lat="58.622467014938593" lon="-3.343250993639231">
        <ele>15.52</ele>
        <time>2023-08-22T12:11:04Z</time>
      </trkpt>
      <trkpt lat="58.622500961646438" lon="-3.343428019434214">
        <ele>16</ele>
        <time>2023-08-22T12:11:05Z</time>
      </trkpt>
      <trkpt lat="58.622716963291168" lon="-3.344868030399084">
        <ele>17.920000000000002</ele>
        <time>2023-08-22T12:11:12Z</time>
      </trkpt>
      <trkpt lat="58.622734984382987" lon="-3.344994010403752">
        <ele>18.399999999999999</ele>
        <time>2023-08-22T12:11:13Z</time>
      </trkpt>
      <trkpt lat="58.622746970504522" lon="-3.345079002901912">
        <ele>18.399999999999999</ele>
        <time>2023-08-22T12:11:14Z</time>
      </trkpt>
      <trkpt lat="58.622806984931231" lon="-3.345062993466854">
        <ele>18.399999999999999</ele>
        <time>2023-08-22T12:11:15Z</time>
      </trkpt>
      <trkpt lat="58.622874962165952" lon="-3.345044972375035">
        <ele>18.399999999999999</ele>
        <time>2023-08-22T12:11:16Z</time>
      </trkpt>
      <trkpt lat="58.622960038483143" lon="-3.345022005960345">
        <ele>18.399999999999999</ele>
        <time>2023-08-22T12:11:17Z</time>
      </trkpt>
      <trkpt lat="58.623058022931218" lon="-3.344995016232133">
        <ele>18.399999999999999</ele>
        <time>2023-08-22T12:11:18Z</time>
      </trkpt>
      <trkpt lat="58.623165981844068" lon="-3.344965009018779">
        <ele>18.399999999999999</ele>
        <time>2023-08-22T12:11:19Z</time>
      </trkpt>
      <trkpt lat="58.624225035309792" lon="-3.344678012654185">
        <ele>19.84</ele>
        <time>2023-08-22T12:11:27Z</time>
      </trkpt>
      <trkpt lat="58.624350009486079" lon="-3.344698967412114">
        <ele>20.32</ele>
        <time>2023-08-22T12:11:28Z</time>
      </trkpt>
      <trkpt lat="58.624470960348845" lon="-3.344741966575384">
        <ele>20.809999999999999</ele>
        <time>2023-08-22T12:11:29Z</time>
      </trkpt>
      <trkpt lat="58.62458998337388" lon="-3.344854032620788">
        <ele>21.289999999999999</ele>
        <time>2023-08-22T12:11:30Z</time>
      </trkpt>
      <trkpt lat="58.624713029712439" lon="-3.344970038160682">
        <ele>21.77</ele>
        <time>2023-08-22T12:11:31Z</time>
      </trkpt>
      <trkpt lat="58.626316990703344" lon="-3.346388004720211">
        <ele>26.57</ele>
        <time>2023-08-22T12:11:43Z</time>
      </trkpt>
      <trkpt lat="58.627470005303621" lon="-3.347059981897473">
        <ele>31.379999999999999</ele>
        <time>2023-08-22T12:11:52Z</time>
      </trkpt>
      <trkpt lat="58.628104012459517" lon="-3.347401041537523">
        <ele>32.340000000000003</ele>
        <time>2023-08-22T12:11:59Z</time>
      </trkpt>
      <trkpt lat="58.628290006890893" lon="-3.347501959651709">
        <ele>33.299999999999997</ele>
        <time>2023-08-22T12:12:04Z</time>
      </trkpt>
      <trkpt lat="58.628726033493876" lon="-3.347735982388258">
        <ele>32.82</ele>
        <time>2023-08-22T12:12:09Z</time>
      </trkpt>
      <trkpt lat="58.629375966265798" lon="-3.348087016493082">
        <ele>30.899999999999999</ele>
        <time>2023-08-22T12:12:15Z</time>
      </trkpt>
      <trkpt lat="58.631040025502443" lon="-3.348982958123088">
        <ele>29.460000000000001</ele>
        <time>2023-08-22T12:12:27Z</time>
      </trkpt>
      <trkpt lat="58.632877003401518" lon="-3.349933968856931">
        <ele>28.5</ele>
        <time>2023-08-22T12:12:39Z</time>
      </trkpt>
      <trkpt lat="58.633036008104682" lon="-3.349989959970117">
        <ele>28.02</ele>
        <time>2023-08-22T12:12:40Z</time>
      </trkpt>
      <trkpt lat="58.633197024464607" lon="-3.349960958585143">
        <ele>28.02</ele>
        <time>2023-08-22T12:12:41Z</time>
      </trkpt>
      <trkpt lat="58.633355023339391" lon="-3.349923994392157">
        <ele>28.02</ele>
        <time>2023-08-22T12:12:42Z</time>
      </trkpt>
      <trkpt lat="58.633506987243891" lon="-3.349821986630559">
        <ele>27.530000000000001</ele>
        <time>2023-08-22T12:12:43Z</time>
      </trkpt>
      <trkpt lat="58.633659034967422" lon="-3.349718973040581">
        <ele>28.02</ele>
        <time>2023-08-22T12:12:44Z</time>
      </trkpt>
      <trkpt lat="58.635731041431427" lon="-3.348243003711104">
        <ele>27.050000000000001</ele>
        <time>2023-08-22T12:12:57Z</time>
      </trkpt>
      <trkpt lat="58.638738971203566" lon="-3.34610503166914">
        <ele>25.609999999999999</ele>
        <time>2023-08-22T12:13:15Z</time>
      </trkpt>
      <trkpt lat="58.640461033210158" lon="-3.344822013750672">
        <ele>26.09</ele>
        <time>2023-08-22T12:13:26Z</time>
      </trkpt>
      <trkpt lat="58.640582989901304" lon="-3.344648005440831">
        <ele>26.09</ele>
        <time>2023-08-22T12:13:27Z</time>
      </trkpt>
      <trkpt lat="58.640686003491282" lon="-3.344499981030822">
        <ele>26.09</ele>
        <time>2023-08-22T12:13:28Z</time>
      </trkpt>
      <trkpt lat="58.640784993767738" lon="-3.344248021021485">
        <ele>26.57</ele>
        <time>2023-08-22T12:13:29Z</time>
      </trkpt>
      <trkpt lat="58.64087400957942" lon="-3.34402296692133">
        <ele>26.57</ele>
        <time>2023-08-22T12:13:30Z</time>
      </trkpt>
      <trkpt lat="58.640959002077579" lon="-3.343806965276599">
        <ele>27.050000000000001</ele>
        <time>2023-08-22T12:13:31Z</time>
      </trkpt>
      <trkpt lat="58.640999989584088" lon="-3.343561962246895">
        <ele>27.530000000000001</ele>
        <time>2023-08-22T12:13:32Z</time>
      </trkpt>
      <trkpt lat="58.641036031767726" lon="-3.343324000015855">
        <ele>28.02</ele>
        <time>2023-08-22T12:13:33Z</time>
      </trkpt>
      <trkpt lat="58.641070984303951" lon="-3.34309701807797">
        <ele>28.02</ele>
        <time>2023-08-22T12:13:34Z</time>
      </trkpt>
      <trkpt lat="58.641103003174067" lon="-3.342887973412871">
        <ele>28.5</ele>
        <time>2023-08-22T12:13:35Z</time>
      </trkpt>
      <trkpt lat="58.641253961250186" lon="-3.341902010142803">
        <ele>30.420000000000002</ele>
        <time>2023-08-22T12:13:41Z</time>
      </trkpt>
      <trkpt lat="58.641268964856863" lon="-3.341805031523109">
        <ele>30.420000000000002</ele>
        <time>2023-08-22T12:13:42Z</time>
      </trkpt>
      <trkpt lat="58.641317998990417" lon="-3.341710986569524">
        <ele>30.899999999999999</ele>
        <time>2023-08-22T12:13:43Z</time>
      </trkpt>
      <trkpt lat="58.641366027295589" lon="-3.34174401126802">
        <ele>31.379999999999999</ele>
        <time>2023-08-22T12:13:44Z</time>
      </trkpt>
      <trkpt lat="58.641429981216788" lon="-3.34178801625967">
        <ele>31.379999999999999</ele>
        <time>2023-08-22T12:13:45Z</time>
      </trkpt>
      <trkpt lat="58.641507010906935" lon="-3.341840989887714">
        <ele>31.859999999999999</ele>
        <time>2023-08-22T12:13:46Z</time>
      </trkpt>
      <trkpt lat="58.642287030816078" lon="-3.342379024252296">
        <ele>31.859999999999999</ele>
        <time>2023-08-22T12:13:53Z</time>
      </trkpt>
      <trkpt lat="58.643702985718846" lon="-3.343474036082625">
        <ele>31.859999999999999</ele>
        <time>2023-08-22T12:14:04Z</time>
      </trkpt>
      <trkpt lat="58.644854994490743" lon="-3.344298982992768">
        <ele>30.899999999999999</ele>
        <time>2023-08-22T12:14:13Z</time>
      </trkpt>
      <trkpt lat="58.645691005513072" lon="-3.344979006797075">
        <ele>29.940000000000001</ele>
        <time>2023-08-22T12:14:20Z</time>
      </trkpt>
      <trkpt lat="58.645797036588192" lon="-3.345120996236801">
        <ele>30.420000000000002</ele>
        <time>2023-08-22T12:14:21Z</time>
      </trkpt>
      <trkpt lat="58.645899966359138" lon="-3.345258040353656">
        <ele>31.379999999999999</ele>
        <time>2023-08-22T12:14:22Z</time>
      </trkpt>
      <trkpt lat="58.646000968292356" lon="-3.345393994823098">
        <ele>31.379999999999999</ele>
        <time>2023-08-22T12:14:23Z</time>
      </trkpt>
      <trkpt lat="58.646109011024237" lon="-3.345536990091205">
        <ele>31.379999999999999</ele>
        <time>2023-08-22T12:14:24Z</time>
      </trkpt>
      <trkpt lat="58.646219987422228" lon="-3.345685014501214">
        <ele>31.379999999999999</ele>
        <time>2023-08-22T12:14:25Z</time>
      </trkpt>
      <trkpt lat="58.646344039589167" lon="-3.345815017819405">
        <ele>31.379999999999999</ele>
        <time>2023-08-22T12:14:26Z</time>
      </trkpt>
      <trkpt lat="58.647327991202474" lon="-3.346690004691482">
        <ele>28.98</ele>
        <time>2023-08-22T12:14:35Z</time>
      </trkpt>
      <trkpt lat="58.647867031395435" lon="-3.347204988822341">
        <ele>28.02</ele>
        <time>2023-08-22T12:14:42Z</time>
      </trkpt>
      <trkpt lat="58.647914975881577" lon="-3.3472899813205">
        <ele>28.02</ele>
        <time>2023-08-22T12:14:43Z</time>
      </trkpt>
      <trkpt lat="58.647932996973395" lon="-3.347405986860395">
        <ele>28.02</ele>
        <time>2023-08-22T12:14:44Z</time>
      </trkpt>
      <trkpt lat="58.647925034165382" lon="-3.347520986571908">
        <ele>27.530000000000001</ele>
        <time>2023-08-22T12:14:45Z</time>
      </trkpt>
      <trkpt lat="58.647915981709957" lon="-3.347642021253705">
        <ele>27.530000000000001</ele>
        <time>2023-08-22T12:14:46Z</time>
      </trkpt>
      <trkpt lat="58.647877005860209" lon="-3.348247027024627">
        <ele>28.02</ele>
        <time>2023-08-22T12:14:51Z</time>
      </trkpt>
      <trkpt lat="58.647888991981745" lon="-3.348393039777875">
        <ele>28.5</ele>
        <time>2023-08-22T12:14:52Z</time>
      </trkpt>
      <trkpt lat="58.64790097810328" lon="-3.348550032824278">
        <ele>28.5</ele>
        <time>2023-08-22T12:14:53Z</time>
      </trkpt>
      <trkpt lat="58.648125026375055" lon="-3.350449958816171">
        <ele>31.859999999999999</ele>
        <time>2023-08-22T12:15:03Z</time>
      </trkpt>
      <trkpt lat="58.648433983325958" lon="-3.352975007146597">
        <ele>35.229999999999997</ele>
        <time>2023-08-22T12:15:14Z</time>
      </trkpt>
      <trkpt lat="58.648626012727618" lon="-3.354740990325809">
        <ele>40.030000000000001</ele>
        <time>2023-08-22T12:15:24Z</time>
      </trkpt>
      <trkpt lat="58.648670017719269" lon="-3.355187997221947">
        <ele>42.920000000000002</ele>
        <time>2023-08-22T12:15:32Z</time>
      </trkpt>
      <trkpt lat="58.648688960820436" lon="-3.355372985824943">
        <ele>43.880000000000003</ele>
        <time>2023-08-22T12:15:38Z</time>
      </trkpt>
      <trkpt lat="58.648804966360331" lon="-3.356535974889994">
        <ele>45.799999999999997</ele>
        <time>2023-08-22T12:15:45Z</time>
      </trkpt>
      <trkpt lat="58.648936981335282" lon="-3.357780016958714">
        <ele>47.240000000000002</ele>
        <time>2023-08-22T12:15:50Z</time>
      </trkpt>
      <trkpt lat="58.649006970226765" lon="-3.358014961704612">
        <ele>48.200000000000003</ele>
        <time>2023-08-22T12:15:51Z</time>
      </trkpt>
      <trkpt lat="58.649838035926223" lon="-3.360714018344879">
        <ele>58.299999999999997</ele>
        <time>2023-08-22T12:16:03Z</time>
      </trkpt>
      <trkpt lat="58.650065017864108" lon="-3.36127401329577">
        <ele>59.740000000000002</ele>
        <time>2023-08-22T12:16:08Z</time>
      </trkpt>
      <trkpt lat="58.650484029203653" lon="-3.362041041254997">
        <ele>61.18</ele>
        <time>2023-08-22T12:16:17Z</time>
      </trkpt>
      <trkpt lat="58.65056499838829" lon="-3.362189987674356">
        <ele>61.659999999999997</ele>
        <time>2023-08-22T12:16:18Z</time>
      </trkpt>
      <trkpt lat="58.650648985058069" lon="-3.36234899237752">
        <ele>61.659999999999997</ele>
        <time>2023-08-22T12:16:19Z</time>
      </trkpt>
      <trkpt lat="58.651216020807624" lon="-3.363963011652231">
        <ele>63.579999999999998</ele>
        <time>2023-08-22T12:16:27Z</time>
      </trkpt>
      <trkpt lat="58.651499999687076" lon="-3.364861970767379">
        <ele>63.579999999999998</ele>
        <time>2023-08-22T12:16:31Z</time>
      </trkpt>
      <trkpt lat="58.651597984135151" lon="-3.365059029310942">
        <ele>63.579999999999998</ele>
        <time>2023-08-22T12:16:32Z</time>
      </trkpt>
      <trkpt lat="58.652301980182528" lon="-3.366644969210029">
        <ele>65.989999999999995</ele>
        <time>2023-08-22T12:16:40Z</time>
      </trkpt>
      <trkpt lat="58.652485040947795" lon="-3.367057023569942">
        <ele>67.430000000000007</ele>
        <time>2023-08-22T12:16:45Z</time>
      </trkpt>
      <trkpt lat="58.652598029002547" lon="-3.367250980809331">
        <ele>67.909999999999997</ele>
        <time>2023-08-22T12:16:49Z</time>
      </trkpt>
      <trkpt lat="58.653160035610199" lon="-3.367950031533837">
        <ele>67.430000000000007</ele>
        <time>2023-08-22T12:16:55Z</time>
      </trkpt>
      <trkpt lat="58.654052037745714" lon="-3.368912022560835">
        <ele>64.069999999999993</ele>
        <time>2023-08-22T12:17:04Z</time>
      </trkpt>
      <trkpt lat="58.655125005170703" lon="-3.370066964998841">
        <ele>61.659999999999997</ele>
        <time>2023-08-22T12:17:13Z</time>
      </trkpt>
      <trkpt lat="58.656748998910189" lon="-3.371818028390408">
        <ele>59.259999999999998</ele>
        <time>2023-08-22T12:17:25Z</time>
      </trkpt>
      <trkpt lat="58.657153006643057" lon="-3.372252965345979">
        <ele>58.299999999999997</ele>
        <time>2023-08-22T12:17:29Z</time>
      </trkpt>
      <trkpt lat="58.657228024676442" lon="-3.372410964220762">
        <ele>58.780000000000001</ele>
        <time>2023-08-22T12:17:30Z</time>
      </trkpt>
      <trkpt lat="58.657301031053066" lon="-3.372579021379352">
        <ele>58.780000000000001</ele>
        <time>2023-08-22T12:17:31Z</time>
      </trkpt>
      <trkpt lat="58.65737303160131" lon="-3.372742971405387">
        <ele>58.780000000000001</ele>
        <time>2023-08-22T12:17:32Z</time>
      </trkpt>
      <trkpt lat="58.65741603076458" lon="-3.372931983321905">
        <ele>59.259999999999998</ele>
        <time>2023-08-22T12:17:33Z</time>
      </trkpt>
      <trkpt lat="58.657456012442708" lon="-3.373124012723565">
        <ele>59.259999999999998</ele>
        <time>2023-08-22T12:17:34Z</time>
      </trkpt>
      <trkpt lat="58.657486019656062" lon="-3.373309001326561">
        <ele>59.740000000000002</ele>
        <time>2023-08-22T12:17:35Z</time>
      </trkpt>
      <trkpt lat="58.657477973029017" lon="-3.373488038778305">
        <ele>59.740000000000002</ele>
        <time>2023-08-22T12:17:36Z</time>
      </trkpt>
      <trkpt lat="58.657472021877766" lon="-3.373655006289482">
        <ele>60.219999999999999</ele>
        <time>2023-08-22T12:17:37Z</time>
      </trkpt>
      <trkpt lat="58.657464981079102" lon="-3.373821973800659">
        <ele>60.700000000000003</ele>
        <time>2023-08-22T12:17:38Z</time>
      </trkpt>
      <trkpt lat="58.657458024099469" lon="-3.374004028737545">
        <ele>60.700000000000003</ele>
        <time>2023-08-22T12:17:39Z</time>
      </trkpt>
      <trkpt lat="58.65744000300765" lon="-3.374447012320161">
        <ele>61.659999999999997</ele>
        <time>2023-08-22T12:17:41Z</time>
      </trkpt>
      <trkpt lat="58.657395998016" lon="-3.376000011339784">
        <ele>65.510000000000005</ele>
        <time>2023-08-22T12:17:47Z</time>
      </trkpt>
      <trkpt lat="58.657436985522509" lon="-3.376212995499373">
        <ele>66.469999999999999</ele>
        <time>2023-08-22T12:17:48Z</time>
      </trkpt>
      <trkpt lat="58.657475039362907" lon="-3.376383986324072">
        <ele>66.950000000000003</ele>
        <time>2023-08-22T12:17:49Z</time>
      </trkpt>
      <trkpt lat="58.657542010769248" lon="-3.376517007127404">
        <ele>67.430000000000007</ele>
        <time>2023-08-22T12:17:50Z</time>
      </trkpt>
      <trkpt lat="58.657573023810983" lon="-3.376579033210874">
        <ele>67.909999999999997</ele>
        <time>2023-08-22T12:17:51Z</time>
      </trkpt>
      <trkpt lat="58.657662961632013" lon="-3.376610968261957">
        <ele>67.909999999999997</ele>
        <time>2023-08-22T12:17:52Z</time>
      </trkpt>
      <trkpt lat="58.657723981887102" lon="-3.376633012667298">
        <ele>68.390000000000001</ele>
        <time>2023-08-22T12:17:53Z</time>
      </trkpt>
      <trkpt lat="58.65778299048543" lon="-3.376653967425227">
        <ele>68.390000000000001</ele>
        <time>2023-08-22T12:17:54Z</time>
      </trkpt>
      <trkpt lat="58.657841999083757" lon="-3.376675006002188">
        <ele>68.870000000000005</ele>
        <time>2023-08-22T12:17:55Z</time>
      </trkpt>
      <trkpt lat="58.657898996025324" lon="-3.376666037365794">
        <ele>68.870000000000005</ele>
        <time>2023-08-22T12:17:56Z</time>
      </trkpt>
      <trkpt lat="58.657972002401948" lon="-3.376607028767467">
        <ele>69.349999999999994</ele>
        <time>2023-08-22T12:17:57Z</time>
      </trkpt>
      <trkpt lat="58.658055989071727" lon="-3.376537961885333">
        <ele>69.349999999999994</ele>
        <time>2023-08-22T12:17:58Z</time>
      </trkpt>
      <trkpt lat="58.65814701654017" lon="-3.37646403349936">
        <ele>69.829999999999998</ele>
        <time>2023-08-22T12:17:59Z</time>
      </trkpt>
      <trkpt lat="58.658231003209949" lon="-3.37637996301055">
        <ele>69.829999999999998</ele>
        <time>2023-08-22T12:18:00Z</time>
      </trkpt>
      <trkpt lat="58.658297974616289" lon="-3.376244008541107">
        <ele>69.829999999999998</ele>
        <time>2023-08-22T12:18:01Z</time>
      </trkpt>
      <trkpt lat="58.658365029841661" lon="-3.376111993566155">
        <ele>69.829999999999998</ele>
        <time>2023-08-22T12:18:02Z</time>
      </trkpt>
      <trkpt lat="58.65842898376286" lon="-3.375982996076345">
        <ele>69.829999999999998</ele>
        <time>2023-08-22T12:18:03Z</time>
      </trkpt>
      <trkpt lat="58.659005993977189" lon="-3.374432008713484">
        <ele>71.760000000000005</ele>
        <time>2023-08-22T12:18:15Z</time>
      </trkpt>
      <trkpt lat="58.659533970057964" lon="-3.372882027179003">
        <ele>72.719999999999999</ele>
        <time>2023-08-22T12:18:25Z</time>
      </trkpt>
      <trkpt lat="58.660185998305678" lon="-3.371618958190084">
        <ele>73.680000000000007</ele>
        <time>2023-08-22T12:18:34Z</time>
      </trkpt>
      <trkpt lat="58.660256993025541" lon="-3.371521979570389">
        <ele>73.680000000000007</ele>
        <time>2023-08-22T12:18:35Z</time>
      </trkpt>
      <trkpt lat="58.660320024937391" lon="-3.371436987072229">
        <ele>74.159999999999997</ele>
        <time>2023-08-22T12:18:36Z</time>
      </trkpt>
      <trkpt lat="58.66038297303021" lon="-3.371353000402451">
        <ele>74.159999999999997</ele>
        <time>2023-08-22T12:18:37Z</time>
      </trkpt>
      <trkpt lat="58.660463020205498" lon="-3.371316036209464">
        <ele>74.640000000000001</ele>
        <time>2023-08-22T12:18:38Z</time>
      </trkpt>
      <trkpt lat="58.660557987168431" lon="-3.371305977925658">
        <ele>75.120000000000005</ele>
        <time>2023-08-22T12:18:39Z</time>
      </trkpt>
      <trkpt lat="58.660659994930029" lon="-3.371294997632504">
        <ele>75.120000000000005</ele>
        <time>2023-08-22T12:18:40Z</time>
      </trkpt>
      <trkpt lat="58.660767031833529" lon="-3.371284017339349">
        <ele>75.599999999999994</ele>
        <time>2023-08-22T12:18:41Z</time>
      </trkpt>
      <trkpt lat="58.660870967432857" lon="-3.371302038431168">
        <ele>76.079999999999998</ele>
        <time>2023-08-22T12:18:42Z</time>
      </trkpt>
      <trkpt lat="58.660970041528344" lon="-3.371340008452535">
        <ele>76.079999999999998</ele>
        <time>2023-08-22T12:18:43Z</time>
      </trkpt>
      <trkpt lat="58.661057967692614" lon="-3.37137496098876">
        <ele>76.560000000000002</ele>
        <time>2023-08-22T12:18:44Z</time>
      </trkpt>
      <trkpt lat="58.661118987947702" lon="-3.371398011222482">
        <ele>77.040000000000006</ele>
        <time>2023-08-22T12:18:48Z</time>
      </trkpt>
      <trkpt lat="58.661118987947702" lon="-3.371398011222482">
        <ele>77.519999999999996</ele>
        <time>2023-08-22T12:19:03Z</time>
      </trkpt>
      <trkpt lat="58.661237005144358" lon="-3.371466994285584">
        <ele>76.560000000000002</ele>
        <time>2023-08-22T12:19:14Z</time>
      </trkpt>
      <trkpt lat="58.661286039277911" lon="-3.371516028419137">
        <ele>77.040000000000006</ele>
        <time>2023-08-22T12:19:15Z</time>
      </trkpt>
      <trkpt lat="58.661833964288235" lon="-3.372264029458165">
        <ele>77.040000000000006</ele>
        <time>2023-08-22T12:19:22Z</time>
      </trkpt>
      <trkpt lat="58.662552963942289" lon="-3.373228032141924">
        <ele>76.560000000000002</ele>
        <time>2023-08-22T12:19:28Z</time>
      </trkpt>
      <trkpt lat="58.662652960047126" lon="-3.373316964134574">
        <ele>76.560000000000002</ele>
        <time>2023-08-22T12:19:29Z</time>
      </trkpt>
      <trkpt lat="58.663644958287477" lon="-3.374194968491793">
        <ele>76.560000000000002</ele>
        <time>2023-08-22T12:19:37Z</time>
      </trkpt>
      <trkpt lat="58.665316980332136" lon="-3.375674961134791">
        <ele>77.519999999999996</ele>
        <time>2023-08-22T12:19:48Z</time>
      </trkpt>
      <trkpt lat="58.666549036279321" lon="-3.37646696716547">
        <ele>77.519999999999996</ele>
        <time>2023-08-22T12:19:56Z</time>
      </trkpt>
      <trkpt lat="58.666788004338741" lon="-3.376523964107037">
        <ele>78</ele>
        <time>2023-08-22T12:19:58Z</time>
      </trkpt>
      <trkpt lat="58.666842989623547" lon="-3.376536034047604">
        <ele>78</ele>
        <time>2023-08-22T12:19:59Z</time>
      </trkpt>
      <trkpt lat="58.666904009878635" lon="-3.3764239680022">
        <ele>78</ele>
        <time>2023-08-22T12:20:00Z</time>
      </trkpt>
      <trkpt lat="58.666953966021538" lon="-3.376332018524408">
        <ele>78</ele>
        <time>2023-08-22T12:20:01Z</time>
      </trkpt>
      <trkpt lat="58.666971987113357" lon="-3.376262029632926">
        <ele>78.480000000000004</ele>
        <time>2023-08-22T12:20:02Z</time>
      </trkpt>
      <trkpt lat="58.666976010426879" lon="-3.376091038808227">
        <ele>79.450000000000003</ele>
        <time>2023-08-22T12:20:03Z</time>
      </trkpt>
      <trkpt lat="58.666981039568782" lon="-3.375899009406567">
        <ele>79.930000000000007</ele>
        <time>2023-08-22T12:20:04Z</time>
      </trkpt>
      <trkpt lat="58.666984979063272" lon="-3.375714020803571">
        <ele>80.890000000000001</ele>
        <time>2023-08-22T12:20:05Z</time>
      </trkpt>
      <trkpt lat="58.667005011811852" lon="-3.375308001413941">
        <ele>81.849999999999994</ele>
        <time>2023-08-22T12:20:07Z</time>
      </trkpt>
      <trkpt lat="58.667037030681968" lon="-3.375127036124468">
        <ele>82.329999999999998</ele>
        <time>2023-08-22T12:20:08Z</time>
      </trkpt>
      <trkpt lat="58.667088998481631" lon="-3.374975994229317">
        <ele>83.290000000000006</ele>
        <time>2023-08-22T12:20:09Z</time>
      </trkpt>
      <trkpt lat="58.667155969887972" lon="-3.37489795871079">
        <ele>83.769999999999996</ele>
        <time>2023-08-22T12:20:10Z</time>
      </trkpt>
      <trkpt lat="58.667232999578118" lon="-3.374863006174564">
        <ele>84.25</ele>
        <time>2023-08-22T12:20:11Z</time>
      </trkpt>
      <trkpt lat="58.667325032874942" lon="-3.374863006174564">
        <ele>84.730000000000004</ele>
        <time>2023-08-22T12:20:12Z</time>
      </trkpt>
      <trkpt lat="58.667425028979778" lon="-3.374880021438003">
        <ele>85.689999999999998</ele>
        <time>2023-08-22T12:20:13Z</time>
      </trkpt>
      <trkpt lat="58.667531982064247" lon="-3.374952021986246">
        <ele>86.180000000000007</ele>
        <time>2023-08-22T12:20:14Z</time>
      </trkpt>
      <trkpt lat="58.667965997010469" lon="-3.375295009464026">
        <ele>88.579999999999998</ele>
        <time>2023-08-22T12:20:18Z</time>
      </trkpt>
      <trkpt lat="58.668069010600448" lon="-3.375416966155171">
        <ele>90.019999999999996</ele>
        <time>2023-08-22T12:20:19Z</time>
      </trkpt>
      <trkpt lat="58.668156014755368" lon="-3.375578988343477">
        <ele>90.980000000000004</ele>
        <time>2023-08-22T12:20:20Z</time>
      </trkpt>
      <trkpt lat="58.668231032788754" lon="-3.375761965289712">
        <ele>91.939999999999998</ele>
        <time>2023-08-22T12:20:21Z</time>
      </trkpt>
      <trkpt lat="58.668306972831488" lon="-3.375951983034611">
        <ele>92.900000000000006</ele>
        <time>2023-08-22T12:20:22Z</time>
      </trkpt>
      <trkpt lat="58.668370004743338" lon="-3.376167984679341">
        <ele>93.870000000000005</ele>
        <time>2023-08-22T12:20:23Z</time>
      </trkpt>
      <trkpt lat="58.668433036655188" lon="-3.37637996301055">
        <ele>94.829999999999998</ele>
        <time>2023-08-22T12:20:24Z</time>
      </trkpt>
      <trkpt lat="58.668664041906595" lon="-3.377010030671954">
        <ele>97.709999999999994</ele>
        <time>2023-08-22T12:20:28Z</time>
      </trkpt>
      <trkpt lat="58.668705029413104" lon="-3.377074990421534">
        <ele>98.189999999999998</ele>
        <time>2023-08-22T12:20:29Z</time>
      </trkpt>
      <trkpt lat="58.668731013312936" lon="-3.377115977928042">
        <ele>99.150000000000006</ele>
        <time>2023-08-22T12:20:30Z</time>
      </trkpt>
      <trkpt lat="58.668765965849161" lon="-3.377126958221197">
        <ele>99.629999999999995</ele>
        <time>2023-08-22T12:20:31Z</time>
      </trkpt>
      <trkpt lat="58.668799996376038" lon="-3.377139028161764">
        <ele>100.11</ele>
        <time>2023-08-22T12:20:32Z</time>
      </trkpt>
      <trkpt lat="58.668837966397405" lon="-3.377151014283299">
        <ele>100.11</ele>
        <time>2023-08-22T12:20:33Z</time>
      </trkpt>
      <trkpt lat="58.668883983045816" lon="-3.377167023718357">
        <ele>100.59999999999999</ele>
        <time>2023-08-22T12:20:34Z</time>
      </trkpt>
      <trkpt lat="58.669327972456813" lon="-3.377085970714688">
        <ele>102.52</ele>
        <time>2023-08-22T12:20:43Z</time>
      </trkpt>
      <trkpt lat="58.669861983507872" lon="-3.37676502764225">
        <ele>102.04000000000001</ele>
        <time>2023-08-22T12:20:51Z</time>
      </trkpt>
      <trkpt lat="58.670321982353926" lon="-3.376470990478993">
        <ele>99.150000000000006</ele>
        <time>2023-08-22T12:20:59Z</time>
      </trkpt>
      <trkpt lat="58.670487022027373" lon="-3.376364959403873">
        <ele>96.75</ele>
        <time>2023-08-22T12:21:06Z</time>
      </trkpt>
      <trkpt lat="58.670500013977289" lon="-3.37635699659586">
        <ele>97.230000000000004</ele>
        <time>2023-08-22T12:21:07Z</time>
      </trkpt>
      <trkpt lat="58.670489033684134" lon="-3.376454981043935">
        <ele>98.670000000000002</ele>
        <time>2023-08-22T12:21:13Z</time>
      </trkpt>
      <trkpt lat="58.670387025922537" lon="-3.376428997144103">
        <ele>98.670000000000002</ele>
        <time>2023-08-22T12:21:23Z</time>
      </trkpt>
      <trkpt lat="58.670358024537563" lon="-3.376440983265638">
        <ele>103</ele>
        <time>2023-08-22T12:36:44Z</time>
      </trkpt>
      <trkpt lat="58.670335980132222" lon="-3.37637996301055">
        <ele>97.230000000000004</ele>
        <time>2023-08-22T12:37:21Z</time>
      </trkpt>
      <trkpt lat="58.670342015102506" lon="-3.376385997980833">
        <ele>95.790000000000006</ele>
        <time>2023-08-22T12:37:56Z</time>
      </trkpt>
      <trkpt lat="58.67033002898097" lon="-3.37646596133709">
        <ele>95.790000000000006</ele>
        <time>2023-08-22T12:37:58Z</time>
      </trkpt>
      <trkpt lat="58.670291975140572" lon="-3.376490017399192">
        <ele>95.790000000000006</ele>
        <time>2023-08-22T12:37:59Z</time>
      </trkpt>
      <trkpt lat="58.670232966542244" lon="-3.376527987420559">
        <ele>95.790000000000006</ele>
        <time>2023-08-22T12:38:00Z</time>
      </trkpt>
      <trkpt lat="58.67015702649951" lon="-3.376576015725732">
        <ele>96.269999999999996</ele>
        <time>2023-08-22T12:38:01Z</time>
      </trkpt>
      <trkpt lat="58.67007102817297" lon="-3.376631001010537">
        <ele>96.269999999999996</ele>
        <time>2023-08-22T12:38:02Z</time>
      </trkpt>
      <trkpt lat="58.66998502984643" lon="-3.376685986295342">
        <ele>96.269999999999996</ele>
        <time>2023-08-22T12:38:03Z</time>
      </trkpt>
      <trkpt lat="58.669311041012406" lon="-3.377094017341733">
        <ele>96.269999999999996</ele>
        <time>2023-08-22T12:38:13Z</time>
      </trkpt>
      <trkpt lat="58.669162010774016" lon="-3.377168029546738">
        <ele>96.269999999999996</ele>
        <time>2023-08-22T12:38:15Z</time>
      </trkpt>
      <trkpt lat="58.669064026325941" lon="-3.37721798568964">
        <ele>95.790000000000006</ele>
        <time>2023-08-22T12:38:16Z</time>
      </trkpt>
      <trkpt lat="58.668949026614428" lon="-3.377188984304667">
        <ele>95.790000000000006</ele>
        <time>2023-08-22T12:38:17Z</time>
      </trkpt>
      <trkpt lat="58.668839978054166" lon="-3.37715202011168">
        <ele>95.310000000000002</ele>
        <time>2023-08-22T12:38:18Z</time>
      </trkpt>
      <trkpt lat="58.668727995827794" lon="-3.377110026776791">
        <ele>95.790000000000006</ele>
        <time>2023-08-22T12:38:19Z</time>
      </trkpt>
      <trkpt lat="58.668647026643157" lon="-3.376983962953091">
        <ele>95.310000000000002</ele>
        <time>2023-08-22T12:38:20Z</time>
      </trkpt>
      <trkpt lat="58.66856899112463" lon="-3.376840967684984">
        <ele>95.310000000000002</ele>
        <time>2023-08-22T12:38:21Z</time>
      </trkpt>
      <trkpt lat="58.668518029153347" lon="-3.376666037365794">
        <ele>94.829999999999998</ele>
        <time>2023-08-22T12:38:22Z</time>
      </trkpt>
      <trkpt lat="58.668463965877891" lon="-3.376484988257289">
        <ele>94.349999999999994</ele>
        <time>2023-08-22T12:38:23Z</time>
      </trkpt>
      <trkpt lat="58.668147968128324" lon="-3.375559961423278">
        <ele>91.459999999999994</ele>
        <time>2023-08-22T12:38:28Z</time>
      </trkpt>
      <trkpt lat="58.668055012822151" lon="-3.375401040539146">
        <ele>90.980000000000004</ele>
        <time>2023-08-22T12:38:29Z</time>
      </trkpt>
      <trkpt lat="58.667947975918651" lon="-3.375273970887065">
        <ele>90.019999999999996</ele>
        <time>2023-08-22T12:38:30Z</time>
      </trkpt>
      <trkpt lat="58.667832976207137" lon="-3.375157965347171">
        <ele>89.540000000000006</ele>
        <time>2023-08-22T12:38:31Z</time>
      </trkpt>
      <trkpt lat="58.667714037001133" lon="-3.375076996162534">
        <ele>88.579999999999998</ele>
        <time>2023-08-22T12:38:32Z</time>
      </trkpt>
      <trkpt lat="58.667599959298968" lon="-3.374998960644007">
        <ele>88.099999999999994</ele>
        <time>2023-08-22T12:38:33Z</time>
      </trkpt>
      <trkpt lat="58.667488982900977" lon="-3.374923020601273">
        <ele>87.140000000000001</ele>
        <time>2023-08-22T12:38:34Z</time>
      </trkpt>
      <trkpt lat="58.667381023988128" lon="-3.374863006174564">
        <ele>86.659999999999997</ele>
        <time>2023-08-22T12:38:35Z</time>
      </trkpt>
      <trkpt lat="58.667274992913008" lon="-3.374863006174564">
        <ele>86.180000000000007</ele>
        <time>2023-08-22T12:38:36Z</time>
      </trkpt>
      <trkpt lat="58.667185977101326" lon="-3.374863006174564">
        <ele>85.689999999999998</ele>
        <time>2023-08-22T12:38:37Z</time>
      </trkpt>
      <trkpt lat="58.667121017351747" lon="-3.37493802420795">
        <ele>85.209999999999994</ele>
        <time>2023-08-22T12:38:38Z</time>
      </trkpt>
      <trkpt lat="58.667059997096658" lon="-3.375009018927813">
        <ele>84.730000000000004</ele>
        <time>2023-08-22T12:38:39Z</time>
      </trkpt>
      <trkpt lat="58.667035019025207" lon="-3.375142039731145">
        <ele>84.25</ele>
        <time>2023-08-22T12:38:40Z</time>
      </trkpt>
      <trkpt lat="58.667009035125375" lon="-3.375286040827632">
        <ele>84.25</ele>
        <time>2023-08-22T12:38:41Z</time>
      </trkpt>
      <trkpt lat="58.666993025690317" lon="-3.375377990305424">
        <ele>83.769999999999996</ele>
        <time>2023-08-22T12:38:42Z</time>
      </trkpt>
      <trkpt lat="58.666993025690317" lon="-3.375377990305424">
        <ele>82.810000000000002</ele>
        <time>2023-08-22T12:38:50Z</time>
      </trkpt>
      <trkpt lat="58.666990008205175" lon="-3.375484021380544">
        <ele>82.810000000000002</ele>
        <time>2023-08-22T12:38:53Z</time>
      </trkpt>
      <trkpt lat="58.666989002376795" lon="-3.375536995008588">
        <ele>82.810000000000002</ele>
        <time>2023-08-22T12:38:54Z</time>
      </trkpt>
      <trkpt lat="58.666986990720034" lon="-3.375633973628283">
        <ele>82.810000000000002</ele>
        <time>2023-08-22T12:38:55Z</time>
      </trkpt>
      <trkpt lat="58.666976010426879" lon="-3.376083998009563">
        <ele>82.329999999999998</ele>
        <time>2023-08-22T12:38:58Z</time>
      </trkpt>
      <trkpt lat="58.666972992941737" lon="-3.37624903768301">
        <ele>81.849999999999994</ele>
        <time>2023-08-22T12:38:59Z</time>
      </trkpt>
      <trkpt lat="58.666921025142074" lon="-3.376393038779497">
        <ele>81.370000000000005</ele>
        <time>2023-08-22T12:39:00Z</time>
      </trkpt>
      <trkpt lat="58.666842989623547" lon="-3.376536034047604">
        <ele>80.409999999999997</ele>
        <time>2023-08-22T12:39:01Z</time>
      </trkpt>
      <trkpt lat="58.66676302626729" lon="-3.376518012955785">
        <ele>79.930000000000007</ele>
        <time>2023-08-22T12:39:02Z</time>
      </trkpt>
      <trkpt lat="58.666666969656944" lon="-3.376494962722063">
        <ele>78.969999999999999</ele>
        <time>2023-08-22T12:39:03Z</time>
      </trkpt>
      <trkpt lat="58.666565967723727" lon="-3.376471996307373">
        <ele>78.480000000000004</ele>
        <time>2023-08-22T12:39:04Z</time>
      </trkpt>
      <trkpt lat="58.666458008810878" lon="-3.376437965780497">
        <ele>78.480000000000004</ele>
        <time>2023-08-22T12:39:05Z</time>
      </trkpt>
      <trkpt lat="58.665160993114114" lon="-3.375536995008588">
        <ele>74.159999999999997</ele>
        <time>2023-08-22T12:39:16Z</time>
      </trkpt>
      <trkpt lat="58.664098000153899" lon="-3.374595958739519">
        <ele>75.120000000000005</ele>
        <time>2023-08-22T12:39:24Z</time>
      </trkpt>
      <trkpt lat="58.662532009184361" lon="-3.373211016878486">
        <ele>75.599999999999994</ele>
        <time>2023-08-22T12:39:36Z</time>
      </trkpt>
      <trkpt lat="58.662167983129621" lon="-3.372772978618741">
        <ele>74.640000000000001</ele>
        <time>2023-08-22T12:39:39Z</time>
      </trkpt>
      <trkpt lat="58.662054995074868" lon="-3.372600981965661">
        <ele>74.640000000000001</ele>
        <time>2023-08-22T12:39:40Z</time>
      </trkpt>
      <trkpt lat="58.66132702678442" lon="-3.371557015925646">
        <ele>73.680000000000007</ele>
        <time>2023-08-22T12:39:48Z</time>
      </trkpt>
      <trkpt lat="58.661246979609132" lon="-3.371477974578738">
        <ele>73.200000000000003</ele>
        <time>2023-08-22T12:39:49Z</time>
      </trkpt>
      <trkpt lat="58.661147989332676" lon="-3.371409997344017">
        <ele>73.200000000000003</ele>
        <time>2023-08-22T12:39:50Z</time>
      </trkpt>
      <trkpt lat="58.661032989621162" lon="-3.371364986523986">
        <ele>73.200000000000003</ele>
        <time>2023-08-22T12:39:51Z</time>
      </trkpt>
      <trkpt lat="58.660538960248232" lon="-3.371307989582419">
        <ele>72.719999999999999</ele>
        <time>2023-08-22T12:39:55Z</time>
      </trkpt>
      <trkpt lat="58.660423038527369" lon="-3.371319975703955">
        <ele>71.760000000000005</ele>
        <time>2023-08-22T12:39:56Z</time>
      </trkpt>
      <trkpt lat="58.660323964431882" lon="-3.371432041749358">
        <ele>71.760000000000005</ele>
        <time>2023-08-22T12:39:57Z</time>
      </trkpt>
      <trkpt lat="58.660223968327045" lon="-3.37156699039042">
        <ele>71.760000000000005</ele>
        <time>2023-08-22T12:39:58Z</time>
      </trkpt>
      <trkpt lat="58.660118021070957" lon="-3.371709985658526">
        <ele>71.269999999999996</ele>
        <time>2023-08-22T12:39:59Z</time>
      </trkpt>
      <trkpt lat="58.660010984167457" lon="-3.371854992583394">
        <ele>71.269999999999996</ele>
        <time>2023-08-22T12:40:00Z</time>
      </trkpt>
      <trkpt lat="58.659922974184155" lon="-3.3720170147717">
        <ele>71.269999999999996</ele>
        <time>2023-08-22T12:40:01Z</time>
      </trkpt>
      <trkpt lat="58.65984401665628" lon="-3.372185993939638">
        <ele>71.269999999999996</ele>
        <time>2023-08-22T12:40:02Z</time>
      </trkpt>
      <trkpt lat="58.659770004451275" lon="-3.372348016127944">
        <ele>71.269999999999996</ele>
        <time>2023-08-22T12:40:03Z</time>
      </trkpt>
      <trkpt lat="58.659354010596871" lon="-3.373410003259778">
        <ele>70.310000000000002</ele>
        <time>2023-08-22T12:40:11Z</time>
      </trkpt>
      <trkpt lat="58.658931981772184" lon="-3.374650022014976">
        <ele>69.349999999999994</ele>
        <time>2023-08-22T12:40:18Z</time>
      </trkpt>
      <trkpt lat="58.658236032351851" lon="-3.376368982717395">
        <ele>65.510000000000005</ele>
        <time>2023-08-22T12:40:27Z</time>
      </trkpt>
      <trkpt lat="58.658150034025311" lon="-3.376462021842599">
        <ele>65.030000000000001</ele>
        <time>2023-08-22T12:40:28Z</time>
      </trkpt>
      <trkpt lat="58.658050959929824" lon="-3.376542991027236">
        <ele>64.549999999999997</ele>
        <time>2023-08-22T12:40:29Z</time>
      </trkpt>
      <trkpt lat="58.657953981310129" lon="-3.376621026545763">
        <ele>64.069999999999993</ele>
        <time>2023-08-22T12:40:30Z</time>
      </trkpt>
      <trkpt lat="58.657866977155209" lon="-3.376683974638581">
        <ele>63.579999999999998</ele>
        <time>2023-08-22T12:40:31Z</time>
      </trkpt>
      <trkpt lat="58.657774021849036" lon="-3.376651033759117">
        <ele>63.100000000000001</ele>
        <time>2023-08-22T12:40:32Z</time>
      </trkpt>
      <trkpt lat="58.657682994380593" lon="-3.376619014889002">
        <ele>62.619999999999997</ele>
        <time>2023-08-22T12:40:33Z</time>
      </trkpt>
      <trkpt lat="58.657594984397292" lon="-3.376586996018887">
        <ele>62.140000000000001</ele>
        <time>2023-08-22T12:40:34Z</time>
      </trkpt>
      <trkpt lat="58.65752499550581" lon="-3.376483982428908">
        <ele>61.659999999999997</ele>
        <time>2023-08-22T12:40:35Z</time>
      </trkpt>
      <trkpt lat="58.657465986907482" lon="-3.376364959403873">
        <ele>61.18</ele>
        <time>2023-08-22T12:40:36Z</time>
      </trkpt>
      <trkpt lat="58.657429022714496" lon="-3.376174019649625">
        <ele>60.219999999999999</ele>
        <time>2023-08-22T12:40:37Z</time>
      </trkpt>
      <trkpt lat="58.657393986359239" lon="-3.375988025218248">
        <ele>59.740000000000002</ele>
        <time>2023-08-22T12:40:38Z</time>
      </trkpt>
      <trkpt lat="58.657385017722845" lon="-3.375779986381531">
        <ele>59.259999999999998</ele>
        <time>2023-08-22T12:40:39Z</time>
      </trkpt>
      <trkpt lat="58.657393986359239" lon="-3.375555016100407">
        <ele>58.780000000000001</ele>
        <time>2023-08-22T12:40:40Z</time>
      </trkpt>
      <trkpt lat="58.657403960824013" lon="-3.375320993363857">
        <ele>58.299999999999997</ele>
        <time>2023-08-22T12:40:41Z</time>
      </trkpt>
      <trkpt lat="58.657484007999301" lon="-3.373358035460115">
        <ele>52.049999999999997</ele>
        <time>2023-08-22T12:40:49Z</time>
      </trkpt>
      <trkpt lat="58.65746003575623" lon="-3.373144967481494">
        <ele>52.049999999999997</ele>
        <time>2023-08-22T12:40:50Z</time>
      </trkpt>
      <trkpt lat="58.65741896443069" lon="-3.372945981100202">
        <ele>51.57</ele>
        <time>2023-08-22T12:40:51Z</time>
      </trkpt>
      <trkpt lat="58.657366996631026" lon="-3.372730985283852">
        <ele>51.090000000000003</ele>
        <time>2023-08-22T12:40:52Z</time>
      </trkpt>
      <trkpt lat="58.65728803910315" lon="-3.372550019994378">
        <ele>50.609999999999999</ele>
        <time>2023-08-22T12:40:53Z</time>
      </trkpt>
      <trkpt lat="58.657207991927862" lon="-3.372365031391382">
        <ele>50.130000000000003</ele>
        <time>2023-08-22T12:40:54Z</time>
      </trkpt>
      <trkpt lat="58.65711503662169" lon="-3.372212983667851">
        <ele>49.649999999999999</ele>
        <time>2023-08-22T12:40:55Z</time>
      </trkpt>
      <trkpt lat="58.657015040516853" lon="-3.372104018926621">
        <ele>49.649999999999999</ele>
        <time>2023-08-22T12:40:56Z</time>
      </trkpt>
      <trkpt lat="58.656935999169946" lon="-3.372020032256842">
        <ele>49.159999999999997</ele>
        <time>2023-08-22T12:40:57Z</time>
      </trkpt>
      <trkpt lat="58.656353959813714" lon="-3.371392982080579">
        <ele>49.159999999999997</ele>
        <time>2023-08-22T12:41:03Z</time>
      </trkpt>
      <trkpt lat="58.65569899789989" lon="-3.37068596854806">
        <ele>49.649999999999999</ele>
        <time>2023-08-22T12:41:10Z</time>
      </trkpt>
      <trkpt lat="58.654625024646521" lon="-3.369529014453292">
        <ele>50.130000000000003</ele>
        <time>2023-08-22T12:41:21Z</time>
      </trkpt>
      <trkpt lat="58.652974963188171" lon="-3.367750039324164">
        <ele>54.450000000000003</ele>
        <time>2023-08-22T12:41:35Z</time>
      </trkpt>
      <trkpt lat="58.652464002370834" lon="-3.367020981386304">
        <ele>56.859999999999999</ele>
        <time>2023-08-22T12:41:40Z</time>
      </trkpt>
      <trkpt lat="58.652384039014578" lon="-3.366843033581972">
        <ele>57.340000000000003</ele>
        <time>2023-08-22T12:41:41Z</time>
      </trkpt>
      <trkpt lat="58.65230499766767" lon="-3.366651004180312">
        <ele>57.340000000000003</ele>
        <time>2023-08-22T12:41:42Z</time>
      </trkpt>
      <trkpt lat="58.651458006352186" lon="-3.3647779840976">
        <ele>55.890000000000001</ele>
        <time>2023-08-22T12:41:52Z</time>
      </trkpt>
      <trkpt lat="58.651392962783575" lon="-3.364558964967728">
        <ele>55.409999999999997</ele>
        <time>2023-08-22T12:41:53Z</time>
      </trkpt>
      <trkpt lat="58.651329008862376" lon="-3.364342963322997">
        <ele>54.93</ele>
        <time>2023-08-22T12:41:54Z</time>
      </trkpt>
      <trkpt lat="58.651069002225995" lon="-3.363495972007513">
        <ele>53.009999999999998</ele>
        <time>2023-08-22T12:42:00Z</time>
      </trkpt>
      <trkpt lat="58.650560975074768" lon="-3.362182024866343">
        <ele>51.090000000000003</ele>
        <time>2023-08-22T12:42:09Z</time>
      </trkpt>
      <trkpt lat="58.650481011718512" lon="-3.362036012113094">
        <ele>51.090000000000003</ele>
        <time>2023-08-22T12:42:10Z</time>
      </trkpt>
      <trkpt lat="58.649773998185992" lon="-3.360539004206657">
        <ele>50.130000000000003</ele>
        <time>2023-08-22T12:42:18Z</time>
      </trkpt>
      <trkpt lat="58.649104032665491" lon="-3.358340011909604">
        <ele>46.280000000000001</ele>
        <time>2023-08-22T12:42:28Z</time>
      </trkpt>
      <trkpt lat="58.648880990222096" lon="-3.357295962050557">
        <ele>41.950000000000003</ele>
        <time>2023-08-22T12:42:34Z</time>
      </trkpt>
      <trkpt lat="58.648621989414096" lon="-3.354705031961203">
        <ele>32.82</ele>
        <time>2023-08-22T12:42:47Z</time>
      </trkpt>
      <trkpt lat="58.648367011919618" lon="-3.352431021630764">
        <ele>27.050000000000001</ele>
        <time>2023-08-22T12:42:57Z</time>
      </trkpt>
      <trkpt lat="58.64832803606987" lon="-3.352105971425772">
        <ele>24.649999999999999</ele>
        <time>2023-08-22T12:43:03Z</time>
      </trkpt>
      <trkpt lat="58.648230973631144" lon="-3.351312959566712">
        <ele>23.210000000000001</ele>
        <time>2023-08-22T12:43:09Z</time>
      </trkpt>
      <trkpt lat="58.647953029721975" lon="-3.349045990034938">
        <ele>21.77</ele>
        <time>2023-08-22T12:43:19Z</time>
      </trkpt>
      <trkpt lat="58.647894021123648" lon="-3.347938992083073">
        <ele>19.84</ele>
        <time>2023-08-22T12:43:25Z</time>
      </trkpt>
      <trkpt lat="58.647903995588422" lon="-3.347798008471727">
        <ele>19.84</ele>
        <time>2023-08-22T12:43:26Z</time>
      </trkpt>
      <trkpt lat="58.647936014458537" lon="-3.347363993525505">
        <ele>17.440000000000001</ele>
        <time>2023-08-22T12:43:33Z</time>
      </trkpt>
      <trkpt lat="58.647936014458537" lon="-3.347363993525505">
        <ele>16.960000000000001</ele>
        <time>2023-08-22T12:43:45Z</time>
      </trkpt>
      <trkpt lat="58.647936014458537" lon="-3.347363993525505">
        <ele>16.960000000000001</ele>
        <time>2023-08-22T12:44:19Z</time>
      </trkpt>
      <trkpt lat="58.647936014458537" lon="-3.347363993525505">
        <ele>16.48</ele>
        <time>2023-08-22T12:45:15Z</time>
      </trkpt>
      <trkpt lat="58.647914975881577" lon="-3.3472899813205">
        <ele>16.48</ele>
        <time>2023-08-22T12:45:16Z</time>
      </trkpt>
      <trkpt lat="58.647894021123648" lon="-3.347252011299133">
        <ele>16.48</ele>
        <time>2023-08-22T12:45:17Z</time>
      </trkpt>
      <trkpt lat="58.647863008081913" lon="-3.347198031842709">
        <ele>16.960000000000001</ele>
        <time>2023-08-22T12:45:18Z</time>
      </trkpt>
      <trkpt lat="58.647365961223841" lon="-3.346724035218358">
        <ele>17.920000000000002</ele>
        <time>2023-08-22T12:45:27Z</time>
      </trkpt>
      <trkpt lat="58.646822981536388" lon="-3.346242997795343">
        <ele>18.399999999999999</ele>
        <time>2023-08-22T12:45:33Z</time>
      </trkpt>
      <trkpt lat="58.646166007965803" lon="-3.345613013952971">
        <ele>20.32</ele>
        <time>2023-08-22T12:45:40Z</time>
      </trkpt>
      <trkpt lat="58.646091995760798" lon="-3.345514023676515">
        <ele>20.32</ele>
        <time>2023-08-22T12:45:41Z</time>
      </trkpt>
      <trkpt lat="58.645676001906395" lon="-3.344959979876876">
        <ele>21.289999999999999</ele>
        <time>2023-08-22T12:45:47Z</time>
      </trkpt>
      <trkpt lat="58.645610958337784" lon="-3.344879010692239">
        <ele>21.77</ele>
        <time>2023-08-22T12:45:48Z</time>
      </trkpt>
      <trkpt lat="58.644555006176233" lon="-3.344083987176418">
        <ele>24.170000000000002</ele>
        <time>2023-08-22T12:46:01Z</time>
      </trkpt>
      <trkpt lat="58.643367039039731" lon="-3.343233978375793">
        <ele>20.32</ele>
        <time>2023-08-22T12:46:15Z</time>
      </trkpt>
      <trkpt lat="58.642230033874512" lon="-3.342339964583516">
        <ele>20.809999999999999</ele>
        <time>2023-08-22T12:46:26Z</time>
      </trkpt>
      <trkpt lat="58.641526959836483" lon="-3.341854987666011">
        <ele>19.84</ele>
        <time>2023-08-22T12:46:33Z</time>
      </trkpt>
      <trkpt lat="58.641359992325306" lon="-3.341739987954497">
        <ele>18.879999999999999</ele>
        <time>2023-08-22T12:46:39Z</time>
      </trkpt>
      <trkpt lat="58.641295032575727" lon="-3.341694977134466">
        <ele>19.359999999999999</ele>
        <time>2023-08-22T12:46:45Z</time>
      </trkpt>
      <trkpt lat="58.641284974291921" lon="-3.341697994619608">
        <ele>19.359999999999999</ele>
        <time>2023-08-22T12:46:46Z</time>
      </trkpt>
      <trkpt lat="58.641274999827147" lon="-3.34176798351109">
        <ele>19.84</ele>
        <time>2023-08-22T12:46:47Z</time>
      </trkpt>
      <trkpt lat="58.641259996220469" lon="-3.341864962130785">
        <ele>19.84</ele>
        <time>2023-08-22T12:46:48Z</time>
      </trkpt>
      <trkpt lat="58.64124096930027" lon="-3.341985996812582">
        <ele>20.32</ele>
        <time>2023-08-22T12:46:49Z</time>
      </trkpt>
      <trkpt lat="58.640998983755708" lon="-3.343566991388798">
        <ele>20.32</ele>
        <time>2023-08-22T12:46:58Z</time>
      </trkpt>
      <trkpt lat="58.64096000790596" lon="-3.343804031610489">
        <ele>20.32</ele>
        <time>2023-08-22T12:46:59Z</time>
      </trkpt>
      <trkpt lat="58.640882978215814" lon="-3.34400100633502">
        <ele>19.84</ele>
        <time>2023-08-22T12:47:00Z</time>
      </trkpt>
      <trkpt lat="58.640797985717654" lon="-3.34421499632299">
        <ele>19.84</ele>
        <time>2023-08-22T12:47:01Z</time>
      </trkpt>
      <trkpt lat="58.640706958249211" lon="-3.344447007402778">
        <ele>19.359999999999999</ele>
        <time>2023-08-22T12:47:02Z</time>
      </trkpt>
      <trkpt lat="58.640582989901304" lon="-3.344648005440831">
        <ele>19.359999999999999</ele>
        <time>2023-08-22T12:47:03Z</time>
      </trkpt>
      <trkpt lat="58.640454998239875" lon="-3.344828970730305">
        <ele>18.879999999999999</ele>
        <time>2023-08-22T12:47:04Z</time>
      </trkpt>
      <trkpt lat="58.640310997143388" lon="-3.344982024282217">
        <ele>18.879999999999999</ele>
        <time>2023-08-22T12:47:05Z</time>
      </trkpt>
      <trkpt lat="58.640154004096985" lon="-3.345094006508589">
        <ele>18.879999999999999</ele>
        <time>2023-08-22T12:47:06Z</time>
      </trkpt>
      <trkpt lat="58.639996005222201" lon="-3.345206994563341">
        <ele>18.879999999999999</ele>
        <time>2023-08-22T12:47:07Z</time>
      </trkpt>
      <trkpt lat="58.637692993506789" lon="-3.346841968595982">
        <ele>19.359999999999999</ele>
        <time>2023-08-22T12:47:21Z</time>
      </trkpt>
      <trkpt lat="58.635444967076182" lon="-3.348451964557171">
        <ele>22.25</ele>
        <time>2023-08-22T12:47:35Z</time>
      </trkpt>
      <trkpt lat="58.633919963613153" lon="-3.34954303689301">
        <ele>23.210000000000001</ele>
        <time>2023-08-22T12:47:46Z</time>
      </trkpt>
      <trkpt lat="58.6332250200212" lon="-3.349955007433891">
        <ele>24.170000000000002</ele>
        <time>2023-08-22T12:47:51Z</time>
      </trkpt>
      <trkpt lat="58.633102979511023" lon="-3.349980991333723">
        <ele>24.649999999999999</ele>
        <time>2023-08-22T12:47:52Z</time>
      </trkpt>
      <trkpt lat="58.63298898562789" lon="-3.34997302852571">
        <ele>24.649999999999999</ele>
        <time>2023-08-22T12:47:53Z</time>
      </trkpt>
      <trkpt lat="58.63288102671504" lon="-3.349934974685311">
        <ele>25.129999999999999</ele>
        <time>2023-08-22T12:47:54Z</time>
      </trkpt>
      <trkpt lat="58.632779018953443" lon="-3.349900022149086">
        <ele>25.129999999999999</ele>
        <time>2023-08-22T12:47:55Z</time>
      </trkpt>
      <trkpt lat="58.632678017020226" lon="-3.349863979965448">
        <ele>25.129999999999999</ele>
        <time>2023-08-22T12:47:56Z</time>
      </trkpt>
      <trkpt lat="58.632568968459964" lon="-3.349817041307688">
        <ele>25.609999999999999</ele>
        <time>2023-08-22T12:47:57Z</time>
      </trkpt>
      <trkpt lat="58.63135602325201" lon="-3.349154032766819">
        <ele>25.609999999999999</ele>
        <time>2023-08-22T12:48:07Z</time>
      </trkpt>
      <trkpt lat="58.630042998120189" lon="-3.3484470192343">
        <ele>25.129999999999999</ele>
        <time>2023-08-22T12:48:16Z</time>
      </trkpt>
      <trkpt lat="58.627449972555041" lon="-3.347050007432699">
        <ele>23.210000000000001</ele>
        <time>2023-08-22T12:48:31Z</time>
      </trkpt>
      <trkpt lat="58.626186987385154" lon="-3.346281973645091">
        <ele>21.77</ele>
        <time>2023-08-22T12:48:40Z</time>
      </trkpt>
      <trkpt lat="58.624737001955509" lon="-3.344993004575372">
        <ele>18.399999999999999</ele>
        <time>2023-08-22T12:48:50Z</time>
      </trkpt>
      <trkpt lat="58.624389991164207" lon="-3.344706008210778">
        <ele>16.960000000000001</ele>
        <time>2023-08-22T12:48:53Z</time>
      </trkpt>
      <trkpt lat="58.624281026422977" lon="-3.344687987118959">
        <ele>16.960000000000001</ele>
        <time>2023-08-22T12:48:54Z</time>
      </trkpt>
      <trkpt lat="58.624170972034335" lon="-3.344676000997424">
        <ele>16.960000000000001</ele>
        <time>2023-08-22T12:48:55Z</time>
      </trkpt>
      <trkpt lat="58.624059995636344" lon="-3.344710031524301">
        <ele>16.48</ele>
        <time>2023-08-22T12:48:56Z</time>
      </trkpt>
      <trkpt lat="58.623948013409972" lon="-3.344745989888907">
        <ele>16</ele>
        <time>2023-08-22T12:48:57Z</time>
      </trkpt>
      <trkpt lat="58.622831963002682" lon="-3.345056036487222">
        <ele>14.08</ele>
        <time>2023-08-22T12:49:08Z</time>
      </trkpt>
      <trkpt lat="58.622772032395005" lon="-3.345072967931628">
        <ele>14.56</ele>
        <time>2023-08-22T12:49:09Z</time>
      </trkpt>
      <trkpt lat="58.622729033231735" lon="-3.344956040382385">
        <ele>15.039999999999999</ele>
        <time>2023-08-22T12:49:10Z</time>
      </trkpt>
      <trkpt lat="58.622712017968297" lon="-3.344837017357349">
        <ele>14.56</ele>
        <time>2023-08-22T12:49:11Z</time>
      </trkpt>
      <trkpt lat="58.622691985219717" lon="-3.344700979068875">
        <ele>14.56</ele>
        <time>2023-08-22T12:49:12Z</time>
      </trkpt>
      <trkpt lat="58.622671030461788" lon="-3.344554966315627">
        <ele>14.56</ele>
        <time>2023-08-22T12:49:13Z</time>
      </trkpt>
      <trkpt lat="58.622428961098194" lon="-3.343045972287655">
        <ele>13.119999999999999</ele>
        <time>2023-08-22T12:49:23Z</time>
      </trkpt>
      <trkpt lat="58.622419992461801" lon="-3.342997021973133">
        <ele>13.119999999999999</ele>
        <time>2023-08-22T12:49:30Z</time>
      </trkpt>
      <trkpt lat="58.622347991913557" lon="-3.342963997274637">
        <ele>13.6</ele>
        <time>2023-08-22T12:49:42Z</time>
      </trkpt>
      <trkpt lat="58.622329970821738" lon="-3.342981012538075">
        <ele>14.56</ele>
        <time>2023-08-22T12:49:58Z</time>
      </trkpt>
      <trkpt lat="58.622305998578668" lon="-3.343002973124385">
        <ele>15.039999999999999</ele>
        <time>2023-08-22T12:49:59Z</time>
      </trkpt>
      <trkpt lat="58.622261993587017" lon="-3.343043960630894">
        <ele>15.52</ele>
        <time>2023-08-22T12:50:00Z</time>
      </trkpt>
      <trkpt lat="58.622197033837438" lon="-3.343103975057602">
        <ele>16</ele>
        <time>2023-08-22T12:50:01Z</time>
      </trkpt>
      <trkpt lat="58.622121009975672" lon="-3.343174969777465">
        <ele>15.52</ele>
        <time>2023-08-22T12:50:02Z</time>
      </trkpt>
      <trkpt lat="58.621166981756687" lon="-3.344060014933348">
        <ele>14.08</ele>
        <time>2023-08-22T12:50:12Z</time>
      </trkpt>
      <trkpt lat="58.620089991018176" lon="-3.345058970153332">
        <ele>10.23</ele>
        <time>2023-08-22T12:50:21Z</time>
      </trkpt>
      <trkpt lat="58.618324007838964" lon="-3.346611969172955">
        <ele>4.94</ele>
        <time>2023-08-22T12:50:34Z</time>
      </trkpt>
      <trkpt lat="58.618175983428955" lon="-3.346722023561597">
        <ele>4.94</ele>
        <time>2023-08-22T12:50:35Z</time>
      </trkpt>
      <trkpt lat="58.618013961240649" lon="-3.346741972491145">
        <ele>4.46</ele>
        <time>2023-08-22T12:50:36Z</time>
      </trkpt>
      <trkpt lat="58.617853028699756" lon="-3.346727974712849">
        <ele>4.46</ele>
        <time>2023-08-22T12:50:37Z</time>
      </trkpt>
      <trkpt lat="58.61769100651145" lon="-3.346712971106172">
        <ele>3.98</ele>
        <time>2023-08-22T12:50:38Z</time>
      </trkpt>
      <trkpt lat="58.617529990151525" lon="-3.346616998314858">
        <ele>3.98</ele>
        <time>2023-08-22T12:50:39Z</time>
      </trkpt>
      <trkpt lat="58.617371991276741" lon="-3.346503004431725">
        <ele>3.98</ele>
        <time>2023-08-22T12:50:40Z</time>
      </trkpt>
      <trkpt lat="58.616250995546579" lon="-3.345673028379679">
        <ele>3.5</ele>
        <time>2023-08-22T12:50:47Z</time>
      </trkpt>
      <trkpt lat="58.616111017763615" lon="-3.345502959564328">
        <ele>3.5</ele>
        <time>2023-08-22T12:50:48Z</time>
      </trkpt>
      <trkpt lat="58.61597103998065" lon="-3.345316965132952">
        <ele>3.5</ele>
        <time>2023-08-22T12:50:49Z</time>
      </trkpt>
      <trkpt lat="58.615434011444449" lon="-3.344485983252525">
        <ele>3.98</ele>
        <time>2023-08-22T12:50:53Z</time>
      </trkpt>
      <trkpt lat="58.615280035883188" lon="-3.344340976327658">
        <ele>4.46</ele>
        <time>2023-08-22T12:50:54Z</time>
      </trkpt>
      <trkpt lat="58.615124970674515" lon="-3.344197981059551">
        <ele>4.46</ele>
        <time>2023-08-22T12:50:55Z</time>
      </trkpt>
      <trkpt lat="58.614955991506577" lon="-3.344127992168069">
        <ele>4.94</ele>
        <time>2023-08-22T12:50:56Z</time>
      </trkpt>
      <trkpt lat="58.614781983196735" lon="-3.344055991619825">
        <ele>4.94</ele>
        <time>2023-08-22T12:50:57Z</time>
      </trkpt>
      <trkpt lat="58.614606969058514" lon="-3.343982985243201">
        <ele>4.94</ele>
        <time>2023-08-22T12:50:58Z</time>
      </trkpt>
      <trkpt lat="58.61221200786531" lon="-3.343225009739399">
        <ele>7.83</ele>
        <time>2023-08-22T12:51:11Z</time>
      </trkpt>
      <trkpt lat="58.610481983050704" lon="-3.343215035274625">
        <ele>9.27</ele>
        <time>2023-08-22T12:51:20Z</time>
      </trkpt>
      <trkpt lat="58.608611980453134" lon="-3.343795984983444">
        <ele>9.75</ele>
        <time>2023-08-22T12:51:30Z</time>
      </trkpt>
      <trkpt lat="58.606930989772081" lon="-3.344723023474217">
        <ele>7.35</ele>
        <time>2023-08-22T12:51:39Z</time>
      </trkpt>
      <trkpt lat="58.604795029386878" lon="-3.346725041046739">
        <ele>3.98</ele>
        <time>2023-08-22T12:51:51Z</time>
      </trkpt>
      <trkpt lat="58.602141989395022" lon="-3.348977006971836">
        <ele>3.02</ele>
        <time>2023-08-22T12:52:06Z</time>
      </trkpt>
      <trkpt lat="58.599812993779778" lon="-3.351031998172402">
        <ele>3.02</ele>
        <time>2023-08-22T12:52:20Z</time>
      </trkpt>
      <trkpt lat="58.598589990288019" lon="-3.352756993845105">
        <ele>4.46</ele>
        <time>2023-08-22T12:52:28Z</time>
      </trkpt>
      <trkpt lat="58.596961973235011" lon="-3.35601101629436">
        <ele>5.42</ele>
        <time>2023-08-22T12:52:40Z</time>
      </trkpt>
      <trkpt lat="58.595310989767313" lon="-3.360194005072117">
        <ele>5.91</ele>
        <time>2023-08-22T12:52:54Z</time>
      </trkpt>
      <trkpt lat="58.594452012330294" lon="-3.36348700337112">
        <ele>5.91</ele>
        <time>2023-08-22T12:53:04Z</time>
      </trkpt>
      <trkpt lat="58.594049010425806" lon="-3.366284966468811">
        <ele>6.39</ele>
        <time>2023-08-22T12:53:12Z</time>
      </trkpt>
      <trkpt lat="58.593088025227189" lon="-3.371507981792092">
        <ele>6.39</ele>
        <time>2023-08-22T12:53:27Z</time>
      </trkpt>
      <trkpt lat="58.593035973608494" lon="-3.372147018089891">
        <ele>6.39</ele>
        <time>2023-08-22T12:53:29Z</time>
      </trkpt>
      <trkpt lat="58.593034967780113" lon="-3.372450023889542">
        <ele>6.87</ele>
        <time>2023-08-22T12:53:30Z</time>
      </trkpt>
      <trkpt lat="58.593045026063919" lon="-3.372745988890529">
        <ele>6.87</ele>
        <time>2023-08-22T12:53:31Z</time>
      </trkpt>
      <trkpt lat="58.593078972771764" lon="-3.373020999133587">
        <ele>7.35</ele>
        <time>2023-08-22T12:53:32Z</time>
      </trkpt>
      <trkpt lat="58.593139993026853" lon="-3.373288968577981">
        <ele>7.35</ele>
        <time>2023-08-22T12:53:33Z</time>
      </trkpt>
      <trkpt lat="58.593200007453561" lon="-3.373556016013026">
        <ele>7.83</ele>
        <time>2023-08-22T12:53:34Z</time>
      </trkpt>
      <trkpt lat="58.593260021880269" lon="-3.373828008770943">
        <ele>7.83</ele>
        <time>2023-08-22T12:53:35Z</time>
      </trkpt>
      <trkpt lat="58.593334034085274" lon="-3.374092038720846">
        <ele>7.83</ele>
        <time>2023-08-22T12:53:36Z</time>
      </trkpt>
      <trkpt lat="58.593783974647522" lon="-3.375607989728451">
        <ele>7.35</ele>
        <time>2023-08-22T12:53:42Z</time>
      </trkpt>
      <trkpt lat="58.593796966597438" lon="-3.375828014686704">
        <ele>6.39</ele>
        <time>2023-08-22T12:53:43Z</time>
      </trkpt>
      <trkpt lat="58.593787997961044" lon="-3.376040998846293">
        <ele>6.39</ele>
        <time>2023-08-22T12:53:44Z</time>
      </trkpt>
      <trkpt lat="58.593779029324651" lon="-3.376235961914063">
        <ele>5.91</ele>
        <time>2023-08-22T12:53:45Z</time>
      </trkpt>
      <trkpt lat="58.593701999634504" lon="-3.37642002850771">
        <ele>5.42</ele>
        <time>2023-08-22T12:53:46Z</time>
      </trkpt>
      <trkpt lat="58.593619018793106" lon="-3.37661599740386">
        <ele>5.42</ele>
        <time>2023-08-22T12:53:47Z</time>
      </trkpt>
      <trkpt lat="58.593535032123327" lon="-3.376814983785152">
        <ele>5.42</ele>
        <time>2023-08-22T12:53:48Z</time>
      </trkpt>
      <trkpt lat="58.593359012156725" lon="-3.377230977639556">
        <ele>5.91</ele>
        <time>2023-08-22T12:53:50Z</time>
      </trkpt>
      <trkpt lat="58.593268990516663" lon="-3.377445973455906">
        <ele>5.91</ele>
        <time>2023-08-22T12:53:51Z</time>
      </trkpt>
      <trkpt lat="58.593177041038871" lon="-3.377667004242539">
        <ele>6.39</ele>
        <time>2023-08-22T12:53:52Z</time>
      </trkpt>
      <trkpt lat="58.5927489772439" lon="-3.378747012466192">
        <ele>7.35</ele>
        <time>2023-08-22T12:53:57Z</time>
      </trkpt>
      <trkpt lat="58.592715030536056" lon="-3.37900098413229">
        <ele>7.83</ele>
        <time>2023-08-22T12:53:58Z</time>
      </trkpt>
      <trkpt lat="58.592678988352418" lon="-3.379493001848459">
        <ele>8.310000000000001</ele>
        <time>2023-08-22T12:54:00Z</time>
      </trkpt>
      <trkpt lat="58.592673037201166" lon="-3.379735993221402">
        <ele>8.310000000000001</ele>
        <time>2023-08-22T12:54:01Z</time>
      </trkpt>
      <trkpt lat="58.592620985582471" lon="-3.38043998926878">
        <ele>8.789999999999999</ele>
        <time>2023-08-22T12:54:04Z</time>
      </trkpt>
      <trkpt lat="58.592552002519369" lon="-3.380885990336537">
        <ele>8.789999999999999</ele>
        <time>2023-08-22T12:54:06Z</time>
      </trkpt>
      <trkpt lat="58.592492993921041" lon="-3.381104003638029">
        <ele>9.27</ele>
        <time>2023-08-22T12:54:07Z</time>
      </trkpt>
      <trkpt lat="58.592416970059276" lon="-3.381293015554547">
        <ele>9.27</ele>
        <time>2023-08-22T12:54:08Z</time>
      </trkpt>
      <trkpt lat="58.592336000874639" lon="-3.38146903552115">
        <ele>9.75</ele>
        <time>2023-08-22T12:54:09Z</time>
      </trkpt>
      <trkpt lat="58.592246985062957" lon="-3.381602978333831">
        <ele>10.23</ele>
        <time>2023-08-22T12:54:10Z</time>
      </trkpt>
      <trkpt lat="58.592164004221559" lon="-3.38172703050077">
        <ele>10.710000000000001</ele>
        <time>2023-08-22T12:54:11Z</time>
      </trkpt>
      <trkpt lat="58.592088986188173" lon="-3.381839012727141">
        <ele>11.19</ele>
        <time>2023-08-22T12:54:12Z</time>
      </trkpt>
      <trkpt lat="58.59201799146831" lon="-3.381941020488739">
        <ele>11.67</ele>
        <time>2023-08-22T12:54:13Z</time>
      </trkpt>
      <trkpt lat="58.591950014233589" lon="-3.382035987451673">
        <ele>12.15</ele>
        <time>2023-08-22T12:54:14Z</time>
      </trkpt>
      <trkpt lat="58.591126995161176" lon="-3.383081965148449">
        <ele>18.399999999999999</ele>
        <time>2023-08-22T12:54:24Z</time>
      </trkpt>
      <trkpt lat="58.590880986303091" lon="-3.383411038666964">
        <ele>19.84</ele>
        <time>2023-08-22T12:54:27Z</time>
      </trkpt>
      <trkpt lat="58.590819966048002" lon="-3.383531989529729">
        <ele>19.84</ele>
        <time>2023-08-22T12:54:28Z</time>
      </trkpt>
      <trkpt lat="58.590775961056352" lon="-3.383673978969455">
        <ele>20.32</ele>
        <time>2023-08-22T12:54:29Z</time>
      </trkpt>
      <trkpt lat="58.590759029611945" lon="-3.383817980065942">
        <ele>20.809999999999999</ele>
        <time>2023-08-22T12:54:30Z</time>
      </trkpt>
      <trkpt lat="58.59077101573348" lon="-3.383966004475951">
        <ele>21.289999999999999</ele>
        <time>2023-08-22T12:54:31Z</time>
      </trkpt>
      <trkpt lat="58.590800017118454" lon="-3.384100031107664">
        <ele>21.289999999999999</ele>
        <time>2023-08-22T12:54:32Z</time>
      </trkpt>
      <trkpt lat="58.590847039595246" lon="-3.384241014719009">
        <ele>21.289999999999999</ele>
        <time>2023-08-22T12:54:33Z</time>
      </trkpt>
      <trkpt lat="58.590898001566529" lon="-3.38439398445189">
        <ele>21.77</ele>
        <time>2023-08-22T12:54:34Z</time>
      </trkpt>
      <trkpt lat="58.5914590023458" lon="-3.386244960129261">
        <ele>22.25</ele>
        <time>2023-08-22T12:54:46Z</time>
      </trkpt>
      <trkpt lat="58.59203701838851" lon="-3.388114962726831">
        <ele>20.809999999999999</ele>
        <time>2023-08-22T12:55:00Z</time>
      </trkpt>
      <trkpt lat="58.592677982524037" lon="-3.390257963910699">
        <ele>21.77</ele>
        <time>2023-08-22T12:55:15Z</time>
      </trkpt>
      <trkpt lat="58.593105040490627" lon="-3.391683977097273">
        <ele>19.359999999999999</ele>
        <time>2023-08-22T12:55:25Z</time>
      </trkpt>
      <trkpt lat="58.593148961663246" lon="-3.391824038699269">
        <ele>19.359999999999999</ele>
        <time>2023-08-22T12:55:26Z</time>
      </trkpt>
      <trkpt lat="58.593608038499951" lon="-3.393302019685507">
        <ele>19.359999999999999</ele>
        <time>2023-08-22T12:55:37Z</time>
      </trkpt>
      <trkpt lat="58.594247996807098" lon="-3.395419036969543">
        <ele>20.32</ele>
        <time>2023-08-22T12:55:52Z</time>
      </trkpt>
      <trkpt lat="58.594884015619755" lon="-3.397524990141392">
        <ele>22.73</ele>
        <time>2023-08-22T12:56:07Z</time>
      </trkpt>
      <trkpt lat="58.595380978658795" lon="-3.399217966943979">
        <ele>25.609999999999999</ele>
        <time>2023-08-22T12:56:19Z</time>
      </trkpt>
      <trkpt lat="58.595417020842433" lon="-3.399370014667511">
        <ele>26.09</ele>
        <time>2023-08-22T12:56:20Z</time>
      </trkpt>
      <trkpt lat="58.595439987257123" lon="-3.399524996057153">
        <ele>26.57</ele>
        <time>2023-08-22T12:56:21Z</time>
      </trkpt>
      <trkpt lat="58.595452979207039" lon="-3.399675032123923">
        <ele>26.57</ele>
        <time>2023-08-22T12:56:22Z</time>
      </trkpt>
      <trkpt lat="58.595465971156955" lon="-3.399823978543282">
        <ele>27.050000000000001</ele>
        <time>2023-08-22T12:56:23Z</time>
      </trkpt>
      <trkpt lat="58.595479968935251" lon="-3.399979965761304">
        <ele>27.530000000000001</ele>
        <time>2023-08-22T12:56:24Z</time>
      </trkpt>
      <trkpt lat="58.595495978370309" lon="-3.400161014869809">
        <ele>27.530000000000001</ele>
        <time>2023-08-22T12:56:25Z</time>
      </trkpt>
      <trkpt lat="58.595447028055787" lon="-3.402733001857996">
        <ele>28.02</ele>
        <time>2023-08-22T12:56:41Z</time>
      </trkpt>
      <trkpt lat="58.595423977822065" lon="-3.404951021075249">
        <ele>29.460000000000001</ele>
        <time>2023-08-22T12:56:53Z</time>
      </trkpt>
      <trkpt lat="58.595396988093853" lon="-3.407672960311174">
        <ele>33.780000000000001</ele>
        <time>2023-08-22T12:57:02Z</time>
      </trkpt>
      <trkpt lat="58.595235971733928" lon="-3.412715010344982">
        <ele>40.030000000000001</ele>
        <time>2023-08-22T12:57:16Z</time>
      </trkpt>
      <trkpt lat="58.595028016716242" lon="-3.418419985100627">
        <ele>42.439999999999998</ele>
        <time>2023-08-22T12:57:32Z</time>
      </trkpt>
      <trkpt lat="58.594842022284865" lon="-3.423596983775497">
        <ele>40.509999999999998</ele>
        <time>2023-08-22T12:57:47Z</time>
      </trkpt>
      <trkpt lat="58.594709001481533" lon="-3.427307987585664">
        <ele>40.509999999999998</ele>
        <time>2023-08-22T12:58:00Z</time>
      </trkpt>
      <trkpt lat="58.594601964578032" lon="-3.430510964244604">
        <ele>40.030000000000001</ele>
        <time>2023-08-22T12:58:14Z</time>
      </trkpt>
      <trkpt lat="58.594496017321944" lon="-3.433470027521253">
        <ele>40.990000000000002</ele>
        <time>2023-08-22T12:58:29Z</time>
      </trkpt>
      <trkpt lat="58.59440197236836" lon="-3.435977976769209">
        <ele>35.229999999999997</ele>
        <time>2023-08-22T12:58:42Z</time>
      </trkpt>
      <trkpt lat="58.594348998740315" lon="-3.437718981876969">
        <ele>32.340000000000003</ele>
        <time>2023-08-22T12:58:54Z</time>
      </trkpt>
      <trkpt lat="58.594253025949001" lon="-3.439891990274191">
        <ele>30.420000000000002</ele>
        <time>2023-08-22T12:59:05Z</time>
      </trkpt>
      <trkpt lat="58.594158980995417" lon="-3.442663969472051">
        <ele>26.09</ele>
        <time>2023-08-22T12:59:16Z</time>
      </trkpt>
      <trkpt lat="58.594073988497257" lon="-3.445139983668923">
        <ele>22.25</ele>
        <time>2023-08-22T12:59:23Z</time>
      </trkpt>
      <trkpt lat="58.594025960192084" lon="-3.446540012955666">
        <ele>19.359999999999999</ele>
        <time>2023-08-22T12:59:29Z</time>
      </trkpt>
      <trkpt lat="58.593952031806111" lon="-3.448725007474423">
        <ele>17.440000000000001</ele>
        <time>2023-08-22T12:59:39Z</time>
      </trkpt>
      <trkpt lat="58.593875002115965" lon="-3.451009998098016">
        <ele>18.399999999999999</ele>
        <time>2023-08-22T12:59:45Z</time>
      </trkpt>
      <trkpt lat="58.593752039596438" lon="-3.454612959176302">
        <ele>23.690000000000001</ele>
        <time>2023-08-22T12:59:55Z</time>
      </trkpt>
      <trkpt lat="58.593596974387765" lon="-3.458676002919674">
        <ele>22.25</ele>
        <time>2023-08-22T13:00:07Z</time>
      </trkpt>
      <trkpt lat="58.593421960249543" lon="-3.463414963334799">
        <ele>24.649999999999999</ele>
        <time>2023-08-22T13:00:19Z</time>
      </trkpt>
      <trkpt lat="58.593274019658566" lon="-3.467565011233091">
        <ele>32.340000000000003</ele>
        <time>2023-08-22T13:00:31Z</time>
      </trkpt>
      <trkpt lat="58.593243006616831" lon="-3.468451984226704">
        <ele>36.189999999999998</ele>
        <time>2023-08-22T13:00:36Z</time>
      </trkpt>
      <trkpt lat="58.593193972483277" lon="-3.469828041270375">
        <ele>40.509999999999998</ele>
        <time>2023-08-22T13:00:45Z</time>
      </trkpt>
      <trkpt lat="58.593136975541711" lon="-3.471427978947759">
        <ele>45.32</ele>
        <time>2023-08-22T13:00:55Z</time>
      </trkpt>
      <trkpt lat="58.59302599914372" lon="-3.474563984200358">
        <ele>48.68</ele>
        <time>2023-08-22T13:01:06Z</time>
      </trkpt>
      <trkpt lat="58.592863976955414" lon="-3.479124996811152">
        <ele>46.759999999999998</ele>
        <time>2023-08-22T13:01:19Z</time>
      </trkpt>
      <trkpt lat="58.592645963653922" lon="-3.485263986513019">
        <ele>40.030000000000001</ele>
        <time>2023-08-22T13:01:35Z</time>
      </trkpt>
      <trkpt lat="58.592458041384816" lon="-3.490523966029286">
        <ele>36.670000000000002</ele>
        <time>2023-08-22T13:01:50Z</time>
      </trkpt>
      <trkpt lat="58.592392997816205" lon="-3.493700958788395">
        <ele>34.740000000000002</ele>
        <time>2023-08-22T13:01:59Z</time>
      </trkpt>
      <trkpt lat="58.59244798310101" lon="-3.4940339718014">
        <ele>34.740000000000002</ele>
        <time>2023-08-22T13:02:00Z</time>
      </trkpt>
      <trkpt lat="58.59251101501286" lon="-3.494358016178012">
        <ele>34.740000000000002</ele>
        <time>2023-08-22T13:02:01Z</time>
      </trkpt>
      <trkpt lat="58.592602964490652" lon="-3.494660016149283">
        <ele>34.259999999999998</ele>
        <time>2023-08-22T13:02:02Z</time>
      </trkpt>
      <trkpt lat="58.592694997787476" lon="-3.494962016120553">
        <ele>34.259999999999998</ele>
        <time>2023-08-22T13:02:03Z</time>
      </trkpt>
      <trkpt lat="58.59279197640717" lon="-3.495282959192991">
        <ele>34.259999999999998</ele>
        <time>2023-08-22T13:02:04Z</time>
      </trkpt>
      <trkpt lat="58.593633016571403" lon="-3.497498966753483">
        <ele>33.299999999999997</ele>
        <time>2023-08-22T13:02:12Z</time>
      </trkpt>
      <trkpt lat="58.593712979927659" lon="-3.497799038887024">
        <ele>32.82</ele>
        <time>2023-08-22T13:02:13Z</time>
      </trkpt>
      <trkpt lat="58.593774000182748" lon="-3.49811696447432">
        <ele>33.299999999999997</ele>
        <time>2023-08-22T13:02:14Z</time>
      </trkpt>
      <trkpt lat="58.593809036538005" lon="-3.498449977487326">
        <ele>33.299999999999997</ele>
        <time>2023-08-22T13:02:15Z</time>
      </trkpt>
      <trkpt lat="58.59384398907423" lon="-3.498783996328712">
        <ele>33.780000000000001</ele>
        <time>2023-08-22T13:02:16Z</time>
      </trkpt>
      <trkpt lat="58.594179013743997" lon="-3.50191798992455">
        <ele>32.82</ele>
        <time>2023-08-22T13:02:26Z</time>
      </trkpt>
      <trkpt lat="58.594471039250493" lon="-3.503756979480386">
        <ele>29.460000000000001</ele>
        <time>2023-08-22T13:02:35Z</time>
      </trkpt>
      <trkpt lat="58.595147039741278" lon="-3.505546012893319">
        <ele>25.129999999999999</ele>
        <time>2023-08-22T13:02:46Z</time>
      </trkpt>
      <trkpt lat="58.595601003617048" lon="-3.506931960582733">
        <ele>21.289999999999999</ele>
        <time>2023-08-22T13:02:54Z</time>
      </trkpt>
      <trkpt lat="58.595621036365628" lon="-3.507147962227464">
        <ele>20.809999999999999</ele>
        <time>2023-08-22T13:02:55Z</time>
      </trkpt>
      <trkpt lat="58.595615001395345" lon="-3.507363963872194">
        <ele>20.32</ele>
        <time>2023-08-22T13:02:56Z</time>
      </trkpt>
      <trkpt lat="58.595607960596681" lon="-3.50758801214397">
        <ele>19.359999999999999</ele>
        <time>2023-08-22T13:02:57Z</time>
      </trkpt>
      <trkpt lat="58.595580970868468" lon="-3.507805019617081">
        <ele>18.879999999999999</ele>
        <time>2023-08-22T13:02:58Z</time>
      </trkpt>
      <trkpt lat="58.595524979755282" lon="-3.508003000169992">
        <ele>18.399999999999999</ele>
        <time>2023-08-22T13:02:59Z</time>
      </trkpt>
      <trkpt lat="58.595466976985335" lon="-3.508203998208046">
        <ele>18.399999999999999</ele>
        <time>2023-08-22T13:03:00Z</time>
      </trkpt>
      <trkpt lat="58.595409980043769" lon="-3.508403990417719">
        <ele>17.920000000000002</ele>
        <time>2023-08-22T13:03:01Z</time>
      </trkpt>
      <trkpt lat="58.595334040001035" lon="-3.508584033697844">
        <ele>17.440000000000001</ele>
        <time>2023-08-22T13:03:02Z</time>
      </trkpt>
      <trkpt lat="58.595248041674495" lon="-3.508748989552259">
        <ele>16.960000000000001</ele>
        <time>2023-08-22T13:03:03Z</time>
      </trkpt>
      <trkpt lat="58.595165982842445" lon="-3.508907994255424">
        <ele>16.48</ele>
        <time>2023-08-22T13:03:04Z</time>
      </trkpt>
      <trkpt lat="58.593965023756027" lon="-3.510968014597893">
        <ele>11.67</ele>
        <time>2023-08-22T13:03:18Z</time>
      </trkpt>
      <trkpt lat="58.592770015820861" lon="-3.513041026890278">
        <ele>8.789999999999999</ele>
        <time>2023-08-22T13:03:32Z</time>
      </trkpt>
      <trkpt lat="58.591936016455293" lon="-3.515229038894177">
        <ele>5.42</ele>
        <time>2023-08-22T13:03:44Z</time>
      </trkpt>
      <trkpt lat="58.591668969020247" lon="-3.51682897657156">
        <ele>3.98</ele>
        <time>2023-08-22T13:03:53Z</time>
      </trkpt>
      <trkpt lat="58.591643990948796" lon="-3.516982030123472">
        <ele>3.98</ele>
        <time>2023-08-22T13:03:59Z</time>
      </trkpt>
      <trkpt lat="58.591599985957146" lon="-3.517181016504765">
        <ele>4.46</ele>
        <time>2023-08-22T13:04:25Z</time>
      </trkpt>
      <trkpt lat="58.591580959036946" lon="-3.517266009002924">
        <ele>4.46</ele>
        <time>2023-08-22T13:04:26Z</time>
      </trkpt>
      <trkpt lat="58.591597974300385" lon="-3.517400035634637">
        <ele>3.98</ele>
        <time>2023-08-22T13:04:27Z</time>
      </trkpt>
      <trkpt lat="58.591633010655642" lon="-3.51749500259757">
        <ele>3.98</ele>
        <time>2023-08-22T13:04:28Z</time>
      </trkpt>
      <trkpt lat="58.591654971241951" lon="-3.517556022852659">
        <ele>3.5</ele>
        <time>2023-08-22T13:04:29Z</time>
      </trkpt>
      <trkpt lat="58.591713979840279" lon="-3.517663981765509">
        <ele>3.02</ele>
        <time>2023-08-22T13:04:30Z</time>
      </trkpt>
      <trkpt lat="58.591755973175168" lon="-3.517742017284036">
        <ele>2.54</ele>
        <time>2023-08-22T13:04:31Z</time>
      </trkpt>
      <trkpt lat="58.591992007568479" lon="-3.518307963386178">
        <ele>-0.82</ele>
        <time>2023-08-22T13:04:41Z</time>
      </trkpt>
      <trkpt lat="58.592000976204872" lon="-3.518330007791519">
        <ele>-1.3</ele>
        <time>2023-08-22T13:04:52Z</time>
      </trkpt>
      <trkpt lat="58.592104995623231" lon="-3.518393961712718">
        <ele>-1.79</ele>
        <time>2023-08-22T13:04:53Z</time>
      </trkpt>
      <trkpt lat="58.592117987573147" lon="-3.518367977812886">
        <ele>-2.27</ele>
        <time>2023-08-22T13:04:54Z</time>
      </trkpt>
      <trkpt lat="58.592129973694682" lon="-3.518344005569816">
        <ele>-2.27</ele>
        <time>2023-08-22T13:04:55Z</time>
      </trkpt>
      <trkpt lat="58.592141959816217" lon="-3.518320033326745">
        <ele>-2.75</ele>
        <time>2023-08-22T13:04:56Z</time>
      </trkpt>
      <trkpt lat="58.591998964548111" lon="-3.518324978649616">
        <ele>-2.75</ele>
        <time>2023-08-22T13:04:57Z</time>
      </trkpt>
      <trkpt lat="58.591998964548111" lon="-3.518324978649616">
        <ele>-3.23</ele>
        <time>2023-08-22T13:04:58Z</time>
      </trkpt>
      <trkpt lat="58.591998964548111" lon="-3.518324978649616">
        <ele>-3.71</ele>
        <time>2023-08-22T13:05:18Z</time>
      </trkpt>
      <trkpt lat="58.591998964548111" lon="-3.518324978649616">
        <ele>-4.67</ele>
        <time>2023-08-22T13:05:47Z</time>
      </trkpt>
      <trkpt lat="58.592012040317059" lon="-3.518186006695032">
        <ele>6.39</ele>
        <time>2023-08-22T13:09:34Z</time>
      </trkpt>
      <trkpt lat="58.591967029497027" lon="-3.518019039183855">
        <ele>-9</ele>
        <time>2023-08-22T13:09:54Z</time>
      </trkpt>
      <trkpt lat="58.591934004798532" lon="-3.517963970080018">
        <ele>-4.19</ele>
        <time>2023-08-22T13:10:39Z</time>
      </trkpt>
      <trkpt lat="58.59193098731339" lon="-3.517994983121753">
        <ele>2.06</ele>
        <time>2023-08-22T13:10:54Z</time>
      </trkpt>
      <trkpt lat="58.591934004798532" lon="-3.518027001991868">
        <ele>3.02</ele>
        <time>2023-08-22T13:11:00Z</time>
      </trkpt>
      <trkpt lat="58.591911038383842" lon="-3.518109982833266">
        <ele>3.02</ele>
        <time>2023-08-22T13:11:02Z</time>
      </trkpt>
      <trkpt lat="58.591912966221571" lon="-3.518111994490027">
        <ele>3.02</ele>
        <time>2023-08-22T13:11:03Z</time>
      </trkpt>
      <trkpt lat="58.59191196039319" lon="-3.518114006146789">
        <ele>3.02</ele>
        <time>2023-08-22T13:11:04Z</time>
      </trkpt>
      <trkpt lat="58.592010028660297" lon="-3.518351968377829">
        <ele>3.02</ele>
        <time>2023-08-22T13:11:05Z</time>
      </trkpt>
      <trkpt lat="58.592056967318058" lon="-3.518465962260962">
        <ele>2.54</ele>
        <time>2023-08-22T13:11:06Z</time>
      </trkpt>
      <trkpt lat="58.592107007279992" lon="-3.518579034134746">
        <ele>2.54</ele>
        <time>2023-08-22T13:11:07Z</time>
      </trkpt>
      <trkpt lat="58.592155035585165" lon="-3.518691016361117">
        <ele>2.06</ele>
        <time>2023-08-22T13:11:08Z</time>
      </trkpt>
      <trkpt lat="58.592731961980462" lon="-3.520133960992098">
        <ele>1.58</ele>
        <time>2023-08-22T13:11:19Z</time>
      </trkpt>
      <trkpt lat="58.593148961663246" lon="-3.521179016679525">
        <ele>1.58</ele>
        <time>2023-08-22T13:11:30Z</time>
      </trkpt>
      <trkpt lat="58.593170000240207" lon="-3.521226961165667">
        <ele>2.06</ele>
        <time>2023-08-22T13:11:38Z</time>
      </trkpt>
      <trkpt lat="58.593324981629848" lon="-3.521588975563645">
        <ele>2.06</ele>
        <time>2023-08-22T13:11:49Z</time>
      </trkpt>
      <trkpt lat="58.593445010483265" lon="-3.521869014948607">
        <ele>2.06</ele>
        <time>2023-08-22T13:11:53Z</time>
      </trkpt>
      <trkpt lat="58.593470994383097" lon="-3.521929029375315">
        <ele>2.06</ele>
        <time>2023-08-22T13:11:54Z</time>
      </trkpt>
      <trkpt lat="58.593525979667902" lon="-3.521968005225062">
        <ele>2.06</ele>
        <time>2023-08-22T13:11:55Z</time>
      </trkpt>
      <trkpt lat="58.593561016023159" lon="-3.521927017718554">
        <ele>2.06</ele>
        <time>2023-08-22T13:11:56Z</time>
      </trkpt>
      <trkpt lat="58.593611977994442" lon="-3.521868009120226">
        <ele>1.58</ele>
        <time>2023-08-22T13:11:57Z</time>
      </trkpt>
      <trkpt lat="58.593666041269898" lon="-3.521795002743602">
        <ele>1.1</ele>
        <time>2023-08-22T13:11:58Z</time>
      </trkpt>
      <trkpt lat="58.593727983534336" lon="-3.521707998588681">
        <ele>0.62</ele>
        <time>2023-08-22T13:11:59Z</time>
      </trkpt>
      <trkpt lat="58.593791015446186" lon="-3.52161998860538">
        <ele>0.62</ele>
        <time>2023-08-22T13:12:00Z</time>
      </trkpt>
      <trkpt lat="58.593969969078898" lon="-3.521369034424424">
        <ele>0.14</ele>
        <time>2023-08-22T13:12:03Z</time>
      </trkpt>
      <trkpt lat="58.594539016485214" lon="-3.520494969561696">
        <ele>-2.75</ele>
        <time>2023-08-22T13:12:15Z</time>
      </trkpt>
      <trkpt lat="58.594602970406413" lon="-3.520460017025471">
        <ele>-3.23</ele>
        <time>2023-08-22T13:12:16Z</time>
      </trkpt>
      <trkpt lat="58.594654016196728" lon="-3.520446019247174">
        <ele>-3.23</ele>
        <time>2023-08-22T13:12:17Z</time>
      </trkpt>
      <trkpt lat="58.594715036451817" lon="-3.520444007590413">
        <ele>-3.23</ele>
        <time>2023-08-22T13:12:18Z</time>
      </trkpt>
      <trkpt lat="58.594758035615087" lon="-3.520488012582064">
        <ele>-3.71</ele>
        <time>2023-08-22T13:12:19Z</time>
      </trkpt>
      <trkpt lat="58.594813020899892" lon="-3.520550038665533">
        <ele>-3.23</ele>
        <time>2023-08-22T13:12:20Z</time>
      </trkpt>
      <trkpt lat="58.594841016456485" lon="-3.52063000202179">
        <ele>-3.23</ele>
        <time>2023-08-22T13:12:21Z</time>
      </trkpt>
      <trkpt lat="58.594870017841458" lon="-3.520714994519949">
        <ele>-3.23</ele>
        <time>2023-08-22T13:12:22Z</time>
      </trkpt>
      <trkpt lat="58.5953030269593" lon="-3.521935986354947">
        <ele>-2.75</ele>
        <time>2023-08-22T13:12:32Z</time>
      </trkpt>
      <trkpt lat="58.595349965617061" lon="-3.522097002714872">
        <ele>-2.27</ele>
        <time>2023-08-22T13:12:33Z</time>
      </trkpt>
      <trkpt lat="58.595822034403682" lon="-3.523759972304106">
        <ele>-1.79</ele>
        <time>2023-08-22T13:12:44Z</time>
      </trkpt>
      <trkpt lat="58.595865033566952" lon="-3.523901039734483">
        <ele>-1.79</ele>
        <time>2023-08-22T13:12:45Z</time>
      </trkpt>
      <trkpt lat="58.596540028229356" lon="-3.525793002918363">
        <ele>1.58</ele>
        <time>2023-08-22T13:12:57Z</time>
      </trkpt>
      <trkpt lat="58.59734795987606" lon="-3.528385022655129">
        <ele>7.35</ele>
        <time>2023-08-22T13:13:11Z</time>
      </trkpt>
      <trkpt lat="58.597680972889066" lon="-3.529740963131189">
        <ele>10.710000000000001</ele>
        <time>2023-08-22T13:13:19Z</time>
      </trkpt>
      <trkpt lat="58.597718020901084" lon="-3.52989099919796">
        <ele>11.67</ele>
        <time>2023-08-22T13:13:21Z</time>
      </trkpt>
      <trkpt lat="58.597889011725783" lon="-3.531018029898405">
        <ele>14.56</ele>
        <time>2023-08-22T13:13:29Z</time>
      </trkpt>
      <trkpt lat="58.598190005868673" lon="-3.534068036824465">
        <ele>19.84</ele>
        <time>2023-08-22T13:13:44Z</time>
      </trkpt>
      <trkpt lat="58.598421011120081" lon="-3.537037996575236">
        <ele>18.879999999999999</ele>
        <time>2023-08-22T13:13:56Z</time>
      </trkpt>
      <trkpt lat="58.598387986421585" lon="-3.538446994498372">
        <ele>18.399999999999999</ele>
        <time>2023-08-22T13:14:01Z</time>
      </trkpt>
      <trkpt lat="58.598048016428947" lon="-3.54226503521204">
        <ele>19.84</ele>
        <time>2023-08-22T13:14:15Z</time>
      </trkpt>
      <trkpt lat="58.597672004252672" lon="-3.546695038676262">
        <ele>21.77</ele>
        <time>2023-08-22T13:14:30Z</time>
      </trkpt>
      <trkpt lat="58.597655994817615" lon="-3.546973988413811">
        <ele>21.77</ele>
        <time>2023-08-22T13:14:31Z</time>
      </trkpt>
      <trkpt lat="58.597644008696079" lon="-3.547258973121643">
        <ele>21.77</ele>
        <time>2023-08-22T13:14:32Z</time>
      </trkpt>
      <trkpt lat="58.597666975110769" lon="-3.547544963657856">
        <ele>21.77</ele>
        <time>2023-08-22T13:14:33Z</time>
      </trkpt>
      <trkpt lat="58.597692959010601" lon="-3.547833971679211">
        <ele>21.289999999999999</ele>
        <time>2023-08-22T13:14:34Z</time>
      </trkpt>
      <trkpt lat="58.59773201867938" lon="-3.548127003014088">
        <ele>21.289999999999999</ele>
        <time>2023-08-22T13:14:35Z</time>
      </trkpt>
      <trkpt lat="58.598178019747138" lon="-3.551524020731449">
        <ele>19.359999999999999</ele>
        <time>2023-08-22T13:14:47Z</time>
      </trkpt>
      <trkpt lat="58.598202997818589" lon="-3.552139000967145">
        <ele>20.32</ele>
        <time>2023-08-22T13:14:49Z</time>
      </trkpt>
      <trkpt lat="58.598214983940125" lon="-3.552433038130403">
        <ele>20.809999999999999</ele>
        <time>2023-08-22T13:14:50Z</time>
      </trkpt>
      <trkpt lat="58.598207021132112" lon="-3.552741995081306">
        <ele>21.289999999999999</ele>
        <time>2023-08-22T13:14:51Z</time>
      </trkpt>
      <trkpt lat="58.597922036424279" lon="-3.555832989513874">
        <ele>24.170000000000002</ele>
        <time>2023-08-22T13:15:01Z</time>
      </trkpt>
      <trkpt lat="58.597898986190557" lon="-3.556180000305176">
        <ele>24.649999999999999</ele>
        <time>2023-08-22T13:15:02Z</time>
      </trkpt>
      <trkpt lat="58.597924970090389" lon="-3.556461967527866">
        <ele>24.649999999999999</ele>
        <time>2023-08-22T13:15:03Z</time>
      </trkpt>
      <trkpt lat="58.597953971475363" lon="-3.556777965277433">
        <ele>24.649999999999999</ele>
        <time>2023-08-22T13:15:04Z</time>
      </trkpt>
      <trkpt lat="58.597982972860336" lon="-3.557093963027">
        <ele>25.129999999999999</ele>
        <time>2023-08-22T13:15:05Z</time>
      </trkpt>
      <trkpt lat="58.59837700612843" lon="-3.561387006193399">
        <ele>30.420000000000002</ele>
        <time>2023-08-22T13:15:19Z</time>
      </trkpt>
      <trkpt lat="58.598623014986515" lon="-3.564068963751197">
        <ele>35.710000000000001</ele>
        <time>2023-08-22T13:15:27Z</time>
      </trkpt>
      <trkpt lat="58.59917001798749" lon="-3.56918603181839">
        <ele>47.719999999999999</ele>
        <time>2023-08-22T13:15:40Z</time>
      </trkpt>
      <trkpt lat="58.599230032414198" lon="-3.569471016526222">
        <ele>48.68</ele>
        <time>2023-08-22T13:15:41Z</time>
      </trkpt>
      <trkpt lat="58.599308989942074" lon="-3.569713002070785">
        <ele>49.649999999999999</ele>
        <time>2023-08-22T13:15:42Z</time>
      </trkpt>
      <trkpt lat="58.599390964955091" lon="-3.569914000108838">
        <ele>50.609999999999999</ele>
        <time>2023-08-22T13:15:43Z</time>
      </trkpt>
      <trkpt lat="58.599469000473619" lon="-3.570107035338879">
        <ele>51.57</ele>
        <time>2023-08-22T13:15:44Z</time>
      </trkpt>
      <trkpt lat="58.599549969658256" lon="-3.570306021720171">
        <ele>52.049999999999997</ele>
        <time>2023-08-22T13:15:45Z</time>
      </trkpt>
      <trkpt lat="58.599667986854911" lon="-3.570496961474419">
        <ele>53.009999999999998</ele>
        <time>2023-08-22T13:15:46Z</time>
      </trkpt>
      <trkpt lat="58.600599970668554" lon="-3.571522990241647">
        <ele>59.740000000000002</ele>
        <time>2023-08-22T13:15:52Z</time>
      </trkpt>
      <trkpt lat="58.602711036801338" lon="-3.573511010035873">
        <ele>74.640000000000001</ele>
        <time>2023-08-22T13:16:05Z</time>
      </trkpt>
      <trkpt lat="58.603593986481428" lon="-3.574592024087906">
        <ele>78</ele>
        <time>2023-08-22T13:16:11Z</time>
      </trkpt>
      <trkpt lat="58.603681996464729" lon="-3.574839038774371">
        <ele>78.480000000000004</ele>
        <time>2023-08-22T13:16:12Z</time>
      </trkpt>
      <trkpt lat="58.603778975084424" lon="-3.575106002390385">
        <ele>78.969999999999999</ele>
        <time>2023-08-22T13:16:13Z</time>
      </trkpt>
      <trkpt lat="58.6038320325315" lon="-3.575400961562991">
        <ele>79.450000000000003</ele>
        <time>2023-08-22T13:16:14Z</time>
      </trkpt>
      <trkpt lat="58.603890035301447" lon="-3.575721988454461">
        <ele>80.409999999999997</ele>
        <time>2023-08-22T13:16:15Z</time>
      </trkpt>
      <trkpt lat="58.604247020557523" lon="-3.57879102230072">
        <ele>87.620000000000005</ele>
        <time>2023-08-22T13:16:24Z</time>
      </trkpt>
      <trkpt lat="58.604388004168868" lon="-3.584218975156546">
        <ele>94.349999999999994</ele>
        <time>2023-08-22T13:16:40Z</time>
      </trkpt>
      <trkpt lat="58.603999000042677" lon="-3.588256035000086">
        <ele>101.08</ele>
        <time>2023-08-22T13:16:51Z</time>
      </trkpt>
      <trkpt lat="58.603632962331176" lon="-3.592119002714753">
        <ele>106.84</ele>
        <time>2023-08-22T13:17:02Z</time>
      </trkpt>
      <trkpt lat="58.603517962619662" lon="-3.595730010420084">
        <ele>107.81</ele>
        <time>2023-08-22T13:17:13Z</time>
      </trkpt>
      <trkpt lat="58.603933034464717" lon="-3.600425971671939">
        <ele>104.92</ele>
        <time>2023-08-22T13:17:27Z</time>
      </trkpt>
      <trkpt lat="58.604187006130815" lon="-3.604900985956192">
        <ele>99.629999999999995</ele>
        <time>2023-08-22T13:17:40Z</time>
      </trkpt>
      <trkpt lat="58.604250960052013" lon="-3.61018200404942">
        <ele>92.420000000000002</ele>
        <time>2023-08-22T13:17:55Z</time>
      </trkpt>
      <trkpt lat="58.603905960917473" lon="-3.615763010457158">
        <ele>84.730000000000004</ele>
        <time>2023-08-22T13:18:11Z</time>
      </trkpt>
      <trkpt lat="58.603356024250388" lon="-3.619002029299736">
        <ele>80.409999999999997</ele>
        <time>2023-08-22T13:18:21Z</time>
      </trkpt>
      <trkpt lat="58.602969031780958" lon="-3.622016999870539">
        <ele>77.519999999999996</ele>
        <time>2023-08-22T13:18:30Z</time>
      </trkpt>
      <trkpt lat="58.602473996579647" lon="-3.624528972432017">
        <ele>75.599999999999994</ele>
        <time>2023-08-22T13:18:38Z</time>
      </trkpt>
      <trkpt lat="58.60166204161942" lon="-3.626758977770805">
        <ele>73.200000000000003</ele>
        <time>2023-08-22T13:18:46Z</time>
      </trkpt>
      <trkpt lat="58.601533966138959" lon="-3.626985959708691">
        <ele>72.719999999999999</ele>
        <time>2023-08-22T13:18:47Z</time>
      </trkpt>
      <trkpt lat="58.600591002032161" lon="-3.628455977886915">
        <ele>70.310000000000002</ele>
        <time>2023-08-22T13:18:54Z</time>
      </trkpt>
      <trkpt lat="58.600486982613802" lon="-3.628729982301593">
        <ele>69.829999999999998</ele>
        <time>2023-08-22T13:18:55Z</time>
      </trkpt>
      <trkpt lat="58.60039696097374" lon="-3.629028964787722">
        <ele>69.349999999999994</ele>
        <time>2023-08-22T13:18:56Z</time>
      </trkpt>
      <trkpt lat="58.60030802898109" lon="-3.629327025264502">
        <ele>68.390000000000001</ele>
        <time>2023-08-22T13:18:57Z</time>
      </trkpt>
      <trkpt lat="58.600238040089607" lon="-3.629637993872166">
        <ele>67.909999999999997</ele>
        <time>2023-08-22T13:18:58Z</time>
      </trkpt>
      <trkpt lat="58.600175008177757" lon="-3.629964971914887">
        <ele>66.950000000000003</ele>
        <time>2023-08-22T13:18:59Z</time>
      </trkpt>
      <trkpt lat="58.599288035184145" lon="-3.635177006945014">
        <ele>56.859999999999999</ele>
        <time>2023-08-22T13:19:15Z</time>
      </trkpt>
      <trkpt lat="58.598432997241616" lon="-3.640277981758118">
        <ele>49.159999999999997</ele>
        <time>2023-08-22T13:19:31Z</time>
      </trkpt>
      <trkpt lat="58.597763031721115" lon="-3.644272964447737">
        <ele>44.840000000000003</ele>
        <time>2023-08-22T13:19:44Z</time>
      </trkpt>
      <trkpt lat="58.596905982121825" lon="-3.649358013644815">
        <ele>39.549999999999997</ele>
        <time>2023-08-22T13:20:00Z</time>
      </trkpt>
      <trkpt lat="58.596238028258085" lon="-3.653672011569142">
        <ele>33.780000000000001</ele>
        <time>2023-08-22T13:20:13Z</time>
      </trkpt>
      <trkpt lat="58.595852041617036" lon="-3.656313987448812">
        <ele>29.460000000000001</ele>
        <time>2023-08-22T13:20:21Z</time>
      </trkpt>
      <trkpt lat="58.595756990835071" lon="-3.656902983784676">
        <ele>28.5</ele>
        <time>2023-08-22T13:20:23Z</time>
      </trkpt>
      <trkpt lat="58.595636961981654" lon="-3.657411010935903">
        <ele>27.050000000000001</ele>
        <time>2023-08-22T13:20:25Z</time>
      </trkpt>
      <trkpt lat="58.595548029989004" lon="-3.657655008137226">
        <ele>26.57</ele>
        <time>2023-08-22T13:20:26Z</time>
      </trkpt>
      <trkpt lat="58.595447028055787" lon="-3.657825998961926">
        <ele>26.09</ele>
        <time>2023-08-22T13:20:27Z</time>
      </trkpt>
      <trkpt lat="58.595308978110552" lon="-3.657996989786625">
        <ele>25.609999999999999</ele>
        <time>2023-08-22T13:20:28Z</time>
      </trkpt>
      <trkpt lat="58.595152990892529" lon="-3.658190025016666">
        <ele>24.649999999999999</ele>
        <time>2023-08-22T13:20:29Z</time>
      </trkpt>
      <trkpt lat="58.595014018937945" lon="-3.658327991142869">
        <ele>24.170000000000002</ele>
        <time>2023-08-22T13:20:30Z</time>
      </trkpt>
      <trkpt lat="58.594716964289546" lon="-3.658720012754202">
        <ele>23.210000000000001</ele>
        <time>2023-08-22T13:20:32Z</time>
      </trkpt>
      <trkpt lat="58.594586960971355" lon="-3.658942971378565">
        <ele>22.73</ele>
        <time>2023-08-22T13:20:33Z</time>
      </trkpt>
      <trkpt lat="58.594468021765351" lon="-3.659202978014946">
        <ele>22.73</ele>
        <time>2023-08-22T13:20:34Z</time>
      </trkpt>
      <trkpt lat="58.59435997903347" lon="-3.659472037106752">
        <ele>22.73</ele>
        <time>2023-08-22T13:20:35Z</time>
      </trkpt>
      <trkpt lat="58.594263000413775" lon="-3.659763978794217">
        <ele>23.210000000000001</ele>
        <time>2023-08-22T13:20:36Z</time>
      </trkpt>
      <trkpt lat="58.59418798238039" lon="-3.660062039270997">
        <ele>23.210000000000001</ele>
        <time>2023-08-22T13:20:37Z</time>
      </trkpt>
      <trkpt lat="58.594139032065868" lon="-3.660382982343435">
        <ele>23.690000000000001</ele>
        <time>2023-08-22T13:20:38Z</time>
      </trkpt>
      <trkpt lat="58.594092009589076" lon="-3.660695040598512">
        <ele>24.170000000000002</ele>
        <time>2023-08-22T13:20:39Z</time>
      </trkpt>
      <trkpt lat="58.594064014032483" lon="-3.660953035578132">
        <ele>24.649999999999999</ele>
        <time>2023-08-22T13:20:40Z</time>
      </trkpt>
      <trkpt lat="58.59410198405385" lon="-3.661219999194145">
        <ele>24.649999999999999</ele>
        <time>2023-08-22T13:20:41Z</time>
      </trkpt>
      <trkpt lat="58.594139032065868" lon="-3.661479000002146">
        <ele>24.649999999999999</ele>
        <time>2023-08-22T13:20:42Z</time>
      </trkpt>
      <trkpt lat="58.594181025400758" lon="-3.66172400303185">
        <ele>25.129999999999999</ele>
        <time>2023-08-22T13:20:43Z</time>
      </trkpt>
      <trkpt lat="58.59425101429224" lon="-3.661977974697948">
        <ele>25.129999999999999</ele>
        <time>2023-08-22T13:20:44Z</time>
      </trkpt>
      <trkpt lat="58.595055006444454" lon="-3.665175000205636">
        <ele>27.530000000000001</ele>
        <time>2023-08-22T13:20:55Z</time>
      </trkpt>
      <trkpt lat="58.595377039164305" lon="-3.668242022395134">
        <ele>31.859999999999999</ele>
        <time>2023-08-22T13:21:04Z</time>
      </trkpt>
      <trkpt lat="58.595756990835071" lon="-3.672713013365865">
        <ele>40.509999999999998</ele>
        <time>2023-08-22T13:21:17Z</time>
      </trkpt>
      <trkpt lat="58.59648697078228" lon="-3.678285973146558">
        <ele>44.840000000000003</ele>
        <time>2023-08-22T13:21:34Z</time>
      </trkpt>
      <trkpt lat="58.596902964636683" lon="-3.681776029989123">
        <ele>43.880000000000003</ele>
        <time>2023-08-22T13:21:45Z</time>
      </trkpt>
      <trkpt lat="58.596929032355547" lon="-3.68204802274704">
        <ele>43.399999999999999</ele>
        <time>2023-08-22T13:21:46Z</time>
      </trkpt>
      <trkpt lat="58.59691402874887" lon="-3.682332001626492">
        <ele>43.399999999999999</ele>
        <time>2023-08-22T13:21:47Z</time>
      </trkpt>
      <trkpt lat="58.596890978515148" lon="-3.682609023526311">
        <ele>43.399999999999999</ele>
        <time>2023-08-22T13:21:48Z</time>
      </trkpt>
      <trkpt lat="58.596802968531847" lon="-3.682903982698917">
        <ele>43.399999999999999</ele>
        <time>2023-08-22T13:21:49Z</time>
      </trkpt>
      <trkpt lat="58.596717976033688" lon="-3.683191984891892">
        <ele>43.880000000000003</ele>
        <time>2023-08-22T13:21:50Z</time>
      </trkpt>
      <trkpt lat="58.596611022949219" lon="-3.683461965993047">
        <ele>44.359999999999999</ele>
        <time>2023-08-22T13:21:51Z</time>
      </trkpt>
      <trkpt lat="58.595143016427755" lon="-3.687143968418241">
        <ele>49.159999999999997</ele>
        <time>2023-08-22T13:22:04Z</time>
      </trkpt>
      <trkpt lat="58.593566967174411" lon="-3.691090000793338">
        <ele>54.450000000000003</ele>
        <time>2023-08-22T13:22:19Z</time>
      </trkpt>
      <trkpt lat="58.591873990371823" lon="-3.695326969027519">
        <ele>53.490000000000002</ele>
        <time>2023-08-22T13:22:35Z</time>
      </trkpt>
      <trkpt lat="58.589799972251058" lon="-3.700522994622588">
        <ele>51.57</ele>
        <time>2023-08-22T13:22:54Z</time>
      </trkpt>
      <trkpt lat="58.587845982983708" lon="-3.705414002761245">
        <ele>46.759999999999998</ele>
        <time>2023-08-22T13:23:11Z</time>
      </trkpt>
      <trkpt lat="58.586198017001152" lon="-3.709538988769054">
        <ele>48.200000000000003</ele>
        <time>2023-08-22T13:23:26Z</time>
      </trkpt>
      <trkpt lat="58.584163980558515" lon="-3.714630994945765">
        <ele>53.009999999999998</ele>
        <time>2023-08-22T13:23:45Z</time>
      </trkpt>
      <trkpt lat="58.582583991810679" lon="-3.718584990128875">
        <ele>47.719999999999999</ele>
        <time>2023-08-22T13:24:00Z</time>
      </trkpt>
      <trkpt lat="58.581068962812424" lon="-3.722374029457569">
        <ele>42.439999999999998</ele>
        <time>2023-08-22T13:24:14Z</time>
      </trkpt>
      <trkpt lat="58.57981201261282" lon="-3.725351030007005">
        <ele>39.07</ele>
        <time>2023-08-22T13:24:26Z</time>
      </trkpt>
      <trkpt lat="58.578206961974502" lon="-3.72749101370573">
        <ele>31.859999999999999</ele>
        <time>2023-08-22T13:24:37Z</time>
      </trkpt>
      <trkpt lat="58.575856005772948" lon="-3.730579996481538">
        <ele>29.940000000000001</ele>
        <time>2023-08-22T13:24:52Z</time>
      </trkpt>
      <trkpt lat="58.573799002915621" lon="-3.733578035607934">
        <ele>26.57</ele>
        <time>2023-08-22T13:25:05Z</time>
      </trkpt>
      <trkpt lat="58.572939019650221" lon="-3.735946007072926">
        <ele>24.649999999999999</ele>
        <time>2023-08-22T13:25:13Z</time>
      </trkpt>
      <trkpt lat="58.571760021150112" lon="-3.739658016711474">
        <ele>25.129999999999999</ele>
        <time>2023-08-22T13:25:26Z</time>
      </trkpt>
      <trkpt lat="58.570785038173199" lon="-3.742466038092971">
        <ele>28.98</ele>
        <time>2023-08-22T13:25:36Z</time>
      </trkpt>
      <trkpt lat="58.56907001696527" lon="-3.746605021879077">
        <ele>32.82</ele>
        <time>2023-08-22T13:25:51Z</time>
      </trkpt>
      <trkpt lat="58.567901998758316" lon="-3.749760976061225">
        <ele>36.670000000000002</ele>
        <time>2023-08-22T13:26:03Z</time>
      </trkpt>
      <trkpt lat="58.566097961738706" lon="-3.75479799695313">
        <ele>40.030000000000001</ele>
        <time>2023-08-22T13:26:22Z</time>
      </trkpt>
      <trkpt lat="58.564918041229248" lon="-3.756960025057197">
        <ele>37.149999999999999</ele>
        <time>2023-08-22T13:26:32Z</time>
      </trkpt>
      <trkpt lat="58.563604010269046" lon="-3.758789962157607">
        <ele>31.379999999999999</ele>
        <time>2023-08-22T13:26:42Z</time>
      </trkpt>
      <trkpt lat="58.561864010989666" lon="-3.760494003072381">
        <ele>26.57</ele>
        <time>2023-08-22T13:26:53Z</time>
      </trkpt>
      <trkpt lat="58.5610989946872" lon="-3.761144019663334">
        <ele>23.690000000000001</ele>
        <time>2023-08-22T13:26:58Z</time>
      </trkpt>
      <trkpt lat="58.560994975268841" lon="-3.761350968852639">
        <ele>23.210000000000001</ele>
        <time>2023-08-22T13:26:59Z</time>
      </trkpt>
      <trkpt lat="58.560905959457159" lon="-3.761530006304383">
        <ele>22.25</ele>
        <time>2023-08-22T13:27:00Z</time>
      </trkpt>
      <trkpt lat="58.560877041891217" lon="-3.76173603348434">
        <ele>21.77</ele>
        <time>2023-08-22T13:27:01Z</time>
      </trkpt>
      <trkpt lat="58.560862960293889" lon="-3.761985981836915">
        <ele>21.289999999999999</ele>
        <time>2023-08-22T13:27:02Z</time>
      </trkpt>
      <trkpt lat="58.560862960293889" lon="-3.762268032878637">
        <ele>20.809999999999999</ele>
        <time>2023-08-22T13:27:03Z</time>
      </trkpt>
      <trkpt lat="58.560862960293889" lon="-3.762561986222863">
        <ele>20.32</ele>
        <time>2023-08-22T13:27:04Z</time>
      </trkpt>
      <trkpt lat="58.5609280038625" lon="-3.764469958841801">
        <ele>20.32</ele>
        <time>2023-08-22T13:27:12Z</time>
      </trkpt>
      <trkpt lat="58.560952981933951" lon="-3.766822004690766">
        <ele>21.77</ele>
        <time>2023-08-22T13:27:24Z</time>
      </trkpt>
      <trkpt lat="58.560757013037801" lon="-3.768968023359776">
        <ele>20.32</ele>
        <time>2023-08-22T13:27:35Z</time>
      </trkpt>
      <trkpt lat="58.560330960899591" lon="-3.771249996498227">
        <ele>13.119999999999999</ele>
        <time>2023-08-22T13:27:46Z</time>
      </trkpt>
      <trkpt lat="58.559930976480246" lon="-3.772365963086486">
        <ele>9.75</ele>
        <time>2023-08-22T13:27:53Z</time>
      </trkpt>
      <trkpt lat="58.559440970420837" lon="-3.773405989632011">
        <ele>10.710000000000001</ele>
        <time>2023-08-22T13:28:01Z</time>
      </trkpt>
      <trkpt lat="58.559385985136032" lon="-3.7735550198704">
        <ele>10.710000000000001</ele>
        <time>2023-08-22T13:28:02Z</time>
      </trkpt>
      <trkpt lat="58.55933602899313" lon="-3.773702038452029">
        <ele>11.19</ele>
        <time>2023-08-22T13:28:03Z</time>
      </trkpt>
      <trkpt lat="58.559285989031196" lon="-3.773846961557865">
        <ele>11.19</ele>
        <time>2023-08-22T13:28:04Z</time>
      </trkpt>
      <trkpt lat="58.559234021231532" lon="-3.773999009281397">
        <ele>11.67</ele>
        <time>2023-08-22T13:28:05Z</time>
      </trkpt>
      <trkpt lat="58.559106029570103" lon="-3.774427995085716">
        <ele>12.15</ele>
        <time>2023-08-22T13:28:08Z</time>
      </trkpt>
      <trkpt lat="58.55907903984189" lon="-3.774584988132119">
        <ele>12.15</ele>
        <time>2023-08-22T13:28:09Z</time>
      </trkpt>
      <trkpt lat="58.559050960466266" lon="-3.774747010320425">
        <ele>12.15</ele>
        <time>2023-08-22T13:28:10Z</time>
      </trkpt>
      <trkpt lat="58.559007961302996" lon="-3.775364002212882">
        <ele>12.630000000000001</ele>
        <time>2023-08-22T13:28:14Z</time>
      </trkpt>
      <trkpt lat="58.559135030955076" lon="-3.777480013668537">
        <ele>17.440000000000001</ele>
        <time>2023-08-22T13:28:27Z</time>
      </trkpt>
      <trkpt lat="58.559203008189797" lon="-3.779642041772604">
        <ele>16.960000000000001</ele>
        <time>2023-08-22T13:28:40Z</time>
      </trkpt>
      <trkpt lat="58.559151040390134" lon="-3.781647998839617">
        <ele>15.52</ele>
        <time>2023-08-22T13:28:52Z</time>
      </trkpt>
      <trkpt lat="58.558917017653584" lon="-3.783601988106966">
        <ele>14.56</ele>
        <time>2023-08-22T13:29:04Z</time>
      </trkpt>
      <trkpt lat="58.558558020740747" lon="-3.785730991512537">
        <ele>15.52</ele>
        <time>2023-08-22T13:29:17Z</time>
      </trkpt>
      <trkpt lat="58.558269012719393" lon="-3.787446012720466">
        <ele>14.56</ele>
        <time>2023-08-22T13:29:28Z</time>
      </trkpt>
      <trkpt lat="58.557980004698038" lon="-3.789160028100014">
        <ele>14.56</ele>
        <time>2023-08-22T13:29:39Z</time>
      </trkpt>
      <trkpt lat="58.557551018893719" lon="-3.791684992611408">
        <ele>11.67</ele>
        <time>2023-08-22T13:29:53Z</time>
      </trkpt>
      <trkpt lat="58.557023964822292" lon="-3.793743001297116">
        <ele>15.039999999999999</ele>
        <time>2023-08-22T13:30:05Z</time>
      </trkpt>
      <trkpt lat="58.556768987327814" lon="-3.794715972617269">
        <ele>14.56</ele>
        <time>2023-08-22T13:30:10Z</time>
      </trkpt>
      <trkpt lat="58.556748032569885" lon="-3.794909007847309">
        <ele>15.039999999999999</ele>
        <time>2023-08-22T13:30:11Z</time>
      </trkpt>
      <trkpt lat="58.556574024260044" lon="-3.796875989064574">
        <ele>16.960000000000001</ele>
        <time>2023-08-22T13:30:21Z</time>
      </trkpt>
      <trkpt lat="58.556513004004955" lon="-3.799484018236399">
        <ele>19.84</ele>
        <time>2023-08-22T13:30:30Z</time>
      </trkpt>
      <trkpt lat="58.556664967909455" lon="-3.803132995963097">
        <ele>24.170000000000002</ele>
        <time>2023-08-22T13:30:40Z</time>
      </trkpt>
      <trkpt lat="58.556788014248013" lon="-3.806082000955939">
        <ele>28.02</ele>
        <time>2023-08-22T13:30:49Z</time>
      </trkpt>
      <trkpt lat="58.556879041716456" lon="-3.809616984799504">
        <ele>32.82</ele>
        <time>2023-08-22T13:31:00Z</time>
      </trkpt>
      <trkpt lat="58.556874012574553" lon="-3.809943040832877">
        <ele>33.299999999999997</ele>
        <time>2023-08-22T13:31:01Z</time>
      </trkpt>
      <trkpt lat="58.556829001754522" lon="-3.810256021097302">
        <ele>33.299999999999997</ele>
        <time>2023-08-22T13:31:02Z</time>
      </trkpt>
      <trkpt lat="58.556761024519801" lon="-3.81055299192667">
        <ele>33.780000000000001</ele>
        <time>2023-08-22T13:31:03Z</time>
      </trkpt>
      <trkpt lat="58.556694975122809" lon="-3.810841999948025">
        <ele>34.740000000000002</ele>
        <time>2023-08-22T13:31:04Z</time>
      </trkpt>
      <trkpt lat="58.556631021201611" lon="-3.811125978827477">
        <ele>35.710000000000001</ele>
        <time>2023-08-22T13:31:05Z</time>
      </trkpt>
      <trkpt lat="58.556364979594946" lon="-3.812660034745932">
        <ele>40.509999999999998</ele>
        <time>2023-08-22T13:31:10Z</time>
      </trkpt>
      <trkpt lat="58.556337989866734" lon="-3.812976032495499">
        <ele>40.990000000000002</ele>
        <time>2023-08-22T13:31:11Z</time>
      </trkpt>
      <trkpt lat="58.556345030665398" lon="-3.813314996659756">
        <ele>41.469999999999999</ele>
        <time>2023-08-22T13:31:12Z</time>
      </trkpt>
      <trkpt lat="58.55641501955688" lon="-3.817015020176768">
        <ele>50.609999999999999</ele>
        <time>2023-08-22T13:31:22Z</time>
      </trkpt>
      <trkpt lat="58.556049987673759" lon="-3.820695010945201">
        <ele>51.57</ele>
        <time>2023-08-22T13:31:32Z</time>
      </trkpt>
      <trkpt lat="58.555658971890807" lon="-3.823804026469588">
        <ele>54.93</ele>
        <time>2023-08-22T13:31:41Z</time>
      </trkpt>
      <trkpt lat="58.555114986374974" lon="-3.828154988586903">
        <ele>61.18</ele>
        <time>2023-08-22T13:31:54Z</time>
      </trkpt>
      <trkpt lat="58.554552979767323" lon="-3.831682009622455">
        <ele>73.680000000000007</ele>
        <time>2023-08-22T13:32:05Z</time>
      </trkpt>
      <trkpt lat="58.554548034444451" lon="-3.832002030685544">
        <ele>74.640000000000001</ele>
        <time>2023-08-22T13:32:06Z</time>
      </trkpt>
      <trkpt lat="58.554543005302548" lon="-3.832322973757982">
        <ele>76.079999999999998</ele>
        <time>2023-08-22T13:32:07Z</time>
      </trkpt>
      <trkpt lat="58.55458801612258" lon="-3.834047969430685">
        <ele>79.450000000000003</ele>
        <time>2023-08-22T13:32:12Z</time>
      </trkpt>
      <trkpt lat="58.554625986143947" lon="-3.83438098244369">
        <ele>79.930000000000007</ele>
        <time>2023-08-22T13:32:13Z</time>
      </trkpt>
      <trkpt lat="58.554692035540938" lon="-3.834692034870386">
        <ele>80.409999999999997</ele>
        <time>2023-08-22T13:32:14Z</time>
      </trkpt>
      <trkpt lat="58.554780967533588" lon="-3.834967967122793">
        <ele>80.890000000000001</ele>
        <time>2023-08-22T13:32:15Z</time>
      </trkpt>
      <trkpt lat="58.554895967245102" lon="-3.835211964324117">
        <ele>81.370000000000005</ele>
        <time>2023-08-22T13:32:16Z</time>
      </trkpt>
      <trkpt lat="58.555010966956615" lon="-3.835457973182201">
        <ele>82.329999999999998</ele>
        <time>2023-08-22T13:32:17Z</time>
      </trkpt>
      <trkpt lat="58.55514700524509" lon="-3.835666012018919">
        <ele>82.810000000000002</ele>
        <time>2023-08-22T13:32:18Z</time>
      </trkpt>
      <trkpt lat="58.55529896914959" lon="-3.835843037813902">
        <ele>83.290000000000006</ele>
        <time>2023-08-22T13:32:19Z</time>
      </trkpt>
      <trkpt lat="58.555465014651418" lon="-3.835961977019906">
        <ele>84.25</ele>
        <time>2023-08-22T13:32:20Z</time>
      </trkpt>
      <trkpt lat="58.555628964677453" lon="-3.836079994216561">
        <ele>84.730000000000004</ele>
        <time>2023-08-22T13:32:21Z</time>
      </trkpt>
      <trkpt lat="58.555794004350901" lon="-3.836198011413217">
        <ele>85.209999999999994</ele>
        <time>2023-08-22T13:32:22Z</time>
      </trkpt>
      <trkpt lat="58.555963989347219" lon="-3.836330026388168">
        <ele>85.689999999999998</ele>
        <time>2023-08-22T13:32:23Z</time>
      </trkpt>
      <trkpt lat="58.556100027635694" lon="-3.83652800694108">
        <ele>86.180000000000007</ele>
        <time>2023-08-22T13:32:24Z</time>
      </trkpt>
      <trkpt lat="58.556223995983601" lon="-3.836739985272288">
        <ele>86.659999999999997</ele>
        <time>2023-08-22T13:32:25Z</time>
      </trkpt>
      <trkpt lat="58.556343019008636" lon="-3.83695799857378">
        <ele>87.140000000000001</ele>
        <time>2023-08-22T13:32:26Z</time>
      </trkpt>
      <trkpt lat="58.556448966264725" lon="-3.8372159935534">
        <ele>87.620000000000005</ele>
        <time>2023-08-22T13:32:27Z</time>
      </trkpt>
      <trkpt lat="58.556522978469729" lon="-3.837509024888277">
        <ele>88.099999999999994</ele>
        <time>2023-08-22T13:32:28Z</time>
      </trkpt>
      <trkpt lat="58.556594979017973" lon="-3.837801972404122">
        <ele>89.060000000000002</ele>
        <time>2023-08-22T13:32:29Z</time>
      </trkpt>
      <trkpt lat="58.556640995666385" lon="-3.838113024830818">
        <ele>90.019999999999996</ele>
        <time>2023-08-22T13:32:30Z</time>
      </trkpt>
      <trkpt lat="58.556676032021642" lon="-3.83844000287354">
        <ele>90.980000000000004</ele>
        <time>2023-08-22T13:32:31Z</time>
      </trkpt>
      <trkpt lat="58.556661028414965" lon="-3.838772010058165">
        <ele>91.939999999999998</ele>
        <time>2023-08-22T13:32:32Z</time>
      </trkpt>
      <trkpt lat="58.556645018979907" lon="-3.839112985879183">
        <ele>92.420000000000002</ele>
        <time>2023-08-22T13:32:33Z</time>
      </trkpt>
      <trkpt lat="58.556613000109792" lon="-3.839453961700201">
        <ele>93.390000000000001</ele>
        <time>2023-08-22T13:32:34Z</time>
      </trkpt>
      <trkpt lat="58.556558014824986" lon="-3.839788986369968">
        <ele>93.870000000000005</ele>
        <time>2023-08-22T13:32:35Z</time>
      </trkpt>
      <trkpt lat="58.555863993242383" lon="-3.843648014590144">
        <ele>95.790000000000006</ele>
        <time>2023-08-22T13:32:47Z</time>
      </trkpt>
      <trkpt lat="58.555078022181988" lon="-3.846284039318562">
        <ele>95.790000000000006</ele>
        <time>2023-08-22T13:32:56Z</time>
      </trkpt>
      <trkpt lat="58.554275035858154" lon="-3.849585000425577">
        <ele>92.900000000000006</ele>
        <time>2023-08-22T13:33:07Z</time>
      </trkpt>
      <trkpt lat="58.554252991452813" lon="-3.849918013438582">
        <ele>92.420000000000002</ele>
        <time>2023-08-22T13:33:08Z</time>
      </trkpt>
      <trkpt lat="58.554235976189375" lon="-3.850262006744742">
        <ele>91.939999999999998</ele>
        <time>2023-08-22T13:33:09Z</time>
      </trkpt>
      <trkpt lat="58.554262965917587" lon="-3.850592002272606">
        <ele>91.459999999999994</ele>
        <time>2023-08-22T13:33:10Z</time>
      </trkpt>
      <trkpt lat="58.55428802780807" lon="-3.850919986143708">
        <ele>90.980000000000004</ele>
        <time>2023-08-22T13:33:11Z</time>
      </trkpt>
      <trkpt lat="58.554332032799721" lon="-3.851245036348701">
        <ele>90.5</ele>
        <time>2023-08-22T13:33:12Z</time>
      </trkpt>
      <trkpt lat="58.554385006427765" lon="-3.851564973592758">
        <ele>90.5</ele>
        <time>2023-08-22T13:33:13Z</time>
      </trkpt>
      <trkpt lat="58.554702010005713" lon="-3.853498008102179">
        <ele>89.540000000000006</ele>
        <time>2023-08-22T13:33:19Z</time>
      </trkpt>
      <trkpt lat="58.554891021922231" lon="-3.856802992522717">
        <ele>91.459999999999994</ele>
        <time>2023-08-22T13:33:29Z</time>
      </trkpt>
      <trkpt lat="58.554808041080832" lon="-3.859802037477493">
        <ele>91.939999999999998</ele>
        <time>2023-08-22T13:33:38Z</time>
      </trkpt>
      <trkpt lat="58.554607965052128" lon="-3.864145958796144">
        <ele>86.180000000000007</ele>
        <time>2023-08-22T13:33:51Z</time>
      </trkpt>
      <trkpt lat="58.554690023884177" lon="-3.86748899705708">
        <ele>78.969999999999999</ele>
        <time>2023-08-22T13:34:01Z</time>
      </trkpt>
      <trkpt lat="58.554661022499204" lon="-3.867813963443041">
        <ele>78.480000000000004</ele>
        <time>2023-08-22T13:34:02Z</time>
      </trkpt>
      <trkpt lat="58.554616011679173" lon="-3.86813398450613">
        <ele>78</ele>
        <time>2023-08-22T13:34:03Z</time>
      </trkpt>
      <trkpt lat="58.554534958675504" lon="-3.868425004184246">
        <ele>77.519999999999996</ele>
        <time>2023-08-22T13:34:04Z</time>
      </trkpt>
      <trkpt lat="58.554452983662486" lon="-3.868719041347504">
        <ele>76.560000000000002</ele>
        <time>2023-08-22T13:34:05Z</time>
      </trkpt>
      <trkpt lat="58.554362962022424" lon="-3.869002014398575">
        <ele>76.079999999999998</ele>
        <time>2023-08-22T13:34:06Z</time>
      </trkpt>
      <trkpt lat="58.554232958704233" lon="-3.869217010214925">
        <ele>76.079999999999998</ele>
        <time>2023-08-22T13:34:07Z</time>
      </trkpt>
      <trkpt lat="58.554100021719933" lon="-3.869437035173178">
        <ele>75.599999999999994</ele>
        <time>2023-08-22T13:34:08Z</time>
      </trkpt>
      <trkpt lat="58.5539670009166" lon="-3.86965798214078">
        <ele>75.120000000000005</ele>
        <time>2023-08-22T13:34:09Z</time>
      </trkpt>
      <trkpt lat="58.55334104038775" lon="-3.870848966762424">
        <ele>72.239999999999995</ele>
        <time>2023-08-22T13:34:14Z</time>
      </trkpt>
      <trkpt lat="58.553238026797771" lon="-3.871117020025849">
        <ele>71.269999999999996</ele>
        <time>2023-08-22T13:34:15Z</time>
      </trkpt>
      <trkpt lat="58.553158985450864" lon="-3.871397981420159">
        <ele>70.310000000000002</ele>
        <time>2023-08-22T13:34:16Z</time>
      </trkpt>
      <trkpt lat="58.553108023479581" lon="-3.871707022190094">
        <ele>68.870000000000005</ele>
        <time>2023-08-22T13:34:17Z</time>
      </trkpt>
      <trkpt lat="58.553055971860886" lon="-3.872014973312616">
        <ele>67.909999999999997</ele>
        <time>2023-08-22T13:34:18Z</time>
      </trkpt>
      <trkpt lat="58.553030993789434" lon="-3.872327031567693">
        <ele>66.950000000000003</ele>
        <time>2023-08-22T13:34:19Z</time>
      </trkpt>
      <trkpt lat="58.553030993789434" lon="-3.872661972418428">
        <ele>65.989999999999995</ele>
        <time>2023-08-22T13:34:20Z</time>
      </trkpt>
      <trkpt lat="58.553030993789434" lon="-3.873000014573336">
        <ele>65.030000000000001</ele>
        <time>2023-08-22T13:34:21Z</time>
      </trkpt>
      <trkpt lat="58.553013978525996" lon="-3.873337972909212">
        <ele>64.069999999999993</ele>
        <time>2023-08-22T13:34:22Z</time>
      </trkpt>
      <trkpt lat="58.552979025989771" lon="-3.873666040599346">
        <ele>62.619999999999997</ele>
        <time>2023-08-22T13:34:23Z</time>
      </trkpt>
      <trkpt lat="58.552946001291275" lon="-3.873987989500165">
        <ele>62.140000000000001</ele>
        <time>2023-08-22T13:34:24Z</time>
      </trkpt>
      <trkpt lat="58.55287098325789" lon="-3.874281020835042">
        <ele>61.18</ele>
        <time>2023-08-22T13:34:25Z</time>
      </trkpt>
      <trkpt lat="58.552794959396124" lon="-3.87457799166441">
        <ele>60.219999999999999</ele>
        <time>2023-08-22T13:34:26Z</time>
      </trkpt>
      <trkpt lat="58.55271901935339" lon="-3.8748789858073">
        <ele>59.259999999999998</ele>
        <time>2023-08-22T13:34:27Z</time>
      </trkpt>
      <trkpt lat="58.551957020536065" lon="-3.877105973660946">
        <ele>52.530000000000001</ele>
        <time>2023-08-22T13:34:35Z</time>
      </trkpt>
      <trkpt lat="58.551901029422879" lon="-3.877415014430881">
        <ele>52.049999999999997</ele>
        <time>2023-08-22T13:34:36Z</time>
      </trkpt>
      <trkpt lat="58.551845038309693" lon="-3.877725983038545">
        <ele>51.57</ele>
        <time>2023-08-22T13:34:37Z</time>
      </trkpt>
      <trkpt lat="58.551823999732733" lon="-3.878055978566408">
        <ele>51.090000000000003</ele>
        <time>2023-08-22T13:34:38Z</time>
      </trkpt>
      <trkpt lat="58.55181603692472" lon="-3.878391003236175">
        <ele>50.609999999999999</ele>
        <time>2023-08-22T13:34:39Z</time>
      </trkpt>
      <trkpt lat="58.551807990297675" lon="-3.878753017634153">
        <ele>50.130000000000003</ele>
        <time>2023-08-22T13:34:40Z</time>
      </trkpt>
      <trkpt lat="58.551828023046255" lon="-3.879057029262185">
        <ele>49.159999999999997</ele>
        <time>2023-08-22T13:34:41Z</time>
      </trkpt>
      <trkpt lat="58.551849983632565" lon="-3.879389958456159">
        <ele>49.159999999999997</ele>
        <time>2023-08-22T13:34:42Z</time>
      </trkpt>
      <trkpt lat="58.551868004724383" lon="-3.882725033909082">
        <ele>49.649999999999999</ele>
        <time>2023-08-22T13:34:52Z</time>
      </trkpt>
      <trkpt lat="58.551504984498024" lon="-3.885656017810106">
        <ele>49.159999999999997</ele>
        <time>2023-08-22T13:35:01Z</time>
      </trkpt>
      <trkpt lat="58.55136601254344" lon="-3.886270998045802">
        <ele>48.68</ele>
        <time>2023-08-22T13:35:03Z</time>
      </trkpt>
      <trkpt lat="58.551264004781842" lon="-3.88654600828886">
        <ele>48.200000000000003</ele>
        <time>2023-08-22T13:35:04Z</time>
      </trkpt>
      <trkpt lat="58.551160991191864" lon="-3.88682596385479">
        <ele>47.240000000000002</ele>
        <time>2023-08-22T13:35:05Z</time>
      </trkpt>
      <trkpt lat="58.55093602091074" lon="-3.887344971299171">
        <ele>46.280000000000001</ele>
        <time>2023-08-22T13:35:07Z</time>
      </trkpt>
      <trkpt lat="58.550821021199226" lon="-3.887550998479128">
        <ele>45.32</ele>
        <time>2023-08-22T13:35:08Z</time>
      </trkpt>
      <trkpt lat="58.550653969869018" lon="-3.88772601261735">
        <ele>44.840000000000003</ele>
        <time>2023-08-22T13:35:09Z</time>
      </trkpt>
      <trkpt lat="58.550497982650995" lon="-3.887889040634036">
        <ele>43.880000000000003</ele>
        <time>2023-08-22T13:35:10Z</time>
      </trkpt>
      <trkpt lat="58.550341995432973" lon="-3.888043016195297">
        <ele>43.399999999999999</ele>
        <time>2023-08-22T13:35:11Z</time>
      </trkpt>
      <trkpt lat="58.54855103418231" lon="-3.889341959729791">
        <ele>38.590000000000003</ele>
        <time>2023-08-22T13:35:22Z</time>
      </trkpt>
      <trkpt lat="58.546622022986412" lon="-3.890981962904334">
        <ele>34.259999999999998</ele>
        <time>2023-08-22T13:35:34Z</time>
      </trkpt>
      <trkpt lat="58.544482961297035" lon="-3.892418034374714">
        <ele>29.460000000000001</ele>
        <time>2023-08-22T13:35:47Z</time>
      </trkpt>
      <trkpt lat="58.543210001662374" lon="-3.894202038645744">
        <ele>21.77</ele>
        <time>2023-08-22T13:35:56Z</time>
      </trkpt>
      <trkpt lat="58.542331997305155" lon="-3.896678974851966">
        <ele>14.08</ele>
        <time>2023-08-22T13:36:05Z</time>
      </trkpt>
      <trkpt lat="58.541980041190982" lon="-3.899570982903242">
        <ele>6.39</ele>
        <time>2023-08-22T13:36:14Z</time>
      </trkpt>
      <trkpt lat="58.542195037007332" lon="-3.902537003159523">
        <ele>3.5</ele>
        <time>2023-08-22T13:36:23Z</time>
      </trkpt>
      <trkpt lat="58.542904984205961" lon="-3.905127011239529">
        <ele>3.5</ele>
        <time>2023-08-22T13:36:32Z</time>
      </trkpt>
      <trkpt lat="58.543617026880383" lon="-3.9065479952842">
        <ele>7.35</ele>
        <time>2023-08-22T13:36:38Z</time>
      </trkpt>
      <trkpt lat="58.545038010925055" lon="-3.907968979328871">
        <ele>14.08</ele>
        <time>2023-08-22T13:36:47Z</time>
      </trkpt>
      <trkpt lat="58.547658026218414" lon="-3.909934032708406">
        <ele>18.399999999999999</ele>
        <time>2023-08-22T13:37:03Z</time>
      </trkpt>
      <trkpt lat="58.548698974773288" lon="-3.910769037902355">
        <ele>17.920000000000002</ele>
        <time>2023-08-22T13:37:11Z</time>
      </trkpt>
      <trkpt lat="58.54958301410079" lon="-3.912095976993442">
        <ele>21.289999999999999</ele>
        <time>2023-08-22T13:37:20Z</time>
      </trkpt>
      <trkpt lat="58.550407961010933" lon="-3.914121966809034">
        <ele>26.09</ele>
        <time>2023-08-22T13:37:32Z</time>
      </trkpt>
      <trkpt lat="58.551258975639939" lon="-3.915443038567901">
        <ele>28.5</ele>
        <time>2023-08-22T13:37:41Z</time>
      </trkpt>
      <trkpt lat="58.552435040473938" lon="-3.916862010955811">
        <ele>32.82</ele>
        <time>2023-08-22T13:37:52Z</time>
      </trkpt>
      <trkpt lat="58.553919978439808" lon="-3.918479969725013">
        <ele>35.229999999999997</ele>
        <time>2023-08-22T13:38:05Z</time>
      </trkpt>
      <trkpt lat="58.555015996098518" lon="-3.919913023710251">
        <ele>41.469999999999999</ele>
        <time>2023-08-22T13:38:15Z</time>
      </trkpt>
      <trkpt lat="58.555693002417684" lon="-3.921751007437706">
        <ele>47.240000000000002</ele>
        <time>2023-08-22T13:38:25Z</time>
      </trkpt>
      <trkpt lat="58.556409990414977" lon="-3.923808010295034">
        <ele>50.130000000000003</ele>
        <time>2023-08-22T13:38:35Z</time>
      </trkpt>
      <trkpt lat="58.556817015632987" lon="-3.925683964043856">
        <ele>53.009999999999998</ele>
        <time>2023-08-22T13:38:44Z</time>
      </trkpt>
      <trkpt lat="58.557242983952165" lon="-3.928203983232379">
        <ele>55.409999999999997</ele>
        <time>2023-08-22T13:38:56Z</time>
      </trkpt>
      <trkpt lat="58.557753022760153" lon="-3.930257968604565">
        <ele>58.780000000000001</ele>
        <time>2023-08-22T13:39:06Z</time>
      </trkpt>
      <trkpt lat="58.558416031301022" lon="-3.931430010125041">
        <ele>61.18</ele>
        <time>2023-08-22T13:39:14Z</time>
      </trkpt>
      <trkpt lat="58.559220023453236" lon="-3.932212041690946">
        <ele>65.989999999999995</ele>
        <time>2023-08-22T13:39:22Z</time>
      </trkpt>
      <trkpt lat="58.559318007901311" lon="-3.932359982281923">
        <ele>66.469999999999999</ele>
        <time>2023-08-22T13:39:23Z</time>
      </trkpt>
      <trkpt lat="58.559395959600806" lon="-3.932543965056539">
        <ele>67.430000000000007</ele>
        <time>2023-08-22T13:39:24Z</time>
      </trkpt>
      <trkpt lat="58.559476006776094" lon="-3.932729037478566">
        <ele>67.909999999999997</ele>
        <time>2023-08-22T13:39:25Z</time>
      </trkpt>
      <trkpt lat="58.559529986232519" lon="-3.932948978617787">
        <ele>68.870000000000005</ele>
        <time>2023-08-22T13:39:26Z</time>
      </trkpt>
      <trkpt lat="58.559578014537692" lon="-3.933174032717943">
        <ele>69.829999999999998</ele>
        <time>2023-08-22T13:39:27Z</time>
      </trkpt>
      <trkpt lat="58.559625959023833" lon="-3.933397997170687">
        <ele>70.790000000000006</ele>
        <time>2023-08-22T13:39:28Z</time>
      </trkpt>
      <trkpt lat="58.559672981500626" lon="-3.933615004643798">
        <ele>71.760000000000005</ele>
        <time>2023-08-22T13:39:29Z</time>
      </trkpt>
      <trkpt lat="58.559912033379078" lon="-3.936440963298082">
        <ele>81.849999999999994</ele>
        <time>2023-08-22T13:39:40Z</time>
      </trkpt>
      <trkpt lat="58.559778006747365" lon="-3.939554002135992">
        <ele>85.689999999999998</ele>
        <time>2023-08-22T13:39:49Z</time>
      </trkpt>
      <trkpt lat="58.559455974027514" lon="-3.943037018179894">
        <ele>81.370000000000005</ele>
        <time>2023-08-22T13:39:59Z</time>
      </trkpt>
      <trkpt lat="58.559512970969081" lon="-3.9440399967134">
        <ele>80.409999999999997</ele>
        <time>2023-08-22T13:40:02Z</time>
      </trkpt>
      <trkpt lat="58.560073971748352" lon="-3.946948014199734">
        <ele>78.969999999999999</ele>
        <time>2023-08-22T13:40:11Z</time>
      </trkpt>
      <trkpt lat="58.56127099134028" lon="-3.951883027330041">
        <ele>78</ele>
        <time>2023-08-22T13:40:27Z</time>
      </trkpt>
      <trkpt lat="58.562203980982304" lon="-3.956042965874076">
        <ele>86.659999999999997</ele>
        <time>2023-08-22T13:40:41Z</time>
      </trkpt>
      <trkpt lat="58.562255026772618" lon="-3.957023983821273">
        <ele>89.060000000000002</ele>
        <time>2023-08-22T13:40:44Z</time>
      </trkpt>
      <trkpt lat="58.562269024550915" lon="-3.957351967692375">
        <ele>90.019999999999996</ele>
        <time>2023-08-22T13:40:45Z</time>
      </trkpt>
      <trkpt lat="58.562270030379295" lon="-3.95768104121089">
        <ele>90.5</ele>
        <time>2023-08-22T13:40:46Z</time>
      </trkpt>
      <trkpt lat="58.562234994024038" lon="-3.958001984283328">
        <ele>91.459999999999994</ele>
        <time>2023-08-22T13:40:47Z</time>
      </trkpt>
      <trkpt lat="58.562200041487813" lon="-3.958319993689656">
        <ele>91.939999999999998</ele>
        <time>2023-08-22T13:40:48Z</time>
      </trkpt>
      <trkpt lat="58.562143966555595" lon="-3.95863096229732">
        <ele>92.420000000000002</ele>
        <time>2023-08-22T13:40:49Z</time>
      </trkpt>
      <trkpt lat="58.562082024291158" lon="-3.958941008895636">
        <ele>92.900000000000006</ele>
        <time>2023-08-22T13:40:50Z</time>
      </trkpt>
      <trkpt lat="58.562019998207688" lon="-3.959248960018158">
        <ele>93.390000000000001</ele>
        <time>2023-08-22T13:40:51Z</time>
      </trkpt>
      <trkpt lat="58.561931988224387" lon="-3.959536962211132">
        <ele>93.870000000000005</ele>
        <time>2023-08-22T13:40:52Z</time>
      </trkpt>
      <trkpt lat="58.561831992119551" lon="-3.95981197245419">
        <ele>93.870000000000005</ele>
        <time>2023-08-22T13:40:53Z</time>
      </trkpt>
      <trkpt lat="58.56086396612227" lon="-3.961884984746575">
        <ele>90.5</ele>
        <time>2023-08-22T13:41:01Z</time>
      </trkpt>
      <trkpt lat="58.559927958995104" lon="-3.964469041675329">
        <ele>87.140000000000001</ele>
        <time>2023-08-22T13:41:10Z</time>
      </trkpt>
      <trkpt lat="58.55955496430397" lon="-3.967118980363011">
        <ele>83.769999999999996</ele>
        <time>2023-08-22T13:41:18Z</time>
      </trkpt>
      <trkpt lat="58.559363018721342" lon="-3.972407961264253">
        <ele>84.25</ele>
        <time>2023-08-22T13:41:34Z</time>
      </trkpt>
      <trkpt lat="58.559177024289966" lon="-3.978605037555099">
        <ele>87.620000000000005</ele>
        <time>2023-08-22T13:41:52Z</time>
      </trkpt>
      <trkpt lat="58.559204014018178" lon="-3.983005033805966">
        <ele>76.560000000000002</ele>
        <time>2023-08-22T13:42:04Z</time>
      </trkpt>
      <trkpt lat="58.559515988454223" lon="-3.985351966693997">
        <ele>69.829999999999998</ele>
        <time>2023-08-22T13:42:12Z</time>
      </trkpt>
      <trkpt lat="58.559816982597113" lon="-3.98898602463305">
        <ele>65.030000000000001</ele>
        <time>2023-08-22T13:42:25Z</time>
      </trkpt>
      <trkpt lat="58.559798039495945" lon="-3.989294981583953">
        <ele>64.069999999999993</ele>
        <time>2023-08-22T13:42:26Z</time>
      </trkpt>
      <trkpt lat="58.559747999534011" lon="-3.989584995433688">
        <ele>63.579999999999998</ele>
        <time>2023-08-22T13:42:27Z</time>
      </trkpt>
      <trkpt lat="58.559669964015484" lon="-3.989866962656379">
        <ele>62.619999999999997</ele>
        <time>2023-08-22T13:42:28Z</time>
      </trkpt>
      <trkpt lat="58.559592012315989" lon="-3.99014700204134">
        <ele>61.659999999999997</ele>
        <time>2023-08-22T13:42:29Z</time>
      </trkpt>
      <trkpt lat="58.55946796014905" lon="-3.990366021171212">
        <ele>61.18</ele>
        <time>2023-08-22T13:42:30Z</time>
      </trkpt>
      <trkpt lat="58.559334017336369" lon="-3.990567019209266">
        <ele>60.219999999999999</ele>
        <time>2023-08-22T13:42:31Z</time>
      </trkpt>
      <trkpt lat="58.559195967391133" lon="-3.990773968398571">
        <ele>59.740000000000002</ele>
        <time>2023-08-22T13:42:32Z</time>
      </trkpt>
      <trkpt lat="58.55890897102654" lon="-3.991109998896718">
        <ele>58.299999999999997</ele>
        <time>2023-08-22T13:42:34Z</time>
      </trkpt>
      <trkpt lat="58.558766981586814" lon="-3.991232961416245">
        <ele>57.340000000000003</ele>
        <time>2023-08-22T13:42:35Z</time>
      </trkpt>
      <trkpt lat="58.558407984673977" lon="-3.991548037156463">
        <ele>53.969999999999999</ele>
        <time>2023-08-22T13:42:38Z</time>
      </trkpt>
      <trkpt lat="58.558316035196185" lon="-3.991686003282666">
        <ele>52.530000000000001</ele>
        <time>2023-08-22T13:42:39Z</time>
      </trkpt>
      <trkpt lat="58.558230958878994" lon="-3.991846013814211">
        <ele>51.57</ele>
        <time>2023-08-22T13:42:40Z</time>
      </trkpt>
      <trkpt lat="58.558158036321402" lon="-3.992043994367123">
        <ele>50.130000000000003</ele>
        <time>2023-08-22T13:42:41Z</time>
      </trkpt>
      <trkpt lat="58.558086035773158" lon="-3.992277011275291">
        <ele>48.68</ele>
        <time>2023-08-22T13:42:42Z</time>
      </trkpt>
      <trkpt lat="58.558015963062644" lon="-3.992529977113009">
        <ele>47.240000000000002</ele>
        <time>2023-08-22T13:42:43Z</time>
      </trkpt>
      <trkpt lat="58.557526040822268" lon="-3.994999034330249">
        <ele>35.710000000000001</ele>
        <time>2023-08-22T13:42:51Z</time>
      </trkpt>
      <trkpt lat="58.557454040274024" lon="-3.995844013988972">
        <ele>32.340000000000003</ele>
        <time>2023-08-22T13:42:54Z</time>
      </trkpt>
      <trkpt lat="58.557466026395559" lon="-3.996109971776605">
        <ele>30.899999999999999</ele>
        <time>2023-08-22T13:42:55Z</time>
      </trkpt>
      <trkpt lat="58.557484969496727" lon="-3.996380036696792">
        <ele>29.940000000000001</ele>
        <time>2023-08-22T13:42:56Z</time>
      </trkpt>
      <trkpt lat="58.557522017508745" lon="-3.996620010584593">
        <ele>28.5</ele>
        <time>2023-08-22T13:42:57Z</time>
      </trkpt>
      <trkpt lat="58.557584965601563" lon="-3.996859984472394">
        <ele>27.530000000000001</ele>
        <time>2023-08-22T13:42:58Z</time>
      </trkpt>
      <trkpt lat="58.557647997513413" lon="-3.997103981673718">
        <ele>26.09</ele>
        <time>2023-08-22T13:42:59Z</time>
      </trkpt>
      <trkpt lat="58.558570006862283" lon="-4.00043897330761">
        <ele>14.08</ele>
        <time>2023-08-22T13:43:12Z</time>
      </trkpt>
      <trkpt lat="58.559950003400445" lon="-4.003864992409945">
        <ele>16.960000000000001</ele>
        <time>2023-08-22T13:43:26Z</time>
      </trkpt>
      <trkpt lat="58.56103403493762" lon="-4.005653019994497">
        <ele>26.09</ele>
        <time>2023-08-22T13:43:35Z</time>
      </trkpt>
      <trkpt lat="58.56152999214828" lon="-4.006316028535366">
        <ele>31.859999999999999</ele>
        <time>2023-08-22T13:43:39Z</time>
      </trkpt>
      <trkpt lat="58.561633005738258" lon="-4.006513003259897">
        <ele>33.299999999999997</ele>
        <time>2023-08-22T13:43:40Z</time>
      </trkpt>
      <trkpt lat="58.561723027378321" lon="-4.006738979369402">
        <ele>34.740000000000002</ele>
        <time>2023-08-22T13:43:41Z</time>
      </trkpt>
      <trkpt lat="58.561781030148268" lon="-4.007005020976067">
        <ele>36.189999999999998</ele>
        <time>2023-08-22T13:43:42Z</time>
      </trkpt>
      <trkpt lat="58.561832997947931" lon="-4.007279025390744">
        <ele>37.630000000000003</ele>
        <time>2023-08-22T13:43:43Z</time>
      </trkpt>
      <trkpt lat="58.561884965747595" lon="-4.007552023977041">
        <ele>39.07</ele>
        <time>2023-08-22T13:43:44Z</time>
      </trkpt>
      <trkpt lat="58.562189983204007" lon="-4.009771971032023">
        <ele>52.049999999999997</ele>
        <time>2023-08-22T13:43:53Z</time>
      </trkpt>
      <trkpt lat="58.562194006517529" lon="-4.012228958308697">
        <ele>60.700000000000003</ele>
        <time>2023-08-22T13:44:03Z</time>
      </trkpt>
      <trkpt lat="58.561782035976648" lon="-4.014757024124265">
        <ele>71.760000000000005</ele>
        <time>2023-08-22T13:44:12Z</time>
      </trkpt>
      <trkpt lat="58.561061024665833" lon="-4.016963979229331">
        <ele>79.450000000000003</ele>
        <time>2023-08-22T13:44:20Z</time>
      </trkpt>
      <trkpt lat="58.559668958187103" lon="-4.019779963418841">
        <ele>90.019999999999996</ele>
        <time>2023-08-22T13:44:32Z</time>
      </trkpt>
      <trkpt lat="58.559097982943058" lon="-4.020984023809433">
        <ele>96.75</ele>
        <time>2023-08-22T13:44:37Z</time>
      </trkpt>
      <trkpt lat="58.559028999879956" lon="-4.021280994638801">
        <ele>98.189999999999998</ele>
        <time>2023-08-22T13:44:38Z</time>
      </trkpt>
      <trkpt lat="58.558958005160093" lon="-4.021582994610071">
        <ele>99.150000000000006</ele>
        <time>2023-08-22T13:44:39Z</time>
      </trkpt>
      <trkpt lat="58.558055022731423" lon="-4.025201965123415">
        <ele>103.95999999999999</ele>
        <time>2023-08-22T13:44:51Z</time>
      </trkpt>
      <trkpt lat="58.556998986750841" lon="-4.027572032064199">
        <ele>100.59999999999999</ele>
        <time>2023-08-22T13:45:00Z</time>
      </trkpt>
      <trkpt lat="58.556403033435345" lon="-4.029802037402988">
        <ele>96.75</ele>
        <time>2023-08-22T13:45:07Z</time>
      </trkpt>
      <trkpt lat="58.556269006803632" lon="-4.032376036047936">
        <ele>95.790000000000006</ele>
        <time>2023-08-22T13:45:14Z</time>
      </trkpt>
      <trkpt lat="58.556196000427008" lon="-4.036377975717187">
        <ele>97.709999999999994</ele>
        <time>2023-08-22T13:45:26Z</time>
      </trkpt>
      <trkpt lat="58.556057028472424" lon="-4.040384022518992">
        <ele>97.709999999999994</ele>
        <time>2023-08-22T13:45:38Z</time>
      </trkpt>
      <trkpt lat="58.555498039349914" lon="-4.043575013056397">
        <ele>95.790000000000006</ele>
        <time>2023-08-22T13:45:48Z</time>
      </trkpt>
      <trkpt lat="58.554465975612402" lon="-4.048549002036452">
        <ele>87.620000000000005</ele>
        <time>2023-08-22T13:46:04Z</time>
      </trkpt>
      <trkpt lat="58.553556958213449" lon="-4.05288596637547">
        <ele>98.189999999999998</ele>
        <time>2023-08-22T13:46:18Z</time>
      </trkpt>
      <trkpt lat="58.552728993818164" lon="-4.057659963145852">
        <ele>103.48</ele>
        <time>2023-08-22T13:46:33Z</time>
      </trkpt>
      <trkpt lat="58.552085012197495" lon="-4.060029024258256">
        <ele>99.629999999999995</ele>
        <time>2023-08-22T13:46:41Z</time>
      </trkpt>
      <trkpt lat="58.551149005070329" lon="-4.061511028558016">
        <ele>93.870000000000005</ele>
        <time>2023-08-22T13:46:48Z</time>
      </trkpt>
      <trkpt lat="58.549541020765901" lon="-4.062781976535916">
        <ele>81.849999999999994</ele>
        <time>2023-08-22T13:46:58Z</time>
      </trkpt>
      <trkpt lat="58.547637993469834" lon="-4.064438994973898">
        <ele>66.950000000000003</ele>
        <time>2023-08-22T13:47:10Z</time>
      </trkpt>
      <trkpt lat="58.546870965510607" lon="-4.066238002851605">
        <ele>57.340000000000003</ele>
        <time>2023-08-22T13:47:17Z</time>
      </trkpt>
      <trkpt lat="58.546626968309283" lon="-4.068515030667186">
        <ele>46.759999999999998</ele>
        <time>2023-08-22T13:47:24Z</time>
      </trkpt>
      <trkpt lat="58.546902984380722" lon="-4.070769008249044">
        <ele>34.740000000000002</ele>
        <time>2023-08-22T13:47:31Z</time>
      </trkpt>
      <trkpt lat="58.547405982390046" lon="-4.073551967740059">
        <ele>24.170000000000002</ele>
        <time>2023-08-22T13:47:40Z</time>
      </trkpt>
      <trkpt lat="58.547319984063506" lon="-4.076522011309862">
        <ele>25.129999999999999</ele>
        <time>2023-08-22T13:47:49Z</time>
      </trkpt>
      <trkpt lat="58.54730699211359" lon="-4.076800961047411">
        <ele>25.609999999999999</ele>
        <time>2023-08-22T13:47:50Z</time>
      </trkpt>
      <trkpt lat="58.547267010435462" lon="-4.077057028189302">
        <ele>26.57</ele>
        <time>2023-08-22T13:47:51Z</time>
      </trkpt>
      <trkpt lat="58.547191992402077" lon="-4.077250985428691">
        <ele>27.050000000000001</ele>
        <time>2023-08-22T13:47:52Z</time>
      </trkpt>
      <trkpt lat="58.547100964933634" lon="-4.077408984303474">
        <ele>28.02</ele>
        <time>2023-08-22T13:47:53Z</time>
      </trkpt>
      <trkpt lat="58.547001974657178" lon="-4.077579975128174">
        <ele>28.98</ele>
        <time>2023-08-22T13:47:54Z</time>
      </trkpt>
      <trkpt lat="58.546881023794413" lon="-4.077710984274745">
        <ele>29.460000000000001</ele>
        <time>2023-08-22T13:47:55Z</time>
      </trkpt>
      <trkpt lat="58.546760994940996" lon="-4.077839981764555">
        <ele>30.420000000000002</ele>
        <time>2023-08-22T13:47:56Z</time>
      </trkpt>
      <trkpt lat="58.545238003134727" lon="-4.07948300242424">
        <ele>36.189999999999998</ele>
        <time>2023-08-22T13:48:08Z</time>
      </trkpt>
      <trkpt lat="58.544856961816549" lon="-4.079894972965121">
        <ele>36.670000000000002</ele>
        <time>2023-08-22T13:48:11Z</time>
      </trkpt>
      <trkpt lat="58.544752020388842" lon="-4.080055989325047">
        <ele>36.670000000000002</ele>
        <time>2023-08-22T13:48:12Z</time>
      </trkpt>
      <trkpt lat="58.544656969606876" lon="-4.08021398819983">
        <ele>36.670000000000002</ele>
        <time>2023-08-22T13:48:13Z</time>
      </trkpt>
      <trkpt lat="58.544592009857297" lon="-4.080400988459587">
        <ele>36.670000000000002</ele>
        <time>2023-08-22T13:48:14Z</time>
      </trkpt>
      <trkpt lat="58.544548004865646" lon="-4.080611038953066">
        <ele>36.670000000000002</ele>
        <time>2023-08-22T13:48:15Z</time>
      </trkpt>
      <trkpt lat="58.544539958238602" lon="-4.080846989527345">
        <ele>36.189999999999998</ele>
        <time>2023-08-22T13:48:16Z</time>
      </trkpt>
      <trkpt lat="58.544564014300704" lon="-4.081106996163726">
        <ele>35.710000000000001</ele>
        <time>2023-08-22T13:48:17Z</time>
      </trkpt>
      <trkpt lat="58.544589998200536" lon="-4.0813949983567">
        <ele>34.740000000000002</ele>
        <time>2023-08-22T13:48:18Z</time>
      </trkpt>
      <trkpt lat="58.544759983196855" lon="-4.083632966503501">
        <ele>31.859999999999999</ele>
        <time>2023-08-22T13:48:25Z</time>
      </trkpt>
      <trkpt lat="58.54475000873208" lon="-4.083914011716843">
        <ele>31.859999999999999</ele>
        <time>2023-08-22T13:48:26Z</time>
      </trkpt>
      <trkpt lat="58.544699968770146" lon="-4.084168989211321">
        <ele>32.340000000000003</ele>
        <time>2023-08-22T13:48:27Z</time>
      </trkpt>
      <trkpt lat="58.544641966000199" lon="-4.08442597836256">
        <ele>33.299999999999997</ele>
        <time>2023-08-22T13:48:28Z</time>
      </trkpt>
      <trkpt lat="58.544567031785846" lon="-4.084671987220645">
        <ele>34.259999999999998</ele>
        <time>2023-08-22T13:48:29Z</time>
      </trkpt>
      <trkpt lat="58.544455971568823" lon="-4.084863010793924">
        <ele>35.229999999999997</ele>
        <time>2023-08-22T13:48:30Z</time>
      </trkpt>
      <trkpt lat="58.544339966028929" lon="-4.085061997175217">
        <ele>36.670000000000002</ele>
        <time>2023-08-22T13:48:31Z</time>
      </trkpt>
      <trkpt lat="58.544221026822925" lon="-4.085268024355173">
        <ele>38.109999999999999</ele>
        <time>2023-08-22T13:48:32Z</time>
      </trkpt>
      <trkpt lat="58.544081971049309" lon="-4.085441026836634">
        <ele>39.07</ele>
        <time>2023-08-22T13:48:33Z</time>
      </trkpt>
      <trkpt lat="58.542690994217992" lon="-4.086857987567782">
        <ele>52.530000000000001</ele>
        <time>2023-08-22T13:48:43Z</time>
      </trkpt>
      <trkpt lat="58.541777031496167" lon="-4.087286973372102">
        <ele>61.18</ele>
        <time>2023-08-22T13:48:49Z</time>
      </trkpt>
      <trkpt lat="58.541644010692835" lon="-4.087409013882279">
        <ele>62.140000000000001</ele>
        <time>2023-08-22T13:48:50Z</time>
      </trkpt>
      <trkpt lat="58.541530016809702" lon="-4.087514961138368">
        <ele>63.579999999999998</ele>
        <time>2023-08-22T13:48:51Z</time>
      </trkpt>
      <trkpt lat="58.541425997391343" lon="-4.087732974439859">
        <ele>64.549999999999997</ele>
        <time>2023-08-22T13:48:52Z</time>
      </trkpt>
      <trkpt lat="58.54133103042841" lon="-4.087931038811803">
        <ele>65.989999999999995</ele>
        <time>2023-08-22T13:48:53Z</time>
      </trkpt>
      <trkpt lat="58.541250983253121" lon="-4.088169001042843">
        <ele>67.909999999999997</ele>
        <time>2023-08-22T13:48:54Z</time>
      </trkpt>
      <trkpt lat="58.541062977164984" lon="-4.088952960446477">
        <ele>70.790000000000006</ele>
        <time>2023-08-22T13:48:57Z</time>
      </trkpt>
      <trkpt lat="58.541035987436771" lon="-4.089188994839788">
        <ele>71.760000000000005</ele>
        <time>2023-08-22T13:48:58Z</time>
      </trkpt>
      <trkpt lat="58.541046967729926" lon="-4.089467022567987">
        <ele>73.200000000000003</ele>
        <time>2023-08-22T13:48:59Z</time>
      </trkpt>
      <trkpt lat="58.541057026013732" lon="-4.089717976748943">
        <ele>74.159999999999997</ele>
        <time>2023-08-22T13:49:00Z</time>
      </trkpt>
      <trkpt lat="58.541125003248453" lon="-4.089920986443758">
        <ele>75.120000000000005</ele>
        <time>2023-08-22T13:49:01Z</time>
      </trkpt>
      <trkpt lat="58.541203960776329" lon="-4.090152997523546">
        <ele>76.079999999999998</ele>
        <time>2023-08-22T13:49:02Z</time>
      </trkpt>
      <trkpt lat="58.541286019608378" lon="-4.090391965582967">
        <ele>77.519999999999996</ele>
        <time>2023-08-22T13:49:03Z</time>
      </trkpt>
      <trkpt lat="58.542233007028699" lon="-4.092789022251964">
        <ele>90.019999999999996</ele>
        <time>2023-08-22T13:49:12Z</time>
      </trkpt>
      <trkpt lat="58.543216958642006" lon="-4.094684002920985">
        <ele>99.629999999999995</ele>
        <time>2023-08-22T13:49:20Z</time>
      </trkpt>
      <trkpt lat="58.544500982388854" lon="-4.095996022224426">
        <ele>106.36</ele>
        <time>2023-08-22T13:49:28Z</time>
      </trkpt>
      <trkpt lat="58.544618999585509" lon="-4.0961769875139">
        <ele>107.31999999999999</ele>
        <time>2023-08-22T13:49:29Z</time>
      </trkpt>
      <trkpt lat="58.544739028438926" lon="-4.096360970288515">
        <ele>108.29000000000001</ele>
        <time>2023-08-22T13:49:30Z</time>
      </trkpt>
      <trkpt lat="58.544838018715382" lon="-4.096574038267136">
        <ele>108.77</ele>
        <time>2023-08-22T13:49:31Z</time>
      </trkpt>
      <trkpt lat="58.544928962364793" lon="-4.096830021589994">
        <ele>109.73</ele>
        <time>2023-08-22T13:49:32Z</time>
      </trkpt>
      <trkpt lat="58.545024013146758" lon="-4.097098996862769">
        <ele>110.20999999999999</ele>
        <time>2023-08-22T13:49:33Z</time>
      </trkpt>
      <trkpt lat="58.545732032507658" lon="-4.099535029381514">
        <ele>117.90000000000001</ele>
        <time>2023-08-22T13:49:42Z</time>
      </trkpt>
      <trkpt lat="58.545777965337038" lon="-4.100029980763793">
        <ele>120.78</ele>
        <time>2023-08-22T13:49:44Z</time>
      </trkpt>
      <trkpt lat="58.545777965337038" lon="-4.100284036248922">
        <ele>122.22</ele>
        <time>2023-08-22T13:49:45Z</time>
      </trkpt>
      <trkpt lat="58.545749969780445" lon="-4.100513029843569">
        <ele>123.19</ele>
        <time>2023-08-22T13:49:46Z</time>
      </trkpt>
      <trkpt lat="58.545696996152401" lon="-4.100745040923357">
        <ele>124.63</ele>
        <time>2023-08-22T13:49:47Z</time>
      </trkpt>
      <trkpt lat="58.545643016695976" lon="-4.100980991497636">
        <ele>126.06999999999999</ele>
        <time>2023-08-22T13:49:48Z</time>
      </trkpt>
      <trkpt lat="58.545569004490972" lon="-4.101197998970747">
        <ele>127.03</ele>
        <time>2023-08-22T13:49:49Z</time>
      </trkpt>
      <trkpt lat="58.545459033921361" lon="-4.101362032815814">
        <ele>127.98999999999999</ele>
        <time>2023-08-22T13:49:50Z</time>
      </trkpt>
      <trkpt lat="58.545334981754422" lon="-4.101510979235172">
        <ele>128.94999999999999</ele>
        <time>2023-08-22T13:49:51Z</time>
      </trkpt>
      <trkpt lat="58.545189974829555" lon="-4.101603012531996">
        <ele>129.91999999999999</ele>
        <time>2023-08-22T13:49:52Z</time>
      </trkpt>
      <trkpt lat="58.54502996429801" lon="-4.101638970896602">
        <ele>130.40000000000001</ele>
        <time>2023-08-22T13:49:53Z</time>
      </trkpt>
      <trkpt lat="58.544865008443594" lon="-4.101677024737001">
        <ele>130.88</ele>
        <time>2023-08-22T13:49:54Z</time>
      </trkpt>
      <trkpt lat="58.543566986918449" lon="-4.1021070163697">
        <ele>129.91999999999999</ele>
        <time>2023-08-22T13:50:01Z</time>
      </trkpt>
      <trkpt lat="58.542641960084438" lon="-4.102703975513578">
        <ele>127.03</ele>
        <time>2023-08-22T13:50:06Z</time>
      </trkpt>
      <trkpt lat="58.542497036978602" lon="-4.102927017956972">
        <ele>126.06999999999999</ele>
        <time>2023-08-22T13:50:07Z</time>
      </trkpt>
      <trkpt lat="58.542354963719845" lon="-4.103146037086844">
        <ele>126.06999999999999</ele>
        <time>2023-08-22T13:50:08Z</time>
      </trkpt>
      <trkpt lat="58.54221498593688" lon="-4.103362960740924">
        <ele>125.59</ele>
        <time>2023-08-22T13:50:09Z</time>
      </trkpt>
      <trkpt lat="58.542109960690141" lon="-4.103637970983982">
        <ele>125.59</ele>
        <time>2023-08-22T13:50:10Z</time>
      </trkpt>
      <trkpt lat="58.542012982070446" lon="-4.103919016197324">
        <ele>126.06999999999999</ele>
        <time>2023-08-22T13:50:11Z</time>
      </trkpt>
      <trkpt lat="58.541917009279132" lon="-4.104195032268763">
        <ele>126.55</ele>
        <time>2023-08-22T13:50:12Z</time>
      </trkpt>
      <trkpt lat="58.541123997420073" lon="-4.106308026239276">
        <ele>130.88</ele>
        <time>2023-08-22T13:50:20Z</time>
      </trkpt>
      <trkpt lat="58.540643965825438" lon="-4.107935959473252">
        <ele>134.72</ele>
        <time>2023-08-22T13:50:26Z</time>
      </trkpt>
      <trkpt lat="58.54060297831893" lon="-4.108220022171736">
        <ele>135.19999999999999</ele>
        <time>2023-08-22T13:50:27Z</time>
      </trkpt>
      <trkpt lat="58.540589986369014" lon="-4.10850903019309">
        <ele>135.68000000000001</ele>
        <time>2023-08-22T13:50:28Z</time>
      </trkpt>
      <trkpt lat="58.540609013289213" lon="-4.108785968273878">
        <ele>136.16</ele>
        <time>2023-08-22T13:50:29Z</time>
      </trkpt>
      <trkpt lat="58.540661986917257" lon="-4.109030971303582">
        <ele>136.63999999999999</ele>
        <time>2023-08-22T13:50:30Z</time>
      </trkpt>
      <trkpt lat="58.540742034092546" lon="-4.109271029010415">
        <ele>137.13</ele>
        <time>2023-08-22T13:50:31Z</time>
      </trkpt>
      <trkpt lat="58.540821997448802" lon="-4.109507985413075">
        <ele>137.61000000000001</ele>
        <time>2023-08-22T13:50:32Z</time>
      </trkpt>
      <trkpt lat="58.540900032967329" lon="-4.109744019806385">
        <ele>138.09</ele>
        <time>2023-08-22T13:50:33Z</time>
      </trkpt>
      <trkpt lat="58.541058031842113" lon="-4.110217010602355">
        <ele>138.56999999999999</ele>
        <time>2023-08-22T13:50:35Z</time>
      </trkpt>
      <trkpt lat="58.541134977713227" lon="-4.110448015853763">
        <ele>138.56999999999999</ele>
        <time>2023-08-22T13:50:36Z</time>
      </trkpt>
      <trkpt lat="58.541186023503542" lon="-4.110708022490144">
        <ele>138.56999999999999</ele>
        <time>2023-08-22T13:50:37Z</time>
      </trkpt>
      <trkpt lat="58.541203960776329" lon="-4.110988983884454">
        <ele>138.56999999999999</ele>
        <time>2023-08-22T13:50:38Z</time>
      </trkpt>
      <trkpt lat="58.541192980483174" lon="-4.111266005784273">
        <ele>138.56999999999999</ele>
        <time>2023-08-22T13:50:39Z</time>
      </trkpt>
      <trkpt lat="58.541158027946949" lon="-4.111536992713809">
        <ele>138.56999999999999</ele>
        <time>2023-08-22T13:50:40Z</time>
      </trkpt>
      <trkpt lat="58.541084015741944" lon="-4.111786019057035">
        <ele>138.09</ele>
        <time>2023-08-22T13:50:41Z</time>
      </trkpt>
      <trkpt lat="58.541006986051798" lon="-4.11203102208674">
        <ele>138.09</ele>
        <time>2023-08-22T13:50:42Z</time>
      </trkpt>
      <trkpt lat="58.54088100604713" lon="-4.112211987376213">
        <ele>138.09</ele>
        <time>2023-08-22T13:50:43Z</time>
      </trkpt>
      <trkpt lat="58.540749996900558" lon="-4.112400999292731">
        <ele>138.09</ele>
        <time>2023-08-22T13:50:44Z</time>
      </trkpt>
      <trkpt lat="58.540618987753987" lon="-4.112589005380869">
        <ele>138.56999999999999</ele>
        <time>2023-08-22T13:50:45Z</time>
      </trkpt>
      <trkpt lat="58.540378008037806" lon="-4.112983960658312">
        <ele>139.05000000000001</ele>
        <time>2023-08-22T13:50:47Z</time>
      </trkpt>
      <trkpt lat="58.540270971134305" lon="-4.113186970353127">
        <ele>139.53</ele>
        <time>2023-08-22T13:50:48Z</time>
      </trkpt>
      <trkpt lat="58.540201988071203" lon="-4.113438008353114">
        <ele>140.00999999999999</ele>
        <time>2023-08-22T13:50:49Z</time>
      </trkpt>
      <trkpt lat="58.540148008614779" lon="-4.113703966140747">
        <ele>140.49000000000001</ele>
        <time>2023-08-22T13:50:50Z</time>
      </trkpt>
      <trkpt lat="58.540093023329973" lon="-4.113971013575792">
        <ele>140.97</ele>
        <time>2023-08-22T13:50:51Z</time>
      </trkpt>
      <trkpt lat="58.540055975317955" lon="-4.114261027425528">
        <ele>141.44999999999999</ele>
        <time>2023-08-22T13:50:52Z</time>
      </trkpt>
      <trkpt lat="58.540029991418123" lon="-4.114569984376431">
        <ele>141.44999999999999</ele>
        <time>2023-08-22T13:50:53Z</time>
      </trkpt>
      <trkpt lat="58.539770990610123" lon="-4.116849023848772">
        <ele>140.97</ele>
        <time>2023-08-22T13:51:00Z</time>
      </trkpt>
      <trkpt lat="58.539698990061879" lon="-4.117151023820043">
        <ele>141.44999999999999</ele>
        <time>2023-08-22T13:51:01Z</time>
      </trkpt>
      <trkpt lat="58.539597988128662" lon="-4.117423016577959">
        <ele>141.44999999999999</ele>
        <time>2023-08-22T13:51:02Z</time>
      </trkpt>
      <trkpt lat="58.538885023444891" lon="-4.119633994996548">
        <ele>145.30000000000001</ele>
        <time>2023-08-22T13:51:10Z</time>
      </trkpt>
      <trkpt lat="58.538658963516355" lon="-4.121094960719347">
        <ele>149.13999999999999</ele>
        <time>2023-08-22T13:51:15Z</time>
      </trkpt>
      <trkpt lat="58.538596015423536" lon="-4.121368965134025">
        <ele>150.09999999999999</ele>
        <time>2023-08-22T13:51:16Z</time>
      </trkpt>
      <trkpt lat="58.538500964641571" lon="-4.121622014790773">
        <ele>150.58000000000001</ele>
        <time>2023-08-22T13:51:17Z</time>
      </trkpt>
      <trkpt lat="58.538408009335399" lon="-4.12187397480011">
        <ele>151.53999999999999</ele>
        <time>2023-08-22T13:51:18Z</time>
      </trkpt>
      <trkpt lat="58.538313964381814" lon="-4.122125012800098">
        <ele>152.03</ele>
        <time>2023-08-22T13:51:19Z</time>
      </trkpt>
      <trkpt lat="58.538192007690668" lon="-4.122334979474545">
        <ele>152.50999999999999</ele>
        <time>2023-08-22T13:51:20Z</time>
      </trkpt>
      <trkpt lat="58.538059992715716" lon="-4.122531032189727">
        <ele>152.99000000000001</ele>
        <time>2023-08-22T13:51:21Z</time>
      </trkpt>
      <trkpt lat="58.537925966084003" lon="-4.122729012742639">
        <ele>153.94999999999999</ele>
        <time>2023-08-22T13:51:22Z</time>
      </trkpt>
      <trkpt lat="58.537791017442942" lon="-4.122927999123931">
        <ele>154.43000000000001</ele>
        <time>2023-08-22T13:51:23Z</time>
      </trkpt>
      <trkpt lat="58.537640981376171" lon="-4.123091027140617">
        <ele>154.43000000000001</ele>
        <time>2023-08-22T13:51:24Z</time>
      </trkpt>
      <trkpt lat="58.537483988329768" lon="-4.123237961903215">
        <ele>154.91</ele>
        <time>2023-08-22T13:51:25Z</time>
      </trkpt>
      <trkpt lat="58.536295015364885" lon="-4.123800974339247">
        <ele>157.78999999999999</ele>
        <time>2023-08-22T13:51:32Z</time>
      </trkpt>
      <trkpt lat="58.53596200235188" lon="-4.123904993757606">
        <ele>159.24000000000001</ele>
        <time>2023-08-22T13:51:34Z</time>
      </trkpt>
      <trkpt lat="58.535675005987287" lon="-4.124128958210349">
        <ele>160.68000000000001</ele>
        <time>2023-08-22T13:51:36Z</time>
      </trkpt>
      <trkpt lat="58.535536034032702" lon="-4.12425896152854">
        <ele>161.16</ele>
        <time>2023-08-22T13:51:37Z</time>
      </trkpt>
      <trkpt lat="58.535427991300821" lon="-4.124437998980284">
        <ele>161.63999999999999</ele>
        <time>2023-08-22T13:51:38Z</time>
      </trkpt>
      <trkpt lat="58.535329001024365" lon="-4.124636985361576">
        <ele>162.12</ele>
        <time>2023-08-22T13:51:39Z</time>
      </trkpt>
      <trkpt lat="58.535254988819361" lon="-4.124864973127842">
        <ele>162.59999999999999</ele>
        <time>2023-08-22T13:51:40Z</time>
      </trkpt>
      <trkpt lat="58.535178964957595" lon="-4.125097990036011">
        <ele>162.59999999999999</ele>
        <time>2023-08-22T13:51:41Z</time>
      </trkpt>
      <trkpt lat="58.534358041360974" lon="-4.127388009801507">
        <ele>159.72</ele>
        <time>2023-08-22T13:51:50Z</time>
      </trkpt>
      <trkpt lat="58.533859988674521" lon="-4.128667004406452">
        <ele>155.87</ele>
        <time>2023-08-22T13:51:57Z</time>
      </trkpt>
      <trkpt lat="58.533836016431451" lon="-4.128729030489922">
        <ele>153.47</ele>
        <time>2023-08-22T13:52:09Z</time>
      </trkpt>
      <trkpt lat="58.533836016431451" lon="-4.128729030489922">
        <ele>153.47</ele>
        <time>2023-08-22T13:52:31Z</time>
      </trkpt>
      <trkpt lat="58.533836016431451" lon="-4.128729030489922">
        <ele>152.99000000000001</ele>
        <time>2023-08-22T13:53:13Z</time>
      </trkpt>
      <trkpt lat="58.533836016431451" lon="-4.128729030489922">
        <ele>152.99000000000001</ele>
        <time>2023-08-22T13:53:58Z</time>
      </trkpt>
      <trkpt lat="58.533836016431451" lon="-4.128729030489922">
        <ele>152.50999999999999</ele>
        <time>2023-08-22T13:54:15Z</time>
      </trkpt>
      <trkpt lat="58.533782958984375" lon="-4.128868002444506">
        <ele>152.03</ele>
        <time>2023-08-22T13:54:16Z</time>
      </trkpt>
      <trkpt lat="58.533778013661504" lon="-4.128895998001099">
        <ele>152.03</ele>
        <time>2023-08-22T13:54:17Z</time>
      </trkpt>
      <trkpt lat="58.533773990347981" lon="-4.12892097607255">
        <ele>151.53999999999999</ele>
        <time>2023-08-22T13:54:18Z</time>
      </trkpt>
      <trkpt lat="58.53376803919673" lon="-4.128960035741329">
        <ele>151.53999999999999</ele>
        <time>2023-08-22T13:54:19Z</time>
      </trkpt>
      <trkpt lat="58.533756975084543" lon="-4.129021978005767">
        <ele>151.06</ele>
        <time>2023-08-22T13:54:20Z</time>
      </trkpt>
      <trkpt lat="58.533742977306247" lon="-4.129106970503926">
        <ele>151.06</ele>
        <time>2023-08-22T13:54:21Z</time>
      </trkpt>
      <trkpt lat="58.533724034205079" lon="-4.129223981872201">
        <ele>150.58000000000001</ele>
        <time>2023-08-22T13:54:22Z</time>
      </trkpt>
      <trkpt lat="58.533700983971357" lon="-4.129358008503914">
        <ele>150.09999999999999</ele>
        <time>2023-08-22T13:54:23Z</time>
      </trkpt>
      <trkpt lat="58.533676005899906" lon="-4.129509972408414">
        <ele>149.62</ele>
        <time>2023-08-22T13:54:24Z</time>
      </trkpt>
      <trkpt lat="58.533648010343313" lon="-4.129679035395384">
        <ele>149.13999999999999</ele>
        <time>2023-08-22T13:54:25Z</time>
      </trkpt>
      <trkpt lat="58.533633006736636" lon="-4.12986796349287">
        <ele>148.66</ele>
        <time>2023-08-22T13:54:26Z</time>
      </trkpt>
      <trkpt lat="58.533633006736636" lon="-4.130066027864814">
        <ele>148.18000000000001</ele>
        <time>2023-08-22T13:54:27Z</time>
      </trkpt>
      <trkpt lat="58.533610962331295" lon="-4.131457004696131">
        <ele>143.37</ele>
        <time>2023-08-22T13:54:34Z</time>
      </trkpt>
      <trkpt lat="58.533597970381379" lon="-4.131653979420662">
        <ele>142.88999999999999</ele>
        <time>2023-08-22T13:54:35Z</time>
      </trkpt>
      <trkpt lat="58.533565029501915" lon="-4.131837040185928">
        <ele>141.93000000000001</ele>
        <time>2023-08-22T13:54:36Z</time>
      </trkpt>
      <trkpt lat="58.533505015075207" lon="-4.132015993818641">
        <ele>141.44999999999999</ele>
        <time>2023-08-22T13:54:37Z</time>
      </trkpt>
      <trkpt lat="58.533440977334976" lon="-4.132209029048681">
        <ele>140.49000000000001</ele>
        <time>2023-08-22T13:54:38Z</time>
      </trkpt>
      <trkpt lat="58.533373000100255" lon="-4.132413966581225">
        <ele>140.00999999999999</ele>
        <time>2023-08-22T13:54:39Z</time>
      </trkpt>
      <trkpt lat="58.533279960975051" lon="-4.132586969062686">
        <ele>139.53</ele>
        <time>2023-08-22T13:54:40Z</time>
      </trkpt>
      <trkpt lat="58.533172002062201" lon="-4.132757959887385">
        <ele>138.56999999999999</ele>
        <time>2023-08-22T13:54:41Z</time>
      </trkpt>
      <trkpt lat="58.532500024884939" lon="-4.133895970880985">
        <ele>136.16</ele>
        <time>2023-08-22T13:54:47Z</time>
      </trkpt>
      <trkpt lat="58.532411009073257" lon="-4.13411901332438">
        <ele>136.16</ele>
        <time>2023-08-22T13:54:48Z</time>
      </trkpt>
      <trkpt lat="58.532321993261576" lon="-4.134348006919026">
        <ele>135.68000000000001</ele>
        <time>2023-08-22T13:54:49Z</time>
      </trkpt>
      <trkpt lat="58.532277988269925" lon="-4.134599966928363">
        <ele>135.19999999999999</ele>
        <time>2023-08-22T13:54:50Z</time>
      </trkpt>
      <trkpt lat="58.532253010198474" lon="-4.134869026020169">
        <ele>134.72</ele>
        <time>2023-08-22T13:54:51Z</time>
      </trkpt>
      <trkpt lat="58.532240018248558" lon="-4.135144958272576">
        <ele>134.24000000000001</ele>
        <time>2023-08-22T13:54:52Z</time>
      </trkpt>
      <trkpt lat="58.532227026298642" lon="-4.135431032627821">
        <ele>133.28</ele>
        <time>2023-08-22T13:54:53Z</time>
      </trkpt>
      <trkpt lat="58.532173968851566" lon="-4.136588992550969">
        <ele>129.91999999999999</ele>
        <time>2023-08-22T13:54:57Z</time>
      </trkpt>
      <trkpt lat="58.53209501132369" lon="-4.136926028877497">
        <ele>128.94999999999999</ele>
        <time>2023-08-22T13:54:58Z</time>
      </trkpt>
      <trkpt lat="58.532028961926699" lon="-4.137210007756949">
        <ele>127.98999999999999</ele>
        <time>2023-08-22T13:54:59Z</time>
      </trkpt>
      <trkpt lat="58.531761998310685" lon="-4.138351958245039">
        <ele>123.67</ele>
        <time>2023-08-22T13:55:03Z</time>
      </trkpt>
      <trkpt lat="58.531700978055596" lon="-4.138643983751535">
        <ele>122.70999999999999</ele>
        <time>2023-08-22T13:55:04Z</time>
      </trkpt>
      <trkpt lat="58.53168798610568" lon="-4.138957969844341">
        <ele>121.26000000000001</ele>
        <time>2023-08-22T13:55:05Z</time>
      </trkpt>
      <trkpt lat="58.531675999984145" lon="-4.13927597925067">
        <ele>120.3</ele>
        <time>2023-08-22T13:55:06Z</time>
      </trkpt>
      <trkpt lat="58.531663008034229" lon="-4.139597006142139">
        <ele>119.34</ele>
        <time>2023-08-22T13:55:07Z</time>
      </trkpt>
      <trkpt lat="58.531684968620539" lon="-4.139915015548468">
        <ele>118.38</ele>
        <time>2023-08-22T13:55:08Z</time>
      </trkpt>
      <trkpt lat="58.531720004975796" lon="-4.140234030783176">
        <ele>117.42</ele>
        <time>2023-08-22T13:55:09Z</time>
      </trkpt>
      <trkpt lat="58.531910022720695" lon="-4.142349036410451">
        <ele>114.05</ele>
        <time>2023-08-22T13:55:16Z</time>
      </trkpt>
      <trkpt lat="58.531913040205836" lon="-4.142623962834477">
        <ele>114.05</ele>
        <time>2023-08-22T13:55:17Z</time>
      </trkpt>
      <trkpt lat="58.531635012477636" lon="-4.145628036931157">
        <ele>109.25</ele>
        <time>2023-08-22T13:55:28Z</time>
      </trkpt>
      <trkpt lat="58.531584972515702" lon="-4.145868010818958">
        <ele>108.77</ele>
        <time>2023-08-22T13:55:29Z</time>
      </trkpt>
      <trkpt lat="58.530809981748462" lon="-4.148374032229185">
        <ele>112.13</ele>
        <time>2023-08-22T13:55:40Z</time>
      </trkpt>
      <trkpt lat="58.530661035329103" lon="-4.148782985284925">
        <ele>113.56999999999999</ele>
        <time>2023-08-22T13:55:42Z</time>
      </trkpt>
      <trkpt lat="58.530564978718758" lon="-4.148925980553031">
        <ele>114.53</ele>
        <time>2023-08-22T13:55:43Z</time>
      </trkpt>
      <trkpt lat="58.530470011755824" lon="-4.149068975821137">
        <ele>115.98</ele>
        <time>2023-08-22T13:55:44Z</time>
      </trkpt>
      <trkpt lat="58.53035400621593" lon="-4.149143993854523">
        <ele>116.94</ele>
        <time>2023-08-22T13:55:45Z</time>
      </trkpt>
      <trkpt lat="58.530240012332797" lon="-4.149177018553019">
        <ele>118.38</ele>
        <time>2023-08-22T13:55:46Z</time>
      </trkpt>
      <trkpt lat="58.530125012621284" lon="-4.149211971089244">
        <ele>119.34</ele>
        <time>2023-08-22T13:55:47Z</time>
      </trkpt>
      <trkpt lat="58.530009007081389" lon="-4.14922202937305">
        <ele>120.78</ele>
        <time>2023-08-22T13:55:48Z</time>
      </trkpt>
      <trkpt lat="58.528688019141555" lon="-4.149113986641169">
        <ele>129.91999999999999</ele>
        <time>2023-08-22T13:55:58Z</time>
      </trkpt>
      <trkpt lat="58.528384007513523" lon="-4.149133013561368">
        <ele>130.88</ele>
        <time>2023-08-22T13:56:00Z</time>
      </trkpt>
      <trkpt lat="58.528246963396668" lon="-4.149171989411116">
        <ele>131.36000000000001</ele>
        <time>2023-08-22T13:56:01Z</time>
      </trkpt>
      <trkpt lat="58.528122995048761" lon="-4.149280032142997">
        <ele>131.36000000000001</ele>
        <time>2023-08-22T13:56:02Z</time>
      </trkpt>
      <trkpt lat="58.52801101282239" lon="-4.149410035461187">
        <ele>131.84</ele>
        <time>2023-08-22T13:56:03Z</time>
      </trkpt>
      <trkpt lat="58.527917973697186" lon="-4.149585971608758">
        <ele>131.84</ele>
        <time>2023-08-22T13:56:04Z</time>
      </trkpt>
      <trkpt lat="58.527851002290845" lon="-4.149815971031785">
        <ele>131.84</ele>
        <time>2023-08-22T13:56:05Z</time>
      </trkpt>
      <trkpt lat="58.527783025056124" lon="-4.150050999596715">
        <ele>131.84</ele>
        <time>2023-08-22T13:56:06Z</time>
      </trkpt>
      <trkpt lat="58.527727033942938" lon="-4.150301031768322">
        <ele>131.84</ele>
        <time>2023-08-22T13:56:07Z</time>
      </trkpt>
      <trkpt lat="58.527679005637765" lon="-4.150563972070813">
        <ele>131.36000000000001</ele>
        <time>2023-08-22T13:56:08Z</time>
      </trkpt>
      <trkpt lat="58.527575992047787" lon="-4.151337035000324">
        <ele>131.36000000000001</ele>
        <time>2023-08-22T13:56:11Z</time>
      </trkpt>
      <trkpt lat="58.527564005926251" lon="-4.151571979746223">
        <ele>130.88</ele>
        <time>2023-08-22T13:56:12Z</time>
      </trkpt>
      <trkpt lat="58.527571968734264" lon="-4.151798039674759">
        <ele>129.91999999999999</ele>
        <time>2023-08-22T13:56:13Z</time>
      </trkpt>
      <trkpt lat="58.527579009532928" lon="-4.15201798081398">
        <ele>129.43000000000001</ele>
        <time>2023-08-22T13:56:14Z</time>
      </trkpt>
      <trkpt lat="58.527602981775999" lon="-4.152226019650698">
        <ele>128.94999999999999</ele>
        <time>2023-08-22T13:56:15Z</time>
      </trkpt>
      <trkpt lat="58.527637012302876" lon="-4.152437997981906">
        <ele>128.47</ele>
        <time>2023-08-22T13:56:16Z</time>
      </trkpt>
      <trkpt lat="58.527671964839101" lon="-4.152652993798256">
        <ele>127.51000000000001</ele>
        <time>2023-08-22T13:56:17Z</time>
      </trkpt>
      <trkpt lat="58.527709012851119" lon="-4.152876958251">
        <ele>127.03</ele>
        <time>2023-08-22T13:56:18Z</time>
      </trkpt>
      <trkpt lat="58.527946975082159" lon="-4.154589967802167">
        <ele>120.78</ele>
        <time>2023-08-22T13:56:25Z</time>
      </trkpt>
      <trkpt lat="58.527935994789004" lon="-4.154845029115677">
        <ele>119.81999999999999</ele>
        <time>2023-08-22T13:56:26Z</time>
      </trkpt>
      <trkpt lat="58.527900958433747" lon="-4.155102018266916">
        <ele>118.38</ele>
        <time>2023-08-22T13:56:27Z</time>
      </trkpt>
      <trkpt lat="58.527845973148942" lon="-4.155355989933014">
        <ele>116.94</ele>
        <time>2023-08-22T13:56:28Z</time>
      </trkpt>
      <trkpt lat="58.527769027277827" lon="-4.155609961599112">
        <ele>115.98</ele>
        <time>2023-08-22T13:56:29Z</time>
      </trkpt>
      <trkpt lat="58.527686968445778" lon="-4.155877009034157">
        <ele>114.05</ele>
        <time>2023-08-22T13:56:30Z</time>
      </trkpt>
      <trkpt lat="58.526820028200746" lon="-4.159000022336841">
        <ele>95.310000000000002</ele>
        <time>2023-08-22T13:56:41Z</time>
      </trkpt>
      <trkpt lat="58.52680996991694" lon="-4.159290958195925">
        <ele>94.349999999999994</ele>
        <time>2023-08-22T13:56:42Z</time>
      </trkpt>
      <trkpt lat="58.52680996991694" lon="-4.159602010622621">
        <ele>92.900000000000006</ele>
        <time>2023-08-22T13:56:43Z</time>
      </trkpt>
      <trkpt lat="58.52680996991694" lon="-4.159912979230285">
        <ele>91.939999999999998</ele>
        <time>2023-08-22T13:56:44Z</time>
      </trkpt>
      <trkpt lat="58.526827991008759" lon="-4.160200981423259">
        <ele>90.980000000000004</ele>
        <time>2023-08-22T13:56:45Z</time>
      </trkpt>
      <trkpt lat="58.526868978515267" lon="-4.16050398722291">
        <ele>90.019999999999996</ele>
        <time>2023-08-22T13:56:46Z</time>
      </trkpt>
      <trkpt lat="58.526909966021776" lon="-4.160809004679322">
        <ele>89.060000000000002</ele>
        <time>2023-08-22T13:56:47Z</time>
      </trkpt>
      <trkpt lat="58.527296958491206" lon="-4.1637890227139">
        <ele>83.769999999999996</ele>
        <time>2023-08-22T13:56:57Z</time>
      </trkpt>
      <trkpt lat="58.527380023151636" lon="-4.166442984715104">
        <ele>82.329999999999998</ele>
        <time>2023-08-22T13:57:06Z</time>
      </trkpt>
      <trkpt lat="58.527708007022738" lon="-4.169169031083584">
        <ele>87.140000000000001</ele>
        <time>2023-08-22T13:57:16Z</time>
      </trkpt>
      <trkpt lat="58.528533037751913" lon="-4.171714028343558">
        <ele>91.939999999999998</ele>
        <time>2023-08-22T13:57:26Z</time>
      </trkpt>
      <trkpt lat="58.529248014092445" lon="-4.174105972051621">
        <ele>89.540000000000006</ele>
        <time>2023-08-22T13:57:35Z</time>
      </trkpt>
      <trkpt lat="58.529612962156534" lon="-4.177114991471171">
        <ele>90.5</ele>
        <time>2023-08-22T13:57:45Z</time>
      </trkpt>
      <trkpt lat="58.529829969629645" lon="-4.179591005668044">
        <ele>92.420000000000002</ele>
        <time>2023-08-22T13:57:54Z</time>
      </trkpt>
      <trkpt lat="58.529970031231642" lon="-4.181854035705328">
        <ele>92.900000000000006</ele>
        <time>2023-08-22T13:58:03Z</time>
      </trkpt>
      <trkpt lat="58.529966007918119" lon="-4.183889999985695">
        <ele>90.5</ele>
        <time>2023-08-22T13:58:12Z</time>
      </trkpt>
      <trkpt lat="58.529991991817951" lon="-4.18596301227808">
        <ele>86.180000000000007</ele>
        <time>2023-08-22T13:58:22Z</time>
      </trkpt>
      <trkpt lat="58.530015964061022" lon="-4.187636962160468">
        <ele>82.329999999999998</ele>
        <time>2023-08-22T13:58:30Z</time>
      </trkpt>
      <trkpt lat="58.529975982382894" lon="-4.190105013549328">
        <ele>75.599999999999994</ele>
        <time>2023-08-22T13:58:40Z</time>
      </trkpt>
      <trkpt lat="58.529956033453345" lon="-4.190570963546634">
        <ele>73.680000000000007</ele>
        <time>2023-08-22T13:58:42Z</time>
      </trkpt>
      <trkpt lat="58.52992401458323" lon="-4.190802974626422">
        <ele>73.200000000000003</ele>
        <time>2023-08-22T13:58:43Z</time>
      </trkpt>
      <trkpt lat="58.529890989884734" lon="-4.191044038161635">
        <ele>72.719999999999999</ele>
        <time>2023-08-22T13:58:44Z</time>
      </trkpt>
      <trkpt lat="58.529341975226998" lon="-4.193365992978215">
        <ele>70.310000000000002</ele>
        <time>2023-08-22T13:58:54Z</time>
      </trkpt>
      <trkpt lat="58.529196968302131" lon="-4.19565400108695">
        <ele>65.510000000000005</ele>
        <time>2023-08-22T13:59:03Z</time>
      </trkpt>
      <trkpt lat="58.529177019372582" lon="-4.19614995829761">
        <ele>64.069999999999993</ele>
        <time>2023-08-22T13:59:05Z</time>
      </trkpt>
      <trkpt lat="58.529151035472751" lon="-4.196397978812456">
        <ele>63.579999999999998</ele>
        <time>2023-08-22T13:59:06Z</time>
      </trkpt>
      <trkpt lat="58.529106024652719" lon="-4.197335997596383">
        <ele>60.219999999999999</ele>
        <time>2023-08-22T13:59:10Z</time>
      </trkpt>
      <trkpt lat="58.529106024652719" lon="-4.197569014504552">
        <ele>59.740000000000002</ele>
        <time>2023-08-22T13:59:11Z</time>
      </trkpt>
      <trkpt lat="58.529132008552551" lon="-4.197790967300534">
        <ele>58.780000000000001</ele>
        <time>2023-08-22T13:59:12Z</time>
      </trkpt>
      <trkpt lat="58.529168972745538" lon="-4.198011998087168">
        <ele>57.82</ele>
        <time>2023-08-22T13:59:13Z</time>
      </trkpt>
      <trkpt lat="58.529212977737188" lon="-4.198278961703181">
        <ele>56.859999999999999</ele>
        <time>2023-08-22T13:59:14Z</time>
      </trkpt>
      <trkpt lat="58.529271986335516" lon="-4.198464034125209">
        <ele>55.890000000000001</ele>
        <time>2023-08-22T13:59:15Z</time>
      </trkpt>
      <trkpt lat="58.529341975226998" lon="-4.198684981092811">
        <ele>54.93</ele>
        <time>2023-08-22T13:59:16Z</time>
      </trkpt>
      <trkpt lat="58.529476001858711" lon="-4.199107009917498">
        <ele>52.530000000000001</ele>
        <time>2023-08-22T13:59:18Z</time>
      </trkpt>
      <trkpt lat="58.529500979930162" lon="-4.19932896271348">
        <ele>51.57</ele>
        <time>2023-08-22T13:59:19Z</time>
      </trkpt>
      <trkpt lat="58.529511960223317" lon="-4.199556028470397">
        <ele>50.130000000000003</ele>
        <time>2023-08-22T13:59:20Z</time>
      </trkpt>
      <trkpt lat="58.529487987980247" lon="-4.199750991538167">
        <ele>49.159999999999997</ele>
        <time>2023-08-22T13:59:21Z</time>
      </trkpt>
      <trkpt lat="58.529449012130499" lon="-4.199995994567871">
        <ele>47.719999999999999</ele>
        <time>2023-08-22T13:59:22Z</time>
      </trkpt>
      <trkpt lat="58.529386986047029" lon="-4.200142007321119">
        <ele>46.759999999999998</ele>
        <time>2023-08-22T13:59:23Z</time>
      </trkpt>
      <trkpt lat="58.529305011034012" lon="-4.200335964560509">
        <ele>45.799999999999997</ele>
        <time>2023-08-22T13:59:24Z</time>
      </trkpt>
      <trkpt lat="58.529221024364233" lon="-4.200533023104072">
        <ele>44.359999999999999</ele>
        <time>2023-08-22T13:59:25Z</time>
      </trkpt>
      <trkpt lat="58.529149023815989" lon="-4.200704013928771">
        <ele>43.399999999999999</ele>
        <time>2023-08-22T13:59:26Z</time>
      </trkpt>
      <trkpt lat="58.529089009389281" lon="-4.200933007523418">
        <ele>41.950000000000003</ele>
        <time>2023-08-22T13:59:27Z</time>
      </trkpt>
      <trkpt lat="58.529040981084108" lon="-4.20111196115613">
        <ele>40.990000000000002</ele>
        <time>2023-08-22T13:59:28Z</time>
      </trkpt>
      <trkpt lat="58.529040981084108" lon="-4.201352018862963">
        <ele>39.549999999999997</ele>
        <time>2023-08-22T13:59:29Z</time>
      </trkpt>
      <trkpt lat="58.529040981084108" lon="-4.201566008850932">
        <ele>38.109999999999999</ele>
        <time>2023-08-22T13:59:30Z</time>
      </trkpt>
      <trkpt lat="58.529040981084108" lon="-4.201785027980804">
        <ele>36.670000000000002</ele>
        <time>2023-08-22T13:59:31Z</time>
      </trkpt>
      <trkpt lat="58.529061013832688" lon="-4.202008992433548">
        <ele>35.229999999999997</ele>
        <time>2023-08-22T13:59:32Z</time>
      </trkpt>
      <trkpt lat="58.529224963858724" lon="-4.203855022788048">
        <ele>25.129999999999999</ele>
        <time>2023-08-22T13:59:40Z</time>
      </trkpt>
      <trkpt lat="58.529212977737188" lon="-4.204025007784367">
        <ele>24.170000000000002</ele>
        <time>2023-08-22T13:59:41Z</time>
      </trkpt>
      <trkpt lat="58.529201997444034" lon="-4.204178983345628">
        <ele>23.210000000000001</ele>
        <time>2023-08-22T13:59:42Z</time>
      </trkpt>
      <trkpt lat="58.529190011322498" lon="-4.204337988048792">
        <ele>22.25</ele>
        <time>2023-08-22T13:59:43Z</time>
      </trkpt>
      <trkpt lat="58.529158998280764" lon="-4.204457011073828">
        <ele>21.289999999999999</ele>
        <time>2023-08-22T13:59:44Z</time>
      </trkpt>
      <trkpt lat="58.52912999689579" lon="-4.204566981643438">
        <ele>20.32</ele>
        <time>2023-08-22T13:59:45Z</time>
      </trkpt>
      <trkpt lat="58.5291070304811" lon="-4.20465499162674">
        <ele>19.359999999999999</ele>
        <time>2023-08-22T13:59:46Z</time>
      </trkpt>
      <trkpt lat="58.529088003560901" lon="-4.204729003831744">
        <ele>18.399999999999999</ele>
        <time>2023-08-22T13:59:47Z</time>
      </trkpt>
      <trkpt lat="58.529075011610985" lon="-4.204854983836412">
        <ele>17.440000000000001</ele>
        <time>2023-08-22T13:59:48Z</time>
      </trkpt>
      <trkpt lat="58.529100995510817" lon="-4.204920027405024">
        <ele>16.48</ele>
        <time>2023-08-22T13:59:49Z</time>
      </trkpt>
      <trkpt lat="58.529149023815989" lon="-4.205038966611028">
        <ele>16</ele>
        <time>2023-08-22T13:59:50Z</time>
      </trkpt>
      <trkpt lat="58.529153969138861" lon="-4.205081965774298">
        <ele>15.52</ele>
        <time>2023-08-22T13:59:51Z</time>
      </trkpt>
      <trkpt lat="58.529164027422667" lon="-4.20517098158598">
        <ele>14.56</ele>
        <time>2023-08-22T13:59:52Z</time>
      </trkpt>
      <trkpt lat="58.529213983565569" lon="-4.205589992925525">
        <ele>11.19</ele>
        <time>2023-08-22T13:59:57Z</time>
      </trkpt>
      <trkpt lat="58.529341975226998" lon="-4.206668995320797">
        <ele>7.35</ele>
        <time>2023-08-22T14:00:10Z</time>
      </trkpt>
      <trkpt lat="58.529508020728827" lon="-4.206820959225297">
        <ele>6.39</ele>
        <time>2023-08-22T14:00:19Z</time>
      </trkpt>
      <trkpt lat="58.529652021825314" lon="-4.206695985049009">
        <ele>11.19</ele>
        <time>2023-08-22T14:00:30Z</time>
      </trkpt>
      <trkpt lat="58.529692003503442" lon="-4.206748036667705">
        <ele>11.67</ele>
        <time>2023-08-22T14:00:42Z</time>
      </trkpt>
      <trkpt lat="58.529692003503442" lon="-4.206748036667705">
        <ele>11.67</ele>
        <time>2023-08-22T14:00:49Z</time>
      </trkpt>
      <trkpt lat="58.529706001281738" lon="-4.206742001697421">
        <ele>22.25</ele>
        <time>2023-08-22T14:53:22Z</time>
      </trkpt>
      <trkpt lat="58.529708012938499" lon="-4.206737978383899">
        <ele>22.25</ele>
        <time>2023-08-22T14:54:01Z</time>
      </trkpt>
      <trkpt lat="58.529708012938499" lon="-4.206740995869041">
        <ele>22.25</ele>
        <time>2023-08-22T14:54:50Z</time>
      </trkpt>
      <trkpt lat="58.529708012938499" lon="-4.206742001697421">
        <ele>22.73</ele>
        <time>2023-08-22T14:55:32Z</time>
      </trkpt>
      <trkpt lat="58.529708012938499" lon="-4.206742001697421">
        <ele>22.73</ele>
        <time>2023-08-22T14:55:35Z</time>
      </trkpt>
      <trkpt lat="58.529497962445021" lon="-4.206809978932142">
        <ele>20.809999999999999</ele>
        <time>2023-08-22T14:55:43Z</time>
      </trkpt>
      <trkpt lat="58.529341975226998" lon="-4.206668995320797">
        <ele>17.920000000000002</ele>
        <time>2023-08-22T14:55:49Z</time>
      </trkpt>
      <trkpt lat="58.529339041560888" lon="-4.206647034734488">
        <ele>17.440000000000001</ele>
        <time>2023-08-22T14:55:50Z</time>
      </trkpt>
      <trkpt lat="58.529332000762224" lon="-4.206587020307779">
        <ele>17.440000000000001</ele>
        <time>2023-08-22T14:55:51Z</time>
      </trkpt>
      <trkpt lat="58.529323032125831" lon="-4.206507978960872">
        <ele>16.48</ele>
        <time>2023-08-22T14:55:52Z</time>
      </trkpt>
      <trkpt lat="58.529310962185264" lon="-4.206408988684416">
        <ele>16</ele>
        <time>2023-08-22T14:55:53Z</time>
      </trkpt>
      <trkpt lat="58.529197974130511" lon="-4.205452026799321">
        <ele>13.6</ele>
        <time>2023-08-22T14:56:02Z</time>
      </trkpt>
      <trkpt lat="58.52906302548945" lon="-4.204823970794678">
        <ele>12.630000000000001</ele>
        <time>2023-08-22T14:56:14Z</time>
      </trkpt>
      <trkpt lat="58.52906302548945" lon="-4.204823970794678">
        <ele>12.630000000000001</ele>
        <time>2023-08-22T14:56:15Z</time>
      </trkpt>
      <trkpt lat="58.529055984690785" lon="-4.20484802685678">
        <ele>12.630000000000001</ele>
        <time>2023-08-22T14:56:16Z</time>
      </trkpt>
      <trkpt lat="58.529037963598967" lon="-4.204910974949598">
        <ele>13.119999999999999</ele>
        <time>2023-08-22T14:56:17Z</time>
      </trkpt>
      <trkpt lat="58.529011979699135" lon="-4.20499999076128">
        <ele>13.119999999999999</ele>
        <time>2023-08-22T14:56:18Z</time>
      </trkpt>
      <trkpt lat="58.528979038819671" lon="-4.205112978816032">
        <ele>13.119999999999999</ele>
        <time>2023-08-22T14:56:19Z</time>
      </trkpt>
      <trkpt lat="58.52859104052186" lon="-4.206455005332828">
        <ele>13.119999999999999</ele>
        <time>2023-08-22T14:56:27Z</time>
      </trkpt>
      <trkpt lat="58.528567990288138" lon="-4.206691039726138">
        <ele>13.119999999999999</ele>
        <time>2023-08-22T14:56:28Z</time>
      </trkpt>
      <trkpt lat="58.528545023873448" lon="-4.206921039149165">
        <ele>12.630000000000001</ele>
        <time>2023-08-22T14:56:29Z</time>
      </trkpt>
      <trkpt lat="58.528419965878129" lon="-4.208187963813543">
        <ele>11.19</ele>
        <time>2023-08-22T14:56:36Z</time>
      </trkpt>
      <trkpt lat="58.52839800529182" lon="-4.208413017913699">
        <ele>10.23</ele>
        <time>2023-08-22T14:56:39Z</time>
      </trkpt>
      <trkpt lat="58.528386019170284" lon="-4.208528017625213">
        <ele>10.23</ele>
        <time>2023-08-22T14:56:40Z</time>
      </trkpt>
      <trkpt lat="58.52824998088181" lon="-4.20989703387022">
        <ele>9.75</ele>
        <time>2023-08-22T14:56:47Z</time>
      </trkpt>
      <trkpt lat="58.528057029470801" lon="-4.212369024753571">
        <ele>10.710000000000001</ele>
        <time>2023-08-22T14:56:57Z</time>
      </trkpt>
      <trkpt lat="58.528074966743588" lon="-4.212635988369584">
        <ele>11.19</ele>
        <time>2023-08-22T14:56:58Z</time>
      </trkpt>
      <trkpt lat="58.528112014755607" lon="-4.213709039613605">
        <ele>13.6</ele>
        <time>2023-08-22T14:57:03Z</time>
      </trkpt>
      <trkpt lat="58.52807798422873" lon="-4.213892016559839">
        <ele>13.6</ele>
        <time>2023-08-22T14:57:04Z</time>
      </trkpt>
      <trkpt lat="58.528043031692505" lon="-4.214075999334455">
        <ele>14.08</ele>
        <time>2023-08-22T14:57:05Z</time>
      </trkpt>
      <trkpt lat="58.528002966195345" lon="-4.21425998210907">
        <ele>14.56</ele>
        <time>2023-08-22T14:57:06Z</time>
      </trkpt>
      <trkpt lat="58.527928031980991" lon="-4.214396020397544">
        <ele>15.039999999999999</ele>
        <time>2023-08-22T14:57:07Z</time>
      </trkpt>
      <trkpt lat="58.527851002290845" lon="-4.214535998180509">
        <ele>15.52</ele>
        <time>2023-08-22T14:57:08Z</time>
      </trkpt>
      <trkpt lat="58.526860009878874" lon="-4.216268034651876">
        <ele>23.690000000000001</ele>
        <time>2023-08-22T14:57:20Z</time>
      </trkpt>
      <trkpt lat="58.526083007454872" lon="-4.218101995065808">
        <ele>37.630000000000003</ele>
        <time>2023-08-22T14:57:31Z</time>
      </trkpt>
      <trkpt lat="58.525486970320344" lon="-4.220109041780233">
        <ele>50.130000000000003</ele>
        <time>2023-08-22T14:57:42Z</time>
      </trkpt>
      <trkpt lat="58.52545696310699" lon="-4.220294030383229">
        <ele>50.609999999999999</ele>
        <time>2023-08-22T14:57:43Z</time>
      </trkpt>
      <trkpt lat="58.525442965328693" lon="-4.220500979572535">
        <ele>51.57</ele>
        <time>2023-08-22T14:57:44Z</time>
      </trkpt>
      <trkpt lat="58.525398960337043" lon="-4.221153007820249">
        <ele>54.93</ele>
        <time>2023-08-22T14:57:47Z</time>
      </trkpt>
      <trkpt lat="58.52537096478045" lon="-4.221365991979837">
        <ele>55.890000000000001</ele>
        <time>2023-08-22T14:57:48Z</time>
      </trkpt>
      <trkpt lat="58.525331988930702" lon="-4.221579981967807">
        <ele>56.859999999999999</ele>
        <time>2023-08-22T14:57:49Z</time>
      </trkpt>
      <trkpt lat="58.524883976206183" lon="-4.223381001502276">
        <ele>64.069999999999993</ele>
        <time>2023-08-22T14:57:58Z</time>
      </trkpt>
      <trkpt lat="58.524693958461285" lon="-4.223925992846489">
        <ele>64.549999999999997</ele>
        <time>2023-08-22T14:58:01Z</time>
      </trkpt>
      <trkpt lat="58.52461701259017" lon="-4.22407996840775">
        <ele>65.030000000000001</ele>
        <time>2023-08-22T14:58:02Z</time>
      </trkpt>
      <trkpt lat="58.524521039798856" lon="-4.224193040281534">
        <ele>64.549999999999997</ele>
        <time>2023-08-22T14:58:03Z</time>
      </trkpt>
      <trkpt lat="58.524418026208878" lon="-4.224295970052481">
        <ele>64.069999999999993</ele>
        <time>2023-08-22T14:58:04Z</time>
      </trkpt>
      <trkpt lat="58.524313000962138" lon="-4.224393032491207">
        <ele>63.579999999999998</ele>
        <time>2023-08-22T14:58:05Z</time>
      </trkpt>
      <trkpt lat="58.524202024564147" lon="-4.224472995847464">
        <ele>63.100000000000001</ele>
        <time>2023-08-22T14:58:06Z</time>
      </trkpt>
      <trkpt lat="58.523020008578897" lon="-4.225230971351266">
        <ele>53.969999999999999</ele>
        <time>2023-08-22T14:58:17Z</time>
      </trkpt>
      <trkpt lat="58.522905008867383" lon="-4.225295009091497">
        <ele>53.490000000000002</ele>
        <time>2023-08-22T14:58:18Z</time>
      </trkpt>
      <trkpt lat="58.522790009155869" lon="-4.225286040455103">
        <ele>53.009999999999998</ele>
        <time>2023-08-22T14:58:19Z</time>
      </trkpt>
      <trkpt lat="58.522672997787595" lon="-4.225276987999678">
        <ele>52.049999999999997</ele>
        <time>2023-08-22T14:58:20Z</time>
      </trkpt>
      <trkpt lat="58.522556992247701" lon="-4.225242035463452">
        <ele>51.57</ele>
        <time>2023-08-22T14:58:21Z</time>
      </trkpt>
      <trkpt lat="58.521600030362606" lon="-4.224575003609061">
        <ele>44.840000000000003</ele>
        <time>2023-08-22T14:58:29Z</time>
      </trkpt>
      <trkpt lat="58.520377026870847" lon="-4.223459037020803">
        <ele>38.590000000000003</ele>
        <time>2023-08-22T14:58:37Z</time>
      </trkpt>
      <trkpt lat="58.519387040287256" lon="-4.222068982198834">
        <ele>33.299999999999997</ele>
        <time>2023-08-22T14:58:44Z</time>
      </trkpt>
      <trkpt lat="58.519254019483924" lon="-4.221925986930728">
        <ele>32.82</ele>
        <time>2023-08-22T14:58:45Z</time>
      </trkpt>
      <trkpt lat="58.519102977588773" lon="-4.221854992210865">
        <ele>31.859999999999999</ele>
        <time>2023-08-22T14:58:46Z</time>
      </trkpt>
      <trkpt lat="58.518943972885609" lon="-4.221815010532737">
        <ele>31.379999999999999</ele>
        <time>2023-08-22T14:58:47Z</time>
      </trkpt>
      <trkpt lat="58.518782034516335" lon="-4.221775028854609">
        <ele>30.899999999999999</ele>
        <time>2023-08-22T14:58:48Z</time>
      </trkpt>
      <trkpt lat="58.517005993053317" lon="-4.221136998385191">
        <ele>24.170000000000002</ele>
        <time>2023-08-22T14:58:59Z</time>
      </trkpt>
      <trkpt lat="58.516866015270352" lon="-4.221000960096717">
        <ele>23.690000000000001</ele>
        <time>2023-08-22T14:59:00Z</time>
      </trkpt>
      <trkpt lat="58.515346962958574" lon="-4.219434969127178">
        <ele>21.77</ele>
        <time>2023-08-22T14:59:11Z</time>
      </trkpt>
      <trkpt lat="58.513809973374009" lon="-4.218198973685503">
        <ele>20.32</ele>
        <time>2023-08-22T14:59:23Z</time>
      </trkpt>
      <trkpt lat="58.51236904039979" lon="-4.216758962720633">
        <ele>16.960000000000001</ele>
        <time>2023-08-22T14:59:34Z</time>
      </trkpt>
      <trkpt lat="58.511535963043571" lon="-4.215636039152741">
        <ele>11.67</ele>
        <time>2023-08-22T14:59:42Z</time>
      </trkpt>
      <trkpt lat="58.511127009987831" lon="-4.215078977867961">
        <ele>7.35</ele>
        <time>2023-08-22T14:59:50Z</time>
      </trkpt>
      <trkpt lat="58.511085016652942" lon="-4.215021980926395">
        <ele>6.87</ele>
        <time>2023-08-22T14:59:51Z</time>
      </trkpt>
      <trkpt lat="58.510935986414552" lon="-4.215001026168466">
        <ele>4.94</ele>
        <time>2023-08-22T14:59:57Z</time>
      </trkpt>
      <trkpt lat="58.510887958109379" lon="-4.214994991198182">
        <ele>4.94</ele>
        <time>2023-08-22T14:59:58Z</time>
      </trkpt>
      <trkpt lat="58.510859962552786" lon="-4.21503396704793">
        <ele>4.46</ele>
        <time>2023-08-22T14:59:59Z</time>
      </trkpt>
      <trkpt lat="58.510827021673322" lon="-4.215079983696342">
        <ele>4.46</ele>
        <time>2023-08-22T15:00:00Z</time>
      </trkpt>
      <trkpt lat="58.510792991146445" lon="-4.215129017829895">
        <ele>4.46</ele>
        <time>2023-08-22T15:00:01Z</time>
      </trkpt>
      <trkpt lat="58.510770024731755" lon="-4.215189032256603">
        <ele>3.98</ele>
        <time>2023-08-22T15:00:02Z</time>
      </trkpt>
      <trkpt lat="58.510753009468317" lon="-4.215258015319705">
        <ele>3.98</ele>
        <time>2023-08-22T15:00:03Z</time>
      </trkpt>
      <trkpt lat="58.510734988376498" lon="-4.21533202752471">
        <ele>3.98</ele>
        <time>2023-08-22T15:00:04Z</time>
      </trkpt>
      <trkpt lat="58.510715961456299" lon="-4.215407967567444">
        <ele>3.98</ele>
        <time>2023-08-22T15:00:05Z</time>
      </trkpt>
      <trkpt lat="58.510698024183512" lon="-4.215481979772449">
        <ele>3.98</ele>
        <time>2023-08-22T15:00:06Z</time>
      </trkpt>
      <trkpt lat="58.510399963706732" lon="-4.21668796800077">
        <ele>3.02</ele>
        <time>2023-08-22T15:00:17Z</time>
      </trkpt>
      <trkpt lat="58.510273983702064" lon="-4.21709499321878">
        <ele>3.98</ele>
        <time>2023-08-22T15:00:20Z</time>
      </trkpt>
      <trkpt lat="58.510208018124104" lon="-4.217197000980377">
        <ele>4.46</ele>
        <time>2023-08-22T15:00:21Z</time>
      </trkpt>
      <trkpt lat="58.510141968727112" lon="-4.217284005135298">
        <ele>4.94</ele>
        <time>2023-08-22T15:00:22Z</time>
      </trkpt>
      <trkpt lat="58.510073991492391" lon="-4.217375032603741">
        <ele>5.42</ele>
        <time>2023-08-22T15:00:23Z</time>
      </trkpt>
      <trkpt lat="58.510009031742811" lon="-4.21746295876801">
        <ele>5.42</ele>
        <time>2023-08-22T15:00:24Z</time>
      </trkpt>
      <trkpt lat="58.509929990395904" lon="-4.217533031478524">
        <ele>6.39</ele>
        <time>2023-08-22T15:00:25Z</time>
      </trkpt>
      <trkpt lat="58.50927896797657" lon="-4.218149017542601">
        <ele>12.15</ele>
        <time>2023-08-22T15:00:33Z</time>
      </trkpt>
      <trkpt lat="58.508446980267763" lon="-4.21956698410213">
        <ele>14.56</ele>
        <time>2023-08-22T15:00:41Z</time>
      </trkpt>
      <trkpt lat="58.508207006379962" lon="-4.21984501183033">
        <ele>16</ele>
        <time>2023-08-22T15:00:43Z</time>
      </trkpt>
      <trkpt lat="58.508071973919868" lon="-4.219936961308122">
        <ele>16.48</ele>
        <time>2023-08-22T15:00:44Z</time>
      </trkpt>
      <trkpt lat="58.507935013622046" lon="-4.220031006261706">
        <ele>16.960000000000001</ele>
        <time>2023-08-22T15:00:45Z</time>
      </trkpt>
      <trkpt lat="58.507787995040417" lon="-4.220079034566879">
        <ele>16.960000000000001</ele>
        <time>2023-08-22T15:00:46Z</time>
      </trkpt>
      <trkpt lat="58.507640976458788" lon="-4.220075011253357">
        <ele>17.440000000000001</ele>
        <time>2023-08-22T15:00:47Z</time>
      </trkpt>
      <trkpt lat="58.507500998675823" lon="-4.220071993768215">
        <ele>17.920000000000002</ele>
        <time>2023-08-22T15:00:48Z</time>
      </trkpt>
      <trkpt lat="58.506611008197069" lon="-4.219904020428658">
        <ele>19.359999999999999</ele>
        <time>2023-08-22T15:00:55Z</time>
      </trkpt>
      <trkpt lat="58.505149958655238" lon="-4.219135986641049">
        <ele>21.289999999999999</ele>
        <time>2023-08-22T15:01:04Z</time>
      </trkpt>
      <trkpt lat="58.503441978245974" lon="-4.21829896979034">
        <ele>19.84</ele>
        <time>2023-08-22T15:01:14Z</time>
      </trkpt>
      <trkpt lat="58.502273038029671" lon="-4.217475028708577">
        <ele>20.809999999999999</ele>
        <time>2023-08-22T15:01:22Z</time>
      </trkpt>
      <trkpt lat="58.501286990940571" lon="-4.217184009030461">
        <ele>23.210000000000001</ele>
        <time>2023-08-22T15:01:29Z</time>
      </trkpt>
      <trkpt lat="58.501125974580646" lon="-4.217205969616771">
        <ele>23.690000000000001</ele>
        <time>2023-08-22T15:01:30Z</time>
      </trkpt>
      <trkpt lat="58.499993998557329" lon="-4.21750302426517">
        <ele>27.530000000000001</ele>
        <time>2023-08-22T15:01:37Z</time>
      </trkpt>
      <trkpt lat="58.498781975358725" lon="-4.217365980148315">
        <ele>30.420000000000002</ele>
        <time>2023-08-22T15:01:44Z</time>
      </trkpt>
      <trkpt lat="58.497209027409554" lon="-4.21715903095901">
        <ele>30.420000000000002</ele>
        <time>2023-08-22T15:01:54Z</time>
      </trkpt>
      <trkpt lat="58.496705023571849" lon="-4.217021986842156">
        <ele>29.460000000000001</ele>
        <time>2023-08-22T15:01:59Z</time>
      </trkpt>
      <trkpt lat="58.496653977781534" lon="-4.216994997113943">
        <ele>28.98</ele>
        <time>2023-08-22T15:02:00Z</time>
      </trkpt>
      <trkpt lat="58.496532021090388" lon="-4.216930959373713">
        <ele>28.02</ele>
        <time>2023-08-22T15:02:02Z</time>
      </trkpt>
      <trkpt lat="58.496447028592229" lon="-4.216885026544333">
        <ele>28.02</ele>
        <time>2023-08-22T15:02:03Z</time>
      </trkpt>
      <trkpt lat="58.495572963729501" lon="-4.216334000229836">
        <ele>24.170000000000002</ele>
        <time>2023-08-22T15:02:10Z</time>
      </trkpt>
      <trkpt lat="58.494010996073484" lon="-4.21524996869266">
        <ele>18.879999999999999</ele>
        <time>2023-08-22T15:02:20Z</time>
      </trkpt>
      <trkpt lat="58.492376022040844" lon="-4.214621996507049">
        <ele>16</ele>
        <time>2023-08-22T15:02:29Z</time>
      </trkpt>
      <trkpt lat="58.491750983521342" lon="-4.214215977117419">
        <ele>16.48</ele>
        <time>2023-08-22T15:02:33Z</time>
      </trkpt>
      <trkpt lat="58.49082101136446" lon="-4.213290028274059">
        <ele>16.960000000000001</ele>
        <time>2023-08-22T15:02:39Z</time>
      </trkpt>
      <trkpt lat="58.49017602391541" lon="-4.212920973077416">
        <ele>16.960000000000001</ele>
        <time>2023-08-22T15:02:44Z</time>
      </trkpt>
      <trkpt lat="58.488980010151863" lon="-4.212419986724854">
        <ele>16.960000000000001</ele>
        <time>2023-08-22T15:02:54Z</time>
      </trkpt>
      <trkpt lat="58.488252041861415" lon="-4.212412023916841">
        <ele>18.879999999999999</ele>
        <time>2023-08-22T15:03:00Z</time>
      </trkpt>
      <trkpt lat="58.48813695833087" lon="-4.212365001440048">
        <ele>18.879999999999999</ele>
        <time>2023-08-22T15:03:01Z</time>
      </trkpt>
      <trkpt lat="58.488126983866096" lon="-4.212280008941889">
        <ele>19.359999999999999</ele>
        <time>2023-08-22T15:03:02Z</time>
      </trkpt>
      <trkpt lat="58.48811399191618" lon="-4.212168026715517">
        <ele>19.84</ele>
        <time>2023-08-22T15:03:03Z</time>
      </trkpt>
      <trkpt lat="58.488099994137883" lon="-4.212055038660765">
        <ele>20.32</ele>
        <time>2023-08-22T15:03:04Z</time>
      </trkpt>
      <trkpt lat="58.488047020509839" lon="-4.212011033669114">
        <ele>20.32</ele>
        <time>2023-08-22T15:03:05Z</time>
      </trkpt>
      <trkpt lat="58.487972002476454" lon="-4.211948001757264">
        <ele>20.32</ele>
        <time>2023-08-22T15:03:06Z</time>
      </trkpt>
      <trkpt lat="58.487894972786307" lon="-4.21198102645576">
        <ele>20.809999999999999</ele>
        <time>2023-08-22T15:03:07Z</time>
      </trkpt>
      <trkpt lat="58.487806962803006" lon="-4.212018996477127">
        <ele>20.809999999999999</ele>
        <time>2023-08-22T15:03:08Z</time>
      </trkpt>
      <trkpt lat="58.487714007496834" lon="-4.212058978155255">
        <ele>21.289999999999999</ele>
        <time>2023-08-22T15:03:09Z</time>
      </trkpt>
      <trkpt lat="58.486934993416071" lon="-4.212182024493814">
        <ele>22.73</ele>
        <time>2023-08-22T15:03:16Z</time>
      </trkpt>
      <trkpt lat="58.486818987876177" lon="-4.212127039209008">
        <ele>22.73</ele>
        <time>2023-08-22T15:03:17Z</time>
      </trkpt>
      <trkpt lat="58.48600703291595" lon="-4.21148699708283">
        <ele>20.32</ele>
        <time>2023-08-22T15:03:24Z</time>
      </trkpt>
      <trkpt lat="58.484797021374106" lon="-4.210457028821111">
        <ele>16.960000000000001</ele>
        <time>2023-08-22T15:03:34Z</time>
      </trkpt>
      <trkpt lat="58.484681015834212" lon="-4.210427021607757">
        <ele>16.48</ele>
        <time>2023-08-22T15:03:35Z</time>
      </trkpt>
      <trkpt lat="58.483721036463976" lon="-4.210183024406433">
        <ele>12.630000000000001</ele>
        <time>2023-08-22T15:03:43Z</time>
      </trkpt>
      <trkpt lat="58.483598995953798" lon="-4.21013399027288">
        <ele>12.630000000000001</ele>
        <time>2023-08-22T15:03:44Z</time>
      </trkpt>
      <trkpt lat="58.48226903937757" lon="-4.209391018375754">
        <ele>11.67</ele>
        <time>2023-08-22T15:03:54Z</time>
      </trkpt>
      <trkpt lat="58.481096997857094" lon="-4.20860898680985">
        <ele>12.15</ele>
        <time>2023-08-22T15:04:03Z</time>
      </trkpt>
      <trkpt lat="58.480955008417368" lon="-4.208515025675297">
        <ele>12.15</ele>
        <time>2023-08-22T15:04:04Z</time>
      </trkpt>
      <trkpt lat="58.479866031557322" lon="-4.208378987386823">
        <ele>14.56</ele>
        <time>2023-08-22T15:04:12Z</time>
      </trkpt>
      <trkpt lat="58.478655014187098" lon="-4.208686016499996">
        <ele>17.920000000000002</ele>
        <time>2023-08-22T15:04:20Z</time>
      </trkpt>
      <trkpt lat="58.477413989603519" lon="-4.208321990445256">
        <ele>20.32</ele>
        <time>2023-08-22T15:04:28Z</time>
      </trkpt>
      <trkpt lat="58.475818997249007" lon="-4.207008965313435">
        <ele>22.25</ele>
        <time>2023-08-22T15:04:39Z</time>
      </trkpt>
      <trkpt lat="58.474111016839743" lon="-4.205227978527546">
        <ele>22.73</ele>
        <time>2023-08-22T15:04:52Z</time>
      </trkpt>
      <trkpt lat="58.472863035276532" lon="-4.20362401753664">
        <ele>20.809999999999999</ele>
        <time>2023-08-22T15:05:02Z</time>
      </trkpt>
      <trkpt lat="58.472020989283919" lon="-4.202172020450234">
        <ele>16</ele>
        <time>2023-08-22T15:05:09Z</time>
      </trkpt>
      <trkpt lat="58.471891991794109" lon="-4.20201301574707">
        <ele>15.52</ele>
        <time>2023-08-22T15:05:10Z</time>
      </trkpt>
      <trkpt lat="58.471739022061229" lon="-4.201888041570783">
        <ele>15.52</ele>
        <time>2023-08-22T15:05:11Z</time>
      </trkpt>
      <trkpt lat="58.470670999959111" lon="-4.201143980026245">
        <ele>16.960000000000001</ele>
        <time>2023-08-22T15:05:18Z</time>
      </trkpt>
      <trkpt lat="58.469286980107427" lon="-4.200179977342486">
        <ele>18.399999999999999</ele>
        <time>2023-08-22T15:05:27Z</time>
      </trkpt>
      <trkpt lat="58.46791603602469" lon="-4.199587041512132">
        <ele>20.809999999999999</ele>
        <time>2023-08-22T15:05:36Z</time>
      </trkpt>
      <trkpt lat="58.466976005584002" lon="-4.199524009600282">
        <ele>23.210000000000001</ele>
        <time>2023-08-22T15:05:43Z</time>
      </trkpt>
      <trkpt lat="58.466867040842772" lon="-4.199449997395277">
        <ele>23.690000000000001</ele>
        <time>2023-08-22T15:05:44Z</time>
      </trkpt>
      <trkpt lat="58.466753968968987" lon="-4.199372967705131">
        <ele>24.170000000000002</ele>
        <time>2023-08-22T15:05:45Z</time>
      </trkpt>
      <trkpt lat="58.466637041419744" lon="-4.199293004348874">
        <ele>24.649999999999999</ele>
        <time>2023-08-22T15:05:46Z</time>
      </trkpt>
      <trkpt lat="58.466515000909567" lon="-4.199213963001967">
        <ele>25.129999999999999</ele>
        <time>2023-08-22T15:05:47Z</time>
      </trkpt>
      <trkpt lat="58.466382985934615" lon="-4.199151014909148">
        <ele>25.129999999999999</ele>
        <time>2023-08-22T15:05:48Z</time>
      </trkpt>
      <trkpt lat="58.465289985761046" lon="-4.198668971657753">
        <ele>29.940000000000001</ele>
        <time>2023-08-22T15:05:56Z</time>
      </trkpt>
      <trkpt lat="58.464773995801806" lon="-4.19859797693789">
        <ele>31.379999999999999</ele>
        <time>2023-08-22T15:06:00Z</time>
      </trkpt>
      <trkpt lat="58.464647009968758" lon="-4.198580039665103">
        <ele>32.340000000000003</ele>
        <time>2023-08-22T15:06:01Z</time>
      </trkpt>
      <trkpt lat="58.464549025520682" lon="-4.198474008589983">
        <ele>32.340000000000003</ele>
        <time>2023-08-22T15:06:02Z</time>
      </trkpt>
      <trkpt lat="58.464440982788801" lon="-4.19835900887847">
        <ele>32.340000000000003</ele>
        <time>2023-08-22T15:06:03Z</time>
      </trkpt>
      <trkpt lat="58.464332018047571" lon="-4.198226993903518">
        <ele>32.82</ele>
        <time>2023-08-22T15:06:04Z</time>
      </trkpt>
      <trkpt lat="58.464222969487309" lon="-4.198071006685495">
        <ele>32.340000000000003</ele>
        <time>2023-08-22T15:06:05Z</time>
      </trkpt>
      <trkpt lat="58.463066015392542" lon="-4.196763010695577">
        <ele>31.379999999999999</ele>
        <time>2023-08-22T15:06:14Z</time>
      </trkpt>
      <trkpt lat="58.46177201718092" lon="-4.195468006655574">
        <ele>28.5</ele>
        <time>2023-08-22T15:06:24Z</time>
      </trkpt>
      <trkpt lat="58.461688030511141" lon="-4.19528997503221">
        <ele>28.02</ele>
        <time>2023-08-22T15:06:25Z</time>
      </trkpt>
      <trkpt lat="58.46160002052784" lon="-4.195103980600834">
        <ele>27.530000000000001</ele>
        <time>2023-08-22T15:06:26Z</time>
      </trkpt>
      <trkpt lat="58.461554003879428" lon="-4.194938018918037">
        <ele>27.530000000000001</ele>
        <time>2023-08-22T15:06:27Z</time>
      </trkpt>
      <trkpt lat="58.461504969745874" lon="-4.194763004779816">
        <ele>27.530000000000001</ele>
        <time>2023-08-22T15:06:28Z</time>
      </trkpt>
      <trkpt lat="58.461456019431353" lon="-4.194587990641594">
        <ele>27.050000000000001</ele>
        <time>2023-08-22T15:06:29Z</time>
      </trkpt>
      <trkpt lat="58.461370021104813" lon="-4.194444995373488">
        <ele>26.57</ele>
        <time>2023-08-22T15:06:30Z</time>
      </trkpt>
      <trkpt lat="58.46127999946475" lon="-4.194305017590523">
        <ele>26.57</ele>
        <time>2023-08-22T15:06:31Z</time>
      </trkpt>
      <trkpt lat="58.461176985874772" lon="-4.194175014272332">
        <ele>25.609999999999999</ele>
        <time>2023-08-22T15:06:32Z</time>
      </trkpt>
      <trkpt lat="58.461053017526865" lon="-4.194083986803889">
        <ele>25.129999999999999</ele>
        <time>2023-08-22T15:06:33Z</time>
      </trkpt>
      <trkpt lat="58.460925025865436" lon="-4.193988014012575">
        <ele>24.649999999999999</ele>
        <time>2023-08-22T15:06:34Z</time>
      </trkpt>
      <trkpt lat="58.459510998800397" lon="-4.193037003278732">
        <ele>22.25</ele>
        <time>2023-08-22T15:06:45Z</time>
      </trkpt>
      <trkpt lat="58.458710024133325" lon="-4.193072039633989">
        <ele>20.809999999999999</ele>
        <time>2023-08-22T15:06:51Z</time>
      </trkpt>
      <trkpt lat="58.457637978717685" lon="-4.193253004923463">
        <ele>19.84</ele>
        <time>2023-08-22T15:06:58Z</time>
      </trkpt>
      <trkpt lat="58.456267034634948" lon="-4.193144962191582">
        <ele>21.289999999999999</ele>
        <time>2023-08-22T15:07:07Z</time>
      </trkpt>
      <trkpt lat="58.454887038096786" lon="-4.19264598749578">
        <ele>26.09</ele>
        <time>2023-08-22T15:07:16Z</time>
      </trkpt>
      <trkpt lat="58.453712984919548" lon="-4.191926987841725">
        <ele>28.5</ele>
        <time>2023-08-22T15:07:24Z</time>
      </trkpt>
      <trkpt lat="58.452931959182024" lon="-4.191122995689511">
        <ele>29.940000000000001</ele>
        <time>2023-08-22T15:07:31Z</time>
      </trkpt>
      <trkpt lat="58.452695002779365" lon="-4.190855026245117">
        <ele>30.420000000000002</ele>
        <time>2023-08-22T15:07:33Z</time>
      </trkpt>
      <trkpt lat="58.45253499224782" lon="-4.190780008211732">
        <ele>30.420000000000002</ele>
        <time>2023-08-22T15:07:34Z</time>
      </trkpt>
      <trkpt lat="58.451942978426814" lon="-4.190570041537285">
        <ele>30.899999999999999</ele>
        <time>2023-08-22T15:07:38Z</time>
      </trkpt>
      <trkpt lat="58.451790008693933" lon="-4.190592002123594">
        <ele>30.899999999999999</ele>
        <time>2023-08-22T15:07:39Z</time>
      </trkpt>
      <trkpt lat="58.449886981397867" lon="-4.190866006538272">
        <ele>33.299999999999997</ele>
        <time>2023-08-22T15:07:50Z</time>
      </trkpt>
      <trkpt lat="58.44819400459528" lon="-4.190737009048462">
        <ele>35.229999999999997</ele>
        <time>2023-08-22T15:08:00Z</time>
      </trkpt>
      <trkpt lat="58.446148987859488" lon="-4.190522013232112">
        <ele>35.229999999999997</ele>
        <time>2023-08-22T15:08:12Z</time>
      </trkpt>
      <trkpt lat="58.444917015731335" lon="-4.190656039863825">
        <ele>35.710000000000001</ele>
        <time>2023-08-22T15:08:20Z</time>
      </trkpt>
      <trkpt lat="58.443915965035558" lon="-4.190683029592037">
        <ele>36.189999999999998</ele>
        <time>2023-08-22T15:08:28Z</time>
      </trkpt>
      <trkpt lat="58.443793002516031" lon="-4.190631983801723">
        <ele>35.710000000000001</ele>
        <time>2023-08-22T15:08:29Z</time>
      </trkpt>
      <trkpt lat="58.44366098754108" lon="-4.190575992688537">
        <ele>35.710000000000001</ele>
        <time>2023-08-22T15:08:30Z</time>
      </trkpt>
      <trkpt lat="58.443540036678314" lon="-4.190457975491881">
        <ele>35.229999999999997</ele>
        <time>2023-08-22T15:08:31Z</time>
      </trkpt>
      <trkpt lat="58.443411961197853" lon="-4.190333001315594">
        <ele>35.229999999999997</ele>
        <time>2023-08-22T15:08:32Z</time>
      </trkpt>
      <trkpt lat="58.44269497320056" lon="-4.189692959189415">
        <ele>34.740000000000002</ele>
        <time>2023-08-22T15:08:38Z</time>
      </trkpt>
      <trkpt lat="58.441528966650367" lon="-4.189451979473233">
        <ele>33.299999999999997</ele>
        <time>2023-08-22T15:08:47Z</time>
      </trkpt>
      <trkpt lat="58.439894998446107" lon="-4.189492966979742">
        <ele>28.02</ele>
        <time>2023-08-22T15:08:58Z</time>
      </trkpt>
      <trkpt lat="58.439037026837468" lon="-4.189626993611455">
        <ele>31.859999999999999</ele>
        <time>2023-08-22T15:09:05Z</time>
      </trkpt>
      <trkpt lat="58.43777596950531" lon="-4.189619030803442">
        <ele>32.82</ele>
        <time>2023-08-22T15:09:14Z</time>
      </trkpt>
      <trkpt lat="58.435976961627603" lon="-4.189548036083579">
        <ele>31.379999999999999</ele>
        <time>2023-08-22T15:09:25Z</time>
      </trkpt>
      <trkpt lat="58.435022011399269" lon="-4.189617019146681">
        <ele>32.82</ele>
        <time>2023-08-22T15:09:32Z</time>
      </trkpt>
      <trkpt lat="58.433036003261805" lon="-4.189978027716279">
        <ele>34.740000000000002</ele>
        <time>2023-08-22T15:09:44Z</time>
      </trkpt>
      <trkpt lat="58.431536983698606" lon="-4.190120017156005">
        <ele>33.299999999999997</ele>
        <time>2023-08-22T15:09:54Z</time>
      </trkpt>
      <trkpt lat="58.430924015119672" lon="-4.190273992717266">
        <ele>31.379999999999999</ele>
        <time>2023-08-22T15:09:59Z</time>
      </trkpt>
      <trkpt lat="58.430831981822848" lon="-4.190220013260841">
        <ele>30.899999999999999</ele>
        <time>2023-08-22T15:10:00Z</time>
      </trkpt>
      <trkpt lat="58.430729974061251" lon="-4.19015203602612">
        <ele>30.420000000000002</ele>
        <time>2023-08-22T15:10:01Z</time>
      </trkpt>
      <trkpt lat="58.43051103875041" lon="-4.190011974424124">
        <ele>29.460000000000001</ele>
        <time>2023-08-22T15:10:03Z</time>
      </trkpt>
      <trkpt lat="58.430401990190148" lon="-4.189976016059518">
        <ele>29.460000000000001</ele>
        <time>2023-08-22T15:10:04Z</time>
      </trkpt>
      <trkpt lat="58.430290007963777" lon="-4.1899389680475">
        <ele>28.98</ele>
        <time>2023-08-22T15:10:05Z</time>
      </trkpt>
      <trkpt lat="58.430163022130728" lon="-4.189956989139319">
        <ele>28.5</ele>
        <time>2023-08-22T15:10:06Z</time>
      </trkpt>
      <trkpt lat="58.430030001327395" lon="-4.189989008009434">
        <ele>28.02</ele>
        <time>2023-08-22T15:10:07Z</time>
      </trkpt>
      <trkpt lat="58.428800040856004" lon="-4.190164022147656">
        <ele>25.609999999999999</ele>
        <time>2023-08-22T15:10:15Z</time>
      </trkpt>
      <trkpt lat="58.42864396981895" lon="-4.190168967470527">
        <ele>25.609999999999999</ele>
        <time>2023-08-22T15:10:16Z</time>
      </trkpt>
      <trkpt lat="58.428494017571211" lon="-4.19017399661243">
        <ele>25.129999999999999</ele>
        <time>2023-08-22T15:10:17Z</time>
      </trkpt>
      <trkpt lat="58.4276760276407" lon="-4.1900650318712">
        <ele>27.530000000000001</ele>
        <time>2023-08-22T15:10:23Z</time>
      </trkpt>
      <trkpt lat="58.426648993045092" lon="-4.189477963373065">
        <ele>30.899999999999999</ele>
        <time>2023-08-22T15:10:30Z</time>
      </trkpt>
      <trkpt lat="58.426513038575649" lon="-4.189394982531667">
        <ele>31.379999999999999</ele>
        <time>2023-08-22T15:10:31Z</time>
      </trkpt>
      <trkpt lat="58.426367025822401" lon="-4.189325999468565">
        <ele>31.379999999999999</ele>
        <time>2023-08-22T15:10:32Z</time>
      </trkpt>
      <trkpt lat="58.425352983176708" lon="-4.189109997823834">
        <ele>32.340000000000003</ele>
        <time>2023-08-22T15:10:39Z</time>
      </trkpt>
      <trkpt lat="58.425225997343659" lon="-4.189043026417494">
        <ele>31.859999999999999</ele>
        <time>2023-08-22T15:10:40Z</time>
      </trkpt>
      <trkpt lat="58.42509800568223" lon="-4.188975971192122">
        <ele>31.379999999999999</ele>
        <time>2023-08-22T15:10:41Z</time>
      </trkpt>
      <trkpt lat="58.424857025966048" lon="-4.188848985359073">
        <ele>31.379999999999999</ele>
        <time>2023-08-22T15:10:43Z</time>
      </trkpt>
      <trkpt lat="58.424714030697942" lon="-4.188773967325687">
        <ele>31.379999999999999</ele>
        <time>2023-08-22T15:10:44Z</time>
      </trkpt>
      <trkpt lat="58.424595007672906" lon="-4.188802968710661">
        <ele>31.859999999999999</ele>
        <time>2023-08-22T15:10:45Z</time>
      </trkpt>
      <trkpt lat="58.42415202409029" lon="-4.188948981463909">
        <ele>33.780000000000001</ele>
        <time>2023-08-22T15:10:48Z</time>
      </trkpt>
      <trkpt lat="58.423085007816553" lon="-4.189318036660552">
        <ele>34.259999999999998</ele>
        <time>2023-08-22T15:10:55Z</time>
      </trkpt>
      <trkpt lat="58.422931032255292" lon="-4.18931501917541">
        <ele>33.780000000000001</ele>
        <time>2023-08-22T15:10:56Z</time>
      </trkpt>
      <trkpt lat="58.422780996188521" lon="-4.189258022233844">
        <ele>33.780000000000001</ele>
        <time>2023-08-22T15:10:57Z</time>
      </trkpt>
      <trkpt lat="58.422628026455641" lon="-4.189201025292277">
        <ele>33.780000000000001</ele>
        <time>2023-08-22T15:10:58Z</time>
      </trkpt>
      <trkpt lat="58.422474972903728" lon="-4.189144028350711">
        <ele>33.780000000000001</ele>
        <time>2023-08-22T15:10:59Z</time>
      </trkpt>
      <trkpt lat="58.422332983464003" lon="-4.189029028639197">
        <ele>33.780000000000001</ele>
        <time>2023-08-22T15:11:00Z</time>
      </trkpt>
      <trkpt lat="58.422195017337799" lon="-4.188910005614162">
        <ele>33.780000000000001</ele>
        <time>2023-08-22T15:11:01Z</time>
      </trkpt>
      <trkpt lat="58.422060990706086" lon="-4.188795005902648">
        <ele>33.780000000000001</ele>
        <time>2023-08-22T15:11:02Z</time>
      </trkpt>
      <trkpt lat="58.421942973509431" lon="-4.188640024513006">
        <ele>33.299999999999997</ele>
        <time>2023-08-22T15:11:03Z</time>
      </trkpt>
      <trkpt lat="58.421835014596581" lon="-4.188459981232882">
        <ele>32.82</ele>
        <time>2023-08-22T15:11:04Z</time>
      </trkpt>
      <trkpt lat="58.421720014885068" lon="-4.188256971538067">
        <ele>32.340000000000003</ele>
        <time>2023-08-22T15:11:05Z</time>
      </trkpt>
      <trkpt lat="58.420795993879437" lon="-4.186419993638992">
        <ele>25.129999999999999</ele>
        <time>2023-08-22T15:11:13Z</time>
      </trkpt>
      <trkpt lat="58.42067495919764" lon="-4.186294013634324">
        <ele>24.170000000000002</ele>
        <time>2023-08-22T15:11:14Z</time>
      </trkpt>
      <trkpt lat="58.420555014163256" lon="-4.186169039458036">
        <ele>23.690000000000001</ele>
        <time>2023-08-22T15:11:15Z</time>
      </trkpt>
      <trkpt lat="58.419504007324576" lon="-4.185364041477442">
        <ele>21.77</ele>
        <time>2023-08-22T15:11:24Z</time>
      </trkpt>
      <trkpt lat="58.419424965977669" lon="-4.185418020933867">
        <ele>22.25</ele>
        <time>2023-08-22T15:11:25Z</time>
      </trkpt>
      <trkpt lat="58.419325975701213" lon="-4.185493038967252">
        <ele>22.25</ele>
        <time>2023-08-22T15:11:26Z</time>
      </trkpt>
      <trkpt lat="58.419221034273505" lon="-4.185570990666747">
        <ele>22.73</ele>
        <time>2023-08-22T15:11:27Z</time>
      </trkpt>
      <trkpt lat="58.419107962399721" lon="-4.185655983164907">
        <ele>22.73</ele>
        <time>2023-08-22T15:11:28Z</time>
      </trkpt>
      <trkpt lat="58.418992040678859" lon="-4.185742987319827">
        <ele>23.210000000000001</ele>
        <time>2023-08-22T15:11:29Z</time>
      </trkpt>
      <trkpt lat="58.418871005997062" lon="-4.185819011181593">
        <ele>23.690000000000001</ele>
        <time>2023-08-22T15:11:30Z</time>
      </trkpt>
      <trkpt lat="58.418745025992393" lon="-4.185849018394947">
        <ele>24.170000000000002</ele>
        <time>2023-08-22T15:11:31Z</time>
      </trkpt>
      <trkpt lat="58.418617034330964" lon="-4.185879025608301">
        <ele>24.649999999999999</ele>
        <time>2023-08-22T15:11:32Z</time>
      </trkpt>
      <trkpt lat="58.418489964678884" lon="-4.185891011729837">
        <ele>24.649999999999999</ele>
        <time>2023-08-22T15:11:33Z</time>
      </trkpt>
      <trkpt lat="58.418359961360693" lon="-4.185869973152876">
        <ele>25.129999999999999</ele>
        <time>2023-08-22T15:11:34Z</time>
      </trkpt>
      <trkpt lat="58.416830012574792" lon="-4.185617007315159">
        <ele>28.98</ele>
        <time>2023-08-22T15:11:45Z</time>
      </trkpt>
      <trkpt lat="58.415310038253665" lon="-4.185669980943203">
        <ele>29.460000000000001</ele>
        <time>2023-08-22T15:11:55Z</time>
      </trkpt>
      <trkpt lat="58.414542004466057" lon="-4.185867039486766">
        <ele>32.82</ele>
        <time>2023-08-22T15:12:01Z</time>
      </trkpt>
      <trkpt lat="58.41343198902905" lon="-4.18660799972713">
        <ele>32.82</ele>
        <time>2023-08-22T15:12:09Z</time>
      </trkpt>
      <trkpt lat="58.413233002647758" lon="-4.186807991936803">
        <ele>33.780000000000001</ele>
        <time>2023-08-22T15:12:11Z</time>
      </trkpt>
      <trkpt lat="58.413134012371302" lon="-4.186933971941471">
        <ele>34.740000000000002</ele>
        <time>2023-08-22T15:12:12Z</time>
      </trkpt>
      <trkpt lat="58.412621039897203" lon="-4.187581976875663">
        <ele>40.030000000000001</ele>
        <time>2023-08-22T15:12:17Z</time>
      </trkpt>
      <trkpt lat="58.412520037963986" lon="-4.187702005729079">
        <ele>40.509999999999998</ele>
        <time>2023-08-22T15:12:18Z</time>
      </trkpt>
      <trkpt lat="58.412402020767331" lon="-4.187720026820898">
        <ele>40.990000000000002</ele>
        <time>2023-08-22T15:12:19Z</time>
      </trkpt>
      <trkpt lat="58.412268999963999" lon="-4.187739975750446">
        <ele>41.469999999999999</ele>
        <time>2023-08-22T15:12:20Z</time>
      </trkpt>
      <trkpt lat="58.412129022181034" lon="-4.187761014327407">
        <ele>41.950000000000003</ele>
        <time>2023-08-22T15:12:21Z</time>
      </trkpt>
      <trkpt lat="58.411985021084547" lon="-4.187782974913716">
        <ele>41.950000000000003</ele>
        <time>2023-08-22T15:12:22Z</time>
      </trkpt>
      <trkpt lat="58.411844037473202" lon="-4.187805019319058">
        <ele>41.950000000000003</ele>
        <time>2023-08-22T15:12:23Z</time>
      </trkpt>
      <trkpt lat="58.411704981699586" lon="-4.187825974076986">
        <ele>41.469999999999999</ele>
        <time>2023-08-22T15:12:24Z</time>
      </trkpt>
      <trkpt lat="58.411569027230144" lon="-4.187846006825566">
        <ele>41.469999999999999</ele>
        <time>2023-08-22T15:12:25Z</time>
      </trkpt>
      <trkpt lat="58.411432988941669" lon="-4.187905015423894">
        <ele>41.469999999999999</ele>
        <time>2023-08-22T15:12:26Z</time>
      </trkpt>
      <trkpt lat="58.410285003483295" lon="-4.188487976789475">
        <ele>40.990000000000002</ele>
        <time>2023-08-22T15:12:34Z</time>
      </trkpt>
      <trkpt lat="58.409742023795843" lon="-4.18899399228394">
        <ele>40.030000000000001</ele>
        <time>2023-08-22T15:12:38Z</time>
      </trkpt>
      <trkpt lat="58.409302979707718" lon="-4.189467988908291">
        <ele>40.509999999999998</ele>
        <time>2023-08-22T15:12:41Z</time>
      </trkpt>
      <trkpt lat="58.408235963433981" lon="-4.190498040989041">
        <ele>44.840000000000003</ele>
        <time>2023-08-22T15:12:49Z</time>
      </trkpt>
      <trkpt lat="58.408088022843003" lon="-4.190617986023426">
        <ele>45.32</ele>
        <time>2023-08-22T15:12:50Z</time>
      </trkpt>
      <trkpt lat="58.407167019322515" lon="-4.191321982070804">
        <ele>51.090000000000003</ele>
        <time>2023-08-22T15:12:57Z</time>
      </trkpt>
      <trkpt lat="58.406854961067438" lon="-4.191502025350928">
        <ele>53.009999999999998</ele>
        <time>2023-08-22T15:13:00Z</time>
      </trkpt>
      <trkpt lat="58.406747002154589" lon="-4.191505964845419">
        <ele>52.530000000000001</ele>
        <time>2023-08-22T15:13:01Z</time>
      </trkpt>
      <trkpt lat="58.40662102214992" lon="-4.191479980945587">
        <ele>52.049999999999997</ele>
        <time>2023-08-22T15:13:02Z</time>
      </trkpt>
      <trkpt lat="58.405728014186025" lon="-4.191294992342591">
        <ele>49.159999999999997</ele>
        <time>2023-08-22T15:13:08Z</time>
      </trkpt>
      <trkpt lat="58.405603962019086" lon="-4.19126900844276">
        <ele>48.68</ele>
        <time>2023-08-22T15:13:09Z</time>
      </trkpt>
      <trkpt lat="58.405476976186037" lon="-4.191311001777649">
        <ele>48.68</ele>
        <time>2023-08-22T15:13:10Z</time>
      </trkpt>
      <trkpt lat="58.405357031151652" lon="-4.191371016204357">
        <ele>48.200000000000003</ele>
        <time>2023-08-22T15:13:11Z</time>
      </trkpt>
      <trkpt lat="58.405232978984714" lon="-4.191432958468795">
        <ele>48.200000000000003</ele>
        <time>2023-08-22T15:13:12Z</time>
      </trkpt>
      <trkpt lat="58.405108004808426" lon="-4.191509988158941">
        <ele>48.68</ele>
        <time>2023-08-22T15:13:13Z</time>
      </trkpt>
      <trkpt lat="58.404991999268532" lon="-4.191611995920539">
        <ele>48.68</ele>
        <time>2023-08-22T15:13:14Z</time>
      </trkpt>
      <trkpt lat="58.404586985707283" lon="-4.191970992833376">
        <ele>48.68</ele>
        <time>2023-08-22T15:13:18Z</time>
      </trkpt>
      <trkpt lat="58.404448013752699" lon="-4.191970992833376">
        <ele>48.200000000000003</ele>
        <time>2023-08-22T15:13:19Z</time>
      </trkpt>
      <trkpt lat="58.404327984899282" lon="-4.191970992833376">
        <ele>48.200000000000003</ele>
        <time>2023-08-22T15:13:20Z</time>
      </trkpt>
      <trkpt lat="58.404208039864898" lon="-4.191970992833376">
        <ele>48.200000000000003</ele>
        <time>2023-08-22T15:13:21Z</time>
      </trkpt>
      <trkpt lat="58.404090022668242" lon="-4.191970992833376">
        <ele>47.719999999999999</ele>
        <time>2023-08-22T15:13:22Z</time>
      </trkpt>
      <trkpt lat="58.403969993814826" lon="-4.192027989774942">
        <ele>47.240000000000002</ele>
        <time>2023-08-22T15:13:23Z</time>
      </trkpt>
      <trkpt lat="58.403857005760074" lon="-4.192099990323186">
        <ele>46.759999999999998</ele>
        <time>2023-08-22T15:13:24Z</time>
      </trkpt>
      <trkpt lat="58.403748041018844" lon="-4.192211972549558">
        <ele>46.280000000000001</ele>
        <time>2023-08-22T15:13:25Z</time>
      </trkpt>
      <trkpt lat="58.40363304130733" lon="-4.192328983917832">
        <ele>45.799999999999997</ele>
        <time>2023-08-22T15:13:26Z</time>
      </trkpt>
      <trkpt lat="58.402911024168134" lon="-4.193067010492086">
        <ele>45.32</ele>
        <time>2023-08-22T15:13:32Z</time>
      </trkpt>
      <trkpt lat="58.401987003162503" lon="-4.194339970126748">
        <ele>45.32</ele>
        <time>2023-08-22T15:13:40Z</time>
      </trkpt>
      <trkpt lat="58.40137897990644" lon="-4.19541796669364">
        <ele>46.280000000000001</ele>
        <time>2023-08-22T15:13:46Z</time>
      </trkpt>
      <trkpt lat="58.401305973529816" lon="-4.195556016638875">
        <ele>45.799999999999997</ele>
        <time>2023-08-22T15:13:47Z</time>
      </trkpt>
      <trkpt lat="58.401260962709785" lon="-4.195640003308654">
        <ele>45.32</ele>
        <time>2023-08-22T15:13:48Z</time>
      </trkpt>
      <trkpt lat="58.401147974655032" lon="-4.195708986371756">
        <ele>45.32</ele>
        <time>2023-08-22T15:13:49Z</time>
      </trkpt>
      <trkpt lat="58.40105602517724" lon="-4.195765983313322">
        <ele>44.840000000000003</ele>
        <time>2023-08-22T15:13:50Z</time>
      </trkpt>
      <trkpt lat="58.400947982445359" lon="-4.195831026881933">
        <ele>44.359999999999999</ele>
        <time>2023-08-22T15:13:51Z</time>
      </trkpt>
      <trkpt lat="58.400830971077085" lon="-4.195914007723332">
        <ele>43.880000000000003</ele>
        <time>2023-08-22T15:13:52Z</time>
      </trkpt>
      <trkpt lat="58.400707002729177" lon="-4.1960209608078">
        <ele>42.920000000000002</ele>
        <time>2023-08-22T15:13:53Z</time>
      </trkpt>
      <trkpt lat="58.399725984781981" lon="-4.197168024256825">
        <ele>38.590000000000003</ele>
        <time>2023-08-22T15:14:01Z</time>
      </trkpt>
      <trkpt lat="58.398694004863501" lon="-4.198341993615031">
        <ele>35.710000000000001</ele>
        <time>2023-08-22T15:14:08Z</time>
      </trkpt>
      <trkpt lat="58.397122984752059" lon="-4.200045028701425">
        <ele>34.740000000000002</ele>
        <time>2023-08-22T15:14:18Z</time>
      </trkpt>
      <trkpt lat="58.396395016461611" lon="-4.201083965599537">
        <ele>35.229999999999997</ele>
        <time>2023-08-22T15:14:24Z</time>
      </trkpt>
      <trkpt lat="58.396258978173137" lon="-4.201210029423237">
        <ele>35.229999999999997</ele>
        <time>2023-08-22T15:14:25Z</time>
      </trkpt>
      <trkpt lat="58.395613990724087" lon="-4.201804976910353">
        <ele>36.189999999999998</ele>
        <time>2023-08-22T15:14:30Z</time>
      </trkpt>
      <trkpt lat="58.395522963255644" lon="-4.201955012977123">
        <ele>36.670000000000002</ele>
        <time>2023-08-22T15:14:31Z</time>
      </trkpt>
      <trkpt lat="58.395436964929104" lon="-4.202146958559752">
        <ele>37.149999999999999</ele>
        <time>2023-08-22T15:14:32Z</time>
      </trkpt>
      <trkpt lat="58.395345015451312" lon="-4.202348962426186">
        <ele>37.630000000000003</ele>
        <time>2023-08-22T15:14:33Z</time>
      </trkpt>
      <trkpt lat="58.395248958840966" lon="-4.202562030404806">
        <ele>38.109999999999999</ele>
        <time>2023-08-22T15:14:34Z</time>
      </trkpt>
      <trkpt lat="58.394722994416952" lon="-4.203599039465189">
        <ele>39.549999999999997</ele>
        <time>2023-08-22T15:14:39Z</time>
      </trkpt>
      <trkpt lat="58.394609000533819" lon="-4.203751003369689">
        <ele>39.549999999999997</ele>
        <time>2023-08-22T15:14:40Z</time>
      </trkpt>
      <trkpt lat="58.394475979730487" lon="-4.203872960060835">
        <ele>39.549999999999997</ele>
        <time>2023-08-22T15:14:41Z</time>
      </trkpt>
      <trkpt lat="58.393506025895476" lon="-4.204481989145279">
        <ele>38.590000000000003</ele>
        <time>2023-08-22T15:14:48Z</time>
      </trkpt>
      <trkpt lat="58.393360013142228" lon="-4.204497998580337">
        <ele>38.590000000000003</ele>
        <time>2023-08-22T15:14:49Z</time>
      </trkpt>
      <trkpt lat="58.393223974853754" lon="-4.20446002855897">
        <ele>39.07</ele>
        <time>2023-08-22T15:14:50Z</time>
      </trkpt>
      <trkpt lat="58.393091959878802" lon="-4.204404037445784">
        <ele>39.549999999999997</ele>
        <time>2023-08-22T15:14:51Z</time>
      </trkpt>
      <trkpt lat="58.392971009016037" lon="-4.204351985827088">
        <ele>39.549999999999997</ele>
        <time>2023-08-22T15:14:52Z</time>
      </trkpt>
      <trkpt lat="58.392217978835106" lon="-4.203933980315924">
        <ele>40.990000000000002</ele>
        <time>2023-08-22T15:15:00Z</time>
      </trkpt>
      <trkpt lat="58.392021004110575" lon="-4.203813029453158">
        <ele>40.509999999999998</ele>
        <time>2023-08-22T15:15:02Z</time>
      </trkpt>
      <trkpt lat="58.391918996348977" lon="-4.203787967562676">
        <ele>40.030000000000001</ele>
        <time>2023-08-22T15:15:03Z</time>
      </trkpt>
      <trkpt lat="58.391816988587379" lon="-4.203777993097901">
        <ele>39.549999999999997</ele>
        <time>2023-08-22T15:15:04Z</time>
      </trkpt>
      <trkpt lat="58.391716992482543" lon="-4.203794002532959">
        <ele>39.549999999999997</ele>
        <time>2023-08-22T15:15:05Z</time>
      </trkpt>
      <trkpt lat="58.391616996377707" lon="-4.203848987817764">
        <ele>39.549999999999997</ele>
        <time>2023-08-22T15:15:06Z</time>
      </trkpt>
      <trkpt lat="58.391524963080883" lon="-4.20392400585115">
        <ele>40.030000000000001</ele>
        <time>2023-08-22T15:15:07Z</time>
      </trkpt>
      <trkpt lat="58.391440976411104" lon="-4.204021990299225">
        <ele>40.030000000000001</ele>
        <time>2023-08-22T15:15:08Z</time>
      </trkpt>
      <trkpt lat="58.390900008380413" lon="-4.204687010496855">
        <ele>43.399999999999999</ele>
        <time>2023-08-22T15:15:15Z</time>
      </trkpt>
      <trkpt lat="58.390488959848881" lon="-4.205296039581299">
        <ele>44.840000000000003</ele>
        <time>2023-08-22T15:15:21Z</time>
      </trkpt>
      <trkpt lat="58.390391981229186" lon="-4.205489996820688">
        <ele>44.840000000000003</ele>
        <time>2023-08-22T15:15:23Z</time>
      </trkpt>
      <trkpt lat="58.390341019257903" lon="-4.205593010410667">
        <ele>44.840000000000003</ele>
        <time>2023-08-22T15:15:24Z</time>
      </trkpt>
      <trkpt lat="58.390277987346053" lon="-4.205718990415335">
        <ele>44.359999999999999</ele>
        <time>2023-08-22T15:15:25Z</time>
      </trkpt>
      <trkpt lat="58.390214033424854" lon="-4.20585704036057">
        <ele>44.359999999999999</ele>
        <time>2023-08-22T15:15:26Z</time>
      </trkpt>
      <trkpt lat="58.390144966542721" lon="-4.20603197067976">
        <ele>44.359999999999999</ele>
        <time>2023-08-22T15:15:27Z</time>
      </trkpt>
      <trkpt lat="58.38999099098146" lon="-4.206424998119474">
        <ele>43.880000000000003</ele>
        <time>2023-08-22T15:15:29Z</time>
      </trkpt>
      <trkpt lat="58.389246007427573" lon="-4.208322996273637">
        <ele>40.509999999999998</ele>
        <time>2023-08-22T15:15:37Z</time>
      </trkpt>
      <trkpt lat="58.388432040810585" lon="-4.209602996706963">
        <ele>40.509999999999998</ele>
        <time>2023-08-22T15:15:44Z</time>
      </trkpt>
      <trkpt lat="58.388270018622279" lon="-4.209783961996436">
        <ele>40.030000000000001</ele>
        <time>2023-08-22T15:15:46Z</time>
      </trkpt>
      <trkpt lat="58.388215033337474" lon="-4.209844982251525">
        <ele>40.030000000000001</ele>
        <time>2023-08-22T15:15:47Z</time>
      </trkpt>
      <trkpt lat="58.388178991153836" lon="-4.209996024146676">
        <ele>40.030000000000001</ele>
        <time>2023-08-22T15:15:48Z</time>
      </trkpt>
      <trkpt lat="58.38814202696085" lon="-4.210147988051176">
        <ele>40.030000000000001</ele>
        <time>2023-08-22T15:15:49Z</time>
      </trkpt>
      <trkpt lat="58.388101039454341" lon="-4.210321996361017">
        <ele>40.030000000000001</ele>
        <time>2023-08-22T15:15:50Z</time>
      </trkpt>
      <trkpt lat="58.38805703446269" lon="-4.210506984964013">
        <ele>40.030000000000001</ele>
        <time>2023-08-22T15:15:51Z</time>
      </trkpt>
      <trkpt lat="58.388011017814279" lon="-4.210695996880531">
        <ele>40.509999999999998</ele>
        <time>2023-08-22T15:15:52Z</time>
      </trkpt>
      <trkpt lat="58.387953015044332" lon="-4.210877967998385">
        <ele>40.990000000000002</ele>
        <time>2023-08-22T15:15:53Z</time>
      </trkpt>
      <trkpt lat="58.387871040031314" lon="-4.211024986580014">
        <ele>41.469999999999999</ele>
        <time>2023-08-22T15:15:54Z</time>
      </trkpt>
      <trkpt lat="58.386942995712161" lon="-4.212228041142225">
        <ele>41.950000000000003</ele>
        <time>2023-08-22T15:16:01Z</time>
      </trkpt>
      <trkpt lat="58.385426960885525" lon="-4.214170966297388">
        <ele>39.549999999999997</ele>
        <time>2023-08-22T15:16:12Z</time>
      </trkpt>
      <trkpt lat="58.385165026411414" lon="-4.21438897959888">
        <ele>39.549999999999997</ele>
        <time>2023-08-22T15:16:14Z</time>
      </trkpt>
      <trkpt lat="58.383937999606133" lon="-4.215598991140723">
        <ele>39.549999999999997</ele>
        <time>2023-08-22T15:16:23Z</time>
      </trkpt>
      <trkpt lat="58.383131995797157" lon="-4.21690296381712">
        <ele>38.109999999999999</ele>
        <time>2023-08-22T15:16:30Z</time>
      </trkpt>
      <trkpt lat="58.381705982610583" lon="-4.219084018841386">
        <ele>39.07</ele>
        <time>2023-08-22T15:16:41Z</time>
      </trkpt>
      <trkpt lat="58.38159098289907" lon="-4.219292979687452">
        <ele>39.549999999999997</ele>
        <time>2023-08-22T15:16:42Z</time>
      </trkpt>
      <trkpt lat="58.381487969309092" lon="-4.219552986323834">
        <ele>39.549999999999997</ele>
        <time>2023-08-22T15:16:43Z</time>
      </trkpt>
      <trkpt lat="58.380595967173576" lon="-4.221805036067963">
        <ele>46.280000000000001</ele>
        <time>2023-08-22T15:16:52Z</time>
      </trkpt>
      <trkpt lat="58.379964977502823" lon="-4.223158964887261">
        <ele>47.240000000000002</ele>
        <time>2023-08-22T15:16:58Z</time>
      </trkpt>
      <trkpt lat="58.379824999719858" lon="-4.223301038146019">
        <ele>47.240000000000002</ele>
        <time>2023-08-22T15:16:59Z</time>
      </trkpt>
      <trkpt lat="58.378350958228111" lon="-4.224726967513561">
        <ele>49.159999999999997</ele>
        <time>2023-08-22T15:17:09Z</time>
      </trkpt>
      <trkpt lat="58.376684971153736" lon="-4.226221041753888">
        <ele>49.649999999999999</ele>
        <time>2023-08-22T15:17:20Z</time>
      </trkpt>
      <trkpt lat="58.375921966508031" lon="-4.227112960070372">
        <ele>47.240000000000002</ele>
        <time>2023-08-22T15:17:25Z</time>
      </trkpt>
      <trkpt lat="58.375782994553447" lon="-4.227313036099076">
        <ele>47.240000000000002</ele>
        <time>2023-08-22T15:17:26Z</time>
      </trkpt>
      <trkpt lat="58.375202966853976" lon="-4.228487005457282">
        <ele>48.68</ele>
        <time>2023-08-22T15:17:31Z</time>
      </trkpt>
      <trkpt lat="58.375070029869676" lon="-4.228669982403517">
        <ele>49.159999999999997</ele>
        <time>2023-08-22T15:17:32Z</time>
      </trkpt>
      <trkpt lat="58.374928962439299" lon="-4.228815995156765">
        <ele>49.159999999999997</ele>
        <time>2023-08-22T15:17:33Z</time>
      </trkpt>
      <trkpt lat="58.374775992706418" lon="-4.228915991261601">
        <ele>49.649999999999999</ele>
        <time>2023-08-22T15:17:34Z</time>
      </trkpt>
      <trkpt lat="58.374622017145157" lon="-4.229016993194819">
        <ele>49.649999999999999</ele>
        <time>2023-08-22T15:17:35Z</time>
      </trkpt>
      <trkpt lat="58.374465024098754" lon="-4.229121012613177">
        <ele>49.649999999999999</ele>
        <time>2023-08-22T15:17:36Z</time>
      </trkpt>
      <trkpt lat="58.373181000351906" lon="-4.22996498644352">
        <ele>52.049999999999997</ele>
        <time>2023-08-22T15:17:44Z</time>
      </trkpt>
      <trkpt lat="58.372438028454781" lon="-4.230527998879552">
        <ele>53.490000000000002</ele>
        <time>2023-08-22T15:17:49Z</time>
      </trkpt>
      <trkpt lat="58.372316993772984" lon="-4.23067300580442">
        <ele>53.969999999999999</ele>
        <time>2023-08-22T15:17:50Z</time>
      </trkpt>
      <trkpt lat="58.372210040688515" lon="-4.23086796887219">
        <ele>54.450000000000003</ele>
        <time>2023-08-22T15:17:51Z</time>
      </trkpt>
      <trkpt lat="58.371874010190368" lon="-4.231481021270156">
        <ele>55.890000000000001</ele>
        <time>2023-08-22T15:17:54Z</time>
      </trkpt>
      <trkpt lat="58.371659014374018" lon="-4.231804981827736">
        <ele>57.340000000000003</ele>
        <time>2023-08-22T15:17:56Z</time>
      </trkpt>
      <trkpt lat="58.371534962207079" lon="-4.231940014287829">
        <ele>57.82</ele>
        <time>2023-08-22T15:17:57Z</time>
      </trkpt>
      <trkpt lat="58.371392972767353" lon="-4.232054008170962">
        <ele>58.299999999999997</ele>
        <time>2023-08-22T15:17:58Z</time>
      </trkpt>
      <trkpt lat="58.369996966794133" lon="-4.23316502943635">
        <ele>56.859999999999999</ele>
        <time>2023-08-22T15:18:06Z</time>
      </trkpt>
      <trkpt lat="58.368391999974847" lon="-4.234081003814936">
        <ele>57.82</ele>
        <time>2023-08-22T15:18:15Z</time>
      </trkpt>
      <trkpt lat="58.366759959608316" lon="-4.23430597409606">
        <ele>58.780000000000001</ele>
        <time>2023-08-22T15:18:24Z</time>
      </trkpt>
      <trkpt lat="58.365537039935589" lon="-4.234577966853976">
        <ele>58.299999999999997</ele>
        <time>2023-08-22T15:18:32Z</time>
      </trkpt>
      <trkpt lat="58.364640008658171" lon="-4.23434603959322">
        <ele>60.219999999999999</ele>
        <time>2023-08-22T15:18:40Z</time>
      </trkpt>
      <trkpt lat="58.364312024787068" lon="-4.234312009066343">
        <ele>60.219999999999999</ele>
        <time>2023-08-22T15:18:44Z</time>
      </trkpt>
      <trkpt lat="58.363687992095947" lon="-4.234467996284366">
        <ele>59.259999999999998</ele>
        <time>2023-08-22T15:18:49Z</time>
      </trkpt>
      <trkpt lat="58.363562012091279" lon="-4.23443497158587">
        <ele>58.780000000000001</ele>
        <time>2023-08-22T15:18:50Z</time>
      </trkpt>
      <trkpt lat="58.36343502625823" lon="-4.234366994351149">
        <ele>59.259999999999998</ele>
        <time>2023-08-22T15:18:51Z</time>
      </trkpt>
      <trkpt lat="58.363018026575446" lon="-4.234196003526449">
        <ele>59.740000000000002</ele>
        <time>2023-08-22T15:18:54Z</time>
      </trkpt>
      <trkpt lat="58.362862961366773" lon="-4.234186029061675">
        <ele>59.740000000000002</ele>
        <time>2023-08-22T15:18:55Z</time>
      </trkpt>
      <trkpt lat="58.36096303537488" lon="-4.23443597741425">
        <ele>60.700000000000003</ele>
        <time>2023-08-22T15:19:06Z</time>
      </trkpt>
      <trkpt lat="58.359167966991663" lon="-4.235022962093353">
        <ele>60.700000000000003</ele>
        <time>2023-08-22T15:19:16Z</time>
      </trkpt>
      <trkpt lat="58.359003011137247" lon="-4.235157994553447">
        <ele>60.700000000000003</ele>
        <time>2023-08-22T15:19:17Z</time>
      </trkpt>
      <trkpt lat="58.357523018494248" lon="-4.237115001305938">
        <ele>60.700000000000003</ele>
        <time>2023-08-22T15:19:26Z</time>
      </trkpt>
      <trkpt lat="58.354967040941119" lon="-4.240527022629976">
        <ele>62.619999999999997</ele>
        <time>2023-08-22T15:19:40Z</time>
      </trkpt>
      <trkpt lat="58.352982960641384" lon="-4.243449959903956">
        <ele>63.579999999999998</ele>
        <time>2023-08-22T15:19:52Z</time>
      </trkpt>
      <trkpt lat="58.351304987445474" lon="-4.246330987662077">
        <ele>66.469999999999999</ele>
        <time>2023-08-22T15:20:05Z</time>
      </trkpt>
      <trkpt lat="58.34959901869297" lon="-4.249395998194814">
        <ele>66.950000000000003</ele>
        <time>2023-08-22T15:20:17Z</time>
      </trkpt>
      <trkpt lat="58.349156035110354" lon="-4.25001198425889">
        <ele>69.349999999999994</ele>
        <time>2023-08-22T15:20:20Z</time>
      </trkpt>
      <trkpt lat="58.349012034013867" lon="-4.250151962041855">
        <ele>69.829999999999998</ele>
        <time>2023-08-22T15:20:21Z</time>
      </trkpt>
      <trkpt lat="58.348883958533406" lon="-4.250241983681917">
        <ele>70.790000000000006</ele>
        <time>2023-08-22T15:20:22Z</time>
      </trkpt>
      <trkpt lat="58.348033027723432" lon="-4.250754034146667">
        <ele>73.200000000000003</ele>
        <time>2023-08-22T15:20:29Z</time>
      </trkpt>
      <trkpt lat="58.347001969814301" lon="-4.251167010515928">
        <ele>73.200000000000003</ele>
        <time>2023-08-22T15:20:36Z</time>
      </trkpt>
      <trkpt lat="58.346109967678785" lon="-4.251290978863835">
        <ele>70.310000000000002</ele>
        <time>2023-08-22T15:20:42Z</time>
      </trkpt>
      <trkpt lat="58.344760984182358" lon="-4.251365996897221">
        <ele>66.950000000000003</ele>
        <time>2023-08-22T15:20:50Z</time>
      </trkpt>
      <trkpt lat="58.342542964965105" lon="-4.251675959676504">
        <ele>66.469999999999999</ele>
        <time>2023-08-22T15:21:01Z</time>
      </trkpt>
      <trkpt lat="58.339722035452724" lon="-4.252059012651444">
        <ele>68.390000000000001</ele>
        <time>2023-08-22T15:21:14Z</time>
      </trkpt>
      <trkpt lat="58.337185001000762" lon="-4.25254600122571">
        <ele>73.200000000000003</ele>
        <time>2023-08-22T15:21:26Z</time>
      </trkpt>
      <trkpt lat="58.335496969521046" lon="-4.253035001456738">
        <ele>74.640000000000001</ele>
        <time>2023-08-22T15:21:35Z</time>
      </trkpt>
      <trkpt lat="58.334591975435615" lon="-4.25329701974988">
        <ele>74.159999999999997</ele>
        <time>2023-08-22T15:21:42Z</time>
      </trkpt>
      <trkpt lat="58.3343440387398" lon="-4.253413025289774">
        <ele>74.159999999999997</ele>
        <time>2023-08-22T15:21:44Z</time>
      </trkpt>
      <trkpt lat="58.334227027371526" lon="-4.25346901640296">
        <ele>74.159999999999997</ele>
        <time>2023-08-22T15:21:45Z</time>
      </trkpt>
      <trkpt lat="58.334125019609928" lon="-4.253606982529163">
        <ele>73.680000000000007</ele>
        <time>2023-08-22T15:21:46Z</time>
      </trkpt>
      <trkpt lat="58.334013037383556" lon="-4.253756012767553">
        <ele>73.200000000000003</ele>
        <time>2023-08-22T15:21:47Z</time>
      </trkpt>
      <trkpt lat="58.333895020186901" lon="-4.253916023299098">
        <ele>72.719999999999999</ele>
        <time>2023-08-22T15:21:48Z</time>
      </trkpt>
      <trkpt lat="58.33350601606071" lon="-4.254422038793564">
        <ele>72.239999999999995</ele>
        <time>2023-08-22T15:21:51Z</time>
      </trkpt>
      <trkpt lat="58.331800969317555" lon="-4.256056006997824">
        <ele>73.680000000000007</ele>
        <time>2023-08-22T15:22:02Z</time>
      </trkpt>
      <trkpt lat="58.331028996035457" lon="-4.256838038563728">
        <ele>73.200000000000003</ele>
        <time>2023-08-22T15:22:08Z</time>
      </trkpt>
      <trkpt lat="58.330919025465846" lon="-4.256836026906967">
        <ele>72.719999999999999</ele>
        <time>2023-08-22T15:22:09Z</time>
      </trkpt>
      <trkpt lat="58.330810982733965" lon="-4.256809959188104">
        <ele>71.760000000000005</ele>
        <time>2023-08-22T15:22:10Z</time>
      </trkpt>
      <trkpt lat="58.330704029649496" lon="-4.25675698556006">
        <ele>71.269999999999996</ele>
        <time>2023-08-22T15:22:11Z</time>
      </trkpt>
      <trkpt lat="58.33058500662446" lon="-4.256662018597126">
        <ele>71.269999999999996</ele>
        <time>2023-08-22T15:22:12Z</time>
      </trkpt>
      <trkpt lat="58.329742038622499" lon="-4.256177041679621">
        <ele>70.310000000000002</ele>
        <time>2023-08-22T15:22:18Z</time>
      </trkpt>
      <trkpt lat="58.329602982848883" lon="-4.256204031407833">
        <ele>69.829999999999998</ele>
        <time>2023-08-22T15:22:19Z</time>
      </trkpt>
      <trkpt lat="58.329472979530692" lon="-4.256230015307665">
        <ele>69.829999999999998</ele>
        <time>2023-08-22T15:22:20Z</time>
      </trkpt>
      <trkpt lat="58.329335013404489" lon="-4.256258010864258">
        <ele>69.829999999999998</ele>
        <time>2023-08-22T15:22:21Z</time>
      </trkpt>
      <trkpt lat="58.329229988157749" lon="-4.25630402751267">
        <ele>69.349999999999994</ele>
        <time>2023-08-22T15:22:22Z</time>
      </trkpt>
      <trkpt lat="58.328063981607556" lon="-4.256825968623161">
        <ele>70.310000000000002</ele>
        <time>2023-08-22T15:22:30Z</time>
      </trkpt>
      <trkpt lat="58.32768302410841" lon="-4.257098967209458">
        <ele>70.310000000000002</ele>
        <time>2023-08-22T15:22:33Z</time>
      </trkpt>
      <trkpt lat="58.327308017760515" lon="-4.257417982444167">
        <ele>69.829999999999998</ele>
        <time>2023-08-22T15:22:36Z</time>
      </trkpt>
      <trkpt lat="58.327176002785563" lon="-4.257446983829141">
        <ele>69.829999999999998</ele>
        <time>2023-08-22T15:22:37Z</time>
      </trkpt>
      <trkpt lat="58.327045999467373" lon="-4.257399961352348">
        <ele>69.829999999999998</ele>
        <time>2023-08-22T15:22:38Z</time>
      </trkpt>
      <trkpt lat="58.326907027512789" lon="-4.257347993552685">
        <ele>69.829999999999998</ele>
        <time>2023-08-22T15:22:39Z</time>
      </trkpt>
      <trkpt lat="58.326759003102779" lon="-4.25729401409626">
        <ele>69.829999999999998</ele>
        <time>2023-08-22T15:22:40Z</time>
      </trkpt>
      <trkpt lat="58.325687041506171" lon="-4.256901992484927">
        <ele>70.310000000000002</ele>
        <time>2023-08-22T15:22:47Z</time>
      </trkpt>
      <trkpt lat="58.325527030974627" lon="-4.256931999698281">
        <ele>70.310000000000002</ele>
        <time>2023-08-22T15:22:48Z</time>
      </trkpt>
      <trkpt lat="58.325365008786321" lon="-4.256962006911635">
        <ele>70.310000000000002</ele>
        <time>2023-08-22T15:22:49Z</time>
      </trkpt>
      <trkpt lat="58.323587961494923" lon="-4.257663991302252">
        <ele>73.200000000000003</ele>
        <time>2023-08-22T15:22:59Z</time>
      </trkpt>
      <trkpt lat="58.321988023817539" lon="-4.258558005094528">
        <ele>75.120000000000005</ele>
        <time>2023-08-22T15:23:08Z</time>
      </trkpt>
      <trkpt lat="58.321821978315711" lon="-4.258566973730922">
        <ele>75.120000000000005</ele>
        <time>2023-08-22T15:23:09Z</time>
      </trkpt>
      <trkpt lat="58.321364996954799" lon="-4.258536966517568">
        <ele>74.640000000000001</ele>
        <time>2023-08-22T15:23:12Z</time>
      </trkpt>
      <trkpt lat="58.321215966716409" lon="-4.258601004257798">
        <ele>74.640000000000001</ele>
        <time>2023-08-22T15:23:13Z</time>
      </trkpt>
      <trkpt lat="58.319915011525154" lon="-4.259025966748595">
        <ele>77.040000000000006</ele>
        <time>2023-08-22T15:23:21Z</time>
      </trkpt>
      <trkpt lat="58.318427978083491" lon="-4.260012013837695">
        <ele>79.450000000000003</ele>
        <time>2023-08-22T15:23:30Z</time>
      </trkpt>
      <trkpt lat="58.31677095964551" lon="-4.261865001171827">
        <ele>79.450000000000003</ele>
        <time>2023-08-22T15:23:41Z</time>
      </trkpt>
      <trkpt lat="58.316156985238194" lon="-4.262767983600497">
        <ele>81.370000000000005</ele>
        <time>2023-08-22T15:23:46Z</time>
      </trkpt>
      <trkpt lat="58.316057994961739" lon="-4.263001000508666">
        <ele>81.849999999999994</ele>
        <time>2023-08-22T15:23:47Z</time>
      </trkpt>
      <trkpt lat="58.315850039944053" lon="-4.263484971597791">
        <ele>82.810000000000002</ele>
        <time>2023-08-22T15:23:49Z</time>
      </trkpt>
      <trkpt lat="58.315626997500658" lon="-4.263877999037504">
        <ele>84.25</ele>
        <time>2023-08-22T15:23:51Z</time>
      </trkpt>
      <trkpt lat="58.315546028316021" lon="-4.264086037874222">
        <ele>84.730000000000004</ele>
        <time>2023-08-22T15:23:52Z</time>
      </trkpt>
      <trkpt lat="58.31548098474741" lon="-4.264318970963359">
        <ele>85.209999999999994</ele>
        <time>2023-08-22T15:23:53Z</time>
      </trkpt>
      <trkpt lat="58.315413007512689" lon="-4.264562968164682">
        <ele>85.689999999999998</ele>
        <time>2023-08-22T15:23:54Z</time>
      </trkpt>
      <trkpt lat="58.315338995307684" lon="-4.264808977022767">
        <ele>86.180000000000007</ele>
        <time>2023-08-22T15:23:55Z</time>
      </trkpt>
      <trkpt lat="58.315256014466286" lon="-4.265037970617414">
        <ele>86.659999999999997</ele>
        <time>2023-08-22T15:23:56Z</time>
      </trkpt>
      <trkpt lat="58.315112013369799" lon="-4.265438038855791">
        <ele>88.579999999999998</ele>
        <time>2023-08-22T15:23:58Z</time>
      </trkpt>
      <trkpt lat="58.315056022256613" lon="-4.265652028843761">
        <ele>89.540000000000006</ele>
        <time>2023-08-22T15:23:59Z</time>
      </trkpt>
      <trkpt lat="58.314736001193523" lon="-4.267695033922792">
        <ele>93.390000000000001</ele>
        <time>2023-08-22T15:24:07Z</time>
      </trkpt>
      <trkpt lat="58.314650002866983" lon="-4.271032959222794">
        <ele>94.829999999999998</ele>
        <time>2023-08-22T15:24:17Z</time>
      </trkpt>
      <trkpt lat="58.314689984545112" lon="-4.274158990010619">
        <ele>94.349999999999994</ele>
        <time>2023-08-22T15:24:27Z</time>
      </trkpt>
      <trkpt lat="58.314594011753798" lon="-4.277135990560055">
        <ele>95.310000000000002</ele>
        <time>2023-08-22T15:24:37Z</time>
      </trkpt>
      <trkpt lat="58.314676992595196" lon="-4.279483007267118">
        <ele>92.420000000000002</ele>
        <time>2023-08-22T15:24:45Z</time>
      </trkpt>
      <trkpt lat="58.3146439678967" lon="-4.27976899780333">
        <ele>92.420000000000002</ele>
        <time>2023-08-22T15:24:46Z</time>
      </trkpt>
      <trkpt lat="58.31460096873343" lon="-4.280056999996305">
        <ele>91.939999999999998</ele>
        <time>2023-08-22T15:24:47Z</time>
      </trkpt>
      <trkpt lat="58.31455796957016" lon="-4.280337961390615">
        <ele>91.939999999999998</ele>
        <time>2023-08-22T15:24:48Z</time>
      </trkpt>
      <trkpt lat="58.314517987892032" lon="-4.280604002997279">
        <ele>91.459999999999994</ele>
        <time>2023-08-22T15:24:49Z</time>
      </trkpt>
      <trkpt lat="58.314452022314072" lon="-4.28103600628674">
        <ele>90.5</ele>
        <time>2023-08-22T15:24:51Z</time>
      </trkpt>
      <trkpt lat="58.314426960423589" lon="-4.281200040131807">
        <ele>90.5</ele>
        <time>2023-08-22T15:24:52Z</time>
      </trkpt>
      <trkpt lat="58.31445001065731" lon="-4.281360972672701">
        <ele>90.019999999999996</ele>
        <time>2023-08-22T15:24:53Z</time>
      </trkpt>
      <trkpt lat="58.314489992335439" lon="-4.281543027609587">
        <ele>90.019999999999996</ele>
        <time>2023-08-22T15:24:54Z</time>
      </trkpt>
      <trkpt lat="58.314537014812231" lon="-4.281751988455653">
        <ele>89.060000000000002</ele>
        <time>2023-08-22T15:24:55Z</time>
      </trkpt>
      <trkpt lat="58.314640028402209" lon="-4.28221701644361">
        <ele>88.099999999999994</ele>
        <time>2023-08-22T15:24:57Z</time>
      </trkpt>
      <trkpt lat="58.314743964001536" lon="-4.283158974722028">
        <ele>87.140000000000001</ele>
        <time>2023-08-22T15:25:01Z</time>
      </trkpt>
      <trkpt lat="58.314743964001536" lon="-4.283381011337042">
        <ele>86.659999999999997</ele>
        <time>2023-08-22T15:25:02Z</time>
      </trkpt>
      <trkpt lat="58.314700964838266" lon="-4.283616961911321">
        <ele>86.180000000000007</ele>
        <time>2023-08-22T15:25:03Z</time>
      </trkpt>
      <trkpt lat="58.314645979553461" lon="-4.283782001584768">
        <ele>86.180000000000007</ele>
        <time>2023-08-22T15:25:04Z</time>
      </trkpt>
      <trkpt lat="58.314584959298372" lon="-4.283964978531003">
        <ele>85.689999999999998</ele>
        <time>2023-08-22T15:25:05Z</time>
      </trkpt>
      <trkpt lat="58.314528968185186" lon="-4.284131024032831">
        <ele>85.689999999999998</ele>
        <time>2023-08-22T15:25:06Z</time>
      </trkpt>
      <trkpt lat="58.314465014263988" lon="-4.284324981272221">
        <ele>85.689999999999998</ele>
        <time>2023-08-22T15:25:07Z</time>
      </trkpt>
      <trkpt lat="58.314452022314072" lon="-4.284451967105269">
        <ele>85.689999999999998</ele>
        <time>2023-08-22T15:25:08Z</time>
      </trkpt>
      <trkpt lat="58.314432995393872" lon="-4.284637961536646">
        <ele>85.209999999999994</ele>
        <time>2023-08-22T15:25:09Z</time>
      </trkpt>
      <trkpt lat="58.314369041472673" lon="-4.285265011712909">
        <ele>84.730000000000004</ele>
        <time>2023-08-22T15:25:12Z</time>
      </trkpt>
      <trkpt lat="58.314329981803894" lon="-4.285510014742613">
        <ele>84.25</ele>
        <time>2023-08-22T15:25:13Z</time>
      </trkpt>
      <trkpt lat="58.314011972397566" lon="-4.287625020369887">
        <ele>82.810000000000002</ele>
        <time>2023-08-22T15:25:21Z</time>
      </trkpt>
      <trkpt lat="58.314036028459668" lon="-4.290332961827517">
        <ele>82.329999999999998</ele>
        <time>2023-08-22T15:25:30Z</time>
      </trkpt>
      <trkpt lat="58.314243983477354" lon="-4.293401995673776">
        <ele>82.810000000000002</ele>
        <time>2023-08-22T15:25:40Z</time>
      </trkpt>
      <trkpt lat="58.314475994557142" lon="-4.295209972187877">
        <ele>83.290000000000006</ele>
        <time>2023-08-22T15:25:47Z</time>
      </trkpt>
      <trkpt lat="58.314892994239926" lon="-4.297776008024812">
        <ele>85.209999999999994</ele>
        <time>2023-08-22T15:25:57Z</time>
      </trkpt>
      <trkpt lat="58.314998019486666" lon="-4.298333991318941">
        <ele>85.689999999999998</ele>
        <time>2023-08-22T15:25:59Z</time>
      </trkpt>
      <trkpt lat="58.315016040578485" lon="-4.298617970198393">
        <ele>85.209999999999994</ele>
        <time>2023-08-22T15:26:00Z</time>
      </trkpt>
      <trkpt lat="58.315001958981156" lon="-4.298902032896876">
        <ele>85.209999999999994</ele>
        <time>2023-08-22T15:26:01Z</time>
      </trkpt>
      <trkpt lat="58.31498896703124" lon="-4.299185005947948">
        <ele>85.209999999999994</ele>
        <time>2023-08-22T15:26:02Z</time>
      </trkpt>
      <trkpt lat="58.314975975081325" lon="-4.299461022019386">
        <ele>85.209999999999994</ele>
        <time>2023-08-22T15:26:03Z</time>
      </trkpt>
      <trkpt lat="58.314962983131409" lon="-4.299734020605683">
        <ele>85.209999999999994</ele>
        <time>2023-08-22T15:26:04Z</time>
      </trkpt>
      <trkpt lat="58.314915038645267" lon="-4.301865035668016">
        <ele>85.689999999999998</ele>
        <time>2023-08-22T15:26:11Z</time>
      </trkpt>
      <trkpt lat="58.314991984516382" lon="-4.303004974499345">
        <ele>85.689999999999998</ele>
        <time>2023-08-22T15:26:15Z</time>
      </trkpt>
      <trkpt lat="58.31498603336513" lon="-4.303285013884306">
        <ele>85.209999999999994</ele>
        <time>2023-08-22T15:26:16Z</time>
      </trkpt>
      <trkpt lat="58.314959965646267" lon="-4.303548960015178">
        <ele>85.209999999999994</ele>
        <time>2023-08-22T15:26:17Z</time>
      </trkpt>
      <trkpt lat="58.314898023381829" lon="-4.30419503711164">
        <ele>86.659999999999997</ele>
        <time>2023-08-22T15:26:20Z</time>
      </trkpt>
      <trkpt lat="58.314907997846603" lon="-4.304325962439179">
        <ele>87.140000000000001</ele>
        <time>2023-08-22T15:26:21Z</time>
      </trkpt>
      <trkpt lat="58.314946973696351" lon="-4.304572977125645">
        <ele>88.579999999999998</ele>
        <time>2023-08-22T15:26:27Z</time>
      </trkpt>
      <trkpt lat="58.314946973696351" lon="-4.304572977125645">
        <ele>88.579999999999998</ele>
        <time>2023-08-22T15:27:01Z</time>
      </trkpt>
      <trkpt lat="58.314960971474648" lon="-4.304653024300933">
        <ele>88.099999999999994</ele>
        <time>2023-08-22T15:27:19Z</time>
      </trkpt>
      <trkpt lat="58.315045963972807" lon="-4.304908001795411">
        <ele>88.099999999999994</ele>
        <time>2023-08-22T15:27:22Z</time>
      </trkpt>
      <trkpt lat="58.315087035298347" lon="-4.305030964314938">
        <ele>88.099999999999994</ele>
        <time>2023-08-22T15:27:23Z</time>
      </trkpt>
      <trkpt lat="58.315130034461617" lon="-4.305164990946651">
        <ele>88.099999999999994</ele>
        <time>2023-08-22T15:27:24Z</time>
      </trkpt>
      <trkpt lat="58.31513799726963" lon="-4.305333970114589">
        <ele>88.579999999999998</ele>
        <time>2023-08-22T15:27:25Z</time>
      </trkpt>
      <trkpt lat="58.315146965906024" lon="-4.305525999516249">
        <ele>89.060000000000002</ele>
        <time>2023-08-22T15:27:26Z</time>
      </trkpt>
      <trkpt lat="58.315140008926392" lon="-4.305735966190696">
        <ele>89.540000000000006</ele>
        <time>2023-08-22T15:27:27Z</time>
      </trkpt>
      <trkpt lat="58.315120982006192" lon="-4.305949034169316">
        <ele>89.540000000000006</ele>
        <time>2023-08-22T15:27:28Z</time>
      </trkpt>
      <trkpt lat="58.314931970089674" lon="-4.307648967951536">
        <ele>92.420000000000002</ele>
        <time>2023-08-22T15:27:35Z</time>
      </trkpt>
      <trkpt lat="58.314915038645267" lon="-4.307919032871723">
        <ele>92.900000000000006</ele>
        <time>2023-08-22T15:27:36Z</time>
      </trkpt>
      <trkpt lat="58.314831973984838" lon="-4.310324974358082">
        <ele>96.269999999999996</ele>
        <time>2023-08-22T15:27:44Z</time>
      </trkpt>
      <trkpt lat="58.314844965934753" lon="-4.310856973752379">
        <ele>97.230000000000004</ele>
        <time>2023-08-22T15:27:46Z</time>
      </trkpt>
      <trkpt lat="58.31485603004694" lon="-4.311129972338677">
        <ele>97.709999999999994</ele>
        <time>2023-08-22T15:27:47Z</time>
      </trkpt>
      <trkpt lat="58.314885031431913" lon="-4.311402970924974">
        <ele>98.189999999999998</ele>
        <time>2023-08-22T15:27:48Z</time>
      </trkpt>
      <trkpt lat="58.314973963424563" lon="-4.312239987775683">
        <ele>99.629999999999995</ele>
        <time>2023-08-22T15:27:51Z</time>
      </trkpt>
      <trkpt lat="58.315000031143427" lon="-4.312526984140277">
        <ele>99.629999999999995</ele>
        <time>2023-08-22T15:27:52Z</time>
      </trkpt>
      <trkpt lat="58.314991984516382" lon="-4.312825966626406">
        <ele>99.629999999999995</ele>
        <time>2023-08-22T15:27:53Z</time>
      </trkpt>
      <trkpt lat="58.314958037808537" lon="-4.316296996548772">
        <ele>101.56</ele>
        <time>2023-08-22T15:28:04Z</time>
      </trkpt>
      <trkpt lat="58.314996007829905" lon="-4.316588016226888">
        <ele>102.04000000000001</ele>
        <time>2023-08-22T15:28:05Z</time>
      </trkpt>
      <trkpt lat="58.315207986161113" lon="-4.318477967754006">
        <ele>103</ele>
        <time>2023-08-22T15:28:12Z</time>
      </trkpt>
      <trkpt lat="58.315216032788157" lon="-4.318701010197401">
        <ele>103</ele>
        <time>2023-08-22T15:28:13Z</time>
      </trkpt>
      <trkpt lat="58.315177978947759" lon="-4.319446999579668">
        <ele>103</ele>
        <time>2023-08-22T15:28:16Z</time>
      </trkpt>
      <trkpt lat="58.3152000233531" lon="-4.319713963195682">
        <ele>103</ele>
        <time>2023-08-22T15:28:17Z</time>
      </trkpt>
      <trkpt lat="58.315245034173131" lon="-4.319971036165953">
        <ele>103</ele>
        <time>2023-08-22T15:28:18Z</time>
      </trkpt>
      <trkpt lat="58.315289039164782" lon="-4.320228025317192">
        <ele>102.52</ele>
        <time>2023-08-22T15:28:19Z</time>
      </trkpt>
      <trkpt lat="58.315333966165781" lon="-4.32048199698329">
        <ele>102.04000000000001</ele>
        <time>2023-08-22T15:28:20Z</time>
      </trkpt>
      <trkpt lat="58.315430022776127" lon="-4.321208037436009">
        <ele>102.52</ele>
        <time>2023-08-22T15:28:23Z</time>
      </trkpt>
      <trkpt lat="58.315430022776127" lon="-4.321458991616964">
        <ele>102.52</ele>
        <time>2023-08-22T15:28:24Z</time>
      </trkpt>
      <trkpt lat="58.315430022776127" lon="-4.322389969602227">
        <ele>102.04000000000001</ele>
        <time>2023-08-22T15:28:28Z</time>
      </trkpt>
      <trkpt lat="58.315401021391153" lon="-4.32258602231741">
        <ele>102.52</ele>
        <time>2023-08-22T15:28:29Z</time>
      </trkpt>
      <trkpt lat="58.315342012792826" lon="-4.322763970121741">
        <ele>102.52</ele>
        <time>2023-08-22T15:28:30Z</time>
      </trkpt>
      <trkpt lat="58.3150290325284" lon="-4.323700983077288">
        <ele>102.52</ele>
        <time>2023-08-22T15:28:35Z</time>
      </trkpt>
      <trkpt lat="58.314999025315046" lon="-4.323914973065257">
        <ele>102.04000000000001</ele>
        <time>2023-08-22T15:28:36Z</time>
      </trkpt>
      <trkpt lat="58.314676992595196" lon="-4.325775001198053">
        <ele>103</ele>
        <time>2023-08-22T15:28:43Z</time>
      </trkpt>
      <trkpt lat="58.314550006762147" lon="-4.326285040006042">
        <ele>103</ele>
        <time>2023-08-22T15:28:45Z</time>
      </trkpt>
      <trkpt lat="58.314473982900381" lon="-4.326523002237082">
        <ele>103</ele>
        <time>2023-08-22T15:28:46Z</time>
      </trkpt>
      <trkpt lat="58.314378010109067" lon="-4.326739003881812">
        <ele>103.48</ele>
        <time>2023-08-22T15:28:47Z</time>
      </trkpt>
      <trkpt lat="58.313416019082069" lon="-4.328598026186228">
        <ele>103.48</ele>
        <time>2023-08-22T15:28:56Z</time>
      </trkpt>
      <trkpt lat="58.312484035268426" lon="-4.330724012106657">
        <ele>99.150000000000006</ele>
        <time>2023-08-22T15:29:05Z</time>
      </trkpt>
      <trkpt lat="58.312136018648744" lon="-4.331518029794097">
        <ele>98.670000000000002</ele>
        <time>2023-08-22T15:29:09Z</time>
      </trkpt>
      <trkpt lat="58.312082961201668" lon="-4.331638980656862">
        <ele>98.670000000000002</ele>
        <time>2023-08-22T15:29:10Z</time>
      </trkpt>
      <trkpt lat="58.312061000615358" lon="-4.331867974251509">
        <ele>98.670000000000002</ele>
        <time>2023-08-22T15:29:11Z</time>
      </trkpt>
      <trkpt lat="58.31204297952354" lon="-4.332066038623452">
        <ele>99.150000000000006</ele>
        <time>2023-08-22T15:29:12Z</time>
      </trkpt>
      <trkpt lat="58.312022024765611" lon="-4.332285979762673">
        <ele>99.150000000000006</ele>
        <time>2023-08-22T15:29:13Z</time>
      </trkpt>
      <trkpt lat="58.311781967058778" lon="-4.334316998720169">
        <ele>96.75</ele>
        <time>2023-08-22T15:29:20Z</time>
      </trkpt>
      <trkpt lat="58.311320040374994" lon="-4.336185995489359">
        <ele>96.269999999999996</ele>
        <time>2023-08-22T15:29:27Z</time>
      </trkpt>
      <trkpt lat="58.311251979321241" lon="-4.336362015455961">
        <ele>95.790000000000006</ele>
        <time>2023-08-22T15:29:28Z</time>
      </trkpt>
      <trkpt lat="58.311180984601378" lon="-4.336498975753784">
        <ele>94.829999999999998</ele>
        <time>2023-08-22T15:29:29Z</time>
      </trkpt>
      <trkpt lat="58.311081994324923" lon="-4.336549015715718">
        <ele>94.349999999999994</ele>
        <time>2023-08-22T15:29:30Z</time>
      </trkpt>
      <trkpt lat="58.31099197268486" lon="-4.336567958816886">
        <ele>93.390000000000001</ele>
        <time>2023-08-22T15:29:31Z</time>
      </trkpt>
      <trkpt lat="58.31090203486383" lon="-4.33655396103859">
        <ele>92.900000000000006</ele>
        <time>2023-08-22T15:29:32Z</time>
      </trkpt>
      <trkpt lat="58.310820981860161" lon="-4.336541974917054">
        <ele>92.420000000000002</ele>
        <time>2023-08-22T15:29:33Z</time>
      </trkpt>
      <trkpt lat="58.310738001018763" lon="-4.336549015715718">
        <ele>92.420000000000002</ele>
        <time>2023-08-22T15:29:34Z</time>
      </trkpt>
      <trkpt lat="58.310670023784041" lon="-4.336630990728736">
        <ele>91.939999999999998</ele>
        <time>2023-08-22T15:29:35Z</time>
      </trkpt>
      <trkpt lat="58.310621995478868" lon="-4.336763005703688">
        <ele>91.459999999999994</ele>
        <time>2023-08-22T15:29:36Z</time>
      </trkpt>
      <trkpt lat="58.310585031285882" lon="-4.336930979043245">
        <ele>91.459999999999994</ele>
        <time>2023-08-22T15:29:37Z</time>
      </trkpt>
      <trkpt lat="58.310558963567019" lon="-4.337109010666609">
        <ele>90.980000000000004</ele>
        <time>2023-08-22T15:29:38Z</time>
      </trkpt>
      <trkpt lat="58.310558963567019" lon="-4.337313026189804">
        <ele>90.980000000000004</ele>
        <time>2023-08-22T15:29:39Z</time>
      </trkpt>
      <trkpt lat="58.310558963567019" lon="-4.337537996470928">
        <ele>90.980000000000004</ele>
        <time>2023-08-22T15:29:40Z</time>
      </trkpt>
      <trkpt lat="58.310567010194063" lon="-4.337790962308645">
        <ele>90.980000000000004</ele>
        <time>2023-08-22T15:29:41Z</time>
      </trkpt>
      <trkpt lat="58.310577990487218" lon="-4.338053986430168">
        <ele>90.5</ele>
        <time>2023-08-22T15:29:42Z</time>
      </trkpt>
      <trkpt lat="58.31058100797236" lon="-4.338306030258536">
        <ele>90.5</ele>
        <time>2023-08-22T15:29:43Z</time>
      </trkpt>
      <trkpt lat="58.310559969395399" lon="-4.338557990267873">
        <ele>90.5</ele>
        <time>2023-08-22T15:29:44Z</time>
      </trkpt>
      <trkpt lat="58.310508001595736" lon="-4.338795030489564">
        <ele>90.5</ele>
        <time>2023-08-22T15:29:45Z</time>
      </trkpt>
      <trkpt lat="58.31045301631093" lon="-4.3390469904989">
        <ele>90.980000000000004</ele>
        <time>2023-08-22T15:29:46Z</time>
      </trkpt>
      <trkpt lat="58.309751031920314" lon="-4.341187980026007">
        <ele>90.980000000000004</ele>
        <time>2023-08-22T15:29:55Z</time>
      </trkpt>
      <trkpt lat="58.309495970606804" lon="-4.34209599159658">
        <ele>90.019999999999996</ele>
        <time>2023-08-22T15:30:01Z</time>
      </trkpt>
      <trkpt lat="58.309407960623503" lon="-4.342426992952824">
        <ele>89.540000000000006</ele>
        <time>2023-08-22T15:30:06Z</time>
      </trkpt>
      <trkpt lat="58.309019040316343" lon="-4.343442963436246">
        <ele>89.060000000000002</ele>
        <time>2023-08-22T15:30:12Z</time>
      </trkpt>
      <trkpt lat="58.308460973203182" lon="-4.344699997454882">
        <ele>88.099999999999994</ele>
        <time>2023-08-22T15:30:18Z</time>
      </trkpt>
      <trkpt lat="58.308413028717041" lon="-4.344925973564386">
        <ele>88.099999999999994</ele>
        <time>2023-08-22T15:30:19Z</time>
      </trkpt>
      <trkpt lat="58.308127960190177" lon="-4.346645018085837">
        <ele>88.579999999999998</ele>
        <time>2023-08-22T15:30:26Z</time>
      </trkpt>
      <trkpt lat="58.308074986562133" lon="-4.346856996417046">
        <ele>88.579999999999998</ele>
        <time>2023-08-22T15:30:27Z</time>
      </trkpt>
      <trkpt lat="58.308007009327412" lon="-4.347047014161944">
        <ele>88.579999999999998</ele>
        <time>2023-08-22T15:30:28Z</time>
      </trkpt>
      <trkpt lat="58.307920005172491" lon="-4.347226973623037">
        <ele>88.099999999999994</ele>
        <time>2023-08-22T15:30:29Z</time>
      </trkpt>
      <trkpt lat="58.307827971875668" lon="-4.347417997196317">
        <ele>88.099999999999994</ele>
        <time>2023-08-22T15:30:30Z</time>
      </trkpt>
      <trkpt lat="58.30772303044796" lon="-4.347594017162919">
        <ele>87.620000000000005</ele>
        <time>2023-08-22T15:30:31Z</time>
      </trkpt>
      <trkpt lat="58.307597972452641" lon="-4.347741035744548">
        <ele>87.140000000000001</ele>
        <time>2023-08-22T15:30:32Z</time>
      </trkpt>
      <trkpt lat="58.307466963306069" lon="-4.34789601713419">
        <ele>87.140000000000001</ele>
        <time>2023-08-22T15:30:33Z</time>
      </trkpt>
      <trkpt lat="58.30733897164464" lon="-4.348046975210309">
        <ele>86.659999999999997</ele>
        <time>2023-08-22T15:30:34Z</time>
      </trkpt>
      <trkpt lat="58.307218020781875" lon="-4.348188964650035">
        <ele>86.180000000000007</ele>
        <time>2023-08-22T15:30:35Z</time>
      </trkpt>
      <trkpt lat="58.307110983878374" lon="-4.34834998100996">
        <ele>85.689999999999998</ele>
        <time>2023-08-22T15:30:36Z</time>
      </trkpt>
      <trkpt lat="58.307007970288396" lon="-4.348533963784576">
        <ele>85.209999999999994</ele>
        <time>2023-08-22T15:30:37Z</time>
      </trkpt>
      <trkpt lat="58.306115968152881" lon="-4.350491976365447">
        <ele>82.329999999999998</ele>
        <time>2023-08-22T15:30:45Z</time>
      </trkpt>
      <trkpt lat="58.304964965209365" lon="-4.35277596116066">
        <ele>80.409999999999997</ele>
        <time>2023-08-22T15:30:54Z</time>
      </trkpt>
      <trkpt lat="58.30475801602006" lon="-4.35316001996398">
        <ele>79.930000000000007</ele>
        <time>2023-08-22T15:30:56Z</time>
      </trkpt>
      <trkpt lat="58.304688027128577" lon="-4.353373004123569">
        <ele>79.450000000000003</ele>
        <time>2023-08-22T15:30:57Z</time>
      </trkpt>
      <trkpt lat="58.304634969681501" lon="-4.353596968576312">
        <ele>78.969999999999999</ele>
        <time>2023-08-22T15:30:58Z</time>
      </trkpt>
      <trkpt lat="58.304538996890187" lon="-4.354003993794322">
        <ele>78</ele>
        <time>2023-08-22T15:31:00Z</time>
      </trkpt>
      <trkpt lat="58.304466996341944" lon="-4.354166015982628">
        <ele>77.519999999999996</ele>
        <time>2023-08-22T15:31:01Z</time>
      </trkpt>
      <trkpt lat="58.304384015500546" lon="-4.354330971837044">
        <ele>77.040000000000006</ele>
        <time>2023-08-22T15:31:02Z</time>
      </trkpt>
      <trkpt lat="58.304281001910567" lon="-4.354484025388956">
        <ele>77.040000000000006</ele>
        <time>2023-08-22T15:31:03Z</time>
      </trkpt>
      <trkpt lat="58.304158039391041" lon="-4.35464202426374">
        <ele>76.560000000000002</ele>
        <time>2023-08-22T15:31:04Z</time>
      </trkpt>
      <trkpt lat="58.303842963650823" lon="-4.355048965662718">
        <ele>76.079999999999998</ele>
        <time>2023-08-22T15:31:07Z</time>
      </trkpt>
      <trkpt lat="58.303721006959677" lon="-4.355048965662718">
        <ele>75.599999999999994</ele>
        <time>2023-08-22T15:31:08Z</time>
      </trkpt>
      <trkpt lat="58.303618999198079" lon="-4.355048965662718">
        <ele>75.599999999999994</ele>
        <time>2023-08-22T15:31:09Z</time>
      </trkpt>
      <trkpt lat="58.303523026406765" lon="-4.355048965662718">
        <ele>75.599999999999994</ele>
        <time>2023-08-22T15:31:10Z</time>
      </trkpt>
      <trkpt lat="58.303435016423464" lon="-4.355048965662718">
        <ele>76.079999999999998</ele>
        <time>2023-08-22T15:31:11Z</time>
      </trkpt>
      <trkpt lat="58.30336201004684" lon="-4.355079978704453">
        <ele>76.079999999999998</ele>
        <time>2023-08-22T15:31:12Z</time>
      </trkpt>
      <trkpt lat="58.303293026983738" lon="-4.355148961767554">
        <ele>75.599999999999994</ele>
        <time>2023-08-22T15:31:13Z</time>
      </trkpt>
      <trkpt lat="58.30323301255703" lon="-4.355257004499435">
        <ele>75.599999999999994</ele>
        <time>2023-08-22T15:31:14Z</time>
      </trkpt>
      <trkpt lat="58.303199987858534" lon="-4.355448028072715">
        <ele>75.599999999999994</ele>
        <time>2023-08-22T15:31:15Z</time>
      </trkpt>
      <trkpt lat="58.303162017837167" lon="-4.355670986697078">
        <ele>76.079999999999998</ele>
        <time>2023-08-22T15:31:16Z</time>
      </trkpt>
      <trkpt lat="58.302839985117316" lon="-4.357217028737068">
        <ele>76.079999999999998</ele>
        <time>2023-08-22T15:31:22Z</time>
      </trkpt>
      <trkpt lat="58.302752980962396" lon="-4.357436969876289">
        <ele>76.079999999999998</ele>
        <time>2023-08-22T15:31:23Z</time>
      </trkpt>
      <trkpt lat="58.302592970430851" lon="-4.357842989265919">
        <ele>75.599999999999994</ele>
        <time>2023-08-22T15:31:25Z</time>
      </trkpt>
      <trkpt lat="58.30250596627593" lon="-4.357939967885613">
        <ele>75.120000000000005</ele>
        <time>2023-08-22T15:31:26Z</time>
      </trkpt>
      <trkpt lat="58.302412005141377" lon="-4.35801699757576">
        <ele>75.120000000000005</ele>
        <time>2023-08-22T15:31:27Z</time>
      </trkpt>
      <trkpt lat="58.302338998764753" lon="-4.358073994517326">
        <ele>74.640000000000001</ele>
        <time>2023-08-22T15:31:28Z</time>
      </trkpt>
      <trkpt lat="58.302236991003156" lon="-4.358042981475592">
        <ele>74.640000000000001</ele>
        <time>2023-08-22T15:31:29Z</time>
      </trkpt>
      <trkpt lat="58.302127020433545" lon="-4.358010040596128">
        <ele>74.640000000000001</ele>
        <time>2023-08-22T15:31:30Z</time>
      </trkpt>
      <trkpt lat="58.302012020722032" lon="-4.357939967885613">
        <ele>74.640000000000001</ele>
        <time>2023-08-22T15:31:31Z</time>
      </trkpt>
      <trkpt lat="58.30190297216177" lon="-4.357874002307653">
        <ele>74.640000000000001</ele>
        <time>2023-08-22T15:31:32Z</time>
      </trkpt>
      <trkpt lat="58.301809011027217" lon="-4.357815999537706">
        <ele>74.640000000000001</ele>
        <time>2023-08-22T15:31:33Z</time>
      </trkpt>
      <trkpt lat="58.301717983558774" lon="-4.357783980667591">
        <ele>75.120000000000005</ele>
        <time>2023-08-22T15:31:34Z</time>
      </trkpt>
      <trkpt lat="58.301637014374137" lon="-4.357819017022848">
        <ele>75.120000000000005</ele>
        <time>2023-08-22T15:31:35Z</time>
      </trkpt>
      <trkpt lat="58.301569037139416" lon="-4.357900992035866">
        <ele>75.120000000000005</ele>
        <time>2023-08-22T15:31:36Z</time>
      </trkpt>
      <trkpt lat="58.301521008834243" lon="-4.358044993132353">
        <ele>75.599999999999994</ele>
        <time>2023-08-22T15:31:37Z</time>
      </trkpt>
      <trkpt lat="58.301500976085663" lon="-4.358238028362393">
        <ele>75.599999999999994</ele>
        <time>2023-08-22T15:31:38Z</time>
      </trkpt>
      <trkpt lat="58.301495024934411" lon="-4.358453024178743">
        <ele>75.599999999999994</ele>
        <time>2023-08-22T15:31:39Z</time>
      </trkpt>
      <trkpt lat="58.301488989964128" lon="-4.358680006116629">
        <ele>75.599999999999994</ele>
        <time>2023-08-22T15:31:40Z</time>
      </trkpt>
      <trkpt lat="58.301483960822225" lon="-4.358896007761359">
        <ele>75.599999999999994</ele>
        <time>2023-08-22T15:31:41Z</time>
      </trkpt>
      <trkpt lat="58.301426963880658" lon="-4.3590700160712">
        <ele>76.079999999999998</ele>
        <time>2023-08-22T15:31:42Z</time>
      </trkpt>
      <trkpt lat="58.301359992474318" lon="-4.359235977753997">
        <ele>76.560000000000002</ele>
        <time>2023-08-22T15:31:43Z</time>
      </trkpt>
      <trkpt lat="58.301287991926074" lon="-4.359410991892219">
        <ele>77.040000000000006</ele>
        <time>2023-08-22T15:31:44Z</time>
      </trkpt>
      <trkpt lat="58.301208028569818" lon="-4.35960796661675">
        <ele>77.040000000000006</ele>
        <time>2023-08-22T15:31:45Z</time>
      </trkpt>
      <trkpt lat="58.301124963909388" lon="-4.359810976311564">
        <ele>77.040000000000006</ele>
        <time>2023-08-22T15:31:46Z</time>
      </trkpt>
      <trkpt lat="58.301048018038273" lon="-4.359999988228083">
        <ele>77.519999999999996</ele>
        <time>2023-08-22T15:31:47Z</time>
      </trkpt>
      <trkpt lat="58.300953973084688" lon="-4.360109036788344">
        <ele>77.519999999999996</ele>
        <time>2023-08-22T15:31:48Z</time>
      </trkpt>
      <trkpt lat="58.300852971151471" lon="-4.360139966011047">
        <ele>77.519999999999996</ele>
        <time>2023-08-22T15:31:49Z</time>
      </trkpt>
      <trkpt lat="58.300732020288706" lon="-4.360178019851446">
        <ele>77.519999999999996</ele>
        <time>2023-08-22T15:31:50Z</time>
      </trkpt>
      <trkpt lat="58.300635041669011" lon="-4.360163016244769">
        <ele>78</ele>
        <time>2023-08-22T15:31:51Z</time>
      </trkpt>
      <trkpt lat="58.300524987280369" lon="-4.360146000981331">
        <ele>78.480000000000004</ele>
        <time>2023-08-22T15:31:52Z</time>
      </trkpt>
      <trkpt lat="58.300423985347152" lon="-4.360177014023066">
        <ele>78.969999999999999</ele>
        <time>2023-08-22T15:31:53Z</time>
      </trkpt>
      <trkpt lat="58.300341004505754" lon="-4.36029695905745">
        <ele>78.969999999999999</ele>
        <time>2023-08-22T15:31:54Z</time>
      </trkpt>
      <trkpt lat="58.300260035321116" lon="-4.360414976254106">
        <ele>79.450000000000003</ele>
        <time>2023-08-22T15:31:55Z</time>
      </trkpt>
      <trkpt lat="58.300212007015944" lon="-4.360554032027721">
        <ele>79.450000000000003</ele>
        <time>2023-08-22T15:31:56Z</time>
      </trkpt>
      <trkpt lat="58.300199015066028" lon="-4.360763998702169">
        <ele>79.450000000000003</ele>
        <time>2023-08-22T15:31:57Z</time>
      </trkpt>
      <trkpt lat="58.300185017287731" lon="-4.360990980640054">
        <ele>79.450000000000003</ele>
        <time>2023-08-22T15:31:58Z</time>
      </trkpt>
      <trkpt lat="58.300171019509435" lon="-4.361222991719842">
        <ele>79.930000000000007</ele>
        <time>2023-08-22T15:31:59Z</time>
      </trkpt>
      <trkpt lat="58.300158027559519" lon="-4.361441005021334">
        <ele>79.930000000000007</ele>
        <time>2023-08-22T15:32:00Z</time>
      </trkpt>
      <trkpt lat="58.300123997032642" lon="-4.361628005281091">
        <ele>80.409999999999997</ele>
        <time>2023-08-22T15:32:01Z</time>
      </trkpt>
      <trkpt lat="58.30007404088974" lon="-4.361805031076074">
        <ele>80.409999999999997</ele>
        <time>2023-08-22T15:32:02Z</time>
      </trkpt>
      <trkpt lat="58.300013020634651" lon="-4.361988008022308">
        <ele>80.890000000000001</ele>
        <time>2023-08-22T15:32:03Z</time>
      </trkpt>
      <trkpt lat="58.299919981509447" lon="-4.362061014398933">
        <ele>81.370000000000005</ele>
        <time>2023-08-22T15:32:04Z</time>
      </trkpt>
      <trkpt lat="58.299830965697765" lon="-4.362129997462034">
        <ele>81.370000000000005</ele>
        <time>2023-08-22T15:32:05Z</time>
      </trkpt>
      <trkpt lat="58.299743039533496" lon="-4.36207601800561">
        <ele>81.370000000000005</ele>
        <time>2023-08-22T15:32:06Z</time>
      </trkpt>
      <trkpt lat="58.299652012065053" lon="-4.362020026892424">
        <ele>81.370000000000005</ele>
        <time>2023-08-22T15:32:07Z</time>
      </trkpt>
      <trkpt lat="58.299561990424991" lon="-4.361965041607618">
        <ele>81.370000000000005</ele>
        <time>2023-08-22T15:32:08Z</time>
      </trkpt>
      <trkpt lat="58.299472974613309" lon="-4.361959006637335">
        <ele>81.370000000000005</ele>
        <time>2023-08-22T15:32:09Z</time>
      </trkpt>
      <trkpt lat="58.299385970458388" lon="-4.361959006637335">
        <ele>81.370000000000005</ele>
        <time>2023-08-22T15:32:10Z</time>
      </trkpt>
      <trkpt lat="58.299303995445371" lon="-4.361995970830321">
        <ele>80.890000000000001</ele>
        <time>2023-08-22T15:32:11Z</time>
      </trkpt>
      <trkpt lat="58.299208022654057" lon="-4.362102001905441">
        <ele>80.890000000000001</ele>
        <time>2023-08-22T15:32:12Z</time>
      </trkpt>
      <trkpt lat="58.299109032377601" lon="-4.362232005223632">
        <ele>80.409999999999997</ele>
        <time>2023-08-22T15:32:13Z</time>
      </trkpt>
      <trkpt lat="58.299011969938874" lon="-4.362393021583557">
        <ele>79.930000000000007</ele>
        <time>2023-08-22T15:32:14Z</time>
      </trkpt>
      <trkpt lat="58.298929994925857" lon="-4.362582033500075">
        <ele>79.450000000000003</ele>
        <time>2023-08-22T15:32:15Z</time>
      </trkpt>
      <trkpt lat="58.298865035176277" lon="-4.362843967974186">
        <ele>78.969999999999999</ele>
        <time>2023-08-22T15:32:16Z</time>
      </trkpt>
      <trkpt lat="58.298796974122524" lon="-4.363124007359147">
        <ele>78.480000000000004</ele>
        <time>2023-08-22T15:32:17Z</time>
      </trkpt>
      <trkpt lat="58.2981610391289" lon="-4.365897998213768">
        <ele>76.560000000000002</ele>
        <time>2023-08-22T15:32:27Z</time>
      </trkpt>
      <trkpt lat="58.298130026087165" lon="-4.366173008456826">
        <ele>76.079999999999998</ele>
        <time>2023-08-22T15:32:28Z</time>
      </trkpt>
      <trkpt lat="58.298095995560288" lon="-4.3664610106498">
        <ele>76.079999999999998</ele>
        <time>2023-08-22T15:32:29Z</time>
      </trkpt>
      <trkpt lat="58.298057019710541" lon="-4.366751024499536">
        <ele>76.560000000000002</ele>
        <time>2023-08-22T15:32:30Z</time>
      </trkpt>
      <trkpt lat="58.298004968091846" lon="-4.367015976458788">
        <ele>76.560000000000002</ele>
        <time>2023-08-22T15:32:31Z</time>
      </trkpt>
      <trkpt lat="58.297908995300531" lon="-4.367506988346577">
        <ele>77.519999999999996</ele>
        <time>2023-08-22T15:32:33Z</time>
      </trkpt>
      <trkpt lat="58.297867001965642" lon="-4.36777101829648">
        <ele>77.519999999999996</ele>
        <time>2023-08-22T15:32:34Z</time>
      </trkpt>
      <trkpt lat="58.297802964225411" lon="-4.368358002975583">
        <ele>78</ele>
        <time>2023-08-22T15:32:36Z</time>
      </trkpt>
      <trkpt lat="58.297759965062141" lon="-4.368612980470061">
        <ele>78</ele>
        <time>2023-08-22T15:32:37Z</time>
      </trkpt>
      <trkpt lat="58.297643959522247" lon="-4.369172975420952">
        <ele>79.930000000000007</ele>
        <time>2023-08-22T15:32:42Z</time>
      </trkpt>
      <trkpt lat="58.297455031424761" lon="-4.370181988924742">
        <ele>82.329999999999998</ele>
        <time>2023-08-22T15:32:52Z</time>
      </trkpt>
      <trkpt lat="58.297434998676181" lon="-4.370408970862627">
        <ele>82.810000000000002</ele>
        <time>2023-08-22T15:32:53Z</time>
      </trkpt>
      <trkpt lat="58.297444973140955" lon="-4.371240958571434">
        <ele>82.810000000000002</ele>
        <time>2023-08-22T15:32:56Z</time>
      </trkpt>
      <trkpt lat="58.297423012554646" lon="-4.371522003784776">
        <ele>83.290000000000006</ele>
        <time>2023-08-22T15:32:57Z</time>
      </trkpt>
      <trkpt lat="58.297369033098221" lon="-4.371777987107635">
        <ele>83.290000000000006</ele>
        <time>2023-08-22T15:32:58Z</time>
      </trkpt>
      <trkpt lat="58.297313963994384" lon="-4.372034976258874">
        <ele>83.290000000000006</ele>
        <time>2023-08-22T15:32:59Z</time>
      </trkpt>
      <trkpt lat="58.297229977324605" lon="-4.37226296402514">
        <ele>82.810000000000002</ele>
        <time>2023-08-22T15:33:00Z</time>
      </trkpt>
      <trkpt lat="58.297141967341304" lon="-4.372461028397083">
        <ele>83.290000000000006</ele>
        <time>2023-08-22T15:33:01Z</time>
      </trkpt>
      <trkpt lat="58.297039959579706" lon="-4.372629001736641">
        <ele>83.290000000000006</ele>
        <time>2023-08-22T15:33:02Z</time>
      </trkpt>
      <trkpt lat="58.296941975131631" lon="-4.372782977297902">
        <ele>82.810000000000002</ele>
        <time>2023-08-22T15:33:03Z</time>
      </trkpt>
      <trkpt lat="58.296835022047162" lon="-4.372883979231119">
        <ele>83.290000000000006</ele>
        <time>2023-08-22T15:33:04Z</time>
      </trkpt>
      <trkpt lat="58.296731002628803" lon="-4.372977018356323">
        <ele>83.290000000000006</ele>
        <time>2023-08-22T15:33:05Z</time>
      </trkpt>
      <trkpt lat="58.296626983210444" lon="-4.373024962842464">
        <ele>83.290000000000006</ele>
        <time>2023-08-22T15:33:06Z</time>
      </trkpt>
      <trkpt lat="58.29653000459075" lon="-4.373065028339624">
        <ele>83.769999999999996</ele>
        <time>2023-08-22T15:33:07Z</time>
      </trkpt>
      <trkpt lat="58.296432020142674" lon="-4.373105010017753">
        <ele>84.25</ele>
        <time>2023-08-22T15:33:08Z</time>
      </trkpt>
      <trkpt lat="58.296329006552696" lon="-4.373147003352642">
        <ele>84.730000000000004</ele>
        <time>2023-08-22T15:33:09Z</time>
      </trkpt>
      <trkpt lat="58.296223981305957" lon="-4.37320701777935">
        <ele>85.209999999999994</ele>
        <time>2023-08-22T15:33:10Z</time>
      </trkpt>
      <trkpt lat="58.296133037656546" lon="-4.373309025540948">
        <ele>85.209999999999994</ele>
        <time>2023-08-22T15:33:11Z</time>
      </trkpt>
      <trkpt lat="58.296047961339355" lon="-4.373424025252461">
        <ele>85.209999999999994</ele>
        <time>2023-08-22T15:33:12Z</time>
      </trkpt>
      <trkpt lat="58.295983001589775" lon="-4.373542964458466">
        <ele>85.209999999999994</ele>
        <time>2023-08-22T15:33:13Z</time>
      </trkpt>
      <trkpt lat="58.295932039618492" lon="-4.37363600358367">
        <ele>84.730000000000004</ele>
        <time>2023-08-22T15:33:14Z</time>
      </trkpt>
      <trkpt lat="58.295878982171416" lon="-4.373730970546603">
        <ele>83.769999999999996</ele>
        <time>2023-08-22T15:33:20Z</time>
      </trkpt>
      <trkpt lat="58.295724000781775" lon="-4.374016039073467">
        <ele>82.810000000000002</ele>
        <time>2023-08-22T15:33:29Z</time>
      </trkpt>
      <trkpt lat="58.29567102715373" lon="-4.374154005199671">
        <ele>82.810000000000002</ele>
        <time>2023-08-22T15:33:30Z</time>
      </trkpt>
      <trkpt lat="58.295617969706655" lon="-4.374305969104171">
        <ele>82.810000000000002</ele>
        <time>2023-08-22T15:33:31Z</time>
      </trkpt>
      <trkpt lat="58.295214967802167" lon="-4.375836001709104">
        <ele>81.849999999999994</ele>
        <time>2023-08-22T15:33:38Z</time>
      </trkpt>
      <trkpt lat="58.294738959521055" lon="-4.377501988783479">
        <ele>82.810000000000002</ele>
        <time>2023-08-22T15:33:45Z</time>
      </trkpt>
      <trkpt lat="58.29468104057014" lon="-4.377692006528378">
        <ele>82.810000000000002</ele>
        <time>2023-08-22T15:33:46Z</time>
      </trkpt>
      <trkpt lat="58.294671988114715" lon="-4.377898033708334">
        <ele>82.810000000000002</ele>
        <time>2023-08-22T15:33:47Z</time>
      </trkpt>
      <trkpt lat="58.294642986729741" lon="-4.378617033362389">
        <ele>81.370000000000005</ele>
        <time>2023-08-22T15:33:50Z</time>
      </trkpt>
      <trkpt lat="58.294621026143432" lon="-4.378862036392093">
        <ele>81.849999999999994</ele>
        <time>2023-08-22T15:33:51Z</time>
      </trkpt>
      <trkpt lat="58.294525975361466" lon="-4.379557985812426">
        <ele>82.329999999999998</ele>
        <time>2023-08-22T15:33:54Z</time>
      </trkpt>
      <trkpt lat="58.294469984248281" lon="-4.379756972193718">
        <ele>82.329999999999998</ele>
        <time>2023-08-22T15:33:55Z</time>
      </trkpt>
      <trkpt lat="58.294389015063643" lon="-4.379907008260489">
        <ele>81.849999999999994</ele>
        <time>2023-08-22T15:33:56Z</time>
      </trkpt>
      <trkpt lat="58.294299999251962" lon="-4.380031982436776">
        <ele>81.849999999999994</ele>
        <time>2023-08-22T15:33:57Z</time>
      </trkpt>
      <trkpt lat="58.29418801702559" lon="-4.380116974934936">
        <ele>81.370000000000005</ele>
        <time>2023-08-22T15:33:58Z</time>
      </trkpt>
      <trkpt lat="58.294062037020922" lon="-4.38021101988852">
        <ele>81.370000000000005</ele>
        <time>2023-08-22T15:33:59Z</time>
      </trkpt>
      <trkpt lat="58.293816028162837" lon="-4.380395002663136">
        <ele>80.890000000000001</ele>
        <time>2023-08-22T15:34:01Z</time>
      </trkpt>
      <trkpt lat="58.293713014572859" lon="-4.380473038181663">
        <ele>80.890000000000001</ele>
        <time>2023-08-22T15:34:02Z</time>
      </trkpt>
      <trkpt lat="58.293621987104416" lon="-4.38057797960937">
        <ele>81.370000000000005</ele>
        <time>2023-08-22T15:34:03Z</time>
      </trkpt>
      <trkpt lat="58.293540012091398" lon="-4.380741007626057">
        <ele>81.370000000000005</ele>
        <time>2023-08-22T15:34:04Z</time>
      </trkpt>
      <trkpt lat="58.293455019593239" lon="-4.380938988178968">
        <ele>81.370000000000005</ele>
        <time>2023-08-22T15:34:05Z</time>
      </trkpt>
      <trkpt lat="58.293380001559854" lon="-4.381175022572279">
        <ele>81.370000000000005</ele>
        <time>2023-08-22T15:34:06Z</time>
      </trkpt>
      <trkpt lat="58.293301966041327" lon="-4.381421031430364">
        <ele>81.849999999999994</ele>
        <time>2023-08-22T15:34:07Z</time>
      </trkpt>
      <trkpt lat="58.293223008513451" lon="-4.381669973954558">
        <ele>81.849999999999994</ele>
        <time>2023-08-22T15:34:08Z</time>
      </trkpt>
      <trkpt lat="58.293117983266711" lon="-4.381899973377585">
        <ele>82.329999999999998</ele>
        <time>2023-08-22T15:34:09Z</time>
      </trkpt>
      <trkpt lat="58.29300700686872" lon="-4.382113963365555">
        <ele>82.329999999999998</ele>
        <time>2023-08-22T15:34:10Z</time>
      </trkpt>
      <trkpt lat="58.292802991345525" lon="-4.382503973320127">
        <ele>83.290000000000006</ele>
        <time>2023-08-22T15:34:12Z</time>
      </trkpt>
      <trkpt lat="58.292720010504127" lon="-4.382663983851671">
        <ele>83.290000000000006</ele>
        <time>2023-08-22T15:34:13Z</time>
      </trkpt>
      <trkpt lat="58.292654966935515" lon="-4.382823994383216">
        <ele>83.769999999999996</ele>
        <time>2023-08-22T15:34:14Z</time>
      </trkpt>
      <trkpt lat="58.292623031884432" lon="-4.383004959672689">
        <ele>83.769999999999996</ele>
        <time>2023-08-22T15:34:15Z</time>
      </trkpt>
      <trkpt lat="58.292602999135852" lon="-4.383231019601226">
        <ele>83.769999999999996</ele>
        <time>2023-08-22T15:34:16Z</time>
      </trkpt>
      <trkpt lat="58.292610961943865" lon="-4.383479962125421">
        <ele>83.290000000000006</ele>
        <time>2023-08-22T15:34:17Z</time>
      </trkpt>
      <trkpt lat="58.292621020227671" lon="-4.383751032873988">
        <ele>83.290000000000006</ele>
        <time>2023-08-22T15:34:18Z</time>
      </trkpt>
      <trkpt lat="58.292626971378922" lon="-4.385720025748015">
        <ele>86.180000000000007</ele>
        <time>2023-08-22T15:34:25Z</time>
      </trkpt>
      <trkpt lat="58.29259998165071" lon="-4.385967962443829">
        <ele>86.659999999999997</ele>
        <time>2023-08-22T15:34:26Z</time>
      </trkpt>
      <trkpt lat="58.292525969445705" lon="-4.38618203625083">
        <ele>86.659999999999997</ele>
        <time>2023-08-22T15:34:27Z</time>
      </trkpt>
      <trkpt lat="58.292433014139533" lon="-4.386331988498569">
        <ele>87.140000000000001</ele>
        <time>2023-08-22T15:34:28Z</time>
      </trkpt>
      <trkpt lat="58.292337041348219" lon="-4.386487975716591">
        <ele>87.620000000000005</ele>
        <time>2023-08-22T15:34:29Z</time>
      </trkpt>
      <trkpt lat="58.292213995009661" lon="-4.386620996519923">
        <ele>88.099999999999994</ele>
        <time>2023-08-22T15:34:30Z</time>
      </trkpt>
      <trkpt lat="58.292080974206328" lon="-4.386733984574676">
        <ele>88.099999999999994</ele>
        <time>2023-08-22T15:34:31Z</time>
      </trkpt>
      <trkpt lat="58.291718037799001" lon="-4.387058028951287">
        <ele>86.659999999999997</ele>
        <time>2023-08-22T15:34:34Z</time>
      </trkpt>
      <trkpt lat="58.29163296148181" lon="-4.387190965935588">
        <ele>86.180000000000007</ele>
        <time>2023-08-22T15:34:35Z</time>
      </trkpt>
      <trkpt lat="58.291564984247088" lon="-4.387358017265797">
        <ele>86.180000000000007</ele>
        <time>2023-08-22T15:34:36Z</time>
      </trkpt>
      <trkpt lat="58.291506981477141" lon="-4.38758198171854">
        <ele>86.180000000000007</ele>
        <time>2023-08-22T15:34:37Z</time>
      </trkpt>
      <trkpt lat="58.291447972878814" lon="-4.387812986969948">
        <ele>86.180000000000007</ele>
        <time>2023-08-22T15:34:38Z</time>
      </trkpt>
      <trkpt lat="58.291392987594008" lon="-4.388061007484794">
        <ele>86.659999999999997</ele>
        <time>2023-08-22T15:34:39Z</time>
      </trkpt>
      <trkpt lat="58.291370021179318" lon="-4.388339035212994">
        <ele>87.140000000000001</ele>
        <time>2023-08-22T15:34:40Z</time>
      </trkpt>
      <trkpt lat="58.291344959288836" lon="-4.388626031577587">
        <ele>87.620000000000005</ele>
        <time>2023-08-22T15:34:41Z</time>
      </trkpt>
      <trkpt lat="58.291300032287836" lon="-4.389168005436659">
        <ele>88.099999999999994</ele>
        <time>2023-08-22T15:34:43Z</time>
      </trkpt>
      <trkpt lat="58.29124596901238" lon="-4.389389036223292">
        <ele>88.579999999999998</ele>
        <time>2023-08-22T15:34:44Z</time>
      </trkpt>
      <trkpt lat="58.291163993999362" lon="-4.389572013169527">
        <ele>88.579999999999998</ele>
        <time>2023-08-22T15:34:45Z</time>
      </trkpt>
      <trkpt lat="58.291057040914893" lon="-4.389679972082377">
        <ele>89.060000000000002</ele>
        <time>2023-08-22T15:34:46Z</time>
      </trkpt>
      <trkpt lat="58.29094204120338" lon="-4.38979497179389">
        <ele>89.060000000000002</ele>
        <time>2023-08-22T15:34:47Z</time>
      </trkpt>
      <trkpt lat="58.29081698320806" lon="-4.389885999262333">
        <ele>89.060000000000002</ele>
        <time>2023-08-22T15:34:48Z</time>
      </trkpt>
      <trkpt lat="58.290698966011405" lon="-4.389967974275351">
        <ele>89.060000000000002</ele>
        <time>2023-08-22T15:34:49Z</time>
      </trkpt>
      <trkpt lat="58.289835965260863" lon="-4.3909100163728">
        <ele>87.140000000000001</ele>
        <time>2023-08-22T15:34:56Z</time>
      </trkpt>
      <trkpt lat="58.288869028910995" lon="-4.392764009535313">
        <ele>82.810000000000002</ele>
        <time>2023-08-22T15:35:04Z</time>
      </trkpt>
      <trkpt lat="58.288455968722701" lon="-4.39389699138701">
        <ele>83.290000000000006</ele>
        <time>2023-08-22T15:35:09Z</time>
      </trkpt>
      <trkpt lat="58.288412969559431" lon="-4.394113998860121">
        <ele>83.290000000000006</ele>
        <time>2023-08-22T15:35:10Z</time>
      </trkpt>
      <trkpt lat="58.288249019533396" lon="-4.394932994619012">
        <ele>84.25</ele>
        <time>2023-08-22T15:35:14Z</time>
      </trkpt>
      <trkpt lat="58.288222029805183" lon="-4.395068027079105">
        <ele>84.730000000000004</ele>
        <time>2023-08-22T15:35:15Z</time>
      </trkpt>
      <trkpt lat="58.288118010386825" lon="-4.395171962678433">
        <ele>85.209999999999994</ele>
        <time>2023-08-22T15:35:16Z</time>
      </trkpt>
      <trkpt lat="58.288026982918382" lon="-4.395247986540198">
        <ele>85.689999999999998</ele>
        <time>2023-08-22T15:35:17Z</time>
      </trkpt>
      <trkpt lat="58.287917012348771" lon="-4.395286962389946">
        <ele>86.180000000000007</ele>
        <time>2023-08-22T15:35:18Z</time>
      </trkpt>
      <trkpt lat="58.28780704177916" lon="-4.395326022058725">
        <ele>86.659999999999997</ele>
        <time>2023-08-22T15:35:19Z</time>
      </trkpt>
      <trkpt lat="58.287603026255965" lon="-4.39539902843535">
        <ele>86.659999999999997</ele>
        <time>2023-08-22T15:35:21Z</time>
      </trkpt>
      <trkpt lat="58.287495989352465" lon="-4.395436998456717">
        <ele>86.659999999999997</ele>
        <time>2023-08-22T15:35:22Z</time>
      </trkpt>
      <trkpt lat="58.287388030439615" lon="-4.395512016490102">
        <ele>86.659999999999997</ele>
        <time>2023-08-22T15:35:23Z</time>
      </trkpt>
      <trkpt lat="58.287274036556482" lon="-4.395618969574571">
        <ele>86.659999999999997</ele>
        <time>2023-08-22T15:35:24Z</time>
      </trkpt>
      <trkpt lat="58.287151996046305" lon="-4.395732963457704">
        <ele>86.659999999999997</ele>
        <time>2023-08-22T15:35:25Z</time>
      </trkpt>
      <trkpt lat="58.286881009116769" lon="-4.395987018942833">
        <ele>85.689999999999998</ele>
        <time>2023-08-22T15:35:27Z</time>
      </trkpt>
      <trkpt lat="58.286751005798578" lon="-4.396116016432643">
        <ele>85.689999999999998</ele>
        <time>2023-08-22T15:35:28Z</time>
      </trkpt>
      <trkpt lat="58.285821033641696" lon="-4.397862972691655">
        <ele>81.849999999999994</ele>
        <time>2023-08-22T15:35:36Z</time>
      </trkpt>
      <trkpt lat="58.28503699041903" lon="-4.400072023272514">
        <ele>82.329999999999998</ele>
        <time>2023-08-22T15:35:45Z</time>
      </trkpt>
      <trkpt lat="58.284552013501525" lon="-4.402718022465706">
        <ele>85.689999999999998</ele>
        <time>2023-08-22T15:35:54Z</time>
      </trkpt>
      <trkpt lat="58.28409100882709" lon="-4.406200032681227">
        <ele>91.459999999999994</ele>
        <time>2023-08-22T15:36:04Z</time>
      </trkpt>
      <trkpt lat="58.283802000805736" lon="-4.409131016582251">
        <ele>94.349999999999994</ele>
        <time>2023-08-22T15:36:13Z</time>
      </trkpt>
      <trkpt lat="58.283836031332612" lon="-4.409327991306782">
        <ele>94.349999999999994</ele>
        <time>2023-08-22T15:36:14Z</time>
      </trkpt>
      <trkpt lat="58.283882969990373" lon="-4.409548016265035">
        <ele>94.349999999999994</ele>
        <time>2023-08-22T15:36:15Z</time>
      </trkpt>
      <trkpt lat="58.284254036843777" lon="-4.411642989143729">
        <ele>94.829999999999998</ele>
        <time>2023-08-22T15:36:22Z</time>
      </trkpt>
      <trkpt lat="58.284617979079485" lon="-4.415004970505834">
        <ele>98.670000000000002</ele>
        <time>2023-08-22T15:36:32Z</time>
      </trkpt>
      <trkpt lat="58.284788969904184" lon="-4.416846977546811">
        <ele>98.670000000000002</ele>
        <time>2023-08-22T15:36:38Z</time>
      </trkpt>
      <trkpt lat="58.28484496101737" lon="-4.417049987241626">
        <ele>98.670000000000002</ele>
        <time>2023-08-22T15:36:39Z</time>
      </trkpt>
      <trkpt lat="58.284904975444078" lon="-4.417250985279679">
        <ele>98.670000000000002</ele>
        <time>2023-08-22T15:36:40Z</time>
      </trkpt>
      <trkpt lat="58.285001032054424" lon="-4.417433962225914">
        <ele>98.670000000000002</ele>
        <time>2023-08-22T15:36:41Z</time>
      </trkpt>
      <trkpt lat="58.28510002233088" lon="-4.417622974142432">
        <ele>98.189999999999998</ele>
        <time>2023-08-22T15:36:42Z</time>
      </trkpt>
      <trkpt lat="58.285178979858756" lon="-4.417817015200853">
        <ele>98.189999999999998</ele>
        <time>2023-08-22T15:36:43Z</time>
      </trkpt>
      <trkpt lat="58.285243017598987" lon="-4.417997980490327">
        <ele>98.670000000000002</ele>
        <time>2023-08-22T15:36:44Z</time>
      </trkpt>
      <trkpt lat="58.285279981791973" lon="-4.418184980750084">
        <ele>99.150000000000006</ele>
        <time>2023-08-22T15:36:45Z</time>
      </trkpt>
      <trkpt lat="58.285514004528522" lon="-4.419820960611105">
        <ele>100.59999999999999</ele>
        <time>2023-08-22T15:36:51Z</time>
      </trkpt>
      <trkpt lat="58.285698993131518" lon="-4.422771977260709">
        <ele>103</ele>
        <time>2023-08-22T15:37:00Z</time>
      </trkpt>
      <trkpt lat="58.285768982023001" lon="-4.424119032919407">
        <ele>105.40000000000001</ele>
        <time>2023-08-22T15:37:06Z</time>
      </trkpt>
      <trkpt lat="58.285863026976585" lon="-4.425906976684928">
        <ele>105.40000000000001</ele>
        <time>2023-08-22T15:37:12Z</time>
      </trkpt>
      <trkpt lat="58.285943996161222" lon="-4.429291002452374">
        <ele>106.36</ele>
        <time>2023-08-22T15:37:21Z</time>
      </trkpt>
      <trkpt lat="58.286151029169559" lon="-4.431048016995192">
        <ele>107.31999999999999</ele>
        <time>2023-08-22T15:37:27Z</time>
      </trkpt>
      <trkpt lat="58.286211965605617" lon="-4.431329984217882">
        <ele>106.84</ele>
        <time>2023-08-22T15:37:28Z</time>
      </trkpt>
      <trkpt lat="58.287214022129774" lon="-4.433862995356321">
        <ele>102.52</ele>
        <time>2023-08-22T15:37:38Z</time>
      </trkpt>
      <trkpt lat="58.287336984649301" lon="-4.434027029201388">
        <ele>102.04000000000001</ele>
        <time>2023-08-22T15:37:39Z</time>
      </trkpt>
      <trkpt lat="58.287843000143766" lon="-4.434694983065128">
        <ele>99.150000000000006</ele>
        <time>2023-08-22T15:37:43Z</time>
      </trkpt>
      <trkpt lat="58.287923969328403" lon="-4.434895981103182">
        <ele>99.150000000000006</ele>
        <time>2023-08-22T15:37:44Z</time>
      </trkpt>
      <trkpt lat="58.287990018725395" lon="-4.435112988576293">
        <ele>98.670000000000002</ele>
        <time>2023-08-22T15:37:45Z</time>
      </trkpt>
      <trkpt lat="58.288056990131736" lon="-4.435336031019688">
        <ele>98.670000000000002</ele>
        <time>2023-08-22T15:37:46Z</time>
      </trkpt>
      <trkpt lat="58.288094038143754" lon="-4.435606012120843">
        <ele>97.709999999999994</ele>
        <time>2023-08-22T15:37:47Z</time>
      </trkpt>
      <trkpt lat="58.288123961538076" lon="-4.435895020142198">
        <ele>97.230000000000004</ele>
        <time>2023-08-22T15:37:48Z</time>
      </trkpt>
      <trkpt lat="58.288152040913701" lon="-4.436167012900114">
        <ele>96.75</ele>
        <time>2023-08-22T15:37:49Z</time>
      </trkpt>
      <trkpt lat="58.288266034796834" lon="-4.437623033300042">
        <ele>94.829999999999998</ele>
        <time>2023-08-22T15:37:56Z</time>
      </trkpt>
      <trkpt lat="58.28834499232471" lon="-4.439637959003449">
        <ele>89.540000000000006</ele>
        <time>2023-08-22T15:38:06Z</time>
      </trkpt>
      <trkpt lat="58.288371982052922" lon="-4.440340027213097">
        <ele>86.180000000000007</ele>
        <time>2023-08-22T15:38:11Z</time>
      </trkpt>
      <trkpt lat="58.288377011194825" lon="-4.440451003611088">
        <ele>85.209999999999994</ele>
        <time>2023-08-22T15:38:12Z</time>
      </trkpt>
      <trkpt lat="58.288410035893321" lon="-4.441750030964613">
        <ele>81.370000000000005</ele>
        <time>2023-08-22T15:38:22Z</time>
      </trkpt>
      <trkpt lat="58.288411041721702" lon="-4.441838040947914">
        <ele>81.370000000000005</ele>
        <time>2023-08-22T15:38:23Z</time>
      </trkpt>
      <trkpt lat="58.288412969559431" lon="-4.441904006525874">
        <ele>81.370000000000005</ele>
        <time>2023-08-22T15:38:24Z</time>
      </trkpt>
      <trkpt lat="58.288336023688316" lon="-4.442035015672445">
        <ele>81.370000000000005</ele>
        <time>2023-08-22T15:38:25Z</time>
      </trkpt>
      <trkpt lat="58.288289001211524" lon="-4.442033004015684">
        <ele>81.370000000000005</ele>
        <time>2023-08-22T15:38:26Z</time>
      </trkpt>
      <trkpt lat="58.288220018148422" lon="-4.442029986530542">
        <ele>80.890000000000001</ele>
        <time>2023-08-22T15:38:27Z</time>
      </trkpt>
      <trkpt lat="58.288140976801515" lon="-4.44202596321702">
        <ele>80.890000000000001</ele>
        <time>2023-08-22T15:38:28Z</time>
      </trkpt>
      <trkpt lat="58.287298008799553" lon="-4.442279012873769">
        <ele>79.930000000000007</ele>
        <time>2023-08-22T15:38:36Z</time>
      </trkpt>
      <trkpt lat="58.287214022129774" lon="-4.442339027300477">
        <ele>79.450000000000003</ele>
        <time>2023-08-22T15:38:37Z</time>
      </trkpt>
      <trkpt lat="58.287090975791216" lon="-4.442512029781938">
        <ele>78.969999999999999</ele>
        <time>2023-08-22T15:38:38Z</time>
      </trkpt>
      <trkpt lat="58.286987962201238" lon="-4.442658964544535">
        <ele>78.969999999999999</ele>
        <time>2023-08-22T15:38:39Z</time>
      </trkpt>
      <trkpt lat="58.286882014945149" lon="-4.442810006439686">
        <ele>78.480000000000004</ele>
        <time>2023-08-22T15:38:40Z</time>
      </trkpt>
      <trkpt lat="58.286781013011932" lon="-4.442965993657708">
        <ele>78.969999999999999</ele>
        <time>2023-08-22T15:38:41Z</time>
      </trkpt>
      <trkpt lat="58.286075005307794" lon="-4.444092018529773">
        <ele>79.450000000000003</ele>
        <time>2023-08-22T15:38:49Z</time>
      </trkpt>
      <trkpt lat="58.285979032516479" lon="-4.44419302046299">
        <ele>79.450000000000003</ele>
        <time>2023-08-22T15:38:50Z</time>
      </trkpt>
      <trkpt lat="58.285880964249372" lon="-4.444249011576176">
        <ele>79.450000000000003</ele>
        <time>2023-08-22T15:38:51Z</time>
      </trkpt>
      <trkpt lat="58.285774011164904" lon="-4.444249011576176">
        <ele>79.450000000000003</ele>
        <time>2023-08-22T15:38:52Z</time>
      </trkpt>
      <trkpt lat="58.285664962604642" lon="-4.444249011576176">
        <ele>79.930000000000007</ele>
        <time>2023-08-22T15:38:53Z</time>
      </trkpt>
      <trkpt lat="58.285555997863412" lon="-4.444249011576176">
        <ele>79.930000000000007</ele>
        <time>2023-08-22T15:38:54Z</time>
      </trkpt>
      <trkpt lat="58.285448038950562" lon="-4.444234007969499">
        <ele>79.930000000000007</ele>
        <time>2023-08-22T15:38:55Z</time>
      </trkpt>
      <trkpt lat="58.284608004614711" lon="-4.44397802464664">
        <ele>82.329999999999998</ele>
        <time>2023-08-22T15:39:03Z</time>
      </trkpt>
      <trkpt lat="58.283267989754677" lon="-4.443674013018608">
        <ele>83.769999999999996</ele>
        <time>2023-08-22T15:39:15Z</time>
      </trkpt>
      <trkpt lat="58.281762013211846" lon="-4.443740984424949">
        <ele>87.140000000000001</ele>
        <time>2023-08-22T15:39:27Z</time>
      </trkpt>
      <trkpt lat="58.281626980751753" lon="-4.44372296333313">
        <ele>87.140000000000001</ele>
        <time>2023-08-22T15:39:28Z</time>
      </trkpt>
      <trkpt lat="58.281502006575465" lon="-4.443683987483382">
        <ele>87.140000000000001</ele>
        <time>2023-08-22T15:39:29Z</time>
      </trkpt>
      <trkpt lat="58.281381977722049" lon="-4.443609975278378">
        <ele>87.140000000000001</ele>
        <time>2023-08-22T15:39:30Z</time>
      </trkpt>
      <trkpt lat="58.281269995495677" lon="-4.443540992215276">
        <ele>87.140000000000001</ele>
        <time>2023-08-22T15:39:31Z</time>
      </trkpt>
      <trkpt lat="58.281176034361124" lon="-4.443401014432311">
        <ele>87.620000000000005</ele>
        <time>2023-08-22T15:39:32Z</time>
      </trkpt>
      <trkpt lat="58.281087018549442" lon="-4.443260030820966">
        <ele>87.620000000000005</ele>
        <time>2023-08-22T15:39:33Z</time>
      </trkpt>
      <trkpt lat="58.281007977202535" lon="-4.443093985319138">
        <ele>88.099999999999994</ele>
        <time>2023-08-22T15:39:34Z</time>
      </trkpt>
      <trkpt lat="58.280930025503039" lon="-4.442930035293102">
        <ele>88.099999999999994</ele>
        <time>2023-08-22T15:39:35Z</time>
      </trkpt>
      <trkpt lat="58.280863976106048" lon="-4.442758038640022">
        <ele>88.579999999999998</ele>
        <time>2023-08-22T15:39:36Z</time>
      </trkpt>
      <trkpt lat="58.280814019963145" lon="-4.442569026723504">
        <ele>88.099999999999994</ele>
        <time>2023-08-22T15:39:37Z</time>
      </trkpt>
      <trkpt lat="58.280765991657972" lon="-4.442387977614999">
        <ele>88.579999999999998</ele>
        <time>2023-08-22T15:39:38Z</time>
      </trkpt>
      <trkpt lat="58.280579997226596" lon="-4.441731004044414">
        <ele>87.620000000000005</ele>
        <time>2023-08-22T15:39:43Z</time>
      </trkpt>
      <trkpt lat="58.280133996158838" lon="-4.440228966996074">
        <ele>89.060000000000002</ele>
        <time>2023-08-22T15:39:50Z</time>
      </trkpt>
      <trkpt lat="58.279231013730168" lon="-4.43718901835382">
        <ele>94.349999999999994</ele>
        <time>2023-08-22T15:40:02Z</time>
      </trkpt>
      <trkpt lat="58.278787024319172" lon="-4.436021000146866">
        <ele>96.269999999999996</ele>
        <time>2023-08-22T15:40:09Z</time>
      </trkpt>
      <trkpt lat="58.278709994629025" lon="-4.435867024585605">
        <ele>96.75</ele>
        <time>2023-08-22T15:40:10Z</time>
      </trkpt>
      <trkpt lat="58.278626007959247" lon="-4.435715982690454">
        <ele>97.230000000000004</ele>
        <time>2023-08-22T15:40:11Z</time>
      </trkpt>
      <trkpt lat="58.278524000197649" lon="-4.435574999079108">
        <ele>97.230000000000004</ele>
        <time>2023-08-22T15:40:12Z</time>
      </trkpt>
      <trkpt lat="58.278415035456419" lon="-4.435423035174608">
        <ele>97.230000000000004</ele>
        <time>2023-08-22T15:40:13Z</time>
      </trkpt>
      <trkpt lat="58.27829098328948" lon="-4.435309041291475">
        <ele>97.709999999999994</ele>
        <time>2023-08-22T15:40:14Z</time>
      </trkpt>
      <trkpt lat="58.278147988021374" lon="-4.435210973024368">
        <ele>97.709999999999994</ele>
        <time>2023-08-22T15:40:15Z</time>
      </trkpt>
      <trkpt lat="58.277996024116874" lon="-4.43510795943439">
        <ele>97.709999999999994</ele>
        <time>2023-08-22T15:40:16Z</time>
      </trkpt>
      <trkpt lat="58.277836013585329" lon="-4.435065966099501">
        <ele>98.189999999999998</ele>
        <time>2023-08-22T15:40:17Z</time>
      </trkpt>
      <trkpt lat="58.277662005275488" lon="-4.435037970542908">
        <ele>98.189999999999998</ele>
        <time>2023-08-22T15:40:18Z</time>
      </trkpt>
      <trkpt lat="58.276221994310617" lon="-4.434872008860111">
        <ele>98.189999999999998</ele>
        <time>2023-08-22T15:40:26Z</time>
      </trkpt>
      <trkpt lat="58.276069024577737" lon="-4.434872008860111">
        <ele>98.189999999999998</ele>
        <time>2023-08-22T15:40:27Z</time>
      </trkpt>
      <trkpt lat="58.275924017652869" lon="-4.434986002743244">
        <ele>98.189999999999998</ele>
        <time>2023-08-22T15:40:28Z</time>
      </trkpt>
      <trkpt lat="58.275780016556382" lon="-4.435136038810015">
        <ele>98.670000000000002</ele>
        <time>2023-08-22T15:40:29Z</time>
      </trkpt>
      <trkpt lat="58.275629980489612" lon="-4.435291020199657">
        <ele>99.150000000000006</ele>
        <time>2023-08-22T15:40:30Z</time>
      </trkpt>
      <trkpt lat="58.27547600492835" lon="-4.435451030731201">
        <ele>99.150000000000006</ele>
        <time>2023-08-22T15:40:31Z</time>
      </trkpt>
      <trkpt lat="58.274275967851281" lon="-4.436991037800908">
        <ele>102.04000000000001</ele>
        <time>2023-08-22T15:40:40Z</time>
      </trkpt>
      <trkpt lat="58.274169014766812" lon="-4.437179965898395">
        <ele>102.04000000000001</ele>
        <time>2023-08-22T15:40:42Z</time>
      </trkpt>
      <trkpt lat="58.274011015892029" lon="-4.437458999454975">
        <ele>102.52</ele>
        <time>2023-08-22T15:40:50Z</time>
      </trkpt>
      <trkpt lat="58.273534001782537" lon="-4.438303979113698">
        <ele>103.48</ele>
        <time>2023-08-22T15:40:56Z</time>
      </trkpt>
      <trkpt lat="58.273296961560845" lon="-4.438773030415177">
        <ele>103.95999999999999</ele>
        <time>2023-08-22T15:40:59Z</time>
      </trkpt>
      <trkpt lat="58.273223033174872" lon="-4.438970005139709">
        <ele>104.44</ele>
        <time>2023-08-22T15:41:00Z</time>
      </trkpt>
      <trkpt lat="58.273194031789899" lon="-4.439139990136027">
        <ele>104.44</ele>
        <time>2023-08-22T15:41:01Z</time>
      </trkpt>
      <trkpt lat="58.273072997108102" lon="-4.439838035032153">
        <ele>104.92</ele>
        <time>2023-08-22T15:41:04Z</time>
      </trkpt>
      <trkpt lat="58.273029997944832" lon="-4.440085971727967">
        <ele>104.92</ele>
        <time>2023-08-22T15:41:05Z</time>
      </trkpt>
      <trkpt lat="58.272953974083066" lon="-4.440301973372698">
        <ele>104.92</ele>
        <time>2023-08-22T15:41:06Z</time>
      </trkpt>
      <trkpt lat="58.272134978324175" lon="-4.441925967112184">
        <ele>103.48</ele>
        <time>2023-08-22T15:41:14Z</time>
      </trkpt>
      <trkpt lat="58.271518992260098" lon="-4.442729959264398">
        <ele>103.48</ele>
        <time>2023-08-22T15:41:19Z</time>
      </trkpt>
      <trkpt lat="58.271384965628386" lon="-4.442813023924828">
        <ele>103.48</ele>
        <time>2023-08-22T15:41:20Z</time>
      </trkpt>
      <trkpt lat="58.271248005330563" lon="-4.442897010594606">
        <ele>103.48</ele>
        <time>2023-08-22T15:41:21Z</time>
      </trkpt>
      <trkpt lat="58.270702008157969" lon="-4.443232035264373">
        <ele>103.95999999999999</ele>
        <time>2023-08-22T15:41:25Z</time>
      </trkpt>
      <trkpt lat="58.270558007061481" lon="-4.443339994177222">
        <ele>103.95999999999999</ele>
        <time>2023-08-22T15:41:26Z</time>
      </trkpt>
      <trkpt lat="58.270429009571671" lon="-4.443517019972205">
        <ele>103.95999999999999</ele>
        <time>2023-08-22T15:41:27Z</time>
      </trkpt>
      <trkpt lat="58.269427036866546" lon="-4.44526799954474">
        <ele>107.31999999999999</ele>
        <time>2023-08-22T15:41:35Z</time>
      </trkpt>
      <trkpt lat="58.268347028642893" lon="-4.446791997179389">
        <ele>112.61</ele>
        <time>2023-08-22T15:41:43Z</time>
      </trkpt>
      <trkpt lat="58.266995027661324" lon="-4.447982981801033">
        <ele>118.38</ele>
        <time>2023-08-22T15:41:52Z</time>
      </trkpt>
      <trkpt lat="58.266881033778191" lon="-4.448081972077489">
        <ele>119.34</ele>
        <time>2023-08-22T15:41:53Z</time>
      </trkpt>
      <trkpt lat="58.266789000481367" lon="-4.448250029236078">
        <ele>119.34</ele>
        <time>2023-08-22T15:41:54Z</time>
      </trkpt>
      <trkpt lat="58.266690010204911" lon="-4.448443986475468">
        <ele>119.81999999999999</ele>
        <time>2023-08-22T15:41:55Z</time>
      </trkpt>
      <trkpt lat="58.266221964731812" lon="-4.449241021648049">
        <ele>120.3</ele>
        <time>2023-08-22T15:41:59Z</time>
      </trkpt>
      <trkpt lat="58.266080981120467" lon="-4.449413018301129">
        <ele>120.3</ele>
        <time>2023-08-22T15:42:00Z</time>
      </trkpt>
      <trkpt lat="58.264686986804008" lon="-4.450565027073026">
        <ele>123.67</ele>
        <time>2023-08-22T15:42:09Z</time>
      </trkpt>
      <trkpt lat="58.263247981667519" lon="-4.452003026381135">
        <ele>131.84</ele>
        <time>2023-08-22T15:42:19Z</time>
      </trkpt>
      <trkpt lat="58.262360002845526" lon="-4.452780028805137">
        <ele>139.53</ele>
        <time>2023-08-22T15:42:27Z</time>
      </trkpt>
      <trkpt lat="58.262272998690605" lon="-4.452900979667902">
        <ele>140.49000000000001</ele>
        <time>2023-08-22T15:42:28Z</time>
      </trkpt>
      <trkpt lat="58.2621989864856" lon="-4.453081022948027">
        <ele>140.97</ele>
        <time>2023-08-22T15:42:29Z</time>
      </trkpt>
      <trkpt lat="58.262121034786105" lon="-4.453271962702274">
        <ele>141.44999999999999</ele>
        <time>2023-08-22T15:42:30Z</time>
      </trkpt>
      <trkpt lat="58.262035958468914" lon="-4.45347698405385">
        <ele>141.93000000000001</ele>
        <time>2023-08-22T15:42:31Z</time>
      </trkpt>
      <trkpt lat="58.261947026476264" lon="-4.453693991526961">
        <ele>142.41</ele>
        <time>2023-08-22T15:42:32Z</time>
      </trkpt>
      <trkpt lat="58.261857004836202" lon="-4.453913010656834">
        <ele>143.37</ele>
        <time>2023-08-22T15:42:33Z</time>
      </trkpt>
      <trkpt lat="58.261751979589462" lon="-4.454111997038126">
        <ele>143.84999999999999</ele>
        <time>2023-08-22T15:42:34Z</time>
      </trkpt>
      <trkpt lat="58.261265996843576" lon="-4.454792020842433">
        <ele>147.69999999999999</ele>
        <time>2023-08-22T15:42:38Z</time>
      </trkpt>
      <trkpt lat="58.261139011010528" lon="-4.454968962818384">
        <ele>148.66</ele>
        <time>2023-08-22T15:42:39Z</time>
      </trkpt>
      <trkpt lat="58.261020993813872" lon="-4.455161998048425">
        <ele>149.13999999999999</ele>
        <time>2023-08-22T15:42:40Z</time>
      </trkpt>
      <trkpt lat="58.260915968567133" lon="-4.455391997471452">
        <ele>149.62</ele>
        <time>2023-08-22T15:42:41Z</time>
      </trkpt>
      <trkpt lat="58.260809015482664" lon="-4.455633983016014">
        <ele>150.58000000000001</ele>
        <time>2023-08-22T15:42:42Z</time>
      </trkpt>
      <trkpt lat="58.260718993842602" lon="-4.455903964117169">
        <ele>151.06</ele>
        <time>2023-08-22T15:42:43Z</time>
      </trkpt>
      <trkpt lat="58.260429985821247" lon="-4.456626987084746">
        <ele>152.99000000000001</ele>
        <time>2023-08-22T15:42:46Z</time>
      </trkpt>
      <trkpt lat="58.260321021080017" lon="-4.456836031749845">
        <ele>153.47</ele>
        <time>2023-08-22T15:42:47Z</time>
      </trkpt>
      <trkpt lat="58.260195041075349" lon="-4.457015991210938">
        <ele>154.43000000000001</ele>
        <time>2023-08-22T15:42:48Z</time>
      </trkpt>
      <trkpt lat="58.25891001150012" lon="-4.458662029355764">
        <ele>158.75</ele>
        <time>2023-08-22T15:42:57Z</time>
      </trkpt>
      <trkpt lat="58.258560989052057" lon="-4.459080034866929">
        <ele>159.72</ele>
        <time>2023-08-22T15:43:00Z</time>
      </trkpt>
      <trkpt lat="58.258489994332194" lon="-4.459253959357739">
        <ele>159.72</ele>
        <time>2023-08-22T15:43:01Z</time>
      </trkpt>
      <trkpt lat="58.25841598212719" lon="-4.459458980709314">
        <ele>159.72</ele>
        <time>2023-08-22T15:43:02Z</time>
      </trkpt>
      <trkpt lat="58.258081963285804" lon="-4.460388030856848">
        <ele>160.68000000000001</ele>
        <time>2023-08-22T15:43:06Z</time>
      </trkpt>
      <trkpt lat="58.257970986887813" lon="-4.460591040551662">
        <ele>160.68000000000001</ele>
        <time>2023-08-22T15:43:07Z</time>
      </trkpt>
      <trkpt lat="58.257847018539906" lon="-4.460775023326278">
        <ele>161.16</ele>
        <time>2023-08-22T15:43:08Z</time>
      </trkpt>
      <trkpt lat="58.257588017731905" lon="-4.461156986653805">
        <ele>161.63999999999999</ele>
        <time>2023-08-22T15:43:10Z</time>
      </trkpt>
      <trkpt lat="58.257468994706869" lon="-4.46138296276331">
        <ele>162.12</ele>
        <time>2023-08-22T15:43:11Z</time>
      </trkpt>
      <trkpt lat="58.256918974220753" lon="-4.462588028982282">
        <ele>163.08000000000001</ele>
        <time>2023-08-22T15:43:16Z</time>
      </trkpt>
      <trkpt lat="58.256828030571342" lon="-4.462864967063069">
        <ele>163.56</ele>
        <time>2023-08-22T15:43:17Z</time>
      </trkpt>
      <trkpt lat="58.255831003189087" lon="-4.465468972921372">
        <ele>167.88999999999999</ele>
        <time>2023-08-22T15:43:27Z</time>
      </trkpt>
      <trkpt lat="58.255713991820812" lon="-4.465670976787806">
        <ele>167.88999999999999</ele>
        <time>2023-08-22T15:43:28Z</time>
      </trkpt>
      <trkpt lat="58.255573008209467" lon="-4.46583098731935">
        <ele>167.88999999999999</ele>
        <time>2023-08-22T15:43:29Z</time>
      </trkpt>
      <trkpt lat="58.255426995456219" lon="-4.465996026992798">
        <ele>168.37</ele>
        <time>2023-08-22T15:43:30Z</time>
      </trkpt>
      <trkpt lat="58.254276998341084" lon="-4.467576015740633">
        <ele>167.88999999999999</ele>
        <time>2023-08-22T15:43:38Z</time>
      </trkpt>
      <trkpt lat="58.254005005583167" lon="-4.468031991273165">
        <ele>167.88999999999999</ele>
        <time>2023-08-22T15:43:40Z</time>
      </trkpt>
      <trkpt lat="58.253868967294693" lon="-4.468257967382669">
        <ele>168.37</ele>
        <time>2023-08-22T15:43:41Z</time>
      </trkpt>
      <trkpt lat="58.253698982298374" lon="-4.468400040641427">
        <ele>168.37</ele>
        <time>2023-08-22T15:43:42Z</time>
      </trkpt>
      <trkpt lat="58.253530003130436" lon="-4.468540018424392">
        <ele>168.84999999999999</ele>
        <time>2023-08-22T15:43:43Z</time>
      </trkpt>
      <trkpt lat="58.253362029790878" lon="-4.468678990378976">
        <ele>168.84999999999999</ele>
        <time>2023-08-22T15:43:44Z</time>
      </trkpt>
      <trkpt lat="58.25319497846067" lon="-4.468809999525547">
        <ele>168.84999999999999</ele>
        <time>2023-08-22T15:43:45Z</time>
      </trkpt>
      <trkpt lat="58.251704005524516" lon="-4.470258979126811">
        <ele>165.96000000000001</ele>
        <time>2023-08-22T15:43:54Z</time>
      </trkpt>
      <trkpt lat="58.25046599842608" lon="-4.471604023128748">
        <ele>163.56</ele>
        <time>2023-08-22T15:44:03Z</time>
      </trkpt>
      <trkpt lat="58.249667035415769" lon="-4.47240499779582">
        <ele>162.12</ele>
        <time>2023-08-22T15:44:09Z</time>
      </trkpt>
      <trkpt lat="58.247964000329375" lon="-4.473602017387748">
        <ele>162.59999999999999</ele>
        <time>2023-08-22T15:44:19Z</time>
      </trkpt>
      <trkpt lat="58.246127022430301" lon="-4.474871037527919">
        <ele>164.03999999999999</ele>
        <time>2023-08-22T15:44:30Z</time>
      </trkpt>
      <trkpt lat="58.244736967608333" lon="-4.47579899802804">
        <ele>167.88999999999999</ele>
        <time>2023-08-22T15:44:39Z</time>
      </trkpt>
      <trkpt lat="58.244076976552606" lon="-4.476457983255386">
        <ele>169.81</ele>
        <time>2023-08-22T15:44:44Z</time>
      </trkpt>
      <trkpt lat="58.24399902485311" lon="-4.476628974080086">
        <ele>170.28999999999999</ele>
        <time>2023-08-22T15:44:45Z</time>
      </trkpt>
      <trkpt lat="58.24393599294126" lon="-4.476827960461378">
        <ele>170.77000000000001</ele>
        <time>2023-08-22T15:44:46Z</time>
      </trkpt>
      <trkpt lat="58.243867009878159" lon="-4.47704597376287">
        <ele>171.25</ele>
        <time>2023-08-22T15:44:47Z</time>
      </trkpt>
      <trkpt lat="58.243791991844773" lon="-4.477283013984561">
        <ele>171.25</ele>
        <time>2023-08-22T15:44:48Z</time>
      </trkpt>
      <trkpt lat="58.243064023554325" lon="-4.478839030489326">
        <ele>172.69</ele>
        <time>2023-08-22T15:44:55Z</time>
      </trkpt>
      <trkpt lat="58.242958998307586" lon="-4.478983031585813">
        <ele>172.69</ele>
        <time>2023-08-22T15:44:56Z</time>
      </trkpt>
      <trkpt lat="58.24286101385951" lon="-4.479116974398494">
        <ele>173.16999999999999</ele>
        <time>2023-08-22T15:44:57Z</time>
      </trkpt>
      <trkpt lat="58.242756994441152" lon="-4.47915100492537">
        <ele>173.16999999999999</ele>
        <time>2023-08-22T15:44:58Z</time>
      </trkpt>
      <trkpt lat="58.242656998336315" lon="-4.479184029623866">
        <ele>173.66</ele>
        <time>2023-08-22T15:44:59Z</time>
      </trkpt>
      <trkpt lat="58.242561025545001" lon="-4.479214958846569">
        <ele>173.66</ele>
        <time>2023-08-22T15:45:00Z</time>
      </trkpt>
      <trkpt lat="58.241298962384462" lon="-4.479574961587787">
        <ele>173.16999999999999</ele>
        <time>2023-08-22T15:45:11Z</time>
      </trkpt>
      <trkpt lat="58.239888036623597" lon="-4.479248989373446">
        <ele>172.69</ele>
        <time>2023-08-22T15:45:22Z</time>
      </trkpt>
      <trkpt lat="58.239519987255335" lon="-4.479225017130375">
        <ele>173.16999999999999</ele>
        <time>2023-08-22T15:45:25Z</time>
      </trkpt>
      <trkpt lat="58.239393001422286" lon="-4.479258041828871">
        <ele>173.16999999999999</ele>
        <time>2023-08-22T15:45:26Z</time>
      </trkpt>
      <trkpt lat="58.238478032872081" lon="-4.479657020419836">
        <ele>173.16999999999999</ele>
        <time>2023-08-22T15:45:34Z</time>
      </trkpt>
      <trkpt lat="58.237988026812673" lon="-4.479893976822496">
        <ele>174.62</ele>
        <time>2023-08-22T15:45:41Z</time>
      </trkpt>
      <trkpt lat="58.237936981022358" lon="-4.47992398403585">
        <ele>175.09999999999999</ele>
        <time>2023-08-22T15:45:49Z</time>
      </trkpt>
      <trkpt lat="58.237936981022358" lon="-4.47992398403585">
        <ele>175.09999999999999</ele>
        <time>2023-08-22T15:46:45Z</time>
      </trkpt>
      <trkpt lat="58.23772500269115" lon="-4.480049964040518">
        <ele>176.06</ele>
        <time>2023-08-22T15:46:57Z</time>
      </trkpt>
      <trkpt lat="58.237587036564946" lon="-4.480132022872567">
        <ele>175.58000000000001</ele>
        <time>2023-08-22T15:47:00Z</time>
      </trkpt>
      <trkpt lat="58.237493997439742" lon="-4.480147026479244">
        <ele>175.09999999999999</ele>
        <time>2023-08-22T15:47:02Z</time>
      </trkpt>
      <trkpt lat="58.237240025773644" lon="-4.480147026479244">
        <ele>174.13999999999999</ele>
        <time>2023-08-22T15:47:11Z</time>
      </trkpt>
      <trkpt lat="58.237168025225401" lon="-4.480137974023819">
        <ele>174.13999999999999</ele>
        <time>2023-08-22T15:47:21Z</time>
      </trkpt>
      <trkpt lat="58.236985970288515" lon="-4.480075025931001">
        <ele>175.58000000000001</ele>
        <time>2023-08-22T15:47:50Z</time>
      </trkpt>
      <trkpt lat="58.236702997237444" lon="-4.479977041482925">
        <ele>176.06</ele>
        <time>2023-08-22T15:47:53Z</time>
      </trkpt>
      <trkpt lat="58.236584980040789" lon="-4.479972012341023">
        <ele>176.06</ele>
        <time>2023-08-22T15:47:54Z</time>
      </trkpt>
      <trkpt lat="58.236460005864501" lon="-4.480012999847531">
        <ele>176.06</ele>
        <time>2023-08-22T15:47:55Z</time>
      </trkpt>
      <trkpt lat="58.236325979232788" lon="-4.480083994567394">
        <ele>176.06</ele>
        <time>2023-08-22T15:47:56Z</time>
      </trkpt>
      <trkpt lat="58.236187007278204" lon="-4.480194970965385">
        <ele>176.06</ele>
        <time>2023-08-22T15:47:57Z</time>
      </trkpt>
      <trkpt lat="58.236037977039814" lon="-4.480313993990421">
        <ele>175.58000000000001</ele>
        <time>2023-08-22T15:47:58Z</time>
      </trkpt>
      <trkpt lat="58.235880983993411" lon="-4.480413990095258">
        <ele>175.58000000000001</ele>
        <time>2023-08-22T15:47:59Z</time>
      </trkpt>
      <trkpt lat="58.235714016482234" lon="-4.480485990643501">
        <ele>175.58000000000001</ele>
        <time>2023-08-22T15:48:00Z</time>
      </trkpt>
      <trkpt lat="58.234193036332726" lon="-4.481236003339291">
        <ele>176.06</ele>
        <time>2023-08-22T15:48:09Z</time>
      </trkpt>
      <trkpt lat="58.232338959351182" lon="-4.482640977948904">
        <ele>177.5</ele>
        <time>2023-08-22T15:48:20Z</time>
      </trkpt>
      <trkpt lat="58.231736971065402" lon="-4.483370035886765">
        <ele>177.5</ele>
        <time>2023-08-22T15:48:24Z</time>
      </trkpt>
      <trkpt lat="58.23162398301065" lon="-4.483613027259708">
        <ele>177.5</ele>
        <time>2023-08-22T15:48:25Z</time>
      </trkpt>
      <trkpt lat="58.231509989127517" lon="-4.483866998925805">
        <ele>177.5</ele>
        <time>2023-08-22T15:48:26Z</time>
      </trkpt>
      <trkpt lat="58.230173997581005" lon="-4.486557003110647">
        <ele>176.53999999999999</ele>
        <time>2023-08-22T15:48:36Z</time>
      </trkpt>
      <trkpt lat="58.228536006063223" lon="-4.488885998725891">
        <ele>178.94</ele>
        <time>2023-08-22T15:48:46Z</time>
      </trkpt>
      <trkpt lat="58.226313041523099" lon="-4.491427978500724">
        <ele>183.27000000000001</ele>
        <time>2023-08-22T15:48:59Z</time>
      </trkpt>
      <trkpt lat="58.22556596249342" lon="-4.492434980347753">
        <ele>184.22999999999999</ele>
        <time>2023-08-22T15:49:04Z</time>
      </trkpt>
      <trkpt lat="58.225405029952526" lon="-4.492564983665943">
        <ele>184.22999999999999</ele>
        <time>2023-08-22T15:49:05Z</time>
      </trkpt>
      <trkpt lat="58.225240996107459" lon="-4.492687024176121">
        <ele>184.22999999999999</ele>
        <time>2023-08-22T15:49:06Z</time>
      </trkpt>
      <trkpt lat="58.225065981969237" lon="-4.492747960612178">
        <ele>184.71000000000001</ele>
        <time>2023-08-22T15:49:07Z</time>
      </trkpt>
      <trkpt lat="58.224890967831016" lon="-4.492808980867267">
        <ele>185.19</ele>
        <time>2023-08-22T15:49:08Z</time>
      </trkpt>
      <trkpt lat="58.224712014198303" lon="-4.492844017222524">
        <ele>185.66999999999999</ele>
        <time>2023-08-22T15:49:09Z</time>
      </trkpt>
      <trkpt lat="58.224532976746559" lon="-4.492824990302324">
        <ele>185.66999999999999</ele>
        <time>2023-08-22T15:49:10Z</time>
      </trkpt>
      <trkpt lat="58.224356034770608" lon="-4.492805963382125">
        <ele>185.66999999999999</ele>
        <time>2023-08-22T15:49:11Z</time>
      </trkpt>
      <trkpt lat="58.224184960126877" lon="-4.492787020280957">
        <ele>185.19</ele>
        <time>2023-08-22T15:49:12Z</time>
      </trkpt>
      <trkpt lat="58.22401899844408" lon="-4.492768999189138">
        <ele>185.19</ele>
        <time>2023-08-22T15:49:13Z</time>
      </trkpt>
      <trkpt lat="58.223850019276142" lon="-4.492819039151073">
        <ele>185.19</ele>
        <time>2023-08-22T15:49:14Z</time>
      </trkpt>
      <trkpt lat="58.222515033558011" lon="-4.49358799494803">
        <ele>187.11000000000001</ele>
        <time>2023-08-22T15:49:22Z</time>
      </trkpt>
      <trkpt lat="58.220346970483661" lon="-4.495406029745936">
        <ele>188.08000000000001</ele>
        <time>2023-08-22T15:49:34Z</time>
      </trkpt>
      <trkpt lat="58.219501990824938" lon="-4.496063003316522">
        <ele>188.08000000000001</ele>
        <time>2023-08-22T15:49:39Z</time>
      </trkpt>
      <trkpt lat="58.219333011657" lon="-4.496093010529876">
        <ele>188.08000000000001</ele>
        <time>2023-08-22T15:49:40Z</time>
      </trkpt>
      <trkpt lat="58.219164032489061" lon="-4.496098961681128">
        <ele>188.08000000000001</ele>
        <time>2023-08-22T15:49:41Z</time>
      </trkpt>
      <trkpt lat="58.218992035835981" lon="-4.496053028851748">
        <ele>188.08000000000001</ele>
        <time>2023-08-22T15:49:42Z</time>
      </trkpt>
      <trkpt lat="58.218821967020631" lon="-4.496008018031716">
        <ele>188.56</ele>
        <time>2023-08-22T15:49:43Z</time>
      </trkpt>
      <trkpt lat="58.218659022822976" lon="-4.495964013040066">
        <ele>188.56</ele>
        <time>2023-08-22T15:49:44Z</time>
      </trkpt>
      <trkpt lat="58.218488031998277" lon="-4.495945991948247">
        <ele>188.56</ele>
        <time>2023-08-22T15:49:45Z</time>
      </trkpt>
      <trkpt lat="58.218313017860055" lon="-4.495958983898163">
        <ele>189.03999999999999</ele>
        <time>2023-08-22T15:49:46Z</time>
      </trkpt>
      <trkpt lat="58.21813004091382" lon="-4.496030984446406">
        <ele>189.03999999999999</ele>
        <time>2023-08-22T15:49:47Z</time>
      </trkpt>
      <trkpt lat="58.217945974320173" lon="-4.49612301774323">
        <ele>189.03999999999999</ele>
        <time>2023-08-22T15:49:48Z</time>
      </trkpt>
      <trkpt lat="58.21660503745079" lon="-4.496732968837023">
        <ele>190.47999999999999</ele>
        <time>2023-08-22T15:49:55Z</time>
      </trkpt>
      <trkpt lat="58.216422982513905" lon="-4.496740009635687">
        <ele>190.96000000000001</ele>
        <time>2023-08-22T15:49:56Z</time>
      </trkpt>
      <trkpt lat="58.216236988082528" lon="-4.496714025735855">
        <ele>191.44</ele>
        <time>2023-08-22T15:49:57Z</time>
      </trkpt>
      <trkpt lat="58.215032005682588" lon="-4.496544962748885">
        <ele>193.84</ele>
        <time>2023-08-22T15:50:04Z</time>
      </trkpt>
      <trkpt lat="58.214890016242862" lon="-4.496589973568916">
        <ele>193.84</ele>
        <time>2023-08-22T15:50:05Z</time>
      </trkpt>
      <trkpt lat="58.214750960469246" lon="-4.496647976338863">
        <ele>194.31999999999999</ele>
        <time>2023-08-22T15:50:06Z</time>
      </trkpt>
      <trkpt lat="58.214604025706649" lon="-4.496773034334183">
        <ele>194.80000000000001</ele>
        <time>2023-08-22T15:50:07Z</time>
      </trkpt>
      <trkpt lat="58.214448038488626" lon="-4.496904965490103">
        <ele>194.80000000000001</ele>
        <time>2023-08-22T15:50:08Z</time>
      </trkpt>
      <trkpt lat="58.213979993015528" lon="-4.497280977666378">
        <ele>195.28</ele>
        <time>2023-08-22T15:50:11Z</time>
      </trkpt>
      <trkpt lat="58.213827023282647" lon="-4.497357001528144">
        <ele>195.28</ele>
        <time>2023-08-22T15:50:12Z</time>
      </trkpt>
      <trkpt lat="58.213672041893005" lon="-4.497365970164537">
        <ele>194.80000000000001</ele>
        <time>2023-08-22T15:50:13Z</time>
      </trkpt>
      <trkpt lat="58.213513037189841" lon="-4.49734996072948">
        <ele>194.80000000000001</ele>
        <time>2023-08-22T15:50:14Z</time>
      </trkpt>
      <trkpt lat="58.213349003344774" lon="-4.497333029285073">
        <ele>194.80000000000001</ele>
        <time>2023-08-22T15:50:15Z</time>
      </trkpt>
      <trkpt lat="58.211860964074731" lon="-4.497251976281405">
        <ele>195.28</ele>
        <time>2023-08-22T15:50:25Z</time>
      </trkpt>
      <trkpt lat="58.210516003891826" lon="-4.497766960412264">
        <ele>196.25</ele>
        <time>2023-08-22T15:50:34Z</time>
      </trkpt>
      <trkpt lat="58.209294006228447" lon="-4.498525019735098">
        <ele>197.69</ele>
        <time>2023-08-22T15:50:43Z</time>
      </trkpt>
      <trkpt lat="58.207990033552051" lon="-4.499383997172117">
        <ele>200.56999999999999</ele>
        <time>2023-08-22T15:50:54Z</time>
      </trkpt>
      <trkpt lat="58.206840958446264" lon="-4.500193018466234">
        <ele>207.30000000000001</ele>
        <time>2023-08-22T15:51:01Z</time>
      </trkpt>
      <trkpt lat="58.206673990935087" lon="-4.500350011512637">
        <ele>208.74000000000001</ele>
        <time>2023-08-22T15:51:02Z</time>
      </trkpt>
      <trkpt lat="58.205128032714128" lon="-4.502645982429385">
        <ele>218.36000000000001</ele>
        <time>2023-08-22T15:51:12Z</time>
      </trkpt>
      <trkpt lat="58.203624989837408" lon="-4.505932023748756">
        <ele>229.88999999999999</ele>
        <time>2023-08-22T15:51:24Z</time>
      </trkpt>
      <trkpt lat="58.202809011563659" lon="-4.50888697989285">
        <ele>239.50999999999999</ele>
        <time>2023-08-22T15:51:33Z</time>
      </trkpt>
      <trkpt lat="58.202079031616449" lon="-4.511863980442286">
        <ele>249.59999999999999</ele>
        <time>2023-08-22T15:51:42Z</time>
      </trkpt>
      <trkpt lat="58.200630974024534" lon="-4.514765962958336">
        <ele>259.69</ele>
        <time>2023-08-22T15:51:52Z</time>
      </trkpt>
      <trkpt lat="58.199157016351819" lon="-4.516530018299818">
        <ele>265.94</ele>
        <time>2023-08-22T15:52:00Z</time>
      </trkpt>
      <trkpt lat="58.197717005386949" lon="-4.51743601821363">
        <ele>268.82999999999998</ele>
        <time>2023-08-22T15:52:08Z</time>
      </trkpt>
      <trkpt lat="58.196977972984314" lon="-4.517392013221979">
        <ele>268.82999999999998</ele>
        <time>2023-08-22T15:52:12Z</time>
      </trkpt>
      <trkpt lat="58.196802036836743" lon="-4.517311966046691">
        <ele>268.82999999999998</ele>
        <time>2023-08-22T15:52:13Z</time>
      </trkpt>
      <trkpt lat="58.19662400521338" lon="-4.517213981598616">
        <ele>268.35000000000002</ele>
        <time>2023-08-22T15:52:14Z</time>
      </trkpt>
      <trkpt lat="58.195058014243841" lon="-4.515766007825732">
        <ele>264.98000000000002</ele>
        <time>2023-08-22T15:52:23Z</time>
      </trkpt>
      <trkpt lat="58.193641975522041" lon="-4.514744002372026">
        <ele>259.69</ele>
        <time>2023-08-22T15:52:30Z</time>
      </trkpt>
      <trkpt lat="58.191377017647028" lon="-4.514425992965698">
        <ele>252.47999999999999</ele>
        <time>2023-08-22T15:52:40Z</time>
      </trkpt>
      <trkpt lat="58.189655961468816" lon="-4.514287021011114">
        <ele>247.68000000000001</ele>
        <time>2023-08-22T15:52:48Z</time>
      </trkpt>
      <trkpt lat="58.189472984522581" lon="-4.514167997986078">
        <ele>247.19999999999999</ele>
        <time>2023-08-22T15:52:49Z</time>
      </trkpt>
      <trkpt lat="58.189287995919585" lon="-4.514046963304281">
        <ele>246.72</ele>
        <time>2023-08-22T15:52:50Z</time>
      </trkpt>
      <trkpt lat="58.187248008325696" lon="-4.512716000899673">
        <ele>237.09999999999999</ele>
        <time>2023-08-22T15:53:00Z</time>
      </trkpt>
      <trkpt lat="58.185644969344139" lon="-4.511735988780856">
        <ele>227.49000000000001</ele>
        <time>2023-08-22T15:53:09Z</time>
      </trkpt>
      <trkpt lat="58.184544006362557" lon="-4.511451004073024">
        <ele>224.12</ele>
        <time>2023-08-22T15:53:15Z</time>
      </trkpt>
      <trkpt lat="58.184371003881097" lon="-4.511498026549816">
        <ele>224.12</ele>
        <time>2023-08-22T15:53:16Z</time>
      </trkpt>
      <trkpt lat="58.184201018884778" lon="-4.511552006006241">
        <ele>224.12</ele>
        <time>2023-08-22T15:53:17Z</time>
      </trkpt>
      <trkpt lat="58.182754972949624" lon="-4.512799987569451">
        <ele>229.88999999999999</ele>
        <time>2023-08-22T15:53:25Z</time>
      </trkpt>
      <trkpt lat="58.180798972025514" lon="-4.514824971556664">
        <ele>236.62</ele>
        <time>2023-08-22T15:53:36Z</time>
      </trkpt>
      <trkpt lat="58.179470021277666" lon="-4.515523016452789">
        <ele>237.09999999999999</ele>
        <time>2023-08-22T15:53:43Z</time>
      </trkpt>
      <trkpt lat="58.17928503267467" lon="-4.515499966219068">
        <ele>237.09999999999999</ele>
        <time>2023-08-22T15:53:44Z</time>
      </trkpt>
      <trkpt lat="58.179096020758152" lon="-4.515453027561307">
        <ele>237.09999999999999</ele>
        <time>2023-08-22T15:53:45Z</time>
      </trkpt>
      <trkpt lat="58.177189975976944" lon="-4.514405960217118">
        <ele>235.66</ele>
        <time>2023-08-22T15:53:55Z</time>
      </trkpt>
      <trkpt lat="58.175147976726294" lon="-4.512571999803186">
        <ele>231.33000000000001</ele>
        <time>2023-08-22T15:54:06Z</time>
      </trkpt>
      <trkpt lat="58.173965038731694" lon="-4.511138023808599">
        <ele>227.49000000000001</ele>
        <time>2023-08-22T15:54:15Z</time>
      </trkpt>
      <trkpt lat="58.172782016918063" lon="-4.50970396399498">
        <ele>224.12</ele>
        <time>2023-08-22T15:54:24Z</time>
      </trkpt>
      <trkpt lat="58.171940976753831" lon="-4.508684976026416">
        <ele>222.19999999999999</ele>
        <time>2023-08-22T15:54:31Z</time>
      </trkpt>
      <trkpt lat="58.170764995738864" lon="-4.507549982517958">
        <ele>218.84</ele>
        <time>2023-08-22T15:54:38Z</time>
      </trkpt>
      <trkpt lat="58.168711010366678" lon="-4.505471019074321">
        <ele>212.11000000000001</ele>
        <time>2023-08-22T15:54:49Z</time>
      </trkpt>
      <trkpt lat="58.167542992159724" lon="-4.503189967945218">
        <ele>207.30000000000001</ele>
        <time>2023-08-22T15:54:57Z</time>
      </trkpt>
      <trkpt lat="58.166215969249606" lon="-4.500530976802111">
        <ele>202.00999999999999</ele>
        <time>2023-08-22T15:55:06Z</time>
      </trkpt>
      <trkpt lat="58.163438960909843" lon="-4.496412025764585">
        <ele>193.84</ele>
        <time>2023-08-22T15:55:21Z</time>
      </trkpt>
      <trkpt lat="58.161112982779741" lon="-4.493327988311648">
        <ele>193.84</ele>
        <time>2023-08-22T15:55:34Z</time>
      </trkpt>
      <trkpt lat="58.159685041755438" lon="-4.49189099483192">
        <ele>194.31999999999999</ele>
        <time>2023-08-22T15:55:42Z</time>
      </trkpt>
      <trkpt lat="58.156802002340555" lon="-4.489436019212008">
        <ele>197.21000000000001</ele>
        <time>2023-08-22T15:55:57Z</time>
      </trkpt>
      <trkpt lat="58.153871018439531" lon="-4.486730005592108">
        <ele>196.72999999999999</ele>
        <time>2023-08-22T15:56:12Z</time>
      </trkpt>
      <trkpt lat="58.151965979486704" lon="-4.484791019931436">
        <ele>195.77000000000001</ele>
        <time>2023-08-22T15:56:23Z</time>
      </trkpt>
      <trkpt lat="58.151287967339158" lon="-4.483771026134491">
        <ele>196.25</ele>
        <time>2023-08-22T15:56:28Z</time>
      </trkpt>
      <trkpt lat="58.149896990507841" lon="-4.480694029480219">
        <ele>197.69</ele>
        <time>2023-08-22T15:56:39Z</time>
      </trkpt>
      <trkpt lat="58.148747999221087" lon="-4.478896027430892">
        <ele>200.09</ele>
        <time>2023-08-22T15:56:47Z</time>
      </trkpt>
      <trkpt lat="58.147860020399094" lon="-4.476586980745196">
        <ele>200.56999999999999</ele>
        <time>2023-08-22T15:56:54Z</time>
      </trkpt>
      <trkpt lat="58.146796021610498" lon="-4.473033975809813">
        <ele>202.49000000000001</ele>
        <time>2023-08-22T15:57:04Z</time>
      </trkpt>
      <trkpt lat="58.146037040278316" lon="-4.470629962161183">
        <ele>202.97999999999999</ele>
        <time>2023-08-22T15:57:12Z</time>
      </trkpt>
      <trkpt lat="58.145930003374815" lon="-4.470464000478387">
        <ele>202.49000000000001</ele>
        <time>2023-08-22T15:57:13Z</time>
      </trkpt>
      <trkpt lat="58.145807040855289" lon="-4.47034103795886">
        <ele>202.49000000000001</ele>
        <time>2023-08-22T15:57:14Z</time>
      </trkpt>
      <trkpt lat="58.145666979253292" lon="-4.470245987176895">
        <ele>202.49000000000001</ele>
        <time>2023-08-22T15:57:15Z</time>
      </trkpt>
      <trkpt lat="58.145513003692031" lon="-4.470184966921806">
        <ele>202.49000000000001</ele>
        <time>2023-08-22T15:57:16Z</time>
      </trkpt>
      <trkpt lat="58.145352993160486" lon="-4.470121013000608">
        <ele>202.00999999999999</ele>
        <time>2023-08-22T15:57:17Z</time>
      </trkpt>
      <trkpt lat="58.145179990679026" lon="-4.470114978030324">
        <ele>202.00999999999999</ele>
        <time>2023-08-22T15:57:18Z</time>
      </trkpt>
      <trkpt lat="58.144998019561172" lon="-4.470128975808621">
        <ele>202.00999999999999</ele>
        <time>2023-08-22T15:57:19Z</time>
      </trkpt>
      <trkpt lat="58.144154967740178" lon="-4.47019100189209">
        <ele>201.05000000000001</ele>
        <time>2023-08-22T15:57:24Z</time>
      </trkpt>
      <trkpt lat="58.144015995785594" lon="-4.470144985243678">
        <ele>201.05000000000001</ele>
        <time>2023-08-22T15:57:25Z</time>
      </trkpt>
      <trkpt lat="58.143896972760558" lon="-4.470031997188926">
        <ele>201.05000000000001</ele>
        <time>2023-08-22T15:57:26Z</time>
      </trkpt>
      <trkpt lat="58.143780967220664" lon="-4.469863018020988">
        <ele>201.53</ele>
        <time>2023-08-22T15:57:27Z</time>
      </trkpt>
      <trkpt lat="58.143652975559235" lon="-4.469678029417992">
        <ele>201.53</ele>
        <time>2023-08-22T15:57:28Z</time>
      </trkpt>
      <trkpt lat="58.143088035285473" lon="-4.468918964266777">
        <ele>202.00999999999999</ele>
        <time>2023-08-22T15:57:32Z</time>
      </trkpt>
      <trkpt lat="58.142928024753928" lon="-4.468762977048755">
        <ele>202.49000000000001</ele>
        <time>2023-08-22T15:57:33Z</time>
      </trkpt>
      <trkpt lat="58.142749993130565" lon="-4.468674967065454">
        <ele>202.49000000000001</ele>
        <time>2023-08-22T15:57:34Z</time>
      </trkpt>
      <trkpt lat="58.141070008277893" lon="-4.467747006565332">
        <ele>202.97999999999999</ele>
        <time>2023-08-22T15:57:43Z</time>
      </trkpt>
      <trkpt lat="58.139867959544063" lon="-4.466698011383414">
        <ele>201.53</ele>
        <time>2023-08-22T15:57:50Z</time>
      </trkpt>
      <trkpt lat="58.139713983982801" lon="-4.46647496894002">
        <ele>201.05000000000001</ele>
        <time>2023-08-22T15:57:51Z</time>
      </trkpt>
      <trkpt lat="58.138318983837962" lon="-4.464338002726436">
        <ele>200.56999999999999</ele>
        <time>2023-08-22T15:58:00Z</time>
      </trkpt>
      <trkpt lat="58.136899005621672" lon="-4.46301500312984">
        <ele>202.00999999999999</ele>
        <time>2023-08-22T15:58:08Z</time>
      </trkpt>
      <trkpt lat="58.136710999533534" lon="-4.462978038936853">
        <ele>202.00999999999999</ele>
        <time>2023-08-22T15:58:09Z</time>
      </trkpt>
      <trkpt lat="58.136518970131874" lon="-4.46294903755188">
        <ele>202.00999999999999</ele>
        <time>2023-08-22T15:58:10Z</time>
      </trkpt>
      <trkpt lat="58.134826999157667" lon="-4.462633961811662">
        <ele>203.94</ele>
        <time>2023-08-22T15:58:19Z</time>
      </trkpt>
      <trkpt lat="58.133254973217845" lon="-4.462123000994325">
        <ele>201.53</ele>
        <time>2023-08-22T15:58:27Z</time>
      </trkpt>
      <trkpt lat="58.13309202902019" lon="-4.461985034868121">
        <ele>201.53</ele>
        <time>2023-08-22T15:58:28Z</time>
      </trkpt>
      <trkpt lat="58.132932018488646" lon="-4.461832987144589">
        <ele>201.05000000000001</ele>
        <time>2023-08-22T15:58:29Z</time>
      </trkpt>
      <trkpt lat="58.13131196424365" lon="-4.46000799536705">
        <ele>199.13</ele>
        <time>2023-08-22T15:58:39Z</time>
      </trkpt>
      <trkpt lat="58.12931003049016" lon="-4.458079989999533">
        <ele>195.77000000000001</ele>
        <time>2023-08-22T15:58:49Z</time>
      </trkpt>
      <trkpt lat="58.126920014619827" lon="-4.455883009359241">
        <ele>189.03999999999999</ele>
        <time>2023-08-22T15:59:01Z</time>
      </trkpt>
      <trkpt lat="58.12529400922358" lon="-4.453957015648484">
        <ele>182.31</ele>
        <time>2023-08-22T15:59:10Z</time>
      </trkpt>
      <trkpt lat="58.124379962682724" lon="-4.45257400162518">
        <ele>179.41999999999999</ele>
        <time>2023-08-22T15:59:17Z</time>
      </trkpt>
      <trkpt lat="58.124317014589906" lon="-4.452470988035202">
        <ele>178.94</ele>
        <time>2023-08-22T15:59:18Z</time>
      </trkpt>
      <trkpt lat="58.123808987438679" lon="-4.451645035296679">
        <ele>177.97999999999999</ele>
        <time>2023-08-22T15:59:23Z</time>
      </trkpt>
      <trkpt lat="58.122596964240074" lon="-4.449669001623988">
        <ele>176.06</ele>
        <time>2023-08-22T15:59:31Z</time>
      </trkpt>
      <trkpt lat="58.121037008240819" lon="-4.447311004623771">
        <ele>171.72999999999999</ele>
        <time>2023-08-22T15:59:41Z</time>
      </trkpt>
      <trkpt lat="58.118595024570823" lon="-4.444461995735765">
        <ele>165</ele>
        <time>2023-08-22T15:59:54Z</time>
      </trkpt>
      <trkpt lat="58.11584098264575" lon="-4.441248960793018">
        <ele>156.83000000000001</ele>
        <time>2023-08-22T16:00:08Z</time>
      </trkpt>
      <trkpt lat="58.115218039602041" lon="-4.440631968900561">
        <ele>155.38999999999999</ele>
        <time>2023-08-22T16:00:12Z</time>
      </trkpt>
      <trkpt lat="58.114763991907239" lon="-4.440254028886557">
        <ele>155.38999999999999</ele>
        <time>2023-08-22T16:00:15Z</time>
      </trkpt>
      <trkpt lat="58.113532019779086" lon="-4.438858022913337">
        <ele>154.43000000000001</ele>
        <time>2023-08-22T16:00:22Z</time>
      </trkpt>
      <trkpt lat="58.111667968332767" lon="-4.437108971178532">
        <ele>152.03</ele>
        <time>2023-08-22T16:00:31Z</time>
      </trkpt>
      <trkpt lat="58.108862964436412" lon="-4.434666987508535">
        <ele>148.18000000000001</ele>
        <time>2023-08-22T16:00:45Z</time>
      </trkpt>
      <trkpt lat="58.107212986797094" lon="-4.433097979053855">
        <ele>146.74000000000001</ele>
        <time>2023-08-22T16:00:54Z</time>
      </trkpt>
      <trkpt lat="58.105378020554781" lon="-4.430813994258642">
        <ele>144.81999999999999</ele>
        <time>2023-08-22T16:01:04Z</time>
      </trkpt>
      <trkpt lat="58.104484006762505" lon="-4.429700961336494">
        <ele>143.37</ele>
        <time>2023-08-22T16:01:10Z</time>
      </trkpt>
      <trkpt lat="58.103882018476725" lon="-4.428952960297465">
        <ele>142.88999999999999</ele>
        <time>2023-08-22T16:01:17Z</time>
      </trkpt>
      <trkpt lat="58.102772003039718" lon="-4.427572041749954">
        <ele>140.97</ele>
        <time>2023-08-22T16:01:24Z</time>
      </trkpt>
      <trkpt lat="58.100374024361372" lon="-4.424595963209868">
        <ele>140.00999999999999</ele>
        <time>2023-08-22T16:01:37Z</time>
      </trkpt>
      <trkpt lat="58.098740978166461" lon="-4.422896029427648">
        <ele>137.13</ele>
        <time>2023-08-22T16:01:47Z</time>
      </trkpt>
      <trkpt lat="58.096902994439006" lon="-4.422066975384951">
        <ele>132.80000000000001</ele>
        <time>2023-08-22T16:01:56Z</time>
      </trkpt>
      <trkpt lat="58.094549020752311" lon="-4.421129962429404">
        <ele>132.31999999999999</ele>
        <time>2023-08-22T16:02:07Z</time>
      </trkpt>
      <trkpt lat="58.092539040371776" lon="-4.420157996937633">
        <ele>131.84</ele>
        <time>2023-08-22T16:02:17Z</time>
      </trkpt>
      <trkpt lat="58.091766983270645" lon="-4.41952901892364">
        <ele>132.31999999999999</ele>
        <time>2023-08-22T16:02:22Z</time>
      </trkpt>
      <trkpt lat="58.091656006872654" lon="-4.419374037533999">
        <ele>132.31999999999999</ele>
        <time>2023-08-22T16:02:23Z</time>
      </trkpt>
      <trkpt lat="58.091561961919069" lon="-4.419222995638847">
        <ele>132.80000000000001</ele>
        <time>2023-08-22T16:02:24Z</time>
      </trkpt>
      <trkpt lat="58.091315031051636" lon="-4.418784035369754">
        <ele>132.80000000000001</ele>
        <time>2023-08-22T16:02:27Z</time>
      </trkpt>
      <trkpt lat="58.091206988319755" lon="-4.418701976537705">
        <ele>132.31999999999999</ele>
        <time>2023-08-22T16:02:28Z</time>
      </trkpt>
      <trkpt lat="58.091112021356821" lon="-4.4186279643327">
        <ele>131.84</ele>
        <time>2023-08-22T16:02:29Z</time>
      </trkpt>
      <trkpt lat="58.090987969189882" lon="-4.418642967939377">
        <ele>131.84</ele>
        <time>2023-08-22T16:02:30Z</time>
      </trkpt>
      <trkpt lat="58.090861989185214" lon="-4.418657971546054">
        <ele>131.36000000000001</ele>
        <time>2023-08-22T16:02:31Z</time>
      </trkpt>
      <trkpt lat="58.090733997523785" lon="-4.418679010123015">
        <ele>130.88</ele>
        <time>2023-08-22T16:02:32Z</time>
      </trkpt>
      <trkpt lat="58.090613968670368" lon="-4.4187540281564">
        <ele>130.88</ele>
        <time>2023-08-22T16:02:33Z</time>
      </trkpt>
      <trkpt lat="58.090506009757519" lon="-4.418822005391121">
        <ele>130.88</ele>
        <time>2023-08-22T16:02:34Z</time>
      </trkpt>
      <trkpt lat="58.090402996167541" lon="-4.4188869651407">
        <ele>130.40000000000001</ele>
        <time>2023-08-22T16:02:35Z</time>
      </trkpt>
      <trkpt lat="58.090297970920801" lon="-4.418998025357723">
        <ele>130.40000000000001</ele>
        <time>2023-08-22T16:02:36Z</time>
      </trkpt>
      <trkpt lat="58.090065959841013" lon="-4.419239005073905">
        <ele>130.40000000000001</ele>
        <time>2023-08-22T16:02:38Z</time>
      </trkpt>
      <trkpt lat="58.08992899954319" lon="-4.419326009228826">
        <ele>130.40000000000001</ele>
        <time>2023-08-22T16:02:39Z</time>
      </trkpt>
      <trkpt lat="58.08977703563869" lon="-4.419391974806786">
        <ele>129.91999999999999</ele>
        <time>2023-08-22T16:02:40Z</time>
      </trkpt>
      <trkpt lat="58.089618030935526" lon="-4.41942198202014">
        <ele>129.91999999999999</ele>
        <time>2023-08-22T16:02:41Z</time>
      </trkpt>
      <trkpt lat="58.089455002918839" lon="-4.419452995061874">
        <ele>129.91999999999999</ele>
        <time>2023-08-22T16:02:42Z</time>
      </trkpt>
      <trkpt lat="58.088216995820403" lon="-4.419316034764051">
        <ele>128.94999999999999</ele>
        <time>2023-08-22T16:02:50Z</time>
      </trkpt>
      <trkpt lat="58.087152997031808" lon="-4.418685967102647">
        <ele>127.03</ele>
        <time>2023-08-22T16:03:00Z</time>
      </trkpt>
      <trkpt lat="58.086374988779426" lon="-4.418329987674952">
        <ele>129.43000000000001</ele>
        <time>2023-08-22T16:03:09Z</time>
      </trkpt>
      <trkpt lat="58.085318030789495" lon="-4.417026014998555">
        <ele>128.94999999999999</ele>
        <time>2023-08-22T16:03:23Z</time>
      </trkpt>
      <trkpt lat="58.084909999743104" lon="-4.416588982567191">
        <ele>127.98999999999999</ele>
        <time>2023-08-22T16:03:28Z</time>
      </trkpt>
      <trkpt lat="58.084826013073325" lon="-4.416519999504089">
        <ele>127.98999999999999</ele>
        <time>2023-08-22T16:03:29Z</time>
      </trkpt>
      <trkpt lat="58.083769977092743" lon="-4.415852967649698">
        <ele>128.94999999999999</ele>
        <time>2023-08-22T16:03:41Z</time>
      </trkpt>
      <trkpt lat="58.082643030211329" lon="-4.415140002965927">
        <ele>128.47</ele>
        <time>2023-08-22T16:03:50Z</time>
      </trkpt>
      <trkpt lat="58.081483980640769" lon="-4.414428966119885">
        <ele>126.55</ele>
        <time>2023-08-22T16:03:57Z</time>
      </trkpt>
      <trkpt lat="58.081328999251127" lon="-4.414386972784996">
        <ele>126.06999999999999</ele>
        <time>2023-08-22T16:03:58Z</time>
      </trkpt>
      <trkpt lat="58.081181980669498" lon="-4.41437004134059">
        <ele>126.06999999999999</ele>
        <time>2023-08-22T16:03:59Z</time>
      </trkpt>
      <trkpt lat="58.081038985401392" lon="-4.414413962513208">
        <ele>126.06999999999999</ele>
        <time>2023-08-22T16:04:00Z</time>
      </trkpt>
      <trkpt lat="58.080891966819763" lon="-4.414486968889833">
        <ele>125.59</ele>
        <time>2023-08-22T16:04:01Z</time>
      </trkpt>
      <trkpt lat="58.080746959894896" lon="-4.414615966379643">
        <ele>125.59</ele>
        <time>2023-08-22T16:04:02Z</time>
      </trkpt>
      <trkpt lat="58.080594995990396" lon="-4.414748987182975">
        <ele>125.59</ele>
        <time>2023-08-22T16:04:03Z</time>
      </trkpt>
      <trkpt lat="58.080441020429134" lon="-4.414885025471449">
        <ele>125.59</ele>
        <time>2023-08-22T16:04:04Z</time>
      </trkpt>
      <trkpt lat="58.079803995788097" lon="-4.415423981845379">
        <ele>125.59</ele>
        <time>2023-08-22T16:04:08Z</time>
      </trkpt>
      <trkpt lat="58.079648008570075" lon="-4.415476033464074">
        <ele>125.59</ele>
        <time>2023-08-22T16:04:09Z</time>
      </trkpt>
      <trkpt lat="58.079499984160066" lon="-4.415524983778596">
        <ele>125.59</ele>
        <time>2023-08-22T16:04:10Z</time>
      </trkpt>
      <trkpt lat="58.079363023862243" lon="-4.415479972958565">
        <ele>126.06999999999999</ele>
        <time>2023-08-22T16:04:11Z</time>
      </trkpt>
      <trkpt lat="58.079254981130362" lon="-4.415416019037366">
        <ele>126.06999999999999</ele>
        <time>2023-08-22T16:04:12Z</time>
      </trkpt>
      <trkpt lat="58.079156996682286" lon="-4.415358016267419">
        <ele>126.06999999999999</ele>
        <time>2023-08-22T16:04:13Z</time>
      </trkpt>
      <trkpt lat="58.079063035547733" lon="-4.415302025154233">
        <ele>126.06999999999999</ele>
        <time>2023-08-22T16:04:14Z</time>
      </trkpt>
      <trkpt lat="58.078115964308381" lon="-4.41473800688982">
        <ele>125.59</ele>
        <time>2023-08-22T16:04:22Z</time>
      </trkpt>
      <trkpt lat="58.077304009348154" lon="-4.414230985566974">
        <ele>124.63</ele>
        <time>2023-08-22T16:04:27Z</time>
      </trkpt>
      <trkpt lat="58.07716503739357" lon="-4.41404901444912">
        <ele>124.63</ele>
        <time>2023-08-22T16:04:28Z</time>
      </trkpt>
      <trkpt lat="58.077018018811941" lon="-4.41385698504746">
        <ele>124.15000000000001</ele>
        <time>2023-08-22T16:04:29Z</time>
      </trkpt>
      <trkpt lat="58.075741035863757" lon="-4.41252401098609">
        <ele>121.73999999999999</ele>
        <time>2023-08-22T16:04:37Z</time>
      </trkpt>
      <trkpt lat="58.074305970221758" lon="-4.412170965224505">
        <ele>119.81999999999999</ele>
        <time>2023-08-22T16:04:45Z</time>
      </trkpt>
      <trkpt lat="58.074130034074187" lon="-4.412196027114987">
        <ele>119.34</ele>
        <time>2023-08-22T16:04:46Z</time>
      </trkpt>
      <trkpt lat="58.073954014107585" lon="-4.412249000743032">
        <ele>119.34</ele>
        <time>2023-08-22T16:04:47Z</time>
      </trkpt>
      <trkpt lat="58.07267895899713" lon="-4.413217026740313">
        <ele>119.81999999999999</ele>
        <time>2023-08-22T16:04:55Z</time>
      </trkpt>
      <trkpt lat="58.072389028966427" lon="-4.413473010063171">
        <ele>119.81999999999999</ele>
        <time>2023-08-22T16:04:57Z</time>
      </trkpt>
      <trkpt lat="58.07095798663795" lon="-4.41409201361239">
        <ele>118.86</ele>
        <time>2023-08-22T16:05:05Z</time>
      </trkpt>
      <trkpt lat="58.068825965747237" lon="-4.414727026596665">
        <ele>117.90000000000001</ele>
        <time>2023-08-22T16:05:17Z</time>
      </trkpt>
      <trkpt lat="58.066065972670913" lon="-4.415453989058733">
        <ele>114.05</ele>
        <time>2023-08-22T16:05:31Z</time>
      </trkpt>
      <trkpt lat="58.062870036810637" lon="-4.416281031444669">
        <ele>111.17</ele>
        <time>2023-08-22T16:05:48Z</time>
      </trkpt>
      <trkpt lat="58.061097012832761" lon="-4.416911015287042">
        <ele>109.25</ele>
        <time>2023-08-22T16:05:58Z</time>
      </trkpt>
      <trkpt lat="58.060683030635118" lon="-4.417077982798219">
        <ele>107.81</ele>
        <time>2023-08-22T16:06:01Z</time>
      </trkpt>
      <trkpt lat="58.05939900688827" lon="-4.417600007727742">
        <ele>104.44</ele>
        <time>2023-08-22T16:06:10Z</time>
      </trkpt>
      <trkpt lat="58.058018004521728" lon="-4.418164025992155">
        <ele>103.48</ele>
        <time>2023-08-22T16:06:18Z</time>
      </trkpt>
      <trkpt lat="58.055950021371245" lon="-4.419009005650878">
        <ele>99.629999999999995</ele>
        <time>2023-08-22T16:06:28Z</time>
      </trkpt>
      <trkpt lat="58.05318902246654" lon="-4.419994968920946">
        <ele>99.150000000000006</ele>
        <time>2023-08-22T16:06:41Z</time>
      </trkpt>
      <trkpt lat="58.049917984753847" lon="-4.421062991023064">
        <ele>97.709999999999994</ele>
        <time>2023-08-22T16:06:55Z</time>
      </trkpt>
      <trkpt lat="58.047091020271182" lon="-4.421986006200314">
        <ele>101.56</ele>
        <time>2023-08-22T16:07:07Z</time>
      </trkpt>
      <trkpt lat="58.045216994360089" lon="-4.422696959227324">
        <ele>103.95999999999999</ele>
        <time>2023-08-22T16:07:15Z</time>
      </trkpt>
      <trkpt lat="58.043926013633609" lon="-4.423563983291388">
        <ele>103.48</ele>
        <time>2023-08-22T16:07:21Z</time>
      </trkpt>
      <trkpt lat="58.041756022721529" lon="-4.424339979887009">
        <ele>101.56</ele>
        <time>2023-08-22T16:07:30Z</time>
      </trkpt>
      <trkpt lat="58.039624001830816" lon="-4.424893017858267">
        <ele>100.11</ele>
        <time>2023-08-22T16:07:39Z</time>
      </trkpt>
      <trkpt lat="58.038685983046889" lon="-4.425035007297993">
        <ele>101.08</ele>
        <time>2023-08-22T16:07:43Z</time>
      </trkpt>
      <trkpt lat="58.038478028029203" lon="-4.424998965114355">
        <ele>101.56</ele>
        <time>2023-08-22T16:07:44Z</time>
      </trkpt>
      <trkpt lat="58.038270995020866" lon="-4.424908021464944">
        <ele>101.56</ele>
        <time>2023-08-22T16:07:45Z</time>
      </trkpt>
      <trkpt lat="58.038054993376136" lon="-4.42481498233974">
        <ele>101.56</ele>
        <time>2023-08-22T16:07:46Z</time>
      </trkpt>
      <trkpt lat="58.037836980074644" lon="-4.424720015376806">
        <ele>102.04000000000001</ele>
        <time>2023-08-22T16:07:47Z</time>
      </trkpt>
      <trkpt lat="58.036007964983582" lon="-4.423539005219936">
        <ele>102.04000000000001</ele>
        <time>2023-08-22T16:07:56Z</time>
      </trkpt>
      <trkpt lat="58.034487990662456" lon="-4.422121038660407">
        <ele>101.08</ele>
        <time>2023-08-22T16:08:04Z</time>
      </trkpt>
      <trkpt lat="58.034133017063141" lon="-4.421728011220694">
        <ele>100.11</ele>
        <time>2023-08-22T16:08:06Z</time>
      </trkpt>
      <trkpt lat="58.032768024131656" lon="-4.419835964217782">
        <ele>97.709999999999994</ele>
        <time>2023-08-22T16:08:14Z</time>
      </trkpt>
      <trkpt lat="58.03217601031065" lon="-4.418791998177767">
        <ele>97.709999999999994</ele>
        <time>2023-08-22T16:08:18Z</time>
      </trkpt>
      <trkpt lat="58.03209001198411" lon="-4.418468037620187">
        <ele>97.709999999999994</ele>
        <time>2023-08-22T16:08:19Z</time>
      </trkpt>
      <trkpt lat="58.032021028921008" lon="-4.418119015172124">
        <ele>97.709999999999994</ele>
        <time>2023-08-22T16:08:20Z</time>
      </trkpt>
      <trkpt lat="58.031950034201145" lon="-4.417758006602526">
        <ele>98.189999999999998</ele>
        <time>2023-08-22T16:08:21Z</time>
      </trkpt>
      <trkpt lat="58.031880967319012" lon="-4.41740102134645">
        <ele>98.189999999999998</ele>
        <time>2023-08-22T16:08:22Z</time>
      </trkpt>
      <trkpt lat="58.031815001741052" lon="-4.417061973363161">
        <ele>98.189999999999998</ele>
        <time>2023-08-22T16:08:23Z</time>
      </trkpt>
      <trkpt lat="58.031712993979454" lon="-4.416762990877032">
        <ele>98.189999999999998</ele>
        <time>2023-08-22T16:08:24Z</time>
      </trkpt>
      <trkpt lat="58.031599000096321" lon="-4.416467025876045">
        <ele>98.189999999999998</ele>
        <time>2023-08-22T16:08:25Z</time>
      </trkpt>
      <trkpt lat="58.031480982899666" lon="-4.416161002591252">
        <ele>97.709999999999994</ele>
        <time>2023-08-22T16:08:26Z</time>
      </trkpt>
      <trkpt lat="58.031355002894998" lon="-4.415882974863052">
        <ele>98.189999999999998</ele>
        <time>2023-08-22T16:08:27Z</time>
      </trkpt>
      <trkpt lat="58.030982008203864" lon="-4.41505802795291">
        <ele>98.189999999999998</ele>
        <time>2023-08-22T16:08:30Z</time>
      </trkpt>
      <trkpt lat="58.030912019312382" lon="-4.414728032425046">
        <ele>98.670000000000002</ele>
        <time>2023-08-22T16:08:31Z</time>
      </trkpt>
      <trkpt lat="58.030848987400532" lon="-4.414381021633744">
        <ele>99.150000000000006</ele>
        <time>2023-08-22T16:08:32Z</time>
      </trkpt>
      <trkpt lat="58.030408015474677" lon="-4.412264004349709">
        <ele>99.629999999999995</ele>
        <time>2023-08-22T16:08:38Z</time>
      </trkpt>
      <trkpt lat="58.030315982177854" lon="-4.411981031298637">
        <ele>100.11</ele>
        <time>2023-08-22T16:08:39Z</time>
      </trkpt>
      <trkpt lat="58.030119007453322" lon="-4.411555984988809">
        <ele>99.629999999999995</ele>
        <time>2023-08-22T16:08:41Z</time>
      </trkpt>
      <trkpt lat="58.029939970001578" lon="-4.411203023046255">
        <ele>99.629999999999995</ele>
        <time>2023-08-22T16:08:43Z</time>
      </trkpt>
      <trkpt lat="58.02910203114152" lon="-4.409608030691743">
        <ele>93.870000000000005</ele>
        <time>2023-08-22T16:08:53Z</time>
      </trkpt>
      <trkpt lat="58.02848001010716" lon="-4.407689999789">
        <ele>87.140000000000001</ele>
        <time>2023-08-22T16:09:03Z</time>
      </trkpt>
      <trkpt lat="58.028188990429044" lon="-4.406070029363036">
        <ele>88.579999999999998</ele>
        <time>2023-08-22T16:09:12Z</time>
      </trkpt>
      <trkpt lat="58.02815898321569" lon="-4.405896021053195">
        <ele>88.579999999999998</ele>
        <time>2023-08-22T16:09:13Z</time>
      </trkpt>
      <trkpt lat="58.027856983244419" lon="-4.404652984812856">
        <ele>89.060000000000002</ele>
        <time>2023-08-22T16:09:20Z</time>
      </trkpt>
      <trkpt lat="58.027722034603357" lon="-4.404350984841585">
        <ele>89.060000000000002</ele>
        <time>2023-08-22T16:09:22Z</time>
      </trkpt>
      <trkpt lat="58.026921981945634" lon="-4.402806032449007">
        <ele>88.579999999999998</ele>
        <time>2023-08-22T16:09:34Z</time>
      </trkpt>
      <trkpt lat="58.026542030274868" lon="-4.401542041450739">
        <ele>87.620000000000005</ele>
        <time>2023-08-22T16:09:42Z</time>
      </trkpt>
      <trkpt lat="58.026502970606089" lon="-4.401484038680792">
        <ele>87.620000000000005</ele>
        <time>2023-08-22T16:09:43Z</time>
      </trkpt>
      <trkpt lat="58.026388976722956" lon="-4.401449002325535">
        <ele>87.620000000000005</ele>
        <time>2023-08-22T16:09:44Z</time>
      </trkpt>
      <trkpt lat="58.026300966739655" lon="-4.401422012597323">
        <ele>87.620000000000005</ele>
        <time>2023-08-22T16:09:45Z</time>
      </trkpt>
      <trkpt lat="58.026222009211779" lon="-4.401398040354252">
        <ele>87.620000000000005</ele>
        <time>2023-08-22T16:09:46Z</time>
      </trkpt>
      <trkpt lat="58.026130981743336" lon="-4.401418995112181">
        <ele>87.620000000000005</ele>
        <time>2023-08-22T16:09:47Z</time>
      </trkpt>
      <trkpt lat="58.024917030707002" lon="-4.401729041710496">
        <ele>83.769999999999996</ele>
        <time>2023-08-22T16:10:00Z</time>
      </trkpt>
      <trkpt lat="58.024016981944442" lon="-4.40223396755755">
        <ele>85.209999999999994</ele>
        <time>2023-08-22T16:10:11Z</time>
      </trkpt>
      <trkpt lat="58.023961996659636" lon="-4.402281995862722">
        <ele>85.689999999999998</ele>
        <time>2023-08-22T16:10:12Z</time>
      </trkpt>
      <trkpt lat="58.023914974182844" lon="-4.402321977540851">
        <ele>85.689999999999998</ele>
        <time>2023-08-22T16:10:13Z</time>
      </trkpt>
      <trkpt lat="58.023795029148459" lon="-4.402424991130829">
        <ele>85.689999999999998</ele>
        <time>2023-08-22T16:10:16Z</time>
      </trkpt>
      <trkpt lat="58.023754041641951" lon="-4.402460027486086">
        <ele>86.180000000000007</ele>
        <time>2023-08-22T16:10:17Z</time>
      </trkpt>
      <trkpt lat="58.023491017520428" lon="-4.402686003595591">
        <ele>86.180000000000007</ele>
        <time>2023-08-22T16:10:26Z</time>
      </trkpt>
      <trkpt lat="58.023290019482374" lon="-4.402858000248671">
        <ele>85.689999999999998</ele>
        <time>2023-08-22T16:10:35Z</time>
      </trkpt>
      <trkpt lat="58.022645032033324" lon="-4.403423024341464">
        <ele>85.209999999999994</ele>
        <time>2023-08-22T16:10:43Z</time>
      </trkpt>
      <trkpt lat="58.021645992994308" lon="-4.404129032045603">
        <ele>84.25</ele>
        <time>2023-08-22T16:10:53Z</time>
      </trkpt>
      <trkpt lat="58.02153903990984" lon="-4.404171025380492">
        <ele>84.25</ele>
        <time>2023-08-22T16:10:54Z</time>
      </trkpt>
      <trkpt lat="58.021429991349578" lon="-4.404182005673647">
        <ele>83.769999999999996</ele>
        <time>2023-08-22T16:10:55Z</time>
      </trkpt>
      <trkpt lat="58.020544024184346" lon="-4.404013026505709">
        <ele>83.769999999999996</ele>
        <time>2023-08-22T16:11:04Z</time>
      </trkpt>
      <trkpt lat="58.020491972565651" lon="-4.404002968221903">
        <ele>83.769999999999996</ele>
        <time>2023-08-22T16:11:05Z</time>
      </trkpt>
      <trkpt lat="58.020431958138943" lon="-4.40410397015512">
        <ele>84.25</ele>
        <time>2023-08-22T16:11:06Z</time>
      </trkpt>
      <trkpt lat="58.020411003381014" lon="-4.404214024543762">
        <ele>84.25</ele>
        <time>2023-08-22T16:11:07Z</time>
      </trkpt>
      <trkpt lat="58.020387031137943" lon="-4.404344027861953">
        <ele>84.730000000000004</ele>
        <time>2023-08-22T16:11:08Z</time>
      </trkpt>
      <trkpt lat="58.020362975075841" lon="-4.404477970674634">
        <ele>84.730000000000004</ele>
        <time>2023-08-22T16:11:09Z</time>
      </trkpt>
      <trkpt lat="58.020314024761319" lon="-4.404739988967776">
        <ele>85.209999999999994</ele>
        <time>2023-08-22T16:11:11Z</time>
      </trkpt>
      <trkpt lat="58.020277982577682" lon="-4.404873009771109">
        <ele>85.209999999999994</ele>
        <time>2023-08-22T16:11:12Z</time>
      </trkpt>
      <trkpt lat="58.020236995071173" lon="-4.404980968683958">
        <ele>85.209999999999994</ele>
        <time>2023-08-22T16:11:13Z</time>
      </trkpt>
      <trkpt lat="58.02014596760273" lon="-4.405051963403821">
        <ele>85.209999999999994</ele>
        <time>2023-08-22T16:11:14Z</time>
      </trkpt>
      <trkpt lat="58.020043959841132" lon="-4.405131004750729">
        <ele>85.209999999999994</ele>
        <time>2023-08-22T16:11:15Z</time>
      </trkpt>
      <trkpt lat="58.019982017576694" lon="-4.405120024457574">
        <ele>84.730000000000004</ele>
        <time>2023-08-22T16:11:16Z</time>
      </trkpt>
      <trkpt lat="58.019890990108252" lon="-4.405102003365755">
        <ele>84.730000000000004</ele>
        <time>2023-08-22T16:11:17Z</time>
      </trkpt>
      <trkpt lat="58.019793005660176" lon="-4.405083982273936">
        <ele>84.730000000000004</ele>
        <time>2023-08-22T16:11:18Z</time>
      </trkpt>
      <trkpt lat="58.018729006871581" lon="-4.404858006164432">
        <ele>84.730000000000004</ele>
        <time>2023-08-22T16:11:27Z</time>
      </trkpt>
      <trkpt lat="58.018422983586788" lon="-4.404916008934379">
        <ele>84.25</ele>
        <time>2023-08-22T16:11:29Z</time>
      </trkpt>
      <trkpt lat="58.01827697083354" lon="-4.404963031411171">
        <ele>84.25</ele>
        <time>2023-08-22T16:11:30Z</time>
      </trkpt>
      <trkpt lat="58.018141016364098" lon="-4.405079036951065">
        <ele>84.25</ele>
        <time>2023-08-22T16:11:31Z</time>
      </trkpt>
      <trkpt lat="58.018006989732385" lon="-4.405194958671928">
        <ele>83.769999999999996</ele>
        <time>2023-08-22T16:11:32Z</time>
      </trkpt>
      <trkpt lat="58.017898024991155" lon="-4.405383970588446">
        <ele>84.25</ele>
        <time>2023-08-22T16:11:33Z</time>
      </trkpt>
      <trkpt lat="58.017786964774132" lon="-4.405577005818486">
        <ele>84.25</ele>
        <time>2023-08-22T16:11:34Z</time>
      </trkpt>
      <trkpt lat="58.017676994204521" lon="-4.405770041048527">
        <ele>84.25</ele>
        <time>2023-08-22T16:11:35Z</time>
      </trkpt>
      <trkpt lat="58.017372982576489" lon="-4.406302962452173">
        <ele>84.730000000000004</ele>
        <time>2023-08-22T16:11:38Z</time>
      </trkpt>
      <trkpt lat="58.017261000350118" lon="-4.406440006569028">
        <ele>84.25</ele>
        <time>2023-08-22T16:11:39Z</time>
      </trkpt>
      <trkpt lat="58.017141977325082" lon="-4.406526004895568">
        <ele>84.25</ele>
        <time>2023-08-22T16:11:40Z</time>
      </trkpt>
      <trkpt lat="58.017003005370498" lon="-4.406548971310258">
        <ele>84.730000000000004</ele>
        <time>2023-08-22T16:11:41Z</time>
      </trkpt>
      <trkpt lat="58.016870990395546" lon="-4.406516030430794">
        <ele>84.730000000000004</ele>
        <time>2023-08-22T16:11:42Z</time>
      </trkpt>
      <trkpt lat="58.016724977642298" lon="-4.406471019610763">
        <ele>84.25</ele>
        <time>2023-08-22T16:11:43Z</time>
      </trkpt>
      <trkpt lat="58.016581982374191" lon="-4.406347973272204">
        <ele>84.25</ele>
        <time>2023-08-22T16:11:44Z</time>
      </trkpt>
      <trkpt lat="58.016429012641311" lon="-4.406215958297253">
        <ele>83.769999999999996</ele>
        <time>2023-08-22T16:11:45Z</time>
      </trkpt>
      <trkpt lat="58.015037029981613" lon="-4.405022040009499">
        <ele>80.890000000000001</ele>
        <time>2023-08-22T16:11:53Z</time>
      </trkpt>
      <trkpt lat="58.013266017660499" lon="-4.403833989053965">
        <ele>78.480000000000004</ele>
        <time>2023-08-22T16:12:02Z</time>
      </trkpt>
      <trkpt lat="58.012147033587098" lon="-4.403310036286712">
        <ele>79.930000000000007</ele>
        <time>2023-08-22T16:12:08Z</time>
      </trkpt>
      <trkpt lat="58.011990040540695" lon="-4.403267959132791">
        <ele>80.409999999999997</ele>
        <time>2023-08-22T16:12:09Z</time>
      </trkpt>
      <trkpt lat="58.011836986988783" lon="-4.40335001796484">
        <ele>81.370000000000005</ele>
        <time>2023-08-22T16:12:10Z</time>
      </trkpt>
      <trkpt lat="58.011677982285619" lon="-4.403435010462999">
        <ele>82.329999999999998</ele>
        <time>2023-08-22T16:12:11Z</time>
      </trkpt>
      <trkpt lat="58.011535992845893" lon="-4.403595020994544">
        <ele>83.769999999999996</ele>
        <time>2023-08-22T16:12:12Z</time>
      </trkpt>
      <trkpt lat="58.011419987305999" lon="-4.403808005154133">
        <ele>84.730000000000004</ele>
        <time>2023-08-22T16:12:13Z</time>
      </trkpt>
      <trkpt lat="58.011304987594485" lon="-4.40403800457716">
        <ele>85.689999999999998</ele>
        <time>2023-08-22T16:12:14Z</time>
      </trkpt>
      <trkpt lat="58.011232987046242" lon="-4.404341010376811">
        <ele>87.140000000000001</ele>
        <time>2023-08-22T16:12:15Z</time>
      </trkpt>
      <trkpt lat="58.011159980669618" lon="-4.404650973156095">
        <ele>88.099999999999994</ele>
        <time>2023-08-22T16:12:16Z</time>
      </trkpt>
      <trkpt lat="58.010980021208525" lon="-4.405546998605132">
        <ele>91.939999999999998</ele>
        <time>2023-08-22T16:12:19Z</time>
      </trkpt>
      <trkpt lat="58.010945990681648" lon="-4.405839024111629">
        <ele>93.870000000000005</ele>
        <time>2023-08-22T16:12:20Z</time>
      </trkpt>
      <trkpt lat="58.010948002338409" lon="-4.406146975234151">
        <ele>95.310000000000002</ele>
        <time>2023-08-22T16:12:21Z</time>
      </trkpt>
      <trkpt lat="58.010965017601848" lon="-4.409072007983923">
        <ele>106.36</ele>
        <time>2023-08-22T16:12:29Z</time>
      </trkpt>
      <trkpt lat="58.010892011225224" lon="-4.410215970128775">
        <ele>108.29000000000001</ele>
        <time>2023-08-22T16:12:32Z</time>
      </trkpt>
      <trkpt lat="58.010853035375476" lon="-4.410575972869992">
        <ele>108.77</ele>
        <time>2023-08-22T16:12:33Z</time>
      </trkpt>
      <trkpt lat="58.010787991806865" lon="-4.410922983661294">
        <ele>109.25</ele>
        <time>2023-08-22T16:12:34Z</time>
      </trkpt>
      <trkpt lat="58.01006899215281" lon="-4.414095031097531">
        <ele>115.01000000000001</ele>
        <time>2023-08-22T16:12:44Z</time>
      </trkpt>
      <trkpt lat="58.009438002482057" lon="-4.416763996705413">
        <ele>121.26000000000001</ele>
        <time>2023-08-22T16:12:53Z</time>
      </trkpt>
      <trkpt lat="58.008780023083091" lon="-4.419845016673207">
        <ele>123.19</ele>
        <time>2023-08-22T16:13:03Z</time>
      </trkpt>
      <trkpt lat="58.008681032806635" lon="-4.42008700221777">
        <ele>123.19</ele>
        <time>2023-08-22T16:13:04Z</time>
      </trkpt>
      <trkpt lat="58.008579025045037" lon="-4.420336028560996">
        <ele>123.19</ele>
        <time>2023-08-22T16:13:05Z</time>
      </trkpt>
      <trkpt lat="58.007429027929902" lon="-4.422696959227324">
        <ele>121.26000000000001</ele>
        <time>2023-08-22T16:13:14Z</time>
      </trkpt>
      <trkpt lat="58.006675997748971" lon="-4.424479035660625">
        <ele>117.90000000000001</ele>
        <time>2023-08-22T16:13:21Z</time>
      </trkpt>
      <trkpt lat="58.006620006635785" lon="-4.424710040912032">
        <ele>116.94</ele>
        <time>2023-08-22T16:13:22Z</time>
      </trkpt>
      <trkpt lat="58.00661196000874" lon="-4.424939034506679">
        <ele>116.45999999999999</ele>
        <time>2023-08-22T16:13:23Z</time>
      </trkpt>
      <trkpt lat="58.00661196000874" lon="-4.425178002566099">
        <ele>115.98</ele>
        <time>2023-08-22T16:13:24Z</time>
      </trkpt>
      <trkpt lat="58.006642973050475" lon="-4.425396015867591">
        <ele>115.5</ele>
        <time>2023-08-22T16:13:25Z</time>
      </trkpt>
      <trkpt lat="58.006683038547635" lon="-4.425646970048547">
        <ele>114.53</ele>
        <time>2023-08-22T16:13:26Z</time>
      </trkpt>
      <trkpt lat="58.006725031882524" lon="-4.42591099999845">
        <ele>114.05</ele>
        <time>2023-08-22T16:13:27Z</time>
      </trkpt>
      <trkpt lat="58.006881019100547" lon="-4.427750995382667">
        <ele>109.73</ele>
        <time>2023-08-22T16:13:34Z</time>
      </trkpt>
      <trkpt lat="58.006842965260148" lon="-4.427991975098848">
        <ele>108.77</ele>
        <time>2023-08-22T16:13:35Z</time>
      </trkpt>
      <trkpt lat="58.006792003288865" lon="-4.428222980350256">
        <ele>108.29000000000001</ele>
        <time>2023-08-22T16:13:36Z</time>
      </trkpt>
      <trkpt lat="58.00671698525548" lon="-4.428415009751916">
        <ele>107.81</ele>
        <time>2023-08-22T16:13:37Z</time>
      </trkpt>
      <trkpt lat="58.006632998585701" lon="-4.428606033325195">
        <ele>108.29000000000001</ele>
        <time>2023-08-22T16:13:38Z</time>
      </trkpt>
      <trkpt lat="58.006521016359329" lon="-4.428750034421682">
        <ele>108.29000000000001</ele>
        <time>2023-08-22T16:13:39Z</time>
      </trkpt>
      <trkpt lat="58.006398975849152" lon="-4.428907027468085">
        <ele>108.77</ele>
        <time>2023-08-22T16:13:40Z</time>
      </trkpt>
      <trkpt lat="58.006262015551329" lon="-4.429039964452386">
        <ele>108.77</ele>
        <time>2023-08-22T16:13:41Z</time>
      </trkpt>
      <trkpt lat="58.006098987534642" lon="-4.429151024669409">
        <ele>108.77</ele>
        <time>2023-08-22T16:13:42Z</time>
      </trkpt>
      <trkpt lat="58.004815969616175" lon="-4.429933978244662">
        <ele>108.77</ele>
        <time>2023-08-22T16:13:49Z</time>
      </trkpt>
      <trkpt lat="58.00463299266994" lon="-4.429957028478384">
        <ele>108.29000000000001</ele>
        <time>2023-08-22T16:13:50Z</time>
      </trkpt>
      <trkpt lat="58.00431196577847" lon="-4.430049983784556">
        <ele>108.29000000000001</ele>
        <time>2023-08-22T16:13:52Z</time>
      </trkpt>
      <trkpt lat="58.004177017137408" lon="-4.430118966847658">
        <ele>108.29000000000001</ele>
        <time>2023-08-22T16:13:53Z</time>
      </trkpt>
      <trkpt lat="58.004051959142089" lon="-4.430255005136132">
        <ele>108.29000000000001</ele>
        <time>2023-08-22T16:13:54Z</time>
      </trkpt>
      <trkpt lat="58.003919022157788" lon="-4.430401017889381">
        <ele>108.77</ele>
        <time>2023-08-22T16:13:55Z</time>
      </trkpt>
      <trkpt lat="58.003776026889682" lon="-4.430555999279022">
        <ele>108.77</ele>
        <time>2023-08-22T16:13:56Z</time>
      </trkpt>
      <trkpt lat="58.002982009202242" lon="-4.431353034451604">
        <ele>108.29000000000001</ele>
        <time>2023-08-22T16:14:02Z</time>
      </trkpt>
      <trkpt lat="58.002287987619638" lon="-4.43192501552403">
        <ele>107.81</ele>
        <time>2023-08-22T16:14:08Z</time>
      </trkpt>
      <trkpt lat="58.001991016790271" lon="-4.432158032432199">
        <ele>108.77</ele>
        <time>2023-08-22T16:14:10Z</time>
      </trkpt>
      <trkpt lat="58.001851039007306" lon="-4.432216035202146">
        <ele>109.25</ele>
        <time>2023-08-22T16:14:11Z</time>
      </trkpt>
      <trkpt lat="58.001722041517496" lon="-4.432268003001809">
        <ele>109.73</ele>
        <time>2023-08-22T16:14:12Z</time>
      </trkpt>
      <trkpt lat="58.001595977693796" lon="-4.432319970801473">
        <ele>110.20999999999999</ele>
        <time>2023-08-22T16:14:13Z</time>
      </trkpt>
      <trkpt lat="58.00147402100265" lon="-4.432415021583438">
        <ele>110.69</ele>
        <time>2023-08-22T16:14:14Z</time>
      </trkpt>
      <trkpt lat="58.001346029341221" lon="-4.432545024901629">
        <ele>111.17</ele>
        <time>2023-08-22T16:14:15Z</time>
      </trkpt>
      <trkpt lat="58.001213008537889" lon="-4.432681985199451">
        <ele>111.65000000000001</ele>
        <time>2023-08-22T16:14:16Z</time>
      </trkpt>
      <trkpt lat="58.000625018030405" lon="-4.433283973485231">
        <ele>113.09</ele>
        <time>2023-08-22T16:14:20Z</time>
      </trkpt>
      <trkpt lat="58.000480011105537" lon="-4.433334013447166">
        <ele>114.05</ele>
        <time>2023-08-22T16:14:21Z</time>
      </trkpt>
      <trkpt lat="57.999983970075846" lon="-4.433541968464851">
        <ele>115.98</ele>
        <time>2023-08-22T16:14:24Z</time>
      </trkpt>
      <trkpt lat="57.999817002564669" lon="-4.433640036731958">
        <ele>116.94</ele>
        <time>2023-08-22T16:14:25Z</time>
      </trkpt>
      <trkpt lat="57.999663027003407" lon="-4.433790994808078">
        <ele>117.42</ele>
        <time>2023-08-22T16:14:26Z</time>
      </trkpt>
      <trkpt lat="57.999510979279876" lon="-4.4339660089463">
        <ele>117.90000000000001</ele>
        <time>2023-08-22T16:14:27Z</time>
      </trkpt>
      <trkpt lat="57.999362032860518" lon="-4.434140017256141">
        <ele>118.86</ele>
        <time>2023-08-22T16:14:28Z</time>
      </trkpt>
      <trkpt lat="57.998993983492255" lon="-4.434657013043761">
        <ele>120.78</ele>
        <time>2023-08-22T16:14:31Z</time>
      </trkpt>
      <trkpt lat="57.998922988772392" lon="-4.434871003031731">
        <ele>121.26000000000001</ele>
        <time>2023-08-22T16:14:32Z</time>
      </trkpt>
      <trkpt lat="57.998851994052529" lon="-4.4350849930197">
        <ele>122.22</ele>
        <time>2023-08-22T16:14:33Z</time>
      </trkpt>
      <trkpt lat="57.998794997110963" lon="-4.435336031019688">
        <ele>122.70999999999999</ele>
        <time>2023-08-22T16:14:34Z</time>
      </trkpt>
      <trkpt lat="57.998748980462551" lon="-4.435611041262746">
        <ele>123.19</ele>
        <time>2023-08-22T16:14:35Z</time>
      </trkpt>
      <trkpt lat="57.99870103597641" lon="-4.435898959636688">
        <ele>123.67</ele>
        <time>2023-08-22T16:14:36Z</time>
      </trkpt>
      <trkpt lat="57.998650996014476" lon="-4.437137972563505">
        <ele>127.03</ele>
        <time>2023-08-22T16:14:40Z</time>
      </trkpt>
      <trkpt lat="57.998603973537683" lon="-4.438761966302991">
        <ele>130.88</ele>
        <time>2023-08-22T16:14:45Z</time>
      </trkpt>
      <trkpt lat="57.998097036033869" lon="-4.441425986588001">
        <ele>136.16</ele>
        <time>2023-08-22T16:14:53Z</time>
      </trkpt>
      <trkpt lat="57.997215008363128" lon="-4.445535968989134">
        <ele>140.49000000000001</ele>
        <time>2023-08-22T16:15:05Z</time>
      </trkpt>
      <trkpt lat="57.99672500230372" lon="-4.447864964604378">
        <ele>139.53</ele>
        <time>2023-08-22T16:15:12Z</time>
      </trkpt>
      <trkpt lat="57.996685020625591" lon="-4.448163025081158">
        <ele>139.05000000000001</ele>
        <time>2023-08-22T16:15:13Z</time>
      </trkpt>
      <trkpt lat="57.996574966236949" lon="-4.450627975165844">
        <ele>134.24000000000001</ele>
        <time>2023-08-22T16:15:20Z</time>
      </trkpt>
      <trkpt lat="57.996570020914078" lon="-4.45094003342092">
        <ele>133.75999999999999</ele>
        <time>2023-08-22T16:15:21Z</time>
      </trkpt>
      <trkpt lat="57.996525010094047" lon="-4.45121998898685">
        <ele>133.28</ele>
        <time>2023-08-22T16:15:22Z</time>
      </trkpt>
      <trkpt lat="57.996469018980861" lon="-4.451491981744766">
        <ele>133.28</ele>
        <time>2023-08-22T16:15:23Z</time>
      </trkpt>
      <trkpt lat="57.996398024260998" lon="-4.451740002259612">
        <ele>133.28</ele>
        <time>2023-08-22T16:15:24Z</time>
      </trkpt>
      <trkpt lat="57.996302973479033" lon="-4.451990034431219">
        <ele>133.28</ele>
        <time>2023-08-22T16:15:25Z</time>
      </trkpt>
      <trkpt lat="57.996201971545815" lon="-4.45225297473371">
        <ele>133.28</ele>
        <time>2023-08-22T16:15:26Z</time>
      </trkpt>
      <trkpt lat="57.994971005246043" lon="-4.455007016658783">
        <ele>136.63999999999999</ele>
        <time>2023-08-22T16:15:36Z</time>
      </trkpt>
      <trkpt lat="57.993941036984324" lon="-4.456530008465052">
        <ele>140.97</ele>
        <time>2023-08-22T16:15:43Z</time>
      </trkpt>
      <trkpt lat="57.99272901378572" lon="-4.458133969455957">
        <ele>148.66</ele>
        <time>2023-08-22T16:15:51Z</time>
      </trkpt>
      <trkpt lat="57.99096898175776" lon="-4.460077984258533">
        <ele>159.24000000000001</ele>
        <time>2023-08-22T16:16:02Z</time>
      </trkpt>
      <trkpt lat="57.990225004032254" lon="-4.461679011583328">
        <ele>164.03999999999999</ele>
        <time>2023-08-22T16:16:08Z</time>
      </trkpt>
      <trkpt lat="57.989874975755811" lon="-4.462682995945215">
        <ele>167.41</ele>
        <time>2023-08-22T16:16:12Z</time>
      </trkpt>
      <trkpt lat="57.989833988249302" lon="-4.462938979268074">
        <ele>167.88999999999999</ele>
        <time>2023-08-22T16:16:13Z</time>
      </trkpt>
      <trkpt lat="57.989775985479355" lon="-4.46329403668642">
        <ele>170.77000000000001</ele>
        <time>2023-08-22T16:16:17Z</time>
      </trkpt>
      <trkpt lat="57.989713037386537" lon="-4.46368102915585">
        <ele>171.72999999999999</ele>
        <time>2023-08-22T16:16:25Z</time>
      </trkpt>
      <trkpt lat="57.989651011303067" lon="-4.464060980826616">
        <ele>172.21000000000001</ele>
        <time>2023-08-22T16:16:27Z</time>
      </trkpt>
      <trkpt lat="57.989598959684372" lon="-4.46426298469305">
        <ele>172.21000000000001</ele>
        <time>2023-08-22T16:16:28Z</time>
      </trkpt>
      <trkpt lat="57.989527964964509" lon="-4.464485021308065">
        <ele>172.69</ele>
        <time>2023-08-22T16:16:29Z</time>
      </trkpt>
      <trkpt lat="57.988801002502441" lon="-4.466213034465909">
        <ele>172.69</ele>
        <time>2023-08-22T16:16:36Z</time>
      </trkpt>
      <trkpt lat="57.987579004839063" lon="-4.467782964929938">
        <ele>175.58000000000001</ele>
        <time>2023-08-22T16:16:44Z</time>
      </trkpt>
      <trkpt lat="57.986968969926238" lon="-4.468587040901184">
        <ele>175.58000000000001</ele>
        <time>2023-08-22T16:16:48Z</time>
      </trkpt>
      <trkpt lat="57.986845001578331" lon="-4.468854004517198">
        <ele>175.09999999999999</ele>
        <time>2023-08-22T16:16:49Z</time>
      </trkpt>
      <trkpt lat="57.98673402518034" lon="-4.469133038073778">
        <ele>175.09999999999999</ele>
        <time>2023-08-22T16:16:50Z</time>
      </trkpt>
      <trkpt lat="57.9866480268538" lon="-4.469436965882778">
        <ele>174.62</ele>
        <time>2023-08-22T16:16:51Z</time>
      </trkpt>
      <trkpt lat="57.986581977456808" lon="-4.469724968075752">
        <ele>174.13999999999999</ele>
        <time>2023-08-22T16:16:52Z</time>
      </trkpt>
      <trkpt lat="57.986549036577344" lon="-4.470043983310461">
        <ele>174.13999999999999</ele>
        <time>2023-08-22T16:16:53Z</time>
      </trkpt>
      <trkpt lat="57.986529003828764" lon="-4.470369033515453">
        <ele>174.13999999999999</ele>
        <time>2023-08-22T16:16:54Z</time>
      </trkpt>
      <trkpt lat="57.986535038799047" lon="-4.4707309640944">
        <ele>174.62</ele>
        <time>2023-08-22T16:16:55Z</time>
      </trkpt>
      <trkpt lat="57.98654199577868" lon="-4.471116028726101">
        <ele>175.09999999999999</ele>
        <time>2023-08-22T16:16:56Z</time>
      </trkpt>
      <trkpt lat="57.986490027979016" lon="-4.474604995921254">
        <ele>180.87</ele>
        <time>2023-08-22T16:17:05Z</time>
      </trkpt>
      <trkpt lat="57.986343009397388" lon="-4.476802982389927">
        <ele>184.71000000000001</ele>
        <time>2023-08-22T16:17:12Z</time>
      </trkpt>
      <trkpt lat="57.986204959452152" lon="-4.479298023506999">
        <ele>186.63</ele>
        <time>2023-08-22T16:17:20Z</time>
      </trkpt>
      <trkpt lat="57.986059030517936" lon="-4.482206040993333">
        <ele>188.08000000000001</ele>
        <time>2023-08-22T16:17:28Z</time>
      </trkpt>
      <trkpt lat="57.985890973359346" lon="-4.484064979478717">
        <ele>190.47999999999999</ele>
        <time>2023-08-22T16:17:34Z</time>
      </trkpt>
      <trkpt lat="57.985758958384395" lon="-4.484613994136453">
        <ele>191.44</ele>
        <time>2023-08-22T16:17:36Z</time>
      </trkpt>
      <trkpt lat="57.985677989199758" lon="-4.484870983287692">
        <ele>191.44</ele>
        <time>2023-08-22T16:17:37Z</time>
      </trkpt>
      <trkpt lat="57.985589979216456" lon="-4.485136019065976">
        <ele>191.44</ele>
        <time>2023-08-22T16:17:38Z</time>
      </trkpt>
      <trkpt lat="57.984618013724685" lon="-4.487277008593082">
        <ele>189.03999999999999</ele>
        <time>2023-08-22T16:17:46Z</time>
      </trkpt>
      <trkpt lat="57.983583016321063" lon="-4.490029960870743">
        <ele>185.66999999999999</ele>
        <time>2023-08-22T16:17:55Z</time>
      </trkpt>
      <trkpt lat="57.982505019754171" lon="-4.49373995885253">
        <ele>179.90000000000001</ele>
        <time>2023-08-22T16:18:06Z</time>
      </trkpt>
      <trkpt lat="57.981430040672421" lon="-4.49758498929441">
        <ele>173.16999999999999</ele>
        <time>2023-08-22T16:18:18Z</time>
      </trkpt>
      <trkpt lat="57.98076300881803" lon="-4.500577999278903">
        <ele>169.81</ele>
        <time>2023-08-22T16:18:27Z</time>
      </trkpt>
      <trkpt lat="57.980320025235415" lon="-4.502728963270783">
        <ele>169.33000000000001</ele>
        <time>2023-08-22T16:18:34Z</time>
      </trkpt>
      <trkpt lat="57.980307033285499" lon="-4.503019982948899">
        <ele>169.33000000000001</ele>
        <time>2023-08-22T16:18:35Z</time>
      </trkpt>
      <trkpt lat="57.980294041335583" lon="-4.503329023718834">
        <ele>169.33000000000001</ele>
        <time>2023-08-22T16:18:36Z</time>
      </trkpt>
      <trkpt lat="57.980292029678822" lon="-4.503648960962892">
        <ele>169.33000000000001</ele>
        <time>2023-08-22T16:18:37Z</time>
      </trkpt>
      <trkpt lat="57.980334023013711" lon="-4.503984991461039">
        <ele>169.33000000000001</ele>
        <time>2023-08-22T16:18:38Z</time>
      </trkpt>
      <trkpt lat="57.980378028005362" lon="-4.504334013909102">
        <ele>169.33000000000001</ele>
        <time>2023-08-22T16:18:39Z</time>
      </trkpt>
      <trkpt lat="57.980539966374636" lon="-4.506918992847204">
        <ele>168.84999999999999</ele>
        <time>2023-08-22T16:18:47Z</time>
      </trkpt>
      <trkpt lat="57.980524962767959" lon="-4.507203977555037">
        <ele>168.37</ele>
        <time>2023-08-22T16:18:48Z</time>
      </trkpt>
      <trkpt lat="57.980151968076825" lon="-4.509100969880819">
        <ele>165</ele>
        <time>2023-08-22T16:18:54Z</time>
      </trkpt>
      <trkpt lat="57.980067981407046" lon="-4.509479999542236">
        <ele>163.08000000000001</ele>
        <time>2023-08-22T16:18:56Z</time>
      </trkpt>
      <trkpt lat="57.980062030255795" lon="-4.509629029780626">
        <ele>162.59999999999999</ele>
        <time>2023-08-22T16:18:57Z</time>
      </trkpt>
      <trkpt lat="57.980050966143608" lon="-4.5099170319736">
        <ele>161.63999999999999</ele>
        <time>2023-08-22T16:18:59Z</time>
      </trkpt>
      <trkpt lat="57.980044009163976" lon="-4.510093973949552">
        <ele>161.16</ele>
        <time>2023-08-22T16:19:00Z</time>
      </trkpt>
      <trkpt lat="57.980025988072157" lon="-4.510530000552535">
        <ele>159.72</ele>
        <time>2023-08-22T16:19:02Z</time>
      </trkpt>
      <trkpt lat="57.980015007779002" lon="-4.510792018845677">
        <ele>159.24000000000001</ele>
        <time>2023-08-22T16:19:03Z</time>
      </trkpt>
      <trkpt lat="57.979665985330939" lon="-4.5133569650352">
        <ele>156.34999999999999</ele>
        <time>2023-08-22T16:19:12Z</time>
      </trkpt>
      <trkpt lat="57.979282010346651" lon="-4.514804016798735">
        <ele>153.94999999999999</ele>
        <time>2023-08-22T16:19:17Z</time>
      </trkpt>
      <trkpt lat="57.979248985648155" lon="-4.515099981799722">
        <ele>153.47</ele>
        <time>2023-08-22T16:19:18Z</time>
      </trkpt>
      <trkpt lat="57.979234987869859" lon="-4.515402987599373">
        <ele>152.99000000000001</ele>
        <time>2023-08-22T16:19:19Z</time>
      </trkpt>
      <trkpt lat="57.979249991476536" lon="-4.515712028369308">
        <ele>152.50999999999999</ele>
        <time>2023-08-22T16:19:20Z</time>
      </trkpt>
      <trkpt lat="57.979273041710258" lon="-4.516031965613365">
        <ele>151.53999999999999</ele>
        <time>2023-08-22T16:19:21Z</time>
      </trkpt>
      <trkpt lat="57.979382006451488" lon="-4.519432000815868">
        <ele>144.81999999999999</ele>
        <time>2023-08-22T16:19:31Z</time>
      </trkpt>
      <trkpt lat="57.979358034208417" lon="-4.519983027130365">
        <ele>143.37</ele>
        <time>2023-08-22T16:19:33Z</time>
      </trkpt>
      <trkpt lat="57.979316040873528" lon="-4.520193999633193">
        <ele>142.41</ele>
        <time>2023-08-22T16:19:34Z</time>
      </trkpt>
      <trkpt lat="57.979269018396735" lon="-4.520345963537693">
        <ele>141.44999999999999</ele>
        <time>2023-08-22T16:19:35Z</time>
      </trkpt>
      <trkpt lat="57.979199029505253" lon="-4.520474039018154">
        <ele>140.97</ele>
        <time>2023-08-22T16:19:36Z</time>
      </trkpt>
      <trkpt lat="57.979113031178713" lon="-4.520609993487597">
        <ele>140.49000000000001</ele>
        <time>2023-08-22T16:19:37Z</time>
      </trkpt>
      <trkpt lat="57.978996019810438" lon="-4.520738990977407">
        <ele>139.53</ele>
        <time>2023-08-22T16:19:38Z</time>
      </trkpt>
      <trkpt lat="57.978864004835486" lon="-4.520882992073894">
        <ele>138.56999999999999</ele>
        <time>2023-08-22T16:19:39Z</time>
      </trkpt>
      <trkpt lat="57.978295963257551" lon="-4.521583970636129">
        <ele>134.72</ele>
        <time>2023-08-22T16:19:43Z</time>
      </trkpt>
      <trkpt lat="57.978165037930012" lon="-4.521794021129608">
        <ele>133.75999999999999</ele>
        <time>2023-08-22T16:19:44Z</time>
      </trkpt>
      <trkpt lat="57.978067975491285" lon="-4.522052016109228">
        <ele>133.28</ele>
        <time>2023-08-22T16:19:45Z</time>
      </trkpt>
      <trkpt lat="57.977975020185113" lon="-4.522300958633423">
        <ele>132.31999999999999</ele>
        <time>2023-08-22T16:19:46Z</time>
      </trkpt>
      <trkpt lat="57.977902013808489" lon="-4.522559037432075">
        <ele>130.88</ele>
        <time>2023-08-22T16:19:47Z</time>
      </trkpt>
      <trkpt lat="57.977853985503316" lon="-4.522837987169623">
        <ele>129.91999999999999</ele>
        <time>2023-08-22T16:19:48Z</time>
      </trkpt>
      <trkpt lat="57.977849040180445" lon="-4.523140992969275">
        <ele>128.47</ele>
        <time>2023-08-22T16:19:49Z</time>
      </trkpt>
      <trkpt lat="57.977867983281612" lon="-4.523465037345886">
        <ele>127.51000000000001</ele>
        <time>2023-08-22T16:19:50Z</time>
      </trkpt>
      <trkpt lat="57.977893967181444" lon="-4.523804001510143">
        <ele>126.06999999999999</ele>
        <time>2023-08-22T16:19:51Z</time>
      </trkpt>
      <trkpt lat="57.977931015193462" lon="-4.52416299842298">
        <ele>125.11</ele>
        <time>2023-08-22T16:19:52Z</time>
      </trkpt>
      <trkpt lat="57.978159002959728" lon="-4.526971019804478">
        <ele>116.45999999999999</ele>
        <time>2023-08-22T16:20:00Z</time>
      </trkpt>
      <trkpt lat="57.978135030716658" lon="-4.528815038502216">
        <ele>113.09</ele>
        <time>2023-08-22T16:20:07Z</time>
      </trkpt>
      <trkpt lat="57.978136958554387" lon="-4.528834987431765">
        <ele>112.61</ele>
        <time>2023-08-22T16:20:08Z</time>
      </trkpt>
      <trkpt lat="57.978136958554387" lon="-4.528834987431765">
        <ele>112.13</ele>
        <time>2023-08-22T16:20:09Z</time>
      </trkpt>
      <trkpt lat="57.97818498685956" lon="-4.528893996030092">
        <ele>111.65000000000001</ele>
        <time>2023-08-22T16:20:17Z</time>
      </trkpt>
      <trkpt lat="57.978203007951379" lon="-4.528916962444782">
        <ele>110.69</ele>
        <time>2023-08-22T16:20:18Z</time>
      </trkpt>
      <trkpt lat="57.978280037641525" lon="-4.529004972428083">
        <ele>109.73</ele>
        <time>2023-08-22T16:20:20Z</time>
      </trkpt>
      <trkpt lat="57.978348014876246" lon="-4.529077978804708">
        <ele>109.25</ele>
        <time>2023-08-22T16:20:21Z</time>
      </trkpt>
      <trkpt lat="57.978425966575742" lon="-4.529163977131248">
        <ele>109.25</ele>
        <time>2023-08-22T16:20:22Z</time>
      </trkpt>
      <trkpt lat="57.978499978780746" lon="-4.529304960742593">
        <ele>108.77</ele>
        <time>2023-08-22T16:20:23Z</time>
      </trkpt>
      <trkpt lat="57.978566028177738" lon="-4.529472012072802">
        <ele>109.25</ele>
        <time>2023-08-22T16:20:24Z</time>
      </trkpt>
      <trkpt lat="57.978652026504278" lon="-4.529692959040403">
        <ele>109.25</ele>
        <time>2023-08-22T16:20:25Z</time>
      </trkpt>
      <trkpt lat="57.978693014010787" lon="-4.529910972341895">
        <ele>109.73</ele>
        <time>2023-08-22T16:20:26Z</time>
      </trkpt>
      <trkpt lat="57.978741964325309" lon="-4.530169973149896">
        <ele>110.20999999999999</ele>
        <time>2023-08-22T16:20:27Z</time>
      </trkpt>
      <trkpt lat="57.979118982329965" lon="-4.532329989597201">
        <ele>114.05</ele>
        <time>2023-08-22T16:20:35Z</time>
      </trkpt>
      <trkpt lat="57.979146977886558" lon="-4.532588990405202">
        <ele>114.53</ele>
        <time>2023-08-22T16:20:36Z</time>
      </trkpt>
      <trkpt lat="57.979159969836473" lon="-4.53288302756846">
        <ele>115.01000000000001</ele>
        <time>2023-08-22T16:20:37Z</time>
      </trkpt>
      <trkpt lat="57.978971041738987" lon="-4.535100962966681">
        <ele>118.86</ele>
        <time>2023-08-22T16:20:45Z</time>
      </trkpt>
      <trkpt lat="57.978494027629495" lon="-4.537317976355553">
        <ele>121.26000000000001</ele>
        <time>2023-08-22T16:20:53Z</time>
      </trkpt>
      <trkpt lat="57.978140981867909" lon="-4.539511017501354">
        <ele>119.81999999999999</ele>
        <time>2023-08-22T16:21:00Z</time>
      </trkpt>
      <trkpt lat="57.977987006306648" lon="-4.540882967412472">
        <ele>117.42</ele>
        <time>2023-08-22T16:21:04Z</time>
      </trkpt>
      <trkpt lat="57.977987006306648" lon="-4.541574977338314">
        <ele>116.45999999999999</ele>
        <time>2023-08-22T16:21:06Z</time>
      </trkpt>
      <trkpt lat="57.978134024888277" lon="-4.545488990843296">
        <ele>107.31999999999999</ele>
        <time>2023-08-22T16:21:17Z</time>
      </trkpt>
      <trkpt lat="57.978189010173082" lon="-4.54579601995647">
        <ele>106.36</ele>
        <time>2023-08-22T16:21:18Z</time>
      </trkpt>
      <trkpt lat="57.978371987119317" lon="-4.546619961038232">
        <ele>103.48</ele>
        <time>2023-08-22T16:21:21Z</time>
      </trkpt>
      <trkpt lat="57.978414986282587" lon="-4.546886002644897">
        <ele>102.52</ele>
        <time>2023-08-22T16:21:22Z</time>
      </trkpt>
      <trkpt lat="57.978410040959716" lon="-4.547165958210826">
        <ele>102.04000000000001</ele>
        <time>2023-08-22T16:21:23Z</time>
      </trkpt>
      <trkpt lat="57.978396965190768" lon="-4.547983026131988">
        <ele>101.08</ele>
        <time>2023-08-22T16:21:26Z</time>
      </trkpt>
      <trkpt lat="57.978421021252871" lon="-4.548260970041156">
        <ele>100.59999999999999</ele>
        <time>2023-08-22T16:21:27Z</time>
      </trkpt>
      <trkpt lat="57.978490004315972" lon="-4.549054987728596">
        <ele>98.670000000000002</ele>
        <time>2023-08-22T16:21:30Z</time>
      </trkpt>
      <trkpt lat="57.978483969345689" lon="-4.549269983544946">
        <ele>98.189999999999998</ele>
        <time>2023-08-22T16:21:31Z</time>
      </trkpt>
      <trkpt lat="57.978427978232503" lon="-4.549495037645102">
        <ele>97.230000000000004</ele>
        <time>2023-08-22T16:21:32Z</time>
      </trkpt>
      <trkpt lat="57.978369975462556" lon="-4.549725037068129">
        <ele>96.75</ele>
        <time>2023-08-22T16:21:33Z</time>
      </trkpt>
      <trkpt lat="57.978293029591441" lon="-4.549932992085815">
        <ele>96.269999999999996</ele>
        <time>2023-08-22T16:21:34Z</time>
      </trkpt>
      <trkpt lat="57.978193033486605" lon="-4.550066012889147">
        <ele>95.790000000000006</ele>
        <time>2023-08-22T16:21:35Z</time>
      </trkpt>
      <trkpt lat="57.978116003796458" lon="-4.550167014822364">
        <ele>95.310000000000002</ele>
        <time>2023-08-22T16:21:36Z</time>
      </trkpt>
      <trkpt lat="57.978067975491285" lon="-4.550230968743563">
        <ele>94.829999999999998</ele>
        <time>2023-08-22T16:21:37Z</time>
      </trkpt>
      <trkpt lat="57.978030005469918" lon="-4.550281008705497">
        <ele>94.349999999999994</ele>
        <time>2023-08-22T16:21:38Z</time>
      </trkpt>
      <trkpt lat="57.977991029620171" lon="-4.55033297650516">
        <ele>93.870000000000005</ele>
        <time>2023-08-22T16:21:39Z</time>
      </trkpt>
      <trkpt lat="57.977817021310329" lon="-4.550606980919838">
        <ele>92.900000000000006</ele>
        <time>2023-08-22T16:21:43Z</time>
      </trkpt>
      <trkpt lat="57.977777039632201" lon="-4.550702031701803">
        <ele>92.900000000000006</ele>
        <time>2023-08-22T16:21:44Z</time>
      </trkpt>
      <trkpt lat="57.977750971913338" lon="-4.550820970907807">
        <ele>92.420000000000002</ele>
        <time>2023-08-22T16:21:45Z</time>
      </trkpt>
      <trkpt lat="57.977750971913338" lon="-4.550990033894777">
        <ele>91.939999999999998</ele>
        <time>2023-08-22T16:21:46Z</time>
      </trkpt>
      <trkpt lat="57.977750971913338" lon="-4.551182985305786">
        <ele>91.939999999999998</ele>
        <time>2023-08-22T16:21:47Z</time>
      </trkpt>
      <trkpt lat="57.977750971913338" lon="-4.55232996493578">
        <ele>91.459999999999994</ele>
        <time>2023-08-22T16:21:52Z</time>
      </trkpt>
      <trkpt lat="57.977750971913338" lon="-4.552567005157471">
        <ele>91.459999999999994</ele>
        <time>2023-08-22T16:21:53Z</time>
      </trkpt>
      <trkpt lat="57.977550979703665" lon="-4.554662983864546">
        <ele>89.540000000000006</ele>
        <time>2023-08-22T16:22:02Z</time>
      </trkpt>
      <trkpt lat="57.977516027167439" lon="-4.555037990212441">
        <ele>87.620000000000005</ele>
        <time>2023-08-22T16:22:04Z</time>
      </trkpt>
      <trkpt lat="57.977416031062603" lon="-4.556875973939896">
        <ele>81.370000000000005</ele>
        <time>2023-08-22T16:22:13Z</time>
      </trkpt>
      <trkpt lat="57.977542011067271" lon="-4.558978993445635">
        <ele>76.560000000000002</ele>
        <time>2023-08-22T16:22:21Z</time>
      </trkpt>
      <trkpt lat="57.977649969980121" lon="-4.560532998293638">
        <ele>72.719999999999999</ele>
        <time>2023-08-22T16:22:30Z</time>
      </trkpt>
      <trkpt lat="57.977651981636882" lon="-4.561791960150003">
        <ele>69.349999999999994</ele>
        <time>2023-08-22T16:22:38Z</time>
      </trkpt>
      <trkpt lat="57.977620968595147" lon="-4.563057962805033">
        <ele>65.989999999999995</ele>
        <time>2023-08-22T16:22:46Z</time>
      </trkpt>
      <trkpt lat="57.977663967758417" lon="-4.563505975529552">
        <ele>65.030000000000001</ele>
        <time>2023-08-22T16:22:49Z</time>
      </trkpt>
      <trkpt lat="57.977729011327028" lon="-4.56393102183938">
        <ele>64.549999999999997</ele>
        <time>2023-08-22T16:22:52Z</time>
      </trkpt>
      <trkpt lat="57.977761030197144" lon="-4.564072005450726">
        <ele>64.549999999999997</ele>
        <time>2023-08-22T16:22:53Z</time>
      </trkpt>
      <trkpt lat="57.977792965248227" lon="-4.564215000718832">
        <ele>64.069999999999993</ele>
        <time>2023-08-22T16:22:54Z</time>
      </trkpt>
      <trkpt lat="57.977826995775104" lon="-4.564364030957222">
        <ele>64.069999999999993</ele>
        <time>2023-08-22T16:22:55Z</time>
      </trkpt>
      <trkpt lat="57.97786395996809" lon="-4.564527980983257">
        <ele>63.579999999999998</ele>
        <time>2023-08-22T16:22:56Z</time>
      </trkpt>
      <trkpt lat="57.977901007980108" lon="-4.564691008999944">
        <ele>63.579999999999998</ele>
        <time>2023-08-22T16:22:57Z</time>
      </trkpt>
      <trkpt lat="57.978335022926331" lon="-4.566115010529757">
        <ele>60.700000000000003</ele>
        <time>2023-08-22T16:23:04Z</time>
      </trkpt>
      <trkpt lat="57.978397971019149" lon="-4.566322965547442">
        <ele>59.740000000000002</ele>
        <time>2023-08-22T16:23:05Z</time>
      </trkpt>
      <trkpt lat="57.978560999035835" lon="-4.566922020167112">
        <ele>58.299999999999997</ele>
        <time>2023-08-22T16:23:08Z</time>
      </trkpt>
      <trkpt lat="57.978605004027486" lon="-4.56711002625525">
        <ele>57.82</ele>
        <time>2023-08-22T16:23:09Z</time>
      </trkpt>
      <trkpt lat="57.978695025667548" lon="-4.567599026486278">
        <ele>57.340000000000003</ele>
        <time>2023-08-22T16:23:12Z</time>
      </trkpt>
      <trkpt lat="57.978695025667548" lon="-4.567673038691282">
        <ele>57.340000000000003</ele>
        <time>2023-08-22T16:23:13Z</time>
      </trkpt>
      <trkpt lat="57.978669041767716" lon="-4.567751996219158">
        <ele>56.859999999999999</ele>
        <time>2023-08-22T16:23:14Z</time>
      </trkpt>
      <trkpt lat="57.97865797765553" lon="-4.567786026746035">
        <ele>56.859999999999999</ele>
        <time>2023-08-22T16:23:15Z</time>
      </trkpt>
      <trkpt lat="57.978645991533995" lon="-4.56782097928226">
        <ele>56.859999999999999</ele>
        <time>2023-08-22T16:23:16Z</time>
      </trkpt>
      <trkpt lat="57.978666024282575" lon="-4.567954000085592">
        <ele>56.369999999999997</ele>
        <time>2023-08-22T16:23:17Z</time>
      </trkpt>
      <trkpt lat="57.978697037324309" lon="-4.5680330414325">
        <ele>56.369999999999997</ele>
        <time>2023-08-22T16:23:18Z</time>
      </trkpt>
      <trkpt lat="57.978732995688915" lon="-4.568122979253531">
        <ele>56.369999999999997</ele>
        <time>2023-08-22T16:23:19Z</time>
      </trkpt>
      <trkpt lat="57.979111019521952" lon="-4.569126963615418">
        <ele>54.93</ele>
        <time>2023-08-22T16:23:27Z</time>
      </trkpt>
      <trkpt lat="57.979152007028461" lon="-4.569274988025427">
        <ele>54.93</ele>
        <time>2023-08-22T16:23:28Z</time>
      </trkpt>
      <trkpt lat="57.97919400036335" lon="-4.569427035748959">
        <ele>54.93</ele>
        <time>2023-08-22T16:23:29Z</time>
      </trkpt>
      <trkpt lat="57.97928100451827" lon="-4.569744961336255">
        <ele>55.409999999999997</ele>
        <time>2023-08-22T16:23:31Z</time>
      </trkpt>
      <trkpt lat="57.97956196591258" lon="-4.571742033585906">
        <ele>53.009999999999998</ele>
        <time>2023-08-22T16:23:42Z</time>
      </trkpt>
      <trkpt lat="57.979595996439457" lon="-4.572172025218606">
        <ele>49.649999999999999</ele>
        <time>2023-08-22T16:23:48Z</time>
      </trkpt>
      <trkpt lat="57.979595996439457" lon="-4.572178982198238">
        <ele>47.719999999999999</ele>
        <time>2023-08-22T16:23:59Z</time>
      </trkpt>
      <trkpt lat="57.97960102558136" lon="-4.572176970541477">
        <ele>47.719999999999999</ele>
        <time>2023-08-22T16:24:00Z</time>
      </trkpt>
      <trkpt lat="57.979614017531276" lon="-4.572169007733464">
        <ele>47.240000000000002</ele>
        <time>2023-08-22T16:24:01Z</time>
      </trkpt>
      <trkpt lat="57.979614017531276" lon="-4.572169007733464">
        <ele>47.240000000000002</ele>
        <time>2023-08-22T16:24:15Z</time>
      </trkpt>
    </trkseg>
  </trk>

</gpx>